<?xml version="1.0" encoding="UTF-8" standalone="no" ?>
<gpx xmlns="http://www.topografix.com/GPX/1/1" xmlns:xsi="http://www.w3.org/2001/XMLSchema-instance" xsi:schemaLocation="http://www.topografix.com/GPX/1/1 http://www.topografix.com/GPX/1/1/gpx.xsd" version="1.1" creator="VisuGPX - https://www.visugpx.com">
  <metadata>
    <name>Edirne-Mostar</name>
  </metadata>
  <trk>
    <name><![CDATA[Tour d'Europe: étape 651]]></name>
    <extensions>
      <line xmlns="http://www.topografix.com/GPX/gpx_style/0/2">
        <color>880000</color>
        <width>4</width>
      </line>
    </extensions>
    <trkseg>
      <trkpt lat="42.20188" lon="22.33429">
        <ele>694.661711</ele>
        <time>2022-04-10T07:50:49.284Z</time>
      </trkpt>
      <trkpt lat="42.20152" lon="22.33438">
        <ele>694.661711</ele>
        <time>2022-04-10T07:51:01.042Z</time>
      </trkpt>
      <trkpt lat="42.20131" lon="22.33441">
        <ele>694.661711</ele>
        <time>2022-04-10T08:17:03.057Z</time>
      </trkpt>
      <trkpt lat="42.20122" lon="22.33436">
        <ele>694.661711</ele>
        <time>2022-04-10T08:17:07.020Z</time>
      </trkpt>
      <trkpt lat="42.20112" lon="22.33429">
        <ele>694.661711</ele>
        <time>2022-04-10T08:17:11.021Z</time>
      </trkpt>
      <trkpt lat="42.20103" lon="22.33422">
        <ele>694.661711</ele>
        <time>2022-04-10T08:17:16.025Z</time>
      </trkpt>
      <trkpt lat="42.20095" lon="22.33415">
        <ele>694.663732</ele>
        <time>2022-04-10T08:17:21.022Z</time>
      </trkpt>
      <trkpt lat="42.20085" lon="22.33412">
        <ele>694.665912</ele>
        <time>2022-04-10T08:17:26.106Z</time>
      </trkpt>
      <trkpt lat="42.20076" lon="22.33407">
        <ele>694.668254</ele>
        <time>2022-04-10T08:17:31.058Z</time>
      </trkpt>
      <trkpt lat="42.20067" lon="22.33402">
        <ele>694.670506</ele>
        <time>2022-04-10T08:17:36.020Z</time>
      </trkpt>
      <trkpt lat="42.20056" lon="22.33395">
        <ele>694.673191</ele>
        <time>2022-04-10T08:17:40.007Z</time>
      </trkpt>
      <trkpt lat="42.20047" lon="22.33385">
        <ele>694.675947</ele>
        <time>2022-04-10T08:17:43.090Z</time>
      </trkpt>
      <trkpt lat="42.20036" lon="22.33376">
        <ele>694.67876</ele>
        <time>2022-04-10T08:17:46.013Z</time>
      </trkpt>
      <trkpt lat="42.20029" lon="22.33369">
        <ele>694.680878</ele>
        <time>2022-04-10T08:17:48.034Z</time>
      </trkpt>
      <trkpt lat="42.20019" lon="22.33359">
        <ele>694.683796</ele>
        <time>2022-04-10T08:17:51.011Z</time>
      </trkpt>
      <trkpt lat="42.20008" lon="22.33347">
        <ele>694.68699</ele>
        <time>2022-04-10T08:17:54.077Z</time>
      </trkpt>
      <trkpt lat="42.20001" lon="22.33338">
        <ele>694.68919</ele>
        <time>2022-04-10T08:17:56.040Z</time>
      </trkpt>
      <trkpt lat="42.19996" lon="22.33327">
        <ele>694.691361</ele>
        <time>2022-04-10T08:17:58.022Z</time>
      </trkpt>
      <trkpt lat="42.19991" lon="22.33315">
        <ele>694.693715</ele>
        <time>2022-04-10T08:18:00.001Z</time>
      </trkpt>
      <trkpt lat="42.1999" lon="22.333">
        <ele>694.696165</ele>
        <time>2022-04-10T08:18:02.037Z</time>
      </trkpt>
      <trkpt lat="42.19989" lon="22.33285">
        <ele>694.698701</ele>
        <time>2022-04-10T08:18:04.017Z</time>
      </trkpt>
      <trkpt lat="42.19988" lon="22.3327">
        <ele>694.701399</ele>
        <time>2022-04-10T08:18:06.016Z</time>
      </trkpt>
      <trkpt lat="42.19985" lon="22.33253">
        <ele>694.63684</ele>
        <time>2022-04-10T08:18:08.022Z</time>
      </trkpt>
      <trkpt lat="42.19981" lon="22.33236">
        <ele>694.481758</ele>
        <time>2022-04-10T08:18:10.020Z</time>
      </trkpt>
      <trkpt lat="42.19977" lon="22.33219">
        <ele>694.330467</ele>
        <time>2022-04-10T08:18:12.025Z</time>
      </trkpt>
      <trkpt lat="42.19974" lon="22.33201">
        <ele>694.172001</ele>
        <time>2022-04-10T08:18:14.035Z</time>
      </trkpt>
      <trkpt lat="42.19971" lon="22.33183">
        <ele>694.012764</ele>
        <time>2022-04-10T08:18:16.008Z</time>
      </trkpt>
      <trkpt lat="42.19969" lon="22.33165">
        <ele>693.861095</ele>
        <time>2022-04-10T08:18:18.001Z</time>
      </trkpt>
      <trkpt lat="42.19967" lon="22.33149">
        <ele>693.714458</ele>
        <time>2022-04-10T08:18:20.027Z</time>
      </trkpt>
      <trkpt lat="42.19965" lon="22.33133">
        <ele>693.575411</ele>
        <time>2022-04-10T08:18:22.061Z</time>
      </trkpt>
      <trkpt lat="42.19963" lon="22.33118">
        <ele>693.44519</ele>
        <time>2022-04-10T08:18:24.003Z</time>
      </trkpt>
      <trkpt lat="42.19961" lon="22.33104">
        <ele>693.329389</ele>
        <time>2022-04-10T08:18:26.003Z</time>
      </trkpt>
      <trkpt lat="42.19961" lon="22.33088">
        <ele>693.18952</ele>
        <time>2022-04-10T08:18:29.024Z</time>
      </trkpt>
      <trkpt lat="42.19959" lon="22.33072">
        <ele>693.052869</ele>
        <time>2022-04-10T08:18:33.017Z</time>
      </trkpt>
      <trkpt lat="42.19959" lon="22.33059">
        <ele>692.944137</ele>
        <time>2022-04-10T08:18:36.019Z</time>
      </trkpt>
      <trkpt lat="42.1996" lon="22.33044">
        <ele>692.81313</ele>
        <time>2022-04-10T08:18:40.004Z</time>
      </trkpt>
      <trkpt lat="42.19958" lon="22.33029">
        <ele>692.684971</ele>
        <time>2022-04-10T08:18:44.025Z</time>
      </trkpt>
      <trkpt lat="42.19959" lon="22.33016">
        <ele>692.500822</ele>
        <time>2022-04-10T08:18:48.029Z</time>
      </trkpt>
      <trkpt lat="42.19959" lon="22.33003">
        <ele>692.253091</ele>
        <time>2022-04-10T08:18:53.032Z</time>
      </trkpt>
      <trkpt lat="42.19956" lon="22.32991">
        <ele>692.009928</ele>
        <time>2022-04-10T08:18:57.070Z</time>
      </trkpt>
      <trkpt lat="42.19956" lon="22.32978">
        <ele>691.766036</ele>
        <time>2022-04-10T08:19:00.006Z</time>
      </trkpt>
      <trkpt lat="42.19956" lon="22.32965">
        <ele>691.514399</ele>
        <time>2022-04-10T08:19:03.020Z</time>
      </trkpt>
      <trkpt lat="42.19951" lon="22.32954">
        <ele>691.276068</ele>
        <time>2022-04-10T08:19:06.021Z</time>
      </trkpt>
      <trkpt lat="42.19948" lon="22.3294">
        <ele>690.996602</ele>
        <time>2022-04-10T08:19:10.030Z</time>
      </trkpt>
      <trkpt lat="42.19949" lon="22.32925">
        <ele>690.708185</ele>
        <time>2022-04-10T08:19:14.052Z</time>
      </trkpt>
      <trkpt lat="42.19948" lon="22.32913">
        <ele>690.473795</ele>
        <time>2022-04-10T08:19:17.019Z</time>
      </trkpt>
      <trkpt lat="42.19947" lon="22.329">
        <ele>690.222856</ele>
        <time>2022-04-10T08:19:20.006Z</time>
      </trkpt>
      <trkpt lat="42.19945" lon="22.32887">
        <ele>689.967189</ele>
        <time>2022-04-10T08:19:23.020Z</time>
      </trkpt>
      <trkpt lat="42.19942" lon="22.32873">
        <ele>689.687217</ele>
        <time>2022-04-10T08:19:26.020Z</time>
      </trkpt>
      <trkpt lat="42.19937" lon="22.32859">
        <ele>689.388814</ele>
        <time>2022-04-10T08:19:29.012Z</time>
      </trkpt>
      <trkpt lat="42.1993" lon="22.32843">
        <ele>689.035525</ele>
        <time>2022-04-10T08:19:32.028Z</time>
      </trkpt>
      <trkpt lat="42.19925" lon="22.32832">
        <ele>688.781744</ele>
        <time>2022-04-10T08:19:34.024Z</time>
      </trkpt>
      <trkpt lat="42.19918" lon="22.3282">
        <ele>688.488492</ele>
        <time>2022-04-10T08:19:36.012Z</time>
      </trkpt>
      <trkpt lat="42.1991" lon="22.32807">
        <ele>688.172194</ele>
        <time>2022-04-10T08:19:38.005Z</time>
      </trkpt>
      <trkpt lat="42.19904" lon="22.32793">
        <ele>688.051526</ele>
        <time>2022-04-10T08:19:40.014Z</time>
      </trkpt>
      <trkpt lat="42.19897" lon="22.32779">
        <ele>688.32963</ele>
        <time>2022-04-10T08:19:42.022Z</time>
      </trkpt>
      <trkpt lat="42.19889" lon="22.32766">
        <ele>688.58695</ele>
        <time>2022-04-10T08:19:44.020Z</time>
      </trkpt>
      <trkpt lat="42.19882" lon="22.32752">
        <ele>688.852141</ele>
        <time>2022-04-10T08:19:46.016Z</time>
      </trkpt>
      <trkpt lat="42.19877" lon="22.32739">
        <ele>689.10367</ele>
        <time>2022-04-10T08:19:48.014Z</time>
      </trkpt>
      <trkpt lat="42.19873" lon="22.32726">
        <ele>689.323745</ele>
        <time>2022-04-10T08:19:50.016Z</time>
      </trkpt>
      <trkpt lat="42.1987" lon="22.32714">
        <ele>689.53064</ele>
        <time>2022-04-10T08:19:52.013Z</time>
      </trkpt>
      <trkpt lat="42.19866" lon="22.32697">
        <ele>689.804685</ele>
        <time>2022-04-10T08:19:55.022Z</time>
      </trkpt>
      <trkpt lat="42.19863" lon="22.32684">
        <ele>690.026621</ele>
        <time>2022-04-10T08:19:57.999Z</time>
      </trkpt>
      <trkpt lat="42.1986" lon="22.32672">
        <ele>690.240536</ele>
        <time>2022-04-10T08:20:01.026Z</time>
      </trkpt>
      <trkpt lat="42.19857" lon="22.3266">
        <ele>690.436075</ele>
        <time>2022-04-10T08:20:04.051Z</time>
      </trkpt>
      <trkpt lat="42.19855" lon="22.32648">
        <ele>690.631398</ele>
        <time>2022-04-10T08:20:07.012Z</time>
      </trkpt>
      <trkpt lat="42.19852" lon="22.32633">
        <ele>690.872836</ele>
        <time>2022-04-10T08:20:11.024Z</time>
      </trkpt>
      <trkpt lat="42.19849" lon="22.32618">
        <ele>691.128874</ele>
        <time>2022-04-10T08:20:15.008Z</time>
      </trkpt>
      <trkpt lat="42.19845" lon="22.32603">
        <ele>691.37732</ele>
        <time>2022-04-10T08:20:19.018Z</time>
      </trkpt>
      <trkpt lat="42.19842" lon="22.3259">
        <ele>691.602711</ele>
        <time>2022-04-10T08:20:23.032Z</time>
      </trkpt>
      <trkpt lat="42.19839" lon="22.32576">
        <ele>691.83924</ele>
        <time>2022-04-10T08:20:27.002Z</time>
      </trkpt>
      <trkpt lat="42.19835" lon="22.32565">
        <ele>691.770364</ele>
        <time>2022-04-10T08:20:30.025Z</time>
      </trkpt>
      <trkpt lat="42.19831" lon="22.32553">
        <ele>691.681632</ele>
        <time>2022-04-10T08:20:33.020Z</time>
      </trkpt>
      <trkpt lat="42.19828" lon="22.32538">
        <ele>691.572175</ele>
        <time>2022-04-10T08:20:37.017Z</time>
      </trkpt>
      <trkpt lat="42.19825" lon="22.32527">
        <ele>691.48677</ele>
        <time>2022-04-10T08:20:40.049Z</time>
      </trkpt>
      <trkpt lat="42.19821" lon="22.32512">
        <ele>691.381206</ele>
        <time>2022-04-10T08:20:44.009Z</time>
      </trkpt>
      <trkpt lat="42.19819" lon="22.32497">
        <ele>691.273769</ele>
        <time>2022-04-10T08:20:48.015Z</time>
      </trkpt>
      <trkpt lat="42.19816" lon="22.32481">
        <ele>691.160083</ele>
        <time>2022-04-10T08:20:52.019Z</time>
      </trkpt>
      <trkpt lat="42.19813" lon="22.32467">
        <ele>691.057912</ele>
        <time>2022-04-10T08:20:55.023Z</time>
      </trkpt>
      <trkpt lat="42.1981" lon="22.32453">
        <ele>690.954319</ele>
        <time>2022-04-10T08:20:58.005Z</time>
      </trkpt>
      <trkpt lat="42.19806" lon="22.3244">
        <ele>690.853333</ele>
        <time>2022-04-10T08:21:01.028Z</time>
      </trkpt>
      <trkpt lat="42.19802" lon="22.32426">
        <ele>690.748758</ele>
        <time>2022-04-10T08:21:04.069Z</time>
      </trkpt>
      <trkpt lat="42.19798" lon="22.32412">
        <ele>690.646472</ele>
        <time>2022-04-10T08:21:07.037Z</time>
      </trkpt>
      <trkpt lat="42.19794" lon="22.32399">
        <ele>690.545976</ele>
        <time>2022-04-10T08:21:10.061Z</time>
      </trkpt>
      <trkpt lat="42.19789" lon="22.32385">
        <ele>690.440788</ele>
        <time>2022-04-10T08:21:13.019Z</time>
      </trkpt>
      <trkpt lat="42.19782" lon="22.32372">
        <ele>690.333106</ele>
        <time>2022-04-10T08:21:16.009Z</time>
      </trkpt>
      <trkpt lat="42.19775" lon="22.3236">
        <ele>690.225561</ele>
        <time>2022-04-10T08:21:19.033Z</time>
      </trkpt>
      <trkpt lat="42.19767" lon="22.32347">
        <ele>690.088389</ele>
        <time>2022-04-10T08:21:22.051Z</time>
      </trkpt>
      <trkpt lat="42.1976" lon="22.32334">
        <ele>689.926197</ele>
        <time>2022-04-10T08:21:25.003Z</time>
      </trkpt>
      <trkpt lat="42.19752" lon="22.3232">
        <ele>689.748165</ele>
        <time>2022-04-10T08:21:28.044Z</time>
      </trkpt>
      <trkpt lat="42.19744" lon="22.32307">
        <ele>689.581875</ele>
        <time>2022-04-10T08:21:31.024Z</time>
      </trkpt>
      <trkpt lat="42.19736" lon="22.32295">
        <ele>689.424363</ele>
        <time>2022-04-10T08:21:34.014Z</time>
      </trkpt>
      <trkpt lat="42.1973" lon="22.32286">
        <ele>689.301528</ele>
        <time>2022-04-10T08:21:36.004Z</time>
      </trkpt>
      <trkpt lat="42.19724" lon="22.32275">
        <ele>689.173383</ele>
        <time>2022-04-10T08:21:38.031Z</time>
      </trkpt>
      <trkpt lat="42.19719" lon="22.32263">
        <ele>689.035231</ele>
        <time>2022-04-10T08:21:40.015Z</time>
      </trkpt>
      <trkpt lat="42.19713" lon="22.3225">
        <ele>688.887927</ele>
        <time>2022-04-10T08:21:42.012Z</time>
      </trkpt>
      <trkpt lat="42.19708" lon="22.32237">
        <ele>688.739766</ele>
        <time>2022-04-10T08:21:44.021Z</time>
      </trkpt>
      <trkpt lat="42.19702" lon="22.32225">
        <ele>688.596536</ele>
        <time>2022-04-10T08:21:46.010Z</time>
      </trkpt>
      <trkpt lat="42.19697" lon="22.32212">
        <ele>688.455371</ele>
        <time>2022-04-10T08:21:48.017Z</time>
      </trkpt>
      <trkpt lat="42.19693" lon="22.32199">
        <ele>688.321759</ele>
        <time>2022-04-10T08:21:50.014Z</time>
      </trkpt>
      <trkpt lat="42.19689" lon="22.32188">
        <ele>688.198204</ele>
        <time>2022-04-10T08:21:52.012Z</time>
      </trkpt>
      <trkpt lat="42.19685" lon="22.32173">
        <ele>688.036642</ele>
        <time>2022-04-10T08:21:55.038Z</time>
      </trkpt>
      <trkpt lat="42.1968" lon="22.32159">
        <ele>687.890485</ele>
        <time>2022-04-10T08:21:58.011Z</time>
      </trkpt>
      <trkpt lat="42.19675" lon="22.32147">
        <ele>687.775372</ele>
        <time>2022-04-10T08:22:01.027Z</time>
      </trkpt>
      <trkpt lat="42.19669" lon="22.32137">
        <ele>687.811027</ele>
        <time>2022-04-10T08:22:04.006Z</time>
      </trkpt>
      <trkpt lat="42.19665" lon="22.32127">
        <ele>687.847034</ele>
        <time>2022-04-10T08:22:07.009Z</time>
      </trkpt>
      <trkpt lat="42.19661" lon="22.32115">
        <ele>687.882663</ele>
        <time>2022-04-10T08:22:10.023Z</time>
      </trkpt>
      <trkpt lat="42.19656" lon="22.32103">
        <ele>687.923234</ele>
        <time>2022-04-10T08:22:13.016Z</time>
      </trkpt>
      <trkpt lat="42.19649" lon="22.3209">
        <ele>687.971322</ele>
        <time>2022-04-10T08:22:16.006Z</time>
      </trkpt>
      <trkpt lat="42.19642" lon="22.32076">
        <ele>688.021299</ele>
        <time>2022-04-10T08:22:19.034Z</time>
      </trkpt>
      <trkpt lat="42.19636" lon="22.32062">
        <ele>688.06811</ele>
        <time>2022-04-10T08:22:22.037Z</time>
      </trkpt>
      <trkpt lat="42.1963" lon="22.32047">
        <ele>688.117475</ele>
        <time>2022-04-10T08:22:25.042Z</time>
      </trkpt>
      <trkpt lat="42.19623" lon="22.32034">
        <ele>688.16486</ele>
        <time>2022-04-10T08:22:28.044Z</time>
      </trkpt>
      <trkpt lat="42.19617" lon="22.32021">
        <ele>688.209806</ele>
        <time>2022-04-10T08:22:31.035Z</time>
      </trkpt>
      <trkpt lat="42.1961" lon="22.32005">
        <ele>688.262233</ele>
        <time>2022-04-10T08:22:34.006Z</time>
      </trkpt>
      <trkpt lat="42.19606" lon="22.31994">
        <ele>688.298973</ele>
        <time>2022-04-10T08:22:36.027Z</time>
      </trkpt>
      <trkpt lat="42.19602" lon="22.31982">
        <ele>688.336218</ele>
        <time>2022-04-10T08:22:38.113Z</time>
      </trkpt>
      <trkpt lat="42.19597" lon="22.31971">
        <ele>688.374333</ele>
        <time>2022-04-10T08:22:40.019Z</time>
      </trkpt>
      <trkpt lat="42.19593" lon="22.31958">
        <ele>688.414576</ele>
        <time>2022-04-10T08:22:42.024Z</time>
      </trkpt>
      <trkpt lat="42.19589" lon="22.31946">
        <ele>688.453913</ele>
        <time>2022-04-10T08:22:44.013Z</time>
      </trkpt>
      <trkpt lat="42.19582" lon="22.31934">
        <ele>688.19649</ele>
        <time>2022-04-10T08:22:46.050Z</time>
      </trkpt>
      <trkpt lat="42.19574" lon="22.31923">
        <ele>687.538547</ele>
        <time>2022-04-10T08:22:48.016Z</time>
      </trkpt>
      <trkpt lat="42.19564" lon="22.31913">
        <ele>686.809017</ele>
        <time>2022-04-10T08:22:50.026Z</time>
      </trkpt>
      <trkpt lat="42.19553" lon="22.31904">
        <ele>686.09048</ele>
        <time>2022-04-10T08:22:52.015Z</time>
      </trkpt>
      <trkpt lat="42.19541" lon="22.31897">
        <ele>685.368728</ele>
        <time>2022-04-10T08:22:54.000Z</time>
      </trkpt>
      <trkpt lat="42.19531" lon="22.31888">
        <ele>684.664271</ele>
        <time>2022-04-10T08:22:56.020Z</time>
      </trkpt>
      <trkpt lat="42.19521" lon="22.31877">
        <ele>683.942262</ele>
        <time>2022-04-10T08:22:58.022Z</time>
      </trkpt>
      <trkpt lat="42.19514" lon="22.31862">
        <ele>683.191228</ele>
        <time>2022-04-10T08:23:00.004Z</time>
      </trkpt>
      <trkpt lat="42.19511" lon="22.31845">
        <ele>682.440768</ele>
        <time>2022-04-10T08:23:02.023Z</time>
      </trkpt>
      <trkpt lat="42.1951" lon="22.31828">
        <ele>681.723764</ele>
        <time>2022-04-10T08:23:04.021Z</time>
      </trkpt>
      <trkpt lat="42.19511" lon="22.31811">
        <ele>681.000952</ele>
        <time>2022-04-10T08:23:06.011Z</time>
      </trkpt>
      <trkpt lat="42.1951" lon="22.31793">
        <ele>680.271324</ele>
        <time>2022-04-10T08:23:08.050Z</time>
      </trkpt>
      <trkpt lat="42.19507" lon="22.31778">
        <ele>679.592725</ele>
        <time>2022-04-10T08:23:10.012Z</time>
      </trkpt>
      <trkpt lat="42.19502" lon="22.31763">
        <ele>678.899205</ele>
        <time>2022-04-10T08:23:12.013Z</time>
      </trkpt>
      <trkpt lat="42.19496" lon="22.3175">
        <ele>678.252124</ele>
        <time>2022-04-10T08:23:14.013Z</time>
      </trkpt>
      <trkpt lat="42.19491" lon="22.31737">
        <ele>678.126867</ele>
        <time>2022-04-10T08:23:16.032Z</time>
      </trkpt>
      <trkpt lat="42.19486" lon="22.31726">
        <ele>678.02402</ele>
        <time>2022-04-10T08:23:18.056Z</time>
      </trkpt>
      <trkpt lat="42.19482" lon="22.31714">
        <ele>677.917613</ele>
        <time>2022-04-10T08:23:20.011Z</time>
      </trkpt>
      <trkpt lat="42.19477" lon="22.31698">
        <ele>677.776596</ele>
        <time>2022-04-10T08:23:23.008Z</time>
      </trkpt>
      <trkpt lat="42.19473" lon="22.31687">
        <ele>677.676043</ele>
        <time>2022-04-10T08:23:25.018Z</time>
      </trkpt>
      <trkpt lat="42.19466" lon="22.31673">
        <ele>677.534597</ele>
        <time>2022-04-10T08:23:28.014Z</time>
      </trkpt>
      <trkpt lat="42.1946" lon="22.31658">
        <ele>677.398294</ele>
        <time>2022-04-10T08:23:31.020Z</time>
      </trkpt>
      <trkpt lat="42.19455" lon="22.31644">
        <ele>677.271968</ele>
        <time>2022-04-10T08:23:34.019Z</time>
      </trkpt>
      <trkpt lat="42.1945" lon="22.3163">
        <ele>677.146344</ele>
        <time>2022-04-10T08:23:37.032Z</time>
      </trkpt>
      <trkpt lat="42.19446" lon="22.31617">
        <ele>677.030173</ele>
        <time>2022-04-10T08:23:40.017Z</time>
      </trkpt>
      <trkpt lat="42.19441" lon="22.31605">
        <ele>676.920826</ele>
        <time>2022-04-10T08:23:43.017Z</time>
      </trkpt>
      <trkpt lat="42.19438" lon="22.31593">
        <ele>676.817113</ele>
        <time>2022-04-10T08:23:46.027Z</time>
      </trkpt>
      <trkpt lat="42.19435" lon="22.31581">
        <ele>676.714516</ele>
        <time>2022-04-10T08:23:49.032Z</time>
      </trkpt>
      <trkpt lat="42.19432" lon="22.31569">
        <ele>676.611605</ele>
        <time>2022-04-10T08:23:52.025Z</time>
      </trkpt>
      <trkpt lat="42.1943" lon="22.31554">
        <ele>676.484522</ele>
        <time>2022-04-10T08:23:56.007Z</time>
      </trkpt>
      <trkpt lat="42.19429" lon="22.31541">
        <ele>676.384001</ele>
        <time>2022-04-10T08:23:59.022Z</time>
      </trkpt>
      <trkpt lat="42.19426" lon="22.31527">
        <ele>676.305329</ele>
        <time>2022-04-10T08:24:03.020Z</time>
      </trkpt>
      <trkpt lat="42.19423" lon="22.31512">
        <ele>676.917916</ele>
        <time>2022-04-10T08:24:07.024Z</time>
      </trkpt>
      <trkpt lat="42.19422" lon="22.315">
        <ele>677.399797</ele>
        <time>2022-04-10T08:24:10.014Z</time>
      </trkpt>
      <trkpt lat="42.1942" lon="22.31488">
        <ele>677.887619</ele>
        <time>2022-04-10T08:24:13.023Z</time>
      </trkpt>
      <trkpt lat="42.19417" lon="22.31473">
        <ele>678.498974</ele>
        <time>2022-04-10T08:24:17.008Z</time>
      </trkpt>
      <trkpt lat="42.19414" lon="22.3146">
        <ele>679.051365</ele>
        <time>2022-04-10T08:24:21.020Z</time>
      </trkpt>
      <trkpt lat="42.19411" lon="22.31448">
        <ele>679.548839</ele>
        <time>2022-04-10T08:24:25.032Z</time>
      </trkpt>
      <trkpt lat="42.19407" lon="22.31435">
        <ele>680.12778</ele>
        <time>2022-04-10T08:24:29.013Z</time>
      </trkpt>
      <trkpt lat="42.19402" lon="22.31423">
        <ele>680.648186</ele>
        <time>2022-04-10T08:24:33.019Z</time>
      </trkpt>
      <trkpt lat="42.19396" lon="22.31414">
        <ele>681.138153</ele>
        <time>2022-04-10T08:24:37.015Z</time>
      </trkpt>
      <trkpt lat="42.1939" lon="22.31403">
        <ele>681.67021</ele>
        <time>2022-04-10T08:24:41.037Z</time>
      </trkpt>
      <trkpt lat="42.19383" lon="22.31393">
        <ele>682.22219</ele>
        <time>2022-04-10T08:24:45.058Z</time>
      </trkpt>
      <trkpt lat="42.19376" lon="22.31385">
        <ele>682.710351</ele>
        <time>2022-04-10T08:24:48.021Z</time>
      </trkpt>
      <trkpt lat="42.19369" lon="22.31378">
        <ele>683.195215</ele>
        <time>2022-04-10T08:24:51.023Z</time>
      </trkpt>
      <trkpt lat="42.19361" lon="22.31369">
        <ele>683.720968</ele>
        <time>2022-04-10T08:24:54.033Z</time>
      </trkpt>
      <trkpt lat="42.19352" lon="22.31362">
        <ele>684.274935</ele>
        <time>2022-04-10T08:24:57.030Z</time>
      </trkpt>
      <trkpt lat="42.19344" lon="22.31355">
        <ele>684.800947</ele>
        <time>2022-04-10T08:25:00.052Z</time>
      </trkpt>
      <trkpt lat="42.19335" lon="22.31348">
        <ele>685.357589</ele>
        <time>2022-04-10T08:25:03.016Z</time>
      </trkpt>
      <trkpt lat="42.19326" lon="22.31338">
        <ele>685.900488</ele>
        <time>2022-04-10T08:25:06.052Z</time>
      </trkpt>
      <trkpt lat="42.19315" lon="22.31328">
        <ele>685.372175</ele>
        <time>2022-04-10T08:25:09.015Z</time>
      </trkpt>
      <trkpt lat="42.19306" lon="22.31321">
        <ele>684.971663</ele>
        <time>2022-04-10T08:25:11.035Z</time>
      </trkpt>
      <trkpt lat="42.19296" lon="22.31314">
        <ele>684.51454</ele>
        <time>2022-04-10T08:25:13.014Z</time>
      </trkpt>
      <trkpt lat="42.19286" lon="22.31305">
        <ele>684.055066</ele>
        <time>2022-04-10T08:25:15.012Z</time>
      </trkpt>
      <trkpt lat="42.19276" lon="22.31296">
        <ele>683.569436</ele>
        <time>2022-04-10T08:25:17.059Z</time>
      </trkpt>
      <trkpt lat="42.19268" lon="22.31284">
        <ele>683.083201</ele>
        <time>2022-04-10T08:25:19.019Z</time>
      </trkpt>
      <trkpt lat="42.19259" lon="22.31271">
        <ele>682.571036</ele>
        <time>2022-04-10T08:25:21.028Z</time>
      </trkpt>
      <trkpt lat="42.19253" lon="22.31255">
        <ele>682.025052</ele>
        <time>2022-04-10T08:25:23.092Z</time>
      </trkpt>
      <trkpt lat="42.19247" lon="22.31237">
        <ele>681.462686</ele>
        <time>2022-04-10T08:25:25.009Z</time>
      </trkpt>
      <trkpt lat="42.19244" lon="22.31217">
        <ele>680.884721</ele>
        <time>2022-04-10T08:25:27.001Z</time>
      </trkpt>
      <trkpt lat="42.19241" lon="22.31197">
        <ele>680.266696</ele>
        <time>2022-04-10T08:25:29.009Z</time>
      </trkpt>
      <trkpt lat="42.19237" lon="22.31178">
        <ele>679.686772</ele>
        <time>2022-04-10T08:25:31.034Z</time>
      </trkpt>
      <trkpt lat="42.19234" lon="22.31159">
        <ele>679.123079</ele>
        <time>2022-04-10T08:25:33.021Z</time>
      </trkpt>
      <trkpt lat="42.19231" lon="22.3114">
        <ele>678.287574</ele>
        <time>2022-04-10T08:25:35.012Z</time>
      </trkpt>
      <trkpt lat="42.19228" lon="22.31122">
        <ele>677.160063</ele>
        <time>2022-04-10T08:25:37.025Z</time>
      </trkpt>
      <trkpt lat="42.19224" lon="22.31104">
        <ele>675.996581</ele>
        <time>2022-04-10T08:25:39.081Z</time>
      </trkpt>
      <trkpt lat="42.19219" lon="22.31086">
        <ele>674.845576</ele>
        <time>2022-04-10T08:25:41.039Z</time>
      </trkpt>
      <trkpt lat="42.19214" lon="22.31068">
        <ele>673.671433</ele>
        <time>2022-04-10T08:25:43.026Z</time>
      </trkpt>
      <trkpt lat="42.19209" lon="22.31051">
        <ele>672.557344</ele>
        <time>2022-04-10T08:25:45.012Z</time>
      </trkpt>
      <trkpt lat="42.19205" lon="22.31036">
        <ele>671.59751</ele>
        <time>2022-04-10T08:25:47.000Z</time>
      </trkpt>
      <trkpt lat="42.19202" lon="22.31023">
        <ele>670.747886</ele>
        <time>2022-04-10T08:25:49.015Z</time>
      </trkpt>
      <trkpt lat="42.19199" lon="22.31009">
        <ele>669.850695</ele>
        <time>2022-04-10T08:25:51.014Z</time>
      </trkpt>
      <trkpt lat="42.19196" lon="22.30994">
        <ele>668.937302</ele>
        <time>2022-04-10T08:25:53.015Z</time>
      </trkpt>
      <trkpt lat="42.19193" lon="22.30981">
        <ele>668.062336</ele>
        <time>2022-04-10T08:25:55.066Z</time>
      </trkpt>
      <trkpt lat="42.19191" lon="22.30967">
        <ele>667.224496</ele>
        <time>2022-04-10T08:25:57.026Z</time>
      </trkpt>
      <trkpt lat="42.1919" lon="22.30954">
        <ele>666.414005</ele>
        <time>2022-04-10T08:25:59.024Z</time>
      </trkpt>
      <trkpt lat="42.19192" lon="22.3094">
        <ele>665.557504</ele>
        <time>2022-04-10T08:26:01.015Z</time>
      </trkpt>
      <trkpt lat="42.19197" lon="22.30929">
        <ele>664.752185</ele>
        <time>2022-04-10T08:26:03.023Z</time>
      </trkpt>
      <trkpt lat="42.19199" lon="22.30916">
        <ele>664.00532</ele>
        <time>2022-04-10T08:26:05.013Z</time>
      </trkpt>
      <trkpt lat="42.19196" lon="22.30902">
        <ele>663.71214</ele>
        <time>2022-04-10T08:26:07.016Z</time>
      </trkpt>
      <trkpt lat="42.19187" lon="22.30893">
        <ele>663.365465</ele>
        <time>2022-04-10T08:26:10.030Z</time>
      </trkpt>
      <trkpt lat="42.19175" lon="22.30884">
        <ele>662.979126</ele>
        <time>2022-04-10T08:26:13.019Z</time>
      </trkpt>
      <trkpt lat="42.19164" lon="22.30873">
        <ele>662.595449</ele>
        <time>2022-04-10T08:26:16.002Z</time>
      </trkpt>
      <trkpt lat="42.19157" lon="22.30865">
        <ele>662.318799</ele>
        <time>2022-04-10T08:26:18.016Z</time>
      </trkpt>
      <trkpt lat="42.19149" lon="22.30855">
        <ele>662.022999</ele>
        <time>2022-04-10T08:26:20.063Z</time>
      </trkpt>
      <trkpt lat="42.19141" lon="22.30846">
        <ele>661.726352</ele>
        <time>2022-04-10T08:26:22.108Z</time>
      </trkpt>
      <trkpt lat="42.19133" lon="22.30836">
        <ele>661.409913</ele>
        <time>2022-04-10T08:26:24.017Z</time>
      </trkpt>
      <trkpt lat="42.19124" lon="22.30826">
        <ele>661.068551</ele>
        <time>2022-04-10T08:26:26.064Z</time>
      </trkpt>
      <trkpt lat="42.19115" lon="22.30815">
        <ele>660.720827</ele>
        <time>2022-04-10T08:26:28.016Z</time>
      </trkpt>
      <trkpt lat="42.19107" lon="22.30802">
        <ele>660.356604</ele>
        <time>2022-04-10T08:26:30.051Z</time>
      </trkpt>
      <trkpt lat="42.19099" lon="22.30788">
        <ele>659.989274</ele>
        <time>2022-04-10T08:26:32.021Z</time>
      </trkpt>
      <trkpt lat="42.19093" lon="22.30773">
        <ele>659.624455</ele>
        <time>2022-04-10T08:26:34.015Z</time>
      </trkpt>
      <trkpt lat="42.19088" lon="22.30757">
        <ele>659.258047</ele>
        <time>2022-04-10T08:26:36.014Z</time>
      </trkpt>
      <trkpt lat="42.19084" lon="22.30742">
        <ele>658.906608</ele>
        <time>2022-04-10T08:26:38.014Z</time>
      </trkpt>
      <trkpt lat="42.19082" lon="22.30727">
        <ele>659.860653</ele>
        <time>2022-04-10T08:26:40.027Z</time>
      </trkpt>
      <trkpt lat="42.1908" lon="22.30713">
        <ele>660.874125</ele>
        <time>2022-04-10T08:26:42.027Z</time>
      </trkpt>
      <trkpt lat="42.19078" lon="22.30699">
        <ele>661.842115</ele>
        <time>2022-04-10T08:26:44.008Z</time>
      </trkpt>
      <trkpt lat="42.19076" lon="22.30687">
        <ele>662.785032</ele>
        <time>2022-04-10T08:26:46.024Z</time>
      </trkpt>
      <trkpt lat="42.19074" lon="22.30673">
        <ele>663.745285</ele>
        <time>2022-04-10T08:26:48.005Z</time>
      </trkpt>
      <trkpt lat="42.19071" lon="22.30661">
        <ele>664.695152</ele>
        <time>2022-04-10T08:26:50.020Z</time>
      </trkpt>
      <trkpt lat="42.19068" lon="22.30649">
        <ele>665.581756</ele>
        <time>2022-04-10T08:26:52.010Z</time>
      </trkpt>
      <trkpt lat="42.19063" lon="22.30638">
        <ele>666.517276</ele>
        <time>2022-04-10T08:26:55.016Z</time>
      </trkpt>
      <trkpt lat="42.19057" lon="22.30627">
        <ele>667.47805</ele>
        <time>2022-04-10T08:27:00.029Z</time>
      </trkpt>
      <trkpt lat="42.1905" lon="22.30619">
        <ele>668.375329</ele>
        <time>2022-04-10T08:27:05.020Z</time>
      </trkpt>
      <trkpt lat="42.19041" lon="22.30613">
        <ele>669.315514</ele>
        <time>2022-04-10T08:27:11.012Z</time>
      </trkpt>
      <trkpt lat="42.19033" lon="22.30609">
        <ele>670.189576</ele>
        <time>2022-04-10T08:27:17.024Z</time>
      </trkpt>
      <trkpt lat="42.19023" lon="22.30605">
        <ele>671.191374</ele>
        <time>2022-04-10T08:27:24.017Z</time>
      </trkpt>
      <trkpt lat="42.19013" lon="22.306">
        <ele>672.166184</ele>
        <time>2022-04-10T08:27:32.026Z</time>
      </trkpt>
      <trkpt lat="42.19004" lon="22.30595">
        <ele>673.12042</ele>
        <time>2022-04-10T08:27:39.023Z</time>
      </trkpt>
      <trkpt lat="42.18995" lon="22.3059">
        <ele>674.09247</ele>
        <time>2022-04-10T08:27:46.016Z</time>
      </trkpt>
      <trkpt lat="42.18986" lon="22.30584">
        <ele>675.046473</ele>
        <time>2022-04-10T08:27:53.026Z</time>
      </trkpt>
      <trkpt lat="42.18977" lon="22.3058">
        <ele>675.977495</ele>
        <time>2022-04-10T08:28:01.007Z</time>
      </trkpt>
      <trkpt lat="42.18968" lon="22.30574">
        <ele>676.525502</ele>
        <time>2022-04-10T08:28:07.028Z</time>
      </trkpt>
      <trkpt lat="42.1896" lon="22.3057">
        <ele>676.895067</ele>
        <time>2022-04-10T08:28:13.026Z</time>
      </trkpt>
      <trkpt lat="42.18951" lon="22.30565">
        <ele>677.2775</ele>
        <time>2022-04-10T08:28:21.016Z</time>
      </trkpt>
      <trkpt lat="42.18943" lon="22.30559">
        <ele>677.653017</ele>
        <time>2022-04-10T08:28:28.020Z</time>
      </trkpt>
      <trkpt lat="42.18935" lon="22.30551">
        <ele>678.040914</ele>
        <time>2022-04-10T08:28:35.019Z</time>
      </trkpt>
      <trkpt lat="42.18927" lon="22.30543">
        <ele>678.452842</ele>
        <time>2022-04-10T08:28:42.014Z</time>
      </trkpt>
      <trkpt lat="42.18919" lon="22.30537">
        <ele>678.827646</ele>
        <time>2022-04-10T08:28:49.026Z</time>
      </trkpt>
      <trkpt lat="42.18912" lon="22.3053">
        <ele>679.212393</ele>
        <time>2022-04-10T08:28:57.014Z</time>
      </trkpt>
      <trkpt lat="42.18903" lon="22.30522">
        <ele>679.619087</ele>
        <time>2022-04-10T08:29:04.023Z</time>
      </trkpt>
      <trkpt lat="42.18894" lon="22.30516">
        <ele>680.041134</ele>
        <time>2022-04-10T08:29:10.021Z</time>
      </trkpt>
      <trkpt lat="42.18885" lon="22.30511">
        <ele>680.423609</ele>
        <time>2022-04-10T08:29:16.027Z</time>
      </trkpt>
      <trkpt lat="42.18877" lon="22.30506">
        <ele>680.793758</ele>
        <time>2022-04-10T08:29:21.014Z</time>
      </trkpt>
      <trkpt lat="42.18869" lon="22.305">
        <ele>681.163906</ele>
        <time>2022-04-10T08:29:26.022Z</time>
      </trkpt>
      <trkpt lat="42.18859" lon="22.30493">
        <ele>681.613915</ele>
        <time>2022-04-10T08:29:31.059Z</time>
      </trkpt>
      <trkpt lat="42.18851" lon="22.30487">
        <ele>681.997573</ele>
        <time>2022-04-10T08:29:35.027Z</time>
      </trkpt>
      <trkpt lat="42.18844" lon="22.30475">
        <ele>682.452088</ele>
        <time>2022-04-10T08:29:39.039Z</time>
      </trkpt>
      <trkpt lat="42.18839" lon="22.30464">
        <ele>682.844441</ele>
        <time>2022-04-10T08:29:43.018Z</time>
      </trkpt>
      <trkpt lat="42.18833" lon="22.30453">
        <ele>683.247525</ele>
        <time>2022-04-10T08:29:47.048Z</time>
      </trkpt>
      <trkpt lat="42.18828" lon="22.30442">
        <ele>683.489067</ele>
        <time>2022-04-10T08:29:50.038Z</time>
      </trkpt>
      <trkpt lat="42.18818" lon="22.30428">
        <ele>682.982628</ele>
        <time>2022-04-10T08:29:53.033Z</time>
      </trkpt>
      <trkpt lat="42.18807" lon="22.30417">
        <ele>682.502651</ele>
        <time>2022-04-10T08:29:55.023Z</time>
      </trkpt>
      <trkpt lat="42.18795" lon="22.30405">
        <ele>681.963067</ele>
        <time>2022-04-10T08:29:57.028Z</time>
      </trkpt>
      <trkpt lat="42.18782" lon="22.30392">
        <ele>681.3856</ele>
        <time>2022-04-10T08:29:59.036Z</time>
      </trkpt>
      <trkpt lat="42.18768" lon="22.30379">
        <ele>680.800718</ele>
        <time>2022-04-10T08:30:01.036Z</time>
      </trkpt>
      <trkpt lat="42.18757" lon="22.30364">
        <ele>680.237641</ele>
        <time>2022-04-10T08:30:03.015Z</time>
      </trkpt>
      <trkpt lat="42.18747" lon="22.30347">
        <ele>679.674038</ele>
        <time>2022-04-10T08:30:05.017Z</time>
      </trkpt>
      <trkpt lat="42.18738" lon="22.30331">
        <ele>679.13157</ele>
        <time>2022-04-10T08:30:07.032Z</time>
      </trkpt>
      <trkpt lat="42.18728" lon="22.30315">
        <ele>678.604942</ele>
        <time>2022-04-10T08:30:09.036Z</time>
      </trkpt>
      <trkpt lat="42.18718" lon="22.30302">
        <ele>678.092935</ele>
        <time>2022-04-10T08:30:11.025Z</time>
      </trkpt>
      <trkpt lat="42.18709" lon="22.30287">
        <ele>677.589185</ele>
        <time>2022-04-10T08:30:13.027Z</time>
      </trkpt>
      <trkpt lat="42.18699" lon="22.30273">
        <ele>677.356989</ele>
        <time>2022-04-10T08:30:15.033Z</time>
      </trkpt>
      <trkpt lat="42.18691" lon="22.30259">
        <ele>678.097996</ele>
        <time>2022-04-10T08:30:17.035Z</time>
      </trkpt>
      <trkpt lat="42.18686" lon="22.30247">
        <ele>678.717637</ele>
        <time>2022-04-10T08:30:19.062Z</time>
      </trkpt>
      <trkpt lat="42.18679" lon="22.30236">
        <ele>679.34286</ele>
        <time>2022-04-10T08:30:22.037Z</time>
      </trkpt>
      <trkpt lat="42.18673" lon="22.30225">
        <ele>679.943621</ele>
        <time>2022-04-10T08:30:27.042Z</time>
      </trkpt>
      <trkpt lat="42.18666" lon="22.30215">
        <ele>680.542559</ele>
        <time>2022-04-10T08:30:34.017Z</time>
      </trkpt>
      <trkpt lat="42.18659" lon="22.30206">
        <ele>681.118844</ele>
        <time>2022-04-10T08:30:41.056Z</time>
      </trkpt>
      <trkpt lat="42.18653" lon="22.30197">
        <ele>681.65593</ele>
        <time>2022-04-10T08:30:47.061Z</time>
      </trkpt>
      <trkpt lat="42.18646" lon="22.30186">
        <ele>682.246973</ele>
        <time>2022-04-10T08:30:55.034Z</time>
      </trkpt>
      <trkpt lat="42.18642" lon="22.30176">
        <ele>682.792277</ele>
        <time>2022-04-10T08:31:01.014Z</time>
      </trkpt>
      <trkpt lat="42.18636" lon="22.30165">
        <ele>683.358121</ele>
        <time>2022-04-10T08:31:07.041Z</time>
      </trkpt>
      <trkpt lat="42.18629" lon="22.30156">
        <ele>683.936417</ele>
        <time>2022-04-10T08:31:14.033Z</time>
      </trkpt>
      <trkpt lat="42.18623" lon="22.30145">
        <ele>684.519867</ele>
        <time>2022-04-10T08:31:21.020Z</time>
      </trkpt>
      <trkpt lat="42.18618" lon="22.30134">
        <ele>685.086622</ele>
        <time>2022-04-10T08:31:28.023Z</time>
      </trkpt>
      <trkpt lat="42.18612" lon="22.30123">
        <ele>685.684475</ele>
        <time>2022-04-10T08:31:35.066Z</time>
      </trkpt>
      <trkpt lat="42.18606" lon="22.30111">
        <ele>686.303305</ele>
        <time>2022-04-10T08:31:42.032Z</time>
      </trkpt>
      <trkpt lat="42.18602" lon="22.30099">
        <ele>686.872385</ele>
        <time>2022-04-10T08:31:48.022Z</time>
      </trkpt>
      <trkpt lat="42.18598" lon="22.30086">
        <ele>687.47859</ele>
        <time>2022-04-10T08:31:53.044Z</time>
      </trkpt>
      <trkpt lat="42.18593" lon="22.30075">
        <ele>688.006769</ele>
        <time>2022-04-10T08:31:58.025Z</time>
      </trkpt>
      <trkpt lat="42.18587" lon="22.30062">
        <ele>688.571857</ele>
        <time>2022-04-10T08:32:03.021Z</time>
      </trkpt>
      <trkpt lat="42.18581" lon="22.30051">
        <ele>689.093488</ele>
        <time>2022-04-10T08:32:08.078Z</time>
      </trkpt>
      <trkpt lat="42.18576" lon="22.30039">
        <ele>689.607051</ele>
        <time>2022-04-10T08:32:13.050Z</time>
      </trkpt>
      <trkpt lat="42.1857" lon="22.30028">
        <ele>690.098093</ele>
        <time>2022-04-10T08:32:18.044Z</time>
      </trkpt>
      <trkpt lat="42.18565" lon="22.30017">
        <ele>690.587221</ele>
        <time>2022-04-10T08:32:23.034Z</time>
      </trkpt>
      <trkpt lat="42.1856" lon="22.30006">
        <ele>691.072718</ele>
        <time>2022-04-10T08:32:27.031Z</time>
      </trkpt>
      <trkpt lat="42.18556" lon="22.29995">
        <ele>691.532822</ele>
        <time>2022-04-10T08:32:31.031Z</time>
      </trkpt>
      <trkpt lat="42.18551" lon="22.29983">
        <ele>692.051673</ele>
        <time>2022-04-10T08:32:36.055Z</time>
      </trkpt>
      <trkpt lat="42.18544" lon="22.29974">
        <ele>692.530455</ele>
        <time>2022-04-10T08:32:40.018Z</time>
      </trkpt>
      <trkpt lat="42.18538" lon="22.29962">
        <ele>693.084166</ele>
        <time>2022-04-10T08:32:45.057Z</time>
      </trkpt>
      <trkpt lat="42.18533" lon="22.2995">
        <ele>693.602247</ele>
        <time>2022-04-10T08:32:50.034Z</time>
      </trkpt>
      <trkpt lat="42.18528" lon="22.29937">
        <ele>694.148933</ele>
        <time>2022-04-10T08:32:55.022Z</time>
      </trkpt>
      <trkpt lat="42.18523" lon="22.29925">
        <ele>694.645742</ele>
        <time>2022-04-10T08:33:00.017Z</time>
      </trkpt>
      <trkpt lat="42.18516" lon="22.29915">
        <ele>695.168802</ele>
        <time>2022-04-10T08:33:05.020Z</time>
      </trkpt>
      <trkpt lat="42.18507" lon="22.29906">
        <ele>695.72373</ele>
        <time>2022-04-10T08:33:10.029Z</time>
      </trkpt>
      <trkpt lat="42.18501" lon="22.29896">
        <ele>696.211432</ele>
        <time>2022-04-10T08:33:14.032Z</time>
      </trkpt>
      <trkpt lat="42.18494" lon="22.29887">
        <ele>696.692947</ele>
        <time>2022-04-10T08:33:18.036Z</time>
      </trkpt>
      <trkpt lat="42.18487" lon="22.29876">
        <ele>697.0333</ele>
        <time>2022-04-10T08:33:22.013Z</time>
      </trkpt>
      <trkpt lat="42.18482" lon="22.29866">
        <ele>697.264628</ele>
        <time>2022-04-10T08:33:25.026Z</time>
      </trkpt>
      <trkpt lat="42.18475" lon="22.29856">
        <ele>697.516247</ele>
        <time>2022-04-10T08:33:28.013Z</time>
      </trkpt>
      <trkpt lat="42.18467" lon="22.29846">
        <ele>697.805867</ele>
        <time>2022-04-10T08:33:31.023Z</time>
      </trkpt>
      <trkpt lat="42.18456" lon="22.29837">
        <ele>698.119008</ele>
        <time>2022-04-10T08:33:34.026Z</time>
      </trkpt>
      <trkpt lat="42.18445" lon="22.2983">
        <ele>698.43682</ele>
        <time>2022-04-10T08:33:37.027Z</time>
      </trkpt>
      <trkpt lat="42.18438" lon="22.29824">
        <ele>698.667892</ele>
        <time>2022-04-10T08:33:39.035Z</time>
      </trkpt>
      <trkpt lat="42.1843" lon="22.2981">
        <ele>698.981337</ele>
        <time>2022-04-10T08:33:42.034Z</time>
      </trkpt>
      <trkpt lat="42.18428" lon="22.29798">
        <ele>699.215931</ele>
        <time>2022-04-10T08:33:45.027Z</time>
      </trkpt>
      <trkpt lat="42.18424" lon="22.29785">
        <ele>699.484992</ele>
        <time>2022-04-10T08:33:50.014Z</time>
      </trkpt>
      <trkpt lat="42.18419" lon="22.29772">
        <ele>699.76461</ele>
        <time>2022-04-10T08:33:55.046Z</time>
      </trkpt>
      <trkpt lat="42.18417" lon="22.29759">
        <ele>700.012689</ele>
        <time>2022-04-10T08:33:59.030Z</time>
      </trkpt>
      <trkpt lat="42.18413" lon="22.29747">
        <ele>700.257741</ele>
        <time>2022-04-10T08:34:03.027Z</time>
      </trkpt>
      <trkpt lat="42.1841" lon="22.29734">
        <ele>700.527149</ele>
        <time>2022-04-10T08:34:07.030Z</time>
      </trkpt>
      <trkpt lat="42.18407" lon="22.29721">
        <ele>700.771147</ele>
        <time>2022-04-10T08:34:11.017Z</time>
      </trkpt>
      <trkpt lat="42.18404" lon="22.29709">
        <ele>701.019974</ele>
        <time>2022-04-10T08:34:16.019Z</time>
      </trkpt>
      <trkpt lat="42.18399" lon="22.29698">
        <ele>701.264948</ele>
        <time>2022-04-10T08:34:22.023Z</time>
      </trkpt>
      <trkpt lat="42.18394" lon="22.29685">
        <ele>701.604603</ele>
        <time>2022-04-10T08:34:28.028Z</time>
      </trkpt>
      <trkpt lat="42.18387" lon="22.29674">
        <ele>702.048078</ele>
        <time>2022-04-10T08:34:34.029Z</time>
      </trkpt>
      <trkpt lat="42.1838" lon="22.29665">
        <ele>702.473449</ele>
        <time>2022-04-10T08:34:41.027Z</time>
      </trkpt>
      <trkpt lat="42.18373" lon="22.29656">
        <ele>702.882268</ele>
        <time>2022-04-10T08:34:47.036Z</time>
      </trkpt>
      <trkpt lat="42.18365" lon="22.29647">
        <ele>703.294157</ele>
        <time>2022-04-10T08:34:53.025Z</time>
      </trkpt>
      <trkpt lat="42.18358" lon="22.29639">
        <ele>703.7029</ele>
        <time>2022-04-10T08:35:00.015Z</time>
      </trkpt>
      <trkpt lat="42.18351" lon="22.29631">
        <ele>704.087878</ele>
        <time>2022-04-10T08:35:06.034Z</time>
      </trkpt>
      <trkpt lat="42.18344" lon="22.29622">
        <ele>704.475953</ele>
        <time>2022-04-10T08:35:12.030Z</time>
      </trkpt>
      <trkpt lat="42.18337" lon="22.29614">
        <ele>704.862949</ele>
        <time>2022-04-10T08:35:18.030Z</time>
      </trkpt>
      <trkpt lat="42.1833" lon="22.29604">
        <ele>705.293751</ele>
        <time>2022-04-10T08:35:25.041Z</time>
      </trkpt>
      <trkpt lat="42.18323" lon="22.29595">
        <ele>705.71814</ele>
        <time>2022-04-10T08:35:32.076Z</time>
      </trkpt>
      <trkpt lat="42.18315" lon="22.29587">
        <ele>706.118758</ele>
        <time>2022-04-10T08:35:38.091Z</time>
      </trkpt>
      <trkpt lat="42.18308" lon="22.29576">
        <ele>706.551118</ele>
        <time>2022-04-10T08:35:44.010Z</time>
      </trkpt>
      <trkpt lat="42.18303" lon="22.29566">
        <ele>706.948476</ele>
        <time>2022-04-10T08:35:50.109Z</time>
      </trkpt>
      <trkpt lat="42.18295" lon="22.29559">
        <ele>707.327956</ele>
        <time>2022-04-10T08:35:56.037Z</time>
      </trkpt>
      <trkpt lat="42.18287" lon="22.2955">
        <ele>707.775506</ele>
        <time>2022-04-10T08:36:00.022Z</time>
      </trkpt>
      <trkpt lat="42.1828" lon="22.29541">
        <ele>708.191766</ele>
        <time>2022-04-10T08:36:02.023Z</time>
      </trkpt>
      <trkpt lat="42.18271" lon="22.29528">
        <ele>708.718869</ele>
        <time>2022-04-10T08:36:04.031Z</time>
      </trkpt>
      <trkpt lat="42.18267" lon="22.29512">
        <ele>708.991255</ele>
        <time>2022-04-10T08:36:06.020Z</time>
      </trkpt>
      <trkpt lat="42.18269" lon="22.29497">
        <ele>709.014544</ele>
        <time>2022-04-10T08:36:08.040Z</time>
      </trkpt>
      <trkpt lat="42.18273" lon="22.29481">
        <ele>709.039924</ele>
        <time>2022-04-10T08:36:11.036Z</time>
      </trkpt>
      <trkpt lat="42.18273" lon="22.29468">
        <ele>709.059778</ele>
        <time>2022-04-10T08:36:14.012Z</time>
      </trkpt>
      <trkpt lat="42.18273" lon="22.29455">
        <ele>709.079907</ele>
        <time>2022-04-10T08:36:17.033Z</time>
      </trkpt>
      <trkpt lat="42.18273" lon="22.29443">
        <ele>709.098793</ele>
        <time>2022-04-10T08:36:20.019Z</time>
      </trkpt>
      <trkpt lat="42.18271" lon="22.29428">
        <ele>709.121793</ele>
        <time>2022-04-10T08:36:24.007Z</time>
      </trkpt>
      <trkpt lat="42.1827" lon="22.29416">
        <ele>709.141854</ele>
        <time>2022-04-10T08:36:28.047Z</time>
      </trkpt>
      <trkpt lat="42.18269" lon="22.294">
        <ele>709.165342</ele>
        <time>2022-04-10T08:36:32.032Z</time>
      </trkpt>
      <trkpt lat="42.18269" lon="22.29388">
        <ele>709.184692</ele>
        <time>2022-04-10T08:36:36.040Z</time>
      </trkpt>
      <trkpt lat="42.18269" lon="22.29374">
        <ele>709.206683</ele>
        <time>2022-04-10T08:36:41.036Z</time>
      </trkpt>
      <trkpt lat="42.18268" lon="22.29361">
        <ele>709.226846</ele>
        <time>2022-04-10T08:36:46.014Z</time>
      </trkpt>
      <trkpt lat="42.18267" lon="22.29348">
        <ele>709.246617</ele>
        <time>2022-04-10T08:36:50.029Z</time>
      </trkpt>
      <trkpt lat="42.18264" lon="22.29336">
        <ele>709.266624</ele>
        <time>2022-04-10T08:36:53.022Z</time>
      </trkpt>
      <trkpt lat="42.18261" lon="22.29321">
        <ele>709.289929</ele>
        <time>2022-04-10T08:36:56.036Z</time>
      </trkpt>
      <trkpt lat="42.18258" lon="22.29307">
        <ele>709.312588</ele>
        <time>2022-04-10T08:36:59.024Z</time>
      </trkpt>
      <trkpt lat="42.18254" lon="22.2929">
        <ele>709.339697</ele>
        <time>2022-04-10T08:37:02.038Z</time>
      </trkpt>
      <trkpt lat="42.1825" lon="22.29274">
        <ele>709.068166</ele>
        <time>2022-04-10T08:37:05.037Z</time>
      </trkpt>
      <trkpt lat="42.18246" lon="22.29262">
        <ele>708.677773</ele>
        <time>2022-04-10T08:37:07.029Z</time>
      </trkpt>
      <trkpt lat="42.18244" lon="22.29248">
        <ele>708.24205</ele>
        <time>2022-04-10T08:37:10.034Z</time>
      </trkpt>
      <trkpt lat="42.18242" lon="22.29234">
        <ele>707.79275</ele>
        <time>2022-04-10T08:37:13.031Z</time>
      </trkpt>
      <trkpt lat="42.1824" lon="22.29218">
        <ele>707.302</ele>
        <time>2022-04-10T08:37:16.044Z</time>
      </trkpt>
      <trkpt lat="42.18236" lon="22.29205">
        <ele>706.88933</ele>
        <time>2022-04-10T08:37:18.026Z</time>
      </trkpt>
      <trkpt lat="42.18233" lon="22.29189">
        <ele>706.363201</ele>
        <time>2022-04-10T08:37:20.025Z</time>
      </trkpt>
      <trkpt lat="42.18231" lon="22.2917">
        <ele>705.772736</ele>
        <time>2022-04-10T08:37:22.045Z</time>
      </trkpt>
      <trkpt lat="42.18228" lon="22.29151">
        <ele>705.192702</ele>
        <time>2022-04-10T08:37:24.036Z</time>
      </trkpt>
      <trkpt lat="42.18224" lon="22.29133">
        <ele>704.607839</ele>
        <time>2022-04-10T08:37:26.015Z</time>
      </trkpt>
      <trkpt lat="42.1822" lon="22.29115">
        <ele>704.033213</ele>
        <time>2022-04-10T08:37:28.034Z</time>
      </trkpt>
      <trkpt lat="42.18219" lon="22.29098">
        <ele>703.508976</ele>
        <time>2022-04-10T08:37:30.035Z</time>
      </trkpt>
      <trkpt lat="42.18218" lon="22.29081">
        <ele>702.991912</ele>
        <time>2022-04-10T08:37:32.035Z</time>
      </trkpt>
      <trkpt lat="42.18215" lon="22.29064">
        <ele>702.462688</ele>
        <time>2022-04-10T08:37:34.027Z</time>
      </trkpt>
      <trkpt lat="42.18211" lon="22.29047">
        <ele>701.914741</ele>
        <time>2022-04-10T08:37:36.020Z</time>
      </trkpt>
      <trkpt lat="42.18205" lon="22.2903">
        <ele>701.06923</ele>
        <time>2022-04-10T08:37:38.023Z</time>
      </trkpt>
      <trkpt lat="42.18199" lon="22.29013">
        <ele>700.251332</ele>
        <time>2022-04-10T08:37:40.032Z</time>
      </trkpt>
      <trkpt lat="42.18194" lon="22.28996">
        <ele>699.455879</ele>
        <time>2022-04-10T08:37:42.029Z</time>
      </trkpt>
      <trkpt lat="42.18191" lon="22.28981">
        <ele>698.753732</ele>
        <time>2022-04-10T08:37:44.029Z</time>
      </trkpt>
      <trkpt lat="42.1819" lon="22.28964">
        <ele>697.971899</ele>
        <time>2022-04-10T08:37:47.034Z</time>
      </trkpt>
      <trkpt lat="42.18187" lon="22.28949">
        <ele>697.32297</ele>
        <time>2022-04-10T08:37:49.031Z</time>
      </trkpt>
      <trkpt lat="42.18183" lon="22.28936">
        <ele>696.679536</ele>
        <time>2022-04-10T08:37:51.035Z</time>
      </trkpt>
      <trkpt lat="42.18179" lon="22.28921">
        <ele>695.971827</ele>
        <time>2022-04-10T08:37:53.030Z</time>
      </trkpt>
      <trkpt lat="42.18176" lon="22.28904">
        <ele>695.219786</ele>
        <time>2022-04-10T08:37:55.027Z</time>
      </trkpt>
      <trkpt lat="42.18173" lon="22.28886">
        <ele>694.414307</ele>
        <time>2022-04-10T08:37:57.025Z</time>
      </trkpt>
      <trkpt lat="42.18171" lon="22.28869">
        <ele>693.622156</ele>
        <time>2022-04-10T08:37:59.036Z</time>
      </trkpt>
      <trkpt lat="42.18169" lon="22.28852">
        <ele>692.879526</ele>
        <time>2022-04-10T08:38:01.054Z</time>
      </trkpt>
      <trkpt lat="42.18168" lon="22.28835">
        <ele>692.13049</ele>
        <time>2022-04-10T08:38:03.027Z</time>
      </trkpt>
      <trkpt lat="42.18166" lon="22.28818">
        <ele>691.371157</ele>
        <time>2022-04-10T08:38:05.032Z</time>
      </trkpt>
      <trkpt lat="42.18163" lon="22.288">
        <ele>691.192705</ele>
        <time>2022-04-10T08:38:07.050Z</time>
      </trkpt>
      <trkpt lat="42.1816" lon="22.28781">
        <ele>691.196313</ele>
        <time>2022-04-10T08:38:09.051Z</time>
      </trkpt>
      <trkpt lat="42.18158" lon="22.28762">
        <ele>691.199748</ele>
        <time>2022-04-10T08:38:11.017Z</time>
      </trkpt>
      <trkpt lat="42.18158" lon="22.28744">
        <ele>691.202999</ele>
        <time>2022-04-10T08:38:13.018Z</time>
      </trkpt>
      <trkpt lat="42.18157" lon="22.28728">
        <ele>691.205805</ele>
        <time>2022-04-10T08:38:15.025Z</time>
      </trkpt>
      <trkpt lat="42.18157" lon="22.28714">
        <ele>691.208406</ele>
        <time>2022-04-10T08:38:18.021Z</time>
      </trkpt>
      <trkpt lat="42.18156" lon="22.28699">
        <ele>691.211121</ele>
        <time>2022-04-10T08:38:22.021Z</time>
      </trkpt>
      <trkpt lat="42.18156" lon="22.28685">
        <ele>691.213578</ele>
        <time>2022-04-10T08:38:28.021Z</time>
      </trkpt>
      <trkpt lat="42.18155" lon="22.28673">
        <ele>691.215823</ele>
        <time>2022-04-10T08:38:34.029Z</time>
      </trkpt>
      <trkpt lat="42.18156" lon="22.28658">
        <ele>691.218445</ele>
        <time>2022-04-10T08:38:40.035Z</time>
      </trkpt>
      <trkpt lat="42.18152" lon="22.28645">
        <ele>691.220991</ele>
        <time>2022-04-10T08:38:43.047Z</time>
      </trkpt>
      <trkpt lat="42.18148" lon="22.28634">
        <ele>691.223255</ele>
        <time>2022-04-10T08:38:45.033Z</time>
      </trkpt>
      <trkpt lat="42.18144" lon="22.28623">
        <ele>691.225488</ele>
        <time>2022-04-10T08:38:47.032Z</time>
      </trkpt>
      <trkpt lat="42.18142" lon="22.28611">
        <ele>691.227677</ele>
        <time>2022-04-10T08:38:49.024Z</time>
      </trkpt>
      <trkpt lat="42.18138" lon="22.28597">
        <ele>691.230378</ele>
        <time>2022-04-10T08:38:52.024Z</time>
      </trkpt>
      <trkpt lat="42.18133" lon="22.28584">
        <ele>691.233009</ele>
        <time>2022-04-10T08:38:54.030Z</time>
      </trkpt>
      <trkpt lat="42.18128" lon="22.28569">
        <ele>690.531496</ele>
        <time>2022-04-10T08:38:56.029Z</time>
      </trkpt>
      <trkpt lat="42.18123" lon="22.28556">
        <ele>689.680493</ele>
        <time>2022-04-10T08:38:58.036Z</time>
      </trkpt>
      <trkpt lat="42.18119" lon="22.28541">
        <ele>688.690151</ele>
        <time>2022-04-10T08:39:00.026Z</time>
      </trkpt>
      <trkpt lat="42.18115" lon="22.28525">
        <ele>687.653921</ele>
        <time>2022-04-10T08:39:02.023Z</time>
      </trkpt>
      <trkpt lat="42.18112" lon="22.28507">
        <ele>686.555853</ele>
        <time>2022-04-10T08:39:04.034Z</time>
      </trkpt>
      <trkpt lat="42.18107" lon="22.28485">
        <ele>685.192168</ele>
        <time>2022-04-10T08:39:06.018Z</time>
      </trkpt>
      <trkpt lat="42.18102" lon="22.28465">
        <ele>683.900216</ele>
        <time>2022-04-10T08:39:08.055Z</time>
      </trkpt>
      <trkpt lat="42.18097" lon="22.28447">
        <ele>682.737618</ele>
        <time>2022-04-10T08:39:10.029Z</time>
      </trkpt>
      <trkpt lat="42.18091" lon="22.28427">
        <ele>681.475267</ele>
        <time>2022-04-10T08:39:12.034Z</time>
      </trkpt>
      <trkpt lat="42.18085" lon="22.28409">
        <ele>680.300764</ele>
        <time>2022-04-10T08:39:14.095Z</time>
      </trkpt>
      <trkpt lat="42.18079" lon="22.2839">
        <ele>679.020933</ele>
        <time>2022-04-10T08:39:16.020Z</time>
      </trkpt>
      <trkpt lat="42.18072" lon="22.28371">
        <ele>677.718902</ele>
        <time>2022-04-10T08:39:18.041Z</time>
      </trkpt>
      <trkpt lat="42.18063" lon="22.28353">
        <ele>676.591541</ele>
        <time>2022-04-10T08:39:20.083Z</time>
      </trkpt>
      <trkpt lat="42.18058" lon="22.28333">
        <ele>676.321965</ele>
        <time>2022-04-10T08:39:22.032Z</time>
      </trkpt>
      <trkpt lat="42.18057" lon="22.28315">
        <ele>676.084864</ele>
        <time>2022-04-10T08:39:24.042Z</time>
      </trkpt>
      <trkpt lat="42.18055" lon="22.283">
        <ele>675.888344</ele>
        <time>2022-04-10T08:39:26.025Z</time>
      </trkpt>
      <trkpt lat="42.18052" lon="22.28287">
        <ele>675.706702</ele>
        <time>2022-04-10T08:39:28.037Z</time>
      </trkpt>
      <trkpt lat="42.18047" lon="22.28274">
        <ele>675.522375</ele>
        <time>2022-04-10T08:39:30.022Z</time>
      </trkpt>
      <trkpt lat="42.18044" lon="22.28262">
        <ele>675.353851</ele>
        <time>2022-04-10T08:39:32.033Z</time>
      </trkpt>
      <trkpt lat="42.18039" lon="22.28248">
        <ele>675.156237</ele>
        <time>2022-04-10T08:39:35.035Z</time>
      </trkpt>
      <trkpt lat="42.18035" lon="22.28237">
        <ele>674.996699</ele>
        <time>2022-04-10T08:39:38.011Z</time>
      </trkpt>
      <trkpt lat="42.18031" lon="22.28223">
        <ele>674.80658</ele>
        <time>2022-04-10T08:39:42.064Z</time>
      </trkpt>
      <trkpt lat="42.18027" lon="22.28209">
        <ele>674.615251</ele>
        <time>2022-04-10T08:39:46.021Z</time>
      </trkpt>
      <trkpt lat="42.18024" lon="22.28194">
        <ele>674.416543</ele>
        <time>2022-04-10T08:39:50.033Z</time>
      </trkpt>
      <trkpt lat="42.18021" lon="22.28181">
        <ele>674.231771</ele>
        <time>2022-04-10T08:39:53.060Z</time>
      </trkpt>
      <trkpt lat="42.18017" lon="22.28166">
        <ele>674.030081</ele>
        <time>2022-04-10T08:39:56.030Z</time>
      </trkpt>
      <trkpt lat="42.18013" lon="22.28154">
        <ele>673.85865</ele>
        <time>2022-04-10T08:39:59.033Z</time>
      </trkpt>
      <trkpt lat="42.18009" lon="22.28142">
        <ele>673.693082</ele>
        <time>2022-04-10T08:40:02.023Z</time>
      </trkpt>
      <trkpt lat="42.18005" lon="22.28131">
        <ele>673.526355</ele>
        <time>2022-04-10T08:40:05.033Z</time>
      </trkpt>
      <trkpt lat="42.18" lon="22.28117">
        <ele>673.418778</ele>
        <time>2022-04-10T08:40:08.030Z</time>
      </trkpt>
      <trkpt lat="42.17997" lon="22.28103">
        <ele>673.324565</ele>
        <time>2022-04-10T08:40:11.030Z</time>
      </trkpt>
      <trkpt lat="42.17994" lon="22.2809">
        <ele>673.232936</ele>
        <time>2022-04-10T08:40:14.024Z</time>
      </trkpt>
      <trkpt lat="42.1799" lon="22.28074">
        <ele>673.130537</ele>
        <time>2022-04-10T08:40:17.032Z</time>
      </trkpt>
      <trkpt lat="42.17985" lon="22.28058">
        <ele>673.019675</ele>
        <time>2022-04-10T08:40:20.074Z</time>
      </trkpt>
      <trkpt lat="42.17981" lon="22.28048">
        <ele>672.941701</ele>
        <time>2022-04-10T08:40:22.024Z</time>
      </trkpt>
      <trkpt lat="42.17977" lon="22.28036">
        <ele>672.862763</ele>
        <time>2022-04-10T08:40:24.034Z</time>
      </trkpt>
      <trkpt lat="42.17973" lon="22.28025">
        <ele>672.782668</ele>
        <time>2022-04-10T08:40:26.036Z</time>
      </trkpt>
      <trkpt lat="42.17969" lon="22.28013">
        <ele>672.70025</ele>
        <time>2022-04-10T08:40:28.030Z</time>
      </trkpt>
      <trkpt lat="42.17965" lon="22.28001">
        <ele>672.619439</ele>
        <time>2022-04-10T08:40:30.030Z</time>
      </trkpt>
      <trkpt lat="42.17962" lon="22.2799">
        <ele>672.540178</ele>
        <time>2022-04-10T08:40:32.005Z</time>
      </trkpt>
      <trkpt lat="42.17959" lon="22.27978">
        <ele>672.460918</ele>
        <time>2022-04-10T08:40:34.042Z</time>
      </trkpt>
      <trkpt lat="42.17955" lon="22.27967">
        <ele>672.380244</ele>
        <time>2022-04-10T08:40:36.028Z</time>
      </trkpt>
      <trkpt lat="42.17951" lon="22.27955">
        <ele>672.301439</ele>
        <time>2022-04-10T08:40:38.044Z</time>
      </trkpt>
      <trkpt lat="42.17948" lon="22.27944">
        <ele>672.223978</ele>
        <time>2022-04-10T08:40:40.074Z</time>
      </trkpt>
      <trkpt lat="42.17945" lon="22.27932">
        <ele>672.144717</ele>
        <time>2022-04-10T08:40:42.082Z</time>
      </trkpt>
      <trkpt lat="42.17942" lon="22.27921">
        <ele>672.065414</ele>
        <time>2022-04-10T08:40:44.030Z</time>
      </trkpt>
      <trkpt lat="42.17939" lon="22.27904">
        <ele>671.957851</ele>
        <time>2022-04-10T08:40:47.028Z</time>
      </trkpt>
      <trkpt lat="42.17936" lon="22.27891">
        <ele>671.672412</ele>
        <time>2022-04-10T08:40:50.016Z</time>
      </trkpt>
      <trkpt lat="42.17934" lon="22.27879">
        <ele>671.395429</ele>
        <time>2022-04-10T08:40:53.108Z</time>
      </trkpt>
      <trkpt lat="42.17932" lon="22.27865">
        <ele>671.055639</ele>
        <time>2022-04-10T08:40:57.029Z</time>
      </trkpt>
      <trkpt lat="42.17929" lon="22.27851">
        <ele>670.729959</ele>
        <time>2022-04-10T08:41:01.021Z</time>
      </trkpt>
      <trkpt lat="42.17925" lon="22.27837">
        <ele>670.395867</ele>
        <time>2022-04-10T08:41:05.027Z</time>
      </trkpt>
      <trkpt lat="42.17922" lon="22.27823">
        <ele>670.056654</ele>
        <time>2022-04-10T08:41:09.026Z</time>
      </trkpt>
      <trkpt lat="42.17919" lon="22.27809">
        <ele>669.721831</ele>
        <time>2022-04-10T08:41:13.027Z</time>
      </trkpt>
      <trkpt lat="42.17916" lon="22.27797">
        <ele>669.438232</ele>
        <time>2022-04-10T08:41:16.035Z</time>
      </trkpt>
      <trkpt lat="42.17912" lon="22.27781">
        <ele>669.048651</ele>
        <time>2022-04-10T08:41:19.031Z</time>
      </trkpt>
      <trkpt lat="42.17908" lon="22.27769">
        <ele>668.744158</ele>
        <time>2022-04-10T08:41:21.012Z</time>
      </trkpt>
      <trkpt lat="42.17903" lon="22.27754">
        <ele>668.381142</ele>
        <time>2022-04-10T08:41:23.030Z</time>
      </trkpt>
      <trkpt lat="42.17899" lon="22.2774">
        <ele>668.020233</ele>
        <time>2022-04-10T08:41:25.038Z</time>
      </trkpt>
      <trkpt lat="42.17895" lon="22.27726">
        <ele>667.688389</ele>
        <time>2022-04-10T08:41:27.018Z</time>
      </trkpt>
      <trkpt lat="42.17891" lon="22.27712">
        <ele>667.346985</ele>
        <time>2022-04-10T08:41:29.041Z</time>
      </trkpt>
      <trkpt lat="42.17887" lon="22.27697">
        <ele>666.968155</ele>
        <time>2022-04-10T08:41:31.028Z</time>
      </trkpt>
      <trkpt lat="42.17882" lon="22.27681">
        <ele>666.588197</ele>
        <time>2022-04-10T08:41:33.072Z</time>
      </trkpt>
      <trkpt lat="42.17877" lon="22.27664">
        <ele>665.979605</ele>
        <time>2022-04-10T08:41:35.044Z</time>
      </trkpt>
      <trkpt lat="42.17871" lon="22.27646">
        <ele>665.121514</ele>
        <time>2022-04-10T08:41:37.039Z</time>
      </trkpt>
      <trkpt lat="42.17866" lon="22.27627">
        <ele>664.225561</ele>
        <time>2022-04-10T08:41:39.072Z</time>
      </trkpt>
      <trkpt lat="42.1786" lon="22.2761">
        <ele>663.419972</ele>
        <time>2022-04-10T08:41:41.018Z</time>
      </trkpt>
      <trkpt lat="42.17854" lon="22.27594">
        <ele>662.681982</ele>
        <time>2022-04-10T08:41:43.035Z</time>
      </trkpt>
      <trkpt lat="42.1785" lon="22.2758">
        <ele>662.007358</ele>
        <time>2022-04-10T08:41:45.065Z</time>
      </trkpt>
      <trkpt lat="42.17845" lon="22.27564">
        <ele>661.295219</ele>
        <time>2022-04-10T08:41:47.032Z</time>
      </trkpt>
      <trkpt lat="42.17839" lon="22.27549">
        <ele>660.552427</ele>
        <time>2022-04-10T08:41:49.046Z</time>
      </trkpt>
      <trkpt lat="42.17834" lon="22.27533">
        <ele>659.791623</ele>
        <time>2022-04-10T08:41:51.041Z</time>
      </trkpt>
      <trkpt lat="42.17828" lon="22.27516">
        <ele>659.000308</ele>
        <time>2022-04-10T08:41:53.034Z</time>
      </trkpt>
      <trkpt lat="42.17822" lon="22.275">
        <ele>658.229518</ele>
        <time>2022-04-10T08:41:55.031Z</time>
      </trkpt>
      <trkpt lat="42.17817" lon="22.27482">
        <ele>657.418529</ele>
        <time>2022-04-10T08:41:57.040Z</time>
      </trkpt>
      <trkpt lat="42.17812" lon="22.27464">
        <ele>656.585443</ele>
        <time>2022-04-10T08:41:59.053Z</time>
      </trkpt>
      <trkpt lat="42.17806" lon="22.27447">
        <ele>655.857241</ele>
        <time>2022-04-10T08:42:01.066Z</time>
      </trkpt>
      <trkpt lat="42.17801" lon="22.27432">
        <ele>655.353368</ele>
        <time>2022-04-10T08:42:03.032Z</time>
      </trkpt>
      <trkpt lat="42.17797" lon="22.27419">
        <ele>654.96758</ele>
        <time>2022-04-10T08:42:05.057Z</time>
      </trkpt>
      <trkpt lat="42.17794" lon="22.27406">
        <ele>654.566696</ele>
        <time>2022-04-10T08:42:09.045Z</time>
      </trkpt>
      <trkpt lat="42.17791" lon="22.27394">
        <ele>654.175863</ele>
        <time>2022-04-10T08:42:12.020Z</time>
      </trkpt>
      <trkpt lat="42.17788" lon="22.27378">
        <ele>653.694272</ele>
        <time>2022-04-10T08:42:15.035Z</time>
      </trkpt>
      <trkpt lat="42.17785" lon="22.27362">
        <ele>653.219292</ele>
        <time>2022-04-10T08:42:18.080Z</time>
      </trkpt>
      <trkpt lat="42.17782" lon="22.27349">
        <ele>652.821735</ele>
        <time>2022-04-10T08:42:21.021Z</time>
      </trkpt>
      <trkpt lat="42.17777" lon="22.27339">
        <ele>652.461396</ele>
        <time>2022-04-10T08:42:24.037Z</time>
      </trkpt>
      <trkpt lat="42.17771" lon="22.27326">
        <ele>652.027716</ele>
        <time>2022-04-10T08:42:27.047Z</time>
      </trkpt>
      <trkpt lat="42.17767" lon="22.27315">
        <ele>651.658916</ele>
        <time>2022-04-10T08:42:29.091Z</time>
      </trkpt>
      <trkpt lat="42.17763" lon="22.27303">
        <ele>651.285699</ele>
        <time>2022-04-10T08:42:31.043Z</time>
      </trkpt>
      <trkpt lat="42.17758" lon="22.27293">
        <ele>650.92089</ele>
        <time>2022-04-10T08:42:33.039Z</time>
      </trkpt>
      <trkpt lat="42.17754" lon="22.27281">
        <ele>650.538802</ele>
        <time>2022-04-10T08:42:35.066Z</time>
      </trkpt>
      <trkpt lat="42.17748" lon="22.27267">
        <ele>650.077347</ele>
        <time>2022-04-10T08:42:37.038Z</time>
      </trkpt>
      <trkpt lat="42.17743" lon="22.27251">
        <ele>649.552646</ele>
        <time>2022-04-10T08:42:39.053Z</time>
      </trkpt>
      <trkpt lat="42.17736" lon="22.27234">
        <ele>648.999532</ele>
        <time>2022-04-10T08:42:41.021Z</time>
      </trkpt>
      <trkpt lat="42.1773" lon="22.27217">
        <ele>649.003251</ele>
        <time>2022-04-10T08:42:43.081Z</time>
      </trkpt>
      <trkpt lat="42.17725" lon="22.272">
        <ele>649.133027</ele>
        <time>2022-04-10T08:42:45.026Z</time>
      </trkpt>
      <trkpt lat="42.17721" lon="22.27183">
        <ele>649.260773</ele>
        <time>2022-04-10T08:42:47.041Z</time>
      </trkpt>
      <trkpt lat="42.17717" lon="22.27169">
        <ele>649.366266</ele>
        <time>2022-04-10T08:42:49.079Z</time>
      </trkpt>
      <trkpt lat="42.17711" lon="22.27154">
        <ele>649.486925</ele>
        <time>2022-04-10T08:42:52.032Z</time>
      </trkpt>
      <trkpt lat="42.17707" lon="22.27141">
        <ele>649.587725</ele>
        <time>2022-04-10T08:42:55.039Z</time>
      </trkpt>
      <trkpt lat="42.17704" lon="22.27127">
        <ele>649.690855</ele>
        <time>2022-04-10T08:42:58.034Z</time>
      </trkpt>
      <trkpt lat="42.17699" lon="22.27113">
        <ele>649.799698</ele>
        <time>2022-04-10T08:43:01.029Z</time>
      </trkpt>
      <trkpt lat="42.17696" lon="22.27098">
        <ele>649.914194</ele>
        <time>2022-04-10T08:43:04.031Z</time>
      </trkpt>
      <trkpt lat="42.17691" lon="22.27084">
        <ele>650.020438</ele>
        <time>2022-04-10T08:43:07.047Z</time>
      </trkpt>
      <trkpt lat="42.17687" lon="22.2707">
        <ele>650.124603</ele>
        <time>2022-04-10T08:43:11.037Z</time>
      </trkpt>
      <trkpt lat="42.17685" lon="22.27058">
        <ele>650.216988</ele>
        <time>2022-04-10T08:43:16.081Z</time>
      </trkpt>
      <trkpt lat="42.17681" lon="22.27046">
        <ele>650.305294</ele>
        <time>2022-04-10T08:43:22.023Z</time>
      </trkpt>
      <trkpt lat="42.17678" lon="22.27033">
        <ele>650.401904</ele>
        <time>2022-04-10T08:43:28.024Z</time>
      </trkpt>
      <trkpt lat="42.17674" lon="22.2702">
        <ele>650.501126</ele>
        <time>2022-04-10T08:43:35.042Z</time>
      </trkpt>
      <trkpt lat="42.17671" lon="22.27007">
        <ele>650.598323</ele>
        <time>2022-04-10T08:43:41.037Z</time>
      </trkpt>
      <trkpt lat="42.17666" lon="22.26996">
        <ele>650.458464</ele>
        <time>2022-04-10T08:43:47.039Z</time>
      </trkpt>
      <trkpt lat="42.17661" lon="22.26985">
        <ele>650.272677</ele>
        <time>2022-04-10T08:43:52.027Z</time>
      </trkpt>
      <trkpt lat="42.17657" lon="22.26972">
        <ele>650.058528</ele>
        <time>2022-04-10T08:43:56.045Z</time>
      </trkpt>
      <trkpt lat="42.17652" lon="22.26959">
        <ele>649.847405</ele>
        <time>2022-04-10T08:43:59.124Z</time>
      </trkpt>
      <trkpt lat="42.17647" lon="22.26945">
        <ele>649.592999</ele>
        <time>2022-04-10T08:44:02.009Z</time>
      </trkpt>
      <trkpt lat="42.17643" lon="22.26933">
        <ele>649.405769</ele>
        <time>2022-04-10T08:44:04.037Z</time>
      </trkpt>
      <trkpt lat="42.17638" lon="22.26919">
        <ele>649.16486</ele>
        <time>2022-04-10T08:44:07.016Z</time>
      </trkpt>
      <trkpt lat="42.17634" lon="22.26904">
        <ele>648.933214</ele>
        <time>2022-04-10T08:44:10.016Z</time>
      </trkpt>
      <trkpt lat="42.1763" lon="22.26892">
        <ele>648.739009</ele>
        <time>2022-04-10T08:44:13.047Z</time>
      </trkpt>
      <trkpt lat="42.17627" lon="22.26879">
        <ele>648.534784</ele>
        <time>2022-04-10T08:44:17.019Z</time>
      </trkpt>
      <trkpt lat="42.17623" lon="22.26868">
        <ele>648.352016</ele>
        <time>2022-04-10T08:44:20.041Z</time>
      </trkpt>
      <trkpt lat="42.17619" lon="22.26857">
        <ele>648.166591</ele>
        <time>2022-04-10T08:44:23.040Z</time>
      </trkpt>
      <trkpt lat="42.17614" lon="22.26843">
        <ele>647.920861</ele>
        <time>2022-04-10T08:44:27.007Z</time>
      </trkpt>
      <trkpt lat="42.17611" lon="22.26831">
        <ele>647.737487</ele>
        <time>2022-04-10T08:44:30.010Z</time>
      </trkpt>
      <trkpt lat="42.17615" lon="22.26818">
        <ele>647.530395</ele>
        <time>2022-04-10T08:44:33.022Z</time>
      </trkpt>
      <trkpt lat="42.17623" lon="22.26809">
        <ele>647.305099</ele>
        <time>2022-04-10T08:44:36.063Z</time>
      </trkpt>
      <trkpt lat="42.17631" lon="22.268">
        <ele>647.104508</ele>
        <time>2022-04-10T08:44:39.031Z</time>
      </trkpt>
      <trkpt lat="42.17638" lon="22.2679">
        <ele>646.693799</ele>
        <time>2022-04-10T08:44:41.045Z</time>
      </trkpt>
      <trkpt lat="42.17647" lon="22.26778">
        <ele>645.777163</ele>
        <time>2022-04-10T08:44:43.056Z</time>
      </trkpt>
      <trkpt lat="42.17655" lon="22.26766">
        <ele>644.883059</ele>
        <time>2022-04-10T08:44:45.023Z</time>
      </trkpt>
      <trkpt lat="42.17662" lon="22.26754">
        <ele>644.017287</ele>
        <time>2022-04-10T08:44:47.048Z</time>
      </trkpt>
      <trkpt lat="42.17669" lon="22.26742">
        <ele>643.146117</ele>
        <time>2022-04-10T08:44:49.038Z</time>
      </trkpt>
      <trkpt lat="42.17677" lon="22.26731">
        <ele>642.31505</ele>
        <time>2022-04-10T08:44:51.021Z</time>
      </trkpt>
      <trkpt lat="42.17684" lon="22.26721">
        <ele>641.512662</ele>
        <time>2022-04-10T08:44:53.042Z</time>
      </trkpt>
      <trkpt lat="42.17692" lon="22.2671">
        <ele>640.648862</ele>
        <time>2022-04-10T08:44:55.028Z</time>
      </trkpt>
      <trkpt lat="42.177" lon="22.26698">
        <ele>639.808625</ele>
        <time>2022-04-10T08:44:57.021Z</time>
      </trkpt>
      <trkpt lat="42.17705" lon="22.26687">
        <ele>639.05376</ele>
        <time>2022-04-10T08:44:59.041Z</time>
      </trkpt>
      <trkpt lat="42.17709" lon="22.26675">
        <ele>638.36341</ele>
        <time>2022-04-10T08:45:01.064Z</time>
      </trkpt>
      <trkpt lat="42.1771" lon="22.26663">
        <ele>637.653536</ele>
        <time>2022-04-10T08:45:03.007Z</time>
      </trkpt>
      <trkpt lat="42.17708" lon="22.26649">
        <ele>636.896982</ele>
        <time>2022-04-10T08:45:05.026Z</time>
      </trkpt>
      <trkpt lat="42.17703" lon="22.26637">
        <ele>636.104612</ele>
        <time>2022-04-10T08:45:07.023Z</time>
      </trkpt>
      <trkpt lat="42.17698" lon="22.26625">
        <ele>635.346062</ele>
        <time>2022-04-10T08:45:09.029Z</time>
      </trkpt>
      <trkpt lat="42.17693" lon="22.26613">
        <ele>634.624151</ele>
        <time>2022-04-10T08:45:11.027Z</time>
      </trkpt>
      <trkpt lat="42.1769" lon="22.26602">
        <ele>633.92287</ele>
        <time>2022-04-10T08:45:13.028Z</time>
      </trkpt>
      <trkpt lat="42.17686" lon="22.2659">
        <ele>633.243319</ele>
        <time>2022-04-10T08:45:15.027Z</time>
      </trkpt>
      <trkpt lat="42.17681" lon="22.26577">
        <ele>632.596346</ele>
        <time>2022-04-10T08:45:17.030Z</time>
      </trkpt>
      <trkpt lat="42.17677" lon="22.26565">
        <ele>632.006317</ele>
        <time>2022-04-10T08:45:19.012Z</time>
      </trkpt>
      <trkpt lat="42.17672" lon="22.26551">
        <ele>631.251513</ele>
        <time>2022-04-10T08:45:22.032Z</time>
      </trkpt>
      <trkpt lat="42.17671" lon="22.26538">
        <ele>630.671414</ele>
        <time>2022-04-10T08:45:25.026Z</time>
      </trkpt>
      <trkpt lat="42.17678" lon="22.26527">
        <ele>630.02424</ele>
        <time>2022-04-10T08:45:28.043Z</time>
      </trkpt>
      <trkpt lat="42.17688" lon="22.26517">
        <ele>629.29503</ele>
        <time>2022-04-10T08:45:31.040Z</time>
      </trkpt>
      <trkpt lat="42.17696" lon="22.26508">
        <ele>628.607767</ele>
        <time>2022-04-10T08:45:34.021Z</time>
      </trkpt>
      <trkpt lat="42.17706" lon="22.26498">
        <ele>627.838959</ele>
        <time>2022-04-10T08:45:37.033Z</time>
      </trkpt>
      <trkpt lat="42.17716" lon="22.2649">
        <ele>627.156061</ele>
        <time>2022-04-10T08:45:39.092Z</time>
      </trkpt>
      <trkpt lat="42.17725" lon="22.26484">
        <ele>626.482476</ele>
        <time>2022-04-10T08:45:41.094Z</time>
      </trkpt>
      <trkpt lat="42.17735" lon="22.26477">
        <ele>625.845849</ele>
        <time>2022-04-10T08:45:43.026Z</time>
      </trkpt>
      <trkpt lat="42.17743" lon="22.2647">
        <ele>625.22765</ele>
        <time>2022-04-10T08:45:45.017Z</time>
      </trkpt>
      <trkpt lat="42.17752" lon="22.26464">
        <ele>624.586649</ele>
        <time>2022-04-10T08:45:47.014Z</time>
      </trkpt>
      <trkpt lat="42.17762" lon="22.26457">
        <ele>623.945648</ele>
        <time>2022-04-10T08:45:49.038Z</time>
      </trkpt>
      <trkpt lat="42.1777" lon="22.2645">
        <ele>623.333716</ele>
        <time>2022-04-10T08:45:51.023Z</time>
      </trkpt>
      <trkpt lat="42.17779" lon="22.26444">
        <ele>622.7144</ele>
        <time>2022-04-10T08:45:53.035Z</time>
      </trkpt>
      <trkpt lat="42.17788" lon="22.26438">
        <ele>622.123095</ele>
        <time>2022-04-10T08:45:55.044Z</time>
      </trkpt>
      <trkpt lat="42.17797" lon="22.26434">
        <ele>621.534735</ele>
        <time>2022-04-10T08:45:57.026Z</time>
      </trkpt>
      <trkpt lat="42.17807" lon="22.26429">
        <ele>620.935293</ele>
        <time>2022-04-10T08:45:59.032Z</time>
      </trkpt>
      <trkpt lat="42.17816" lon="22.26423">
        <ele>620.307252</ele>
        <time>2022-04-10T08:46:01.076Z</time>
      </trkpt>
      <trkpt lat="42.17827" lon="22.26418">
        <ele>619.65197</ele>
        <time>2022-04-10T08:46:03.025Z</time>
      </trkpt>
      <trkpt lat="42.17838" lon="22.26414">
        <ele>618.97557</ele>
        <time>2022-04-10T08:46:05.012Z</time>
      </trkpt>
      <trkpt lat="42.17848" lon="22.2641">
        <ele>618.344924</ele>
        <time>2022-04-10T08:46:07.046Z</time>
      </trkpt>
      <trkpt lat="42.17859" lon="22.26405">
        <ele>617.61875</ele>
        <time>2022-04-10T08:46:10.039Z</time>
      </trkpt>
      <trkpt lat="42.17868" lon="22.26399">
        <ele>617.030245</ele>
        <time>2022-04-10T08:46:15.005Z</time>
      </trkpt>
      <trkpt lat="42.17876" lon="22.26392">
        <ele>616.49012</ele>
        <time>2022-04-10T08:46:18.032Z</time>
      </trkpt>
      <trkpt lat="42.17881" lon="22.26379">
        <ele>615.862043</ele>
        <time>2022-04-10T08:46:21.067Z</time>
      </trkpt>
      <trkpt lat="42.17884" lon="22.26364">
        <ele>615.142966</ele>
        <time>2022-04-10T08:46:24.026Z</time>
      </trkpt>
      <trkpt lat="42.17887" lon="22.26346">
        <ele>614.348177</ele>
        <time>2022-04-10T08:46:27.025Z</time>
      </trkpt>
      <trkpt lat="42.1789" lon="22.26334">
        <ele>613.784336</ele>
        <time>2022-04-10T08:46:29.049Z</time>
      </trkpt>
      <trkpt lat="42.17892" lon="22.26322">
        <ele>613.237941</ele>
        <time>2022-04-10T08:46:31.091Z</time>
      </trkpt>
      <trkpt lat="42.17894" lon="22.26309">
        <ele>612.663002</ele>
        <time>2022-04-10T08:46:33.024Z</time>
      </trkpt>
      <trkpt lat="42.17896" lon="22.26297">
        <ele>612.123753</ele>
        <time>2022-04-10T08:46:35.028Z</time>
      </trkpt>
      <trkpt lat="42.17898" lon="22.26285">
        <ele>611.723865</ele>
        <time>2022-04-10T08:46:37.031Z</time>
      </trkpt>
      <trkpt lat="42.17901" lon="22.26268">
        <ele>611.839526</ele>
        <time>2022-04-10T08:46:40.037Z</time>
      </trkpt>
      <trkpt lat="42.17904" lon="22.26252">
        <ele>611.94592</ele>
        <time>2022-04-10T08:46:43.035Z</time>
      </trkpt>
      <trkpt lat="42.17907" lon="22.26238">
        <ele>612.043709</ele>
        <time>2022-04-10T08:46:46.026Z</time>
      </trkpt>
      <trkpt lat="42.17909" lon="22.26224">
        <ele>612.142006</ele>
        <time>2022-04-10T08:46:49.029Z</time>
      </trkpt>
      <trkpt lat="42.17911" lon="22.26209">
        <ele>612.240327</ele>
        <time>2022-04-10T08:46:52.020Z</time>
      </trkpt>
      <trkpt lat="42.1791" lon="22.26195">
        <ele>612.32999</ele>
        <time>2022-04-10T08:46:55.035Z</time>
      </trkpt>
      <trkpt lat="42.17909" lon="22.26182">
        <ele>612.420095</ele>
        <time>2022-04-10T08:46:58.038Z</time>
      </trkpt>
      <trkpt lat="42.17907" lon="22.26168">
        <ele>612.514083</ele>
        <time>2022-04-10T08:47:01.033Z</time>
      </trkpt>
      <trkpt lat="42.17902" lon="22.26156">
        <ele>612.605235</ele>
        <time>2022-04-10T08:47:04.068Z</time>
      </trkpt>
      <trkpt lat="42.17896" lon="22.26144">
        <ele>612.698642</ele>
        <time>2022-04-10T08:47:07.030Z</time>
      </trkpt>
      <trkpt lat="42.1789" lon="22.26135">
        <ele>612.783716</ele>
        <time>2022-04-10T08:47:10.036Z</time>
      </trkpt>
      <trkpt lat="42.17882" lon="22.26126">
        <ele>612.876697</ele>
        <time>2022-04-10T08:47:13.036Z</time>
      </trkpt>
      <trkpt lat="42.17872" lon="22.26118">
        <ele>612.980039</ele>
        <time>2022-04-10T08:47:16.039Z</time>
      </trkpt>
      <trkpt lat="42.17861" lon="22.2611">
        <ele>613.090612</ele>
        <time>2022-04-10T08:47:19.032Z</time>
      </trkpt>
      <trkpt lat="42.1785" lon="22.26103">
        <ele>613.203137</ele>
        <time>2022-04-10T08:47:22.037Z</time>
      </trkpt>
      <trkpt lat="42.17842" lon="22.26098">
        <ele>613.283814</ele>
        <time>2022-04-10T08:47:24.035Z</time>
      </trkpt>
      <trkpt lat="42.17832" lon="22.26092">
        <ele>613.230144</ele>
        <time>2022-04-10T08:47:26.040Z</time>
      </trkpt>
      <trkpt lat="42.17823" lon="22.26086">
        <ele>613.099504</ele>
        <time>2022-04-10T08:47:28.059Z</time>
      </trkpt>
      <trkpt lat="42.17812" lon="22.26079">
        <ele>612.945746</ele>
        <time>2022-04-10T08:47:30.054Z</time>
      </trkpt>
      <trkpt lat="42.17801" lon="22.26071">
        <ele>612.782277</ele>
        <time>2022-04-10T08:47:32.032Z</time>
      </trkpt>
      <trkpt lat="42.1779" lon="22.26062">
        <ele>612.62652</ele>
        <time>2022-04-10T08:47:34.037Z</time>
      </trkpt>
      <trkpt lat="42.17781" lon="22.26052">
        <ele>612.482531</ele>
        <time>2022-04-10T08:47:36.037Z</time>
      </trkpt>
      <trkpt lat="42.17771" lon="22.26041">
        <ele>612.320334</ele>
        <time>2022-04-10T08:47:38.067Z</time>
      </trkpt>
      <trkpt lat="42.17762" lon="22.2603">
        <ele>612.165128</ele>
        <time>2022-04-10T08:47:40.045Z</time>
      </trkpt>
      <trkpt lat="42.17754" lon="22.2602">
        <ele>612.025516</ele>
        <time>2022-04-10T08:47:42.044Z</time>
      </trkpt>
      <trkpt lat="42.17747" lon="22.26009">
        <ele>611.888655</ele>
        <time>2022-04-10T08:47:44.035Z</time>
      </trkpt>
      <trkpt lat="42.17739" lon="22.25998">
        <ele>611.739993</ele>
        <time>2022-04-10T08:47:46.044Z</time>
      </trkpt>
      <trkpt lat="42.1773" lon="22.25985">
        <ele>611.580335</ele>
        <time>2022-04-10T08:47:48.002Z</time>
      </trkpt>
      <trkpt lat="42.17722" lon="22.25974">
        <ele>611.432174</ele>
        <time>2022-04-10T08:47:50.050Z</time>
      </trkpt>
      <trkpt lat="42.17714" lon="22.25961">
        <ele>611.285065</ele>
        <time>2022-04-10T08:47:52.033Z</time>
      </trkpt>
      <trkpt lat="42.17708" lon="22.25948">
        <ele>611.136192</ele>
        <time>2022-04-10T08:47:54.025Z</time>
      </trkpt>
      <trkpt lat="42.17703" lon="22.25934">
        <ele>610.948301</ele>
        <time>2022-04-10T08:47:56.045Z</time>
      </trkpt>
      <trkpt lat="42.177" lon="22.2592">
        <ele>610.703055</ele>
        <time>2022-04-10T08:47:58.039Z</time>
      </trkpt>
      <trkpt lat="42.17698" lon="22.25907">
        <ele>610.470959</ele>
        <time>2022-04-10T08:48:00.049Z</time>
      </trkpt>
      <trkpt lat="42.17696" lon="22.25893">
        <ele>610.244736</ele>
        <time>2022-04-10T08:48:02.035Z</time>
      </trkpt>
      <trkpt lat="42.17696" lon="22.25881">
        <ele>610.033517</ele>
        <time>2022-04-10T08:48:04.032Z</time>
      </trkpt>
      <trkpt lat="42.17695" lon="22.25868">
        <ele>609.823494</ele>
        <time>2022-04-10T08:48:06.039Z</time>
      </trkpt>
      <trkpt lat="42.17694" lon="22.25856">
        <ele>609.611985</ele>
        <time>2022-04-10T08:48:08.034Z</time>
      </trkpt>
      <trkpt lat="42.17693" lon="22.25843">
        <ele>609.401756</ele>
        <time>2022-04-10T08:48:10.032Z</time>
      </trkpt>
      <trkpt lat="42.17692" lon="22.25826">
        <ele>609.114606</ele>
        <time>2022-04-10T08:48:13.056Z</time>
      </trkpt>
      <trkpt lat="42.17688" lon="22.25809">
        <ele>608.816409</ele>
        <time>2022-04-10T08:48:16.043Z</time>
      </trkpt>
      <trkpt lat="42.17686" lon="22.25797">
        <ele>608.60936</ele>
        <time>2022-04-10T08:48:18.054Z</time>
      </trkpt>
      <trkpt lat="42.17684" lon="22.25779">
        <ele>608.306977</ele>
        <time>2022-04-10T08:48:21.030Z</time>
      </trkpt>
      <trkpt lat="42.17682" lon="22.25767">
        <ele>608.093819</ele>
        <time>2022-04-10T08:48:23.034Z</time>
      </trkpt>
      <trkpt lat="42.1768" lon="22.25753">
        <ele>607.862152</ele>
        <time>2022-04-10T08:48:25.050Z</time>
      </trkpt>
      <trkpt lat="42.17678" lon="22.25739">
        <ele>607.624298</ele>
        <time>2022-04-10T08:48:27.045Z</time>
      </trkpt>
      <trkpt lat="42.17676" lon="22.25725">
        <ele>607.37935</ele>
        <time>2022-04-10T08:48:29.056Z</time>
      </trkpt>
      <trkpt lat="42.17673" lon="22.25709">
        <ele>607.112803</ele>
        <time>2022-04-10T08:48:31.042Z</time>
      </trkpt>
      <trkpt lat="42.17671" lon="22.25693">
        <ele>606.813282</ele>
        <time>2022-04-10T08:48:33.070Z</time>
      </trkpt>
      <trkpt lat="42.17669" lon="22.25677">
        <ele>606.490503</ele>
        <time>2022-04-10T08:48:35.034Z</time>
      </trkpt>
      <trkpt lat="42.17666" lon="22.2566">
        <ele>606.155752</ele>
        <time>2022-04-10T08:48:37.041Z</time>
      </trkpt>
      <trkpt lat="42.17664" lon="22.25642">
        <ele>605.798833</ele>
        <time>2022-04-10T08:48:39.030Z</time>
      </trkpt>
      <trkpt lat="42.17663" lon="22.25624">
        <ele>605.439523</ele>
        <time>2022-04-10T08:48:41.036Z</time>
      </trkpt>
      <trkpt lat="42.17661" lon="22.25606">
        <ele>605.087186</ele>
        <time>2022-04-10T08:48:43.040Z</time>
      </trkpt>
      <trkpt lat="42.1766" lon="22.25585">
        <ele>604.677221</ele>
        <time>2022-04-10T08:48:45.032Z</time>
      </trkpt>
      <trkpt lat="42.1766" lon="22.25562">
        <ele>604.236646</ele>
        <time>2022-04-10T08:48:47.038Z</time>
      </trkpt>
      <trkpt lat="42.17659" lon="22.25538">
        <ele>603.770552</ele>
        <time>2022-04-10T08:48:49.080Z</time>
      </trkpt>
      <trkpt lat="42.17659" lon="22.25514">
        <ele>603.302977</ele>
        <time>2022-04-10T08:48:51.024Z</time>
      </trkpt>
      <trkpt lat="42.1766" lon="22.25492">
        <ele>602.864246</ele>
        <time>2022-04-10T08:48:53.045Z</time>
      </trkpt>
      <trkpt lat="42.1766" lon="22.2547">
        <ele>602.445376</ele>
        <time>2022-04-10T08:48:55.074Z</time>
      </trkpt>
      <trkpt lat="42.1766" lon="22.2545">
        <ele>602.249423</ele>
        <time>2022-04-10T08:48:57.037Z</time>
      </trkpt>
      <trkpt lat="42.17659" lon="22.25431">
        <ele>602.235729</ele>
        <time>2022-04-10T08:48:59.034Z</time>
      </trkpt>
      <trkpt lat="42.17659" lon="22.25412">
        <ele>602.222317</ele>
        <time>2022-04-10T08:49:01.050Z</time>
      </trkpt>
      <trkpt lat="42.17658" lon="22.25393">
        <ele>602.20898</ele>
        <time>2022-04-10T08:49:03.035Z</time>
      </trkpt>
      <trkpt lat="42.17658" lon="22.25376">
        <ele>602.196793</ele>
        <time>2022-04-10T08:49:05.050Z</time>
      </trkpt>
      <trkpt lat="42.17657" lon="22.25361">
        <ele>602.185536</ele>
        <time>2022-04-10T08:49:07.041Z</time>
      </trkpt>
      <trkpt lat="42.17657" lon="22.25347">
        <ele>602.175574</ele>
        <time>2022-04-10T08:49:09.034Z</time>
      </trkpt>
      <trkpt lat="42.17656" lon="22.25329">
        <ele>602.162847</ele>
        <time>2022-04-10T08:49:12.072Z</time>
      </trkpt>
      <trkpt lat="42.17656" lon="22.25313">
        <ele>602.151095</ele>
        <time>2022-04-10T08:49:15.038Z</time>
      </trkpt>
      <trkpt lat="42.17656" lon="22.25299">
        <ele>602.140916</ele>
        <time>2022-04-10T08:49:18.016Z</time>
      </trkpt>
      <trkpt lat="42.17655" lon="22.25284">
        <ele>602.130596</ele>
        <time>2022-04-10T08:49:21.040Z</time>
      </trkpt>
      <trkpt lat="42.17655" lon="22.25271">
        <ele>602.120849</ele>
        <time>2022-04-10T08:49:24.061Z</time>
      </trkpt>
      <trkpt lat="42.17655" lon="22.25258">
        <ele>602.112033</ele>
        <time>2022-04-10T08:49:27.034Z</time>
      </trkpt>
      <trkpt lat="42.17656" lon="22.25246">
        <ele>602.103024</ele>
        <time>2022-04-10T08:49:30.042Z</time>
      </trkpt>
      <trkpt lat="42.17656" lon="22.25232">
        <ele>602.093418</ele>
        <time>2022-04-10T08:49:33.036Z</time>
      </trkpt>
      <trkpt lat="42.17657" lon="22.25218">
        <ele>602.083382</ele>
        <time>2022-04-10T08:49:36.030Z</time>
      </trkpt>
      <trkpt lat="42.17657" lon="22.25204">
        <ele>602.121744</ele>
        <time>2022-04-10T08:49:39.012Z</time>
      </trkpt>
      <trkpt lat="42.17657" lon="22.2519">
        <ele>602.160577</ele>
        <time>2022-04-10T08:49:42.031Z</time>
      </trkpt>
      <trkpt lat="42.17656" lon="22.25176">
        <ele>602.199716</ele>
        <time>2022-04-10T08:49:45.047Z</time>
      </trkpt>
      <trkpt lat="42.17655" lon="22.2516">
        <ele>602.242512</ele>
        <time>2022-04-10T08:49:48.035Z</time>
      </trkpt>
      <trkpt lat="42.17655" lon="22.25145">
        <ele>602.285789</ele>
        <time>2022-04-10T08:49:51.067Z</time>
      </trkpt>
      <trkpt lat="42.17655" lon="22.25128">
        <ele>602.332113</ele>
        <time>2022-04-10T08:49:54.038Z</time>
      </trkpt>
      <trkpt lat="42.17656" lon="22.25116">
        <ele>602.365961</ele>
        <time>2022-04-10T08:49:56.029Z</time>
      </trkpt>
      <trkpt lat="42.17656" lon="22.25103">
        <ele>602.40287</ele>
        <time>2022-04-10T08:49:58.034Z</time>
      </trkpt>
      <trkpt lat="42.17656" lon="22.2509">
        <ele>602.438946</ele>
        <time>2022-04-10T08:50:00.030Z</time>
      </trkpt>
      <trkpt lat="42.17655" lon="22.25076">
        <ele>602.477241</ele>
        <time>2022-04-10T08:50:02.074Z</time>
      </trkpt>
      <trkpt lat="42.17655" lon="22.25062">
        <ele>602.514689</ele>
        <time>2022-04-10T08:50:04.045Z</time>
      </trkpt>
      <trkpt lat="42.17655" lon="22.25048">
        <ele>602.55491</ele>
        <time>2022-04-10T08:50:06.033Z</time>
      </trkpt>
      <trkpt lat="42.17655" lon="22.25033">
        <ele>602.596247</ele>
        <time>2022-04-10T08:50:08.037Z</time>
      </trkpt>
      <trkpt lat="42.17655" lon="22.25018">
        <ele>602.637868</ele>
        <time>2022-04-10T08:50:10.034Z</time>
      </trkpt>
      <trkpt lat="42.17655" lon="22.25002">
        <ele>602.681146</ele>
        <time>2022-04-10T08:50:12.043Z</time>
      </trkpt>
      <trkpt lat="42.17655" lon="22.24987">
        <ele>602.723585</ele>
        <time>2022-04-10T08:50:14.078Z</time>
      </trkpt>
      <trkpt lat="42.17655" lon="22.24972">
        <ele>602.68649</ele>
        <time>2022-04-10T08:50:16.017Z</time>
      </trkpt>
      <trkpt lat="42.17655" lon="22.24957">
        <ele>602.348139</ele>
        <time>2022-04-10T08:50:18.060Z</time>
      </trkpt>
      <trkpt lat="42.17655" lon="22.24941">
        <ele>601.98088</ele>
        <time>2022-04-10T08:50:20.035Z</time>
      </trkpt>
      <trkpt lat="42.17654" lon="22.24924">
        <ele>601.607086</ele>
        <time>2022-04-10T08:50:22.036Z</time>
      </trkpt>
      <trkpt lat="42.17651" lon="22.24907">
        <ele>601.221757</ele>
        <time>2022-04-10T08:50:24.057Z</time>
      </trkpt>
      <trkpt lat="42.17649" lon="22.2489">
        <ele>600.833972</ele>
        <time>2022-04-10T08:50:26.066Z</time>
      </trkpt>
      <trkpt lat="42.17646" lon="22.24873">
        <ele>600.448643</ele>
        <time>2022-04-10T08:50:28.031Z</time>
      </trkpt>
      <trkpt lat="42.17644" lon="22.24856">
        <ele>600.054514</ele>
        <time>2022-04-10T08:50:30.040Z</time>
      </trkpt>
      <trkpt lat="42.17641" lon="22.24838">
        <ele>599.653221</ele>
        <time>2022-04-10T08:50:32.063Z</time>
      </trkpt>
      <trkpt lat="42.17638" lon="22.2482">
        <ele>599.224226</ele>
        <time>2022-04-10T08:50:34.028Z</time>
      </trkpt>
      <trkpt lat="42.17635" lon="22.24801">
        <ele>598.782634</ele>
        <time>2022-04-10T08:50:36.035Z</time>
      </trkpt>
      <trkpt lat="42.17632" lon="22.24781">
        <ele>598.327272</ele>
        <time>2022-04-10T08:50:38.067Z</time>
      </trkpt>
      <trkpt lat="42.17629" lon="22.2476">
        <ele>597.865334</ele>
        <time>2022-04-10T08:50:40.034Z</time>
      </trkpt>
      <trkpt lat="42.17625" lon="22.24739">
        <ele>597.374267</ele>
        <time>2022-04-10T08:50:42.046Z</time>
      </trkpt>
      <trkpt lat="42.17623" lon="22.24717">
        <ele>596.833766</ele>
        <time>2022-04-10T08:50:44.048Z</time>
      </trkpt>
      <trkpt lat="42.17623" lon="22.24695">
        <ele>596.284757</ele>
        <time>2022-04-10T08:50:46.026Z</time>
      </trkpt>
      <trkpt lat="42.17625" lon="22.24673">
        <ele>595.743412</ele>
        <time>2022-04-10T08:50:48.038Z</time>
      </trkpt>
      <trkpt lat="42.17627" lon="22.24652">
        <ele>595.210961</ele>
        <time>2022-04-10T08:50:50.037Z</time>
      </trkpt>
      <trkpt lat="42.1763" lon="22.24631">
        <ele>594.686363</ele>
        <time>2022-04-10T08:50:52.024Z</time>
      </trkpt>
      <trkpt lat="42.17634" lon="22.24611">
        <ele>594.185459</ele>
        <time>2022-04-10T08:50:54.039Z</time>
      </trkpt>
      <trkpt lat="42.17637" lon="22.24592">
        <ele>593.700528</ele>
        <time>2022-04-10T08:50:56.035Z</time>
      </trkpt>
      <trkpt lat="42.1764" lon="22.24573">
        <ele>593.216344</ele>
        <time>2022-04-10T08:50:58.035Z</time>
      </trkpt>
      <trkpt lat="42.17643" lon="22.24554">
        <ele>592.736691</ele>
        <time>2022-04-10T08:51:00.090Z</time>
      </trkpt>
      <trkpt lat="42.17646" lon="22.24536">
        <ele>592.282172</ele>
        <time>2022-04-10T08:51:02.033Z</time>
      </trkpt>
      <trkpt lat="42.17649" lon="22.24518">
        <ele>591.821163</ele>
        <time>2022-04-10T08:51:04.052Z</time>
      </trkpt>
      <trkpt lat="42.17652" lon="22.24499">
        <ele>591.352998</ele>
        <time>2022-04-10T08:51:06.077Z</time>
      </trkpt>
      <trkpt lat="42.17654" lon="22.24481">
        <ele>591.136998</ele>
        <time>2022-04-10T08:51:08.056Z</time>
      </trkpt>
      <trkpt lat="42.17657" lon="22.24463">
        <ele>590.945944</ele>
        <time>2022-04-10T08:51:10.037Z</time>
      </trkpt>
      <trkpt lat="42.17659" lon="22.24445">
        <ele>590.754959</ele>
        <time>2022-04-10T08:51:12.070Z</time>
      </trkpt>
      <trkpt lat="42.17662" lon="22.24428">
        <ele>590.565514</ele>
        <time>2022-04-10T08:51:14.039Z</time>
      </trkpt>
      <trkpt lat="42.17664" lon="22.24411">
        <ele>590.379976</ele>
        <time>2022-04-10T08:51:16.027Z</time>
      </trkpt>
      <trkpt lat="42.17667" lon="22.24393">
        <ele>590.187953</ele>
        <time>2022-04-10T08:51:18.057Z</time>
      </trkpt>
      <trkpt lat="42.17669" lon="22.24375">
        <ele>589.996707</ele>
        <time>2022-04-10T08:51:20.039Z</time>
      </trkpt>
      <trkpt lat="42.17671" lon="22.24357">
        <ele>589.81061</ele>
        <time>2022-04-10T08:51:22.036Z</time>
      </trkpt>
      <trkpt lat="42.17673" lon="22.2434">
        <ele>589.628482</ele>
        <time>2022-04-10T08:51:24.039Z</time>
      </trkpt>
      <trkpt lat="42.17674" lon="22.24322">
        <ele>589.438157</ele>
        <time>2022-04-10T08:51:26.041Z</time>
      </trkpt>
      <trkpt lat="42.17676" lon="22.24304">
        <ele>589.244344</ele>
        <time>2022-04-10T08:51:28.042Z</time>
      </trkpt>
      <trkpt lat="42.17677" lon="22.24286">
        <ele>589.054184</ele>
        <time>2022-04-10T08:51:30.040Z</time>
      </trkpt>
      <trkpt lat="42.17678" lon="22.24268">
        <ele>588.863528</ele>
        <time>2022-04-10T08:51:32.039Z</time>
      </trkpt>
      <trkpt lat="42.17679" lon="22.2425">
        <ele>588.716106</ele>
        <time>2022-04-10T08:51:34.025Z</time>
      </trkpt>
      <trkpt lat="42.1768" lon="22.24232">
        <ele>588.624417</ele>
        <time>2022-04-10T08:51:36.030Z</time>
      </trkpt>
      <trkpt lat="42.1768" lon="22.24213">
        <ele>588.530926</ele>
        <time>2022-04-10T08:51:38.077Z</time>
      </trkpt>
      <trkpt lat="42.17681" lon="22.24195">
        <ele>588.436475</ele>
        <time>2022-04-10T08:51:40.045Z</time>
      </trkpt>
      <trkpt lat="42.17681" lon="22.24177">
        <ele>588.345574</ele>
        <time>2022-04-10T08:51:42.034Z</time>
      </trkpt>
      <trkpt lat="42.17682" lon="22.24159">
        <ele>588.258605</ele>
        <time>2022-04-10T08:51:44.029Z</time>
      </trkpt>
      <trkpt lat="42.17681" lon="22.24144">
        <ele>588.181755</ele>
        <time>2022-04-10T08:51:46.039Z</time>
      </trkpt>
      <trkpt lat="42.17681" lon="22.2413">
        <ele>588.108031</ele>
        <time>2022-04-10T08:51:48.040Z</time>
      </trkpt>
      <trkpt lat="42.17681" lon="22.24113">
        <ele>588.02522</ele>
        <time>2022-04-10T08:51:50.041Z</time>
      </trkpt>
      <trkpt lat="42.17681" lon="22.24096">
        <ele>587.938371</ele>
        <time>2022-04-10T08:51:52.030Z</time>
      </trkpt>
      <trkpt lat="42.17681" lon="22.24079">
        <ele>587.853004</ele>
        <time>2022-04-10T08:51:54.039Z</time>
      </trkpt>
      <trkpt lat="42.1768" lon="22.24063">
        <ele>587.769688</ele>
        <time>2022-04-10T08:51:56.044Z</time>
      </trkpt>
      <trkpt lat="42.1768" lon="22.24046">
        <ele>587.683849</ele>
        <time>2022-04-10T08:51:58.034Z</time>
      </trkpt>
      <trkpt lat="42.17679" lon="22.24028">
        <ele>587.595682</ele>
        <time>2022-04-10T08:52:00.074Z</time>
      </trkpt>
      <trkpt lat="42.17678" lon="22.2401">
        <ele>587.51362</ele>
        <time>2022-04-10T08:52:02.036Z</time>
      </trkpt>
      <trkpt lat="42.17677" lon="22.23992">
        <ele>587.457398</ele>
        <time>2022-04-10T08:52:04.034Z</time>
      </trkpt>
      <trkpt lat="42.17674" lon="22.23974">
        <ele>587.398277</ele>
        <time>2022-04-10T08:52:06.025Z</time>
      </trkpt>
      <trkpt lat="42.17671" lon="22.23958">
        <ele>587.342879</ele>
        <time>2022-04-10T08:52:08.044Z</time>
      </trkpt>
      <trkpt lat="42.1767" lon="22.23942">
        <ele>587.291808</ele>
        <time>2022-04-10T08:52:10.040Z</time>
      </trkpt>
      <trkpt lat="42.17668" lon="22.23926">
        <ele>587.242087</ele>
        <time>2022-04-10T08:52:12.017Z</time>
      </trkpt>
      <trkpt lat="42.17666" lon="22.23911">
        <ele>587.19112</ele>
        <time>2022-04-10T08:52:14.033Z</time>
      </trkpt>
      <trkpt lat="42.17662" lon="22.23896">
        <ele>587.140341</ele>
        <time>2022-04-10T08:52:16.027Z</time>
      </trkpt>
      <trkpt lat="42.17659" lon="22.23881">
        <ele>587.090651</ele>
        <time>2022-04-10T08:52:18.037Z</time>
      </trkpt>
      <trkpt lat="42.17654" lon="22.23868">
        <ele>587.044782</ele>
        <time>2022-04-10T08:52:20.073Z</time>
      </trkpt>
      <trkpt lat="42.1765" lon="22.23857">
        <ele>587.003528</ele>
        <time>2022-04-10T08:52:22.071Z</time>
      </trkpt>
      <trkpt lat="42.17646" lon="22.23844">
        <ele>586.960242</ele>
        <time>2022-04-10T08:52:24.032Z</time>
      </trkpt>
      <trkpt lat="42.17641" lon="22.2383">
        <ele>586.910208</ele>
        <time>2022-04-10T08:52:26.042Z</time>
      </trkpt>
      <trkpt lat="42.17635" lon="22.23815">
        <ele>586.855987</ele>
        <time>2022-04-10T08:52:28.034Z</time>
      </trkpt>
      <trkpt lat="42.17628" lon="22.23799">
        <ele>586.797127</ele>
        <time>2022-04-10T08:52:30.028Z</time>
      </trkpt>
      <trkpt lat="42.17622" lon="22.23784">
        <ele>586.774174</ele>
        <time>2022-04-10T08:52:32.036Z</time>
      </trkpt>
      <trkpt lat="42.17615" lon="22.2377">
        <ele>586.849509</ele>
        <time>2022-04-10T08:52:34.065Z</time>
      </trkpt>
      <trkpt lat="42.17609" lon="22.23758">
        <ele>586.919836</ele>
        <time>2022-04-10T08:52:36.040Z</time>
      </trkpt>
      <trkpt lat="42.17603" lon="22.23747">
        <ele>586.984914</ele>
        <time>2022-04-10T08:52:38.028Z</time>
      </trkpt>
      <trkpt lat="42.17596" lon="22.23736">
        <ele>587.050018</ele>
        <time>2022-04-10T08:52:40.040Z</time>
      </trkpt>
      <trkpt lat="42.17588" lon="22.23724">
        <ele>587.124392</ele>
        <time>2022-04-10T08:52:42.042Z</time>
      </trkpt>
      <trkpt lat="42.1758" lon="22.23713">
        <ele>587.200247</ele>
        <time>2022-04-10T08:52:44.058Z</time>
      </trkpt>
      <trkpt lat="42.17571" lon="22.23702">
        <ele>587.273423</ele>
        <time>2022-04-10T08:52:46.045Z</time>
      </trkpt>
      <trkpt lat="42.17562" lon="22.23693">
        <ele>587.342075</ele>
        <time>2022-04-10T08:52:48.036Z</time>
      </trkpt>
      <trkpt lat="42.17553" lon="22.23683">
        <ele>587.415503</ele>
        <time>2022-04-10T08:52:50.020Z</time>
      </trkpt>
      <trkpt lat="42.17545" lon="22.23675">
        <ele>587.480246</ele>
        <time>2022-04-10T08:52:52.044Z</time>
      </trkpt>
      <trkpt lat="42.17537" lon="22.23666">
        <ele>587.544136</ele>
        <time>2022-04-10T08:52:54.042Z</time>
      </trkpt>
      <trkpt lat="42.17528" lon="22.23659">
        <ele>587.608713</ele>
        <time>2022-04-10T08:52:56.065Z</time>
      </trkpt>
      <trkpt lat="42.1752" lon="22.23652">
        <ele>587.671755</ele>
        <time>2022-04-10T08:52:58.015Z</time>
      </trkpt>
      <trkpt lat="42.17512" lon="22.23644">
        <ele>587.732683</ele>
        <time>2022-04-10T08:53:00.038Z</time>
      </trkpt>
      <trkpt lat="42.17504" lon="22.23636">
        <ele>587.792946</ele>
        <time>2022-04-10T08:53:02.075Z</time>
      </trkpt>
      <trkpt lat="42.17494" lon="22.23625">
        <ele>587.87321</ele>
        <time>2022-04-10T08:53:05.042Z</time>
      </trkpt>
      <trkpt lat="42.17484" lon="22.23615">
        <ele>588.32373</ele>
        <time>2022-04-10T08:53:08.028Z</time>
      </trkpt>
      <trkpt lat="42.17474" lon="22.23604">
        <ele>588.850294</ele>
        <time>2022-04-10T08:53:11.047Z</time>
      </trkpt>
      <trkpt lat="42.17464" lon="22.23593">
        <ele>589.370569</ele>
        <time>2022-04-10T08:53:14.037Z</time>
      </trkpt>
      <trkpt lat="42.17455" lon="22.23581">
        <ele>589.904699</ele>
        <time>2022-04-10T08:53:17.036Z</time>
      </trkpt>
      <trkpt lat="42.17445" lon="22.23568">
        <ele>590.449346</ele>
        <time>2022-04-10T08:53:20.039Z</time>
      </trkpt>
      <trkpt lat="42.17439" lon="22.23559">
        <ele>590.818661</ele>
        <time>2022-04-10T08:53:22.049Z</time>
      </trkpt>
      <trkpt lat="42.1743" lon="22.23546">
        <ele>591.369053</ele>
        <time>2022-04-10T08:53:25.042Z</time>
      </trkpt>
      <trkpt lat="42.17423" lon="22.23537">
        <ele>591.744706</ele>
        <time>2022-04-10T08:53:27.046Z</time>
      </trkpt>
      <trkpt lat="42.17418" lon="22.23527">
        <ele>592.124322</ele>
        <time>2022-04-10T08:53:29.017Z</time>
      </trkpt>
      <trkpt lat="42.17412" lon="22.23517">
        <ele>592.49164</ele>
        <time>2022-04-10T08:53:31.040Z</time>
      </trkpt>
      <trkpt lat="42.17407" lon="22.23507">
        <ele>592.861581</ele>
        <time>2022-04-10T08:53:33.038Z</time>
      </trkpt>
      <trkpt lat="42.17399" lon="22.23493">
        <ele>593.385846</ele>
        <time>2022-04-10T08:53:36.066Z</time>
      </trkpt>
      <trkpt lat="42.17393" lon="22.23479">
        <ele>593.884715</ele>
        <time>2022-04-10T08:53:39.046Z</time>
      </trkpt>
      <trkpt lat="42.17386" lon="22.23465">
        <ele>594.366547</ele>
        <time>2022-04-10T08:53:42.072Z</time>
      </trkpt>
      <trkpt lat="42.17381" lon="22.23452">
        <ele>594.831079</ele>
        <time>2022-04-10T08:53:45.033Z</time>
      </trkpt>
      <trkpt lat="42.17374" lon="22.23438">
        <ele>595.163289</ele>
        <time>2022-04-10T08:53:48.066Z</time>
      </trkpt>
      <trkpt lat="42.1737" lon="22.23424">
        <ele>595.106216</ele>
        <time>2022-04-10T08:53:51.038Z</time>
      </trkpt>
      <trkpt lat="42.17366" lon="22.23409">
        <ele>595.04924</ele>
        <time>2022-04-10T08:53:54.039Z</time>
      </trkpt>
      <trkpt lat="42.17361" lon="22.23394">
        <ele>594.98797</ele>
        <time>2022-04-10T08:53:57.017Z</time>
      </trkpt>
      <trkpt lat="42.17357" lon="22.23381">
        <ele>594.936726</ele>
        <time>2022-04-10T08:54:00.036Z</time>
      </trkpt>
      <trkpt lat="42.17355" lon="22.23367">
        <ele>594.880739</ele>
        <time>2022-04-10T08:54:03.027Z</time>
      </trkpt>
      <trkpt lat="42.17353" lon="22.23355">
        <ele>594.834811</ele>
        <time>2022-04-10T08:54:05.033Z</time>
      </trkpt>
      <trkpt lat="42.1735" lon="22.23342">
        <ele>594.785509</ele>
        <time>2022-04-10T08:54:07.040Z</time>
      </trkpt>
      <trkpt lat="42.17346" lon="22.23326">
        <ele>594.725835</ele>
        <time>2022-04-10T08:54:09.042Z</time>
      </trkpt>
      <trkpt lat="42.17343" lon="22.23311">
        <ele>594.664528</ele>
        <time>2022-04-10T08:54:11.056Z</time>
      </trkpt>
      <trkpt lat="42.1734" lon="22.23296">
        <ele>594.609501</ele>
        <time>2022-04-10T08:54:13.042Z</time>
      </trkpt>
      <trkpt lat="42.17338" lon="22.23282">
        <ele>594.556738</ele>
        <time>2022-04-10T08:54:15.024Z</time>
      </trkpt>
      <trkpt lat="42.17336" lon="22.23269">
        <ele>594.505169</ele>
        <time>2022-04-10T08:54:17.047Z</time>
      </trkpt>
      <trkpt lat="42.17334" lon="22.23256">
        <ele>594.458335</ele>
        <time>2022-04-10T08:54:19.037Z</time>
      </trkpt>
      <trkpt lat="42.17333" lon="22.23244">
        <ele>594.413109</ele>
        <time>2022-04-10T08:54:21.070Z</time>
      </trkpt>
      <trkpt lat="42.17332" lon="22.23226">
        <ele>594.346608</ele>
        <time>2022-04-10T08:54:24.047Z</time>
      </trkpt>
      <trkpt lat="42.17333" lon="22.23214">
        <ele>594.300972</ele>
        <time>2022-04-10T08:54:26.024Z</time>
      </trkpt>
      <trkpt lat="42.17333" lon="22.23201">
        <ele>594.073823</ele>
        <time>2022-04-10T08:54:28.037Z</time>
      </trkpt>
      <trkpt lat="42.17332" lon="22.23187">
        <ele>593.706285</ele>
        <time>2022-04-10T08:54:30.036Z</time>
      </trkpt>
      <trkpt lat="42.17332" lon="22.23173">
        <ele>593.314707</ele>
        <time>2022-04-10T08:54:32.072Z</time>
      </trkpt>
      <trkpt lat="42.17331" lon="22.23158">
        <ele>592.911672</ele>
        <time>2022-04-10T08:54:34.024Z</time>
      </trkpt>
      <trkpt lat="42.17331" lon="22.23143">
        <ele>592.533412</ele>
        <time>2022-04-10T08:54:36.030Z</time>
      </trkpt>
      <trkpt lat="42.1733" lon="22.23129">
        <ele>592.146181</ele>
        <time>2022-04-10T08:54:38.083Z</time>
      </trkpt>
      <trkpt lat="42.17329" lon="22.23115">
        <ele>591.761019</ele>
        <time>2022-04-10T08:54:40.034Z</time>
      </trkpt>
      <trkpt lat="42.17326" lon="22.231">
        <ele>591.351351</ele>
        <time>2022-04-10T08:54:42.035Z</time>
      </trkpt>
      <trkpt lat="42.17323" lon="22.23086">
        <ele>590.951186</ele>
        <time>2022-04-10T08:54:44.060Z</time>
      </trkpt>
      <trkpt lat="42.17319" lon="22.23073">
        <ele>590.573352</ele>
        <time>2022-04-10T08:54:46.053Z</time>
      </trkpt>
      <trkpt lat="42.17314" lon="22.23061">
        <ele>590.200584</ele>
        <time>2022-04-10T08:54:48.029Z</time>
      </trkpt>
      <trkpt lat="42.17308" lon="22.23048">
        <ele>589.816111</ele>
        <time>2022-04-10T08:54:50.080Z</time>
      </trkpt>
      <trkpt lat="42.17301" lon="22.23036">
        <ele>589.415388</ele>
        <time>2022-04-10T08:54:52.038Z</time>
      </trkpt>
      <trkpt lat="42.17295" lon="22.23025">
        <ele>589.02297</ele>
        <time>2022-04-10T08:54:54.050Z</time>
      </trkpt>
      <trkpt lat="42.17289" lon="22.23014">
        <ele>588.648086</ele>
        <time>2022-04-10T08:54:56.073Z</time>
      </trkpt>
      <trkpt lat="42.17282" lon="22.23002">
        <ele>588.258134</ele>
        <time>2022-04-10T08:54:58.031Z</time>
      </trkpt>
      <trkpt lat="42.17276" lon="22.2299">
        <ele>587.869453</ele>
        <time>2022-04-10T08:55:00.042Z</time>
      </trkpt>
      <trkpt lat="42.17271" lon="22.22979">
        <ele>587.573827</ele>
        <time>2022-04-10T08:55:02.024Z</time>
      </trkpt>
      <trkpt lat="42.17266" lon="22.22968">
        <ele>587.305934</ele>
        <time>2022-04-10T08:55:04.018Z</time>
      </trkpt>
      <trkpt lat="42.17261" lon="22.22958">
        <ele>587.041828</ele>
        <time>2022-04-10T08:55:06.030Z</time>
      </trkpt>
      <trkpt lat="42.17256" lon="22.22941">
        <ele>586.668731</ele>
        <time>2022-04-10T08:55:09.027Z</time>
      </trkpt>
      <trkpt lat="42.17253" lon="22.22928">
        <ele>586.383562</ele>
        <time>2022-04-10T08:55:11.046Z</time>
      </trkpt>
      <trkpt lat="42.17251" lon="22.22916">
        <ele>586.100916</ele>
        <time>2022-04-10T08:55:13.028Z</time>
      </trkpt>
      <trkpt lat="42.17247" lon="22.22898">
        <ele>585.70811</ele>
        <time>2022-04-10T08:55:16.041Z</time>
      </trkpt>
      <trkpt lat="42.17245" lon="22.22884">
        <ele>585.41409</ele>
        <time>2022-04-10T08:55:18.083Z</time>
      </trkpt>
      <trkpt lat="42.17243" lon="22.22871">
        <ele>585.126094</ele>
        <time>2022-04-10T08:55:20.052Z</time>
      </trkpt>
      <trkpt lat="42.17241" lon="22.22858">
        <ele>584.849549</ele>
        <time>2022-04-10T08:55:22.029Z</time>
      </trkpt>
      <trkpt lat="42.1724" lon="22.22845">
        <ele>584.581463</ele>
        <time>2022-04-10T08:55:24.048Z</time>
      </trkpt>
      <trkpt lat="42.1724" lon="22.22832">
        <ele>584.295552</ele>
        <time>2022-04-10T08:55:26.046Z</time>
      </trkpt>
      <trkpt lat="42.17241" lon="22.22819">
        <ele>584.012129</ele>
        <time>2022-04-10T08:55:28.039Z</time>
      </trkpt>
      <trkpt lat="42.17243" lon="22.22805">
        <ele>583.724678</ele>
        <time>2022-04-10T08:55:30.046Z</time>
      </trkpt>
      <trkpt lat="42.17245" lon="22.22792">
        <ele>583.443018</ele>
        <time>2022-04-10T08:55:32.076Z</time>
      </trkpt>
      <trkpt lat="42.17246" lon="22.22778">
        <ele>583.134021</ele>
        <time>2022-04-10T08:55:34.037Z</time>
      </trkpt>
      <trkpt lat="42.17246" lon="22.22763">
        <ele>582.816343</ele>
        <time>2022-04-10T08:55:36.042Z</time>
      </trkpt>
      <trkpt lat="42.17247" lon="22.2275">
        <ele>582.610499</ele>
        <time>2022-04-10T08:55:38.050Z</time>
      </trkpt>
      <trkpt lat="42.17248" lon="22.22738">
        <ele>582.548194</ele>
        <time>2022-04-10T08:55:40.053Z</time>
      </trkpt>
      <trkpt lat="42.17249" lon="22.22725">
        <ele>582.484779</ele>
        <time>2022-04-10T08:55:42.022Z</time>
      </trkpt>
      <trkpt lat="42.1725" lon="22.22712">
        <ele>582.41722</ele>
        <time>2022-04-10T08:55:44.024Z</time>
      </trkpt>
      <trkpt lat="42.17251" lon="22.22698">
        <ele>582.3446</ele>
        <time>2022-04-10T08:55:46.049Z</time>
      </trkpt>
      <trkpt lat="42.17251" lon="22.22683">
        <ele>582.263698</ele>
        <time>2022-04-10T08:55:48.045Z</time>
      </trkpt>
      <trkpt lat="42.1725" lon="22.22668">
        <ele>582.188931</ele>
        <time>2022-04-10T08:55:50.046Z</time>
      </trkpt>
      <trkpt lat="42.1725" lon="22.22654">
        <ele>582.116246</ele>
        <time>2022-04-10T08:55:52.039Z</time>
      </trkpt>
      <trkpt lat="42.17249" lon="22.2264">
        <ele>582.042866</ele>
        <time>2022-04-10T08:55:54.037Z</time>
      </trkpt>
      <trkpt lat="42.17249" lon="22.22626">
        <ele>581.971158</ele>
        <time>2022-04-10T08:55:56.033Z</time>
      </trkpt>
      <trkpt lat="42.17248" lon="22.22611">
        <ele>581.896235</ele>
        <time>2022-04-10T08:55:58.083Z</time>
      </trkpt>
      <trkpt lat="42.17247" lon="22.22597">
        <ele>581.819718</ele>
        <time>2022-04-10T08:56:00.026Z</time>
      </trkpt>
      <trkpt lat="42.17247" lon="22.22582">
        <ele>581.746429</ele>
        <time>2022-04-10T08:56:02.051Z</time>
      </trkpt>
      <trkpt lat="42.17246" lon="22.2257">
        <ele>581.679943</ele>
        <time>2022-04-10T08:56:04.054Z</time>
      </trkpt>
      <trkpt lat="42.17246" lon="22.22556">
        <ele>581.612267</ele>
        <time>2022-04-10T08:56:06.044Z</time>
      </trkpt>
      <trkpt lat="42.17245" lon="22.22543">
        <ele>581.54515</ele>
        <time>2022-04-10T08:56:08.040Z</time>
      </trkpt>
      <trkpt lat="42.17245" lon="22.22526">
        <ele>581.457013</ele>
        <time>2022-04-10T08:56:11.033Z</time>
      </trkpt>
      <trkpt lat="42.17246" lon="22.22509">
        <ele>581.421214</ele>
        <time>2022-04-10T08:56:14.030Z</time>
      </trkpt>
      <trkpt lat="42.17247" lon="22.22496">
        <ele>581.569093</ele>
        <time>2022-04-10T08:56:16.038Z</time>
      </trkpt>
      <trkpt lat="42.1725" lon="22.22484">
        <ele>581.712772</ele>
        <time>2022-04-10T08:56:18.046Z</time>
      </trkpt>
      <trkpt lat="42.17254" lon="22.22472">
        <ele>581.867472</ele>
        <time>2022-04-10T08:56:20.032Z</time>
      </trkpt>
      <trkpt lat="42.17259" lon="22.22459">
        <ele>582.033333</ele>
        <time>2022-04-10T08:56:22.020Z</time>
      </trkpt>
      <trkpt lat="42.17266" lon="22.22449">
        <ele>582.189283</ele>
        <time>2022-04-10T08:56:24.061Z</time>
      </trkpt>
      <trkpt lat="42.17273" lon="22.2244">
        <ele>582.345779</ele>
        <time>2022-04-10T08:56:26.021Z</time>
      </trkpt>
      <trkpt lat="42.1728" lon="22.2243">
        <ele>582.491944</ele>
        <time>2022-04-10T08:56:28.030Z</time>
      </trkpt>
      <trkpt lat="42.17287" lon="22.2242">
        <ele>582.652518</ele>
        <time>2022-04-10T08:56:30.072Z</time>
      </trkpt>
      <trkpt lat="42.17296" lon="22.22411">
        <ele>582.824292</ele>
        <time>2022-04-10T08:56:32.042Z</time>
      </trkpt>
      <trkpt lat="42.17306" lon="22.22404">
        <ele>583.011495</ele>
        <time>2022-04-10T08:56:34.037Z</time>
      </trkpt>
      <trkpt lat="42.17318" lon="22.22399">
        <ele>583.20109</ele>
        <time>2022-04-10T08:56:36.047Z</time>
      </trkpt>
      <trkpt lat="42.17331" lon="22.22396">
        <ele>583.399535</ele>
        <time>2022-04-10T08:56:38.037Z</time>
      </trkpt>
      <trkpt lat="42.17343" lon="22.22394">
        <ele>583.587167</ele>
        <time>2022-04-10T08:56:40.024Z</time>
      </trkpt>
      <trkpt lat="42.17354" lon="22.22394">
        <ele>583.770545</ele>
        <time>2022-04-10T08:56:42.037Z</time>
      </trkpt>
      <trkpt lat="42.17367" lon="22.22396">
        <ele>583.970422</ele>
        <time>2022-04-10T08:56:44.033Z</time>
      </trkpt>
      <trkpt lat="42.1738" lon="22.22397">
        <ele>584.163616</ele>
        <time>2022-04-10T08:56:46.033Z</time>
      </trkpt>
      <trkpt lat="42.17392" lon="22.22398">
        <ele>583.799477</ele>
        <time>2022-04-10T08:56:48.048Z</time>
      </trkpt>
      <trkpt lat="42.17402" lon="22.224">
        <ele>583.438282</ele>
        <time>2022-04-10T08:56:50.040Z</time>
      </trkpt>
      <trkpt lat="42.17414" lon="22.22403">
        <ele>583.057925</ele>
        <time>2022-04-10T08:56:52.098Z</time>
      </trkpt>
      <trkpt lat="42.17427" lon="22.22404">
        <ele>582.61372</ele>
        <time>2022-04-10T08:56:54.057Z</time>
      </trkpt>
      <trkpt lat="42.1744" lon="22.22404">
        <ele>582.173397</ele>
        <time>2022-04-10T08:56:56.036Z</time>
      </trkpt>
      <trkpt lat="42.17451" lon="22.22404">
        <ele>581.783521</ele>
        <time>2022-04-10T08:56:58.024Z</time>
      </trkpt>
      <trkpt lat="42.17463" lon="22.224">
        <ele>581.395062</ele>
        <time>2022-04-10T08:57:00.029Z</time>
      </trkpt>
      <trkpt lat="42.17473" lon="22.22395">
        <ele>581.00855</ele>
        <time>2022-04-10T08:57:02.034Z</time>
      </trkpt>
      <trkpt lat="42.17483" lon="22.22386">
        <ele>580.614085</ele>
        <time>2022-04-10T08:57:04.050Z</time>
      </trkpt>
      <trkpt lat="42.17491" lon="22.22377">
        <ele>580.265205</ele>
        <time>2022-04-10T08:57:06.023Z</time>
      </trkpt>
      <trkpt lat="42.17497" lon="22.22365">
        <ele>579.902192</ele>
        <time>2022-04-10T08:57:08.067Z</time>
      </trkpt>
      <trkpt lat="42.17502" lon="22.22349">
        <ele>579.492087</ele>
        <time>2022-04-10T08:57:10.038Z</time>
      </trkpt>
      <trkpt lat="42.17504" lon="22.22334">
        <ele>579.100329</ele>
        <time>2022-04-10T08:57:12.047Z</time>
      </trkpt>
      <trkpt lat="42.17503" lon="22.22319">
        <ele>578.736399</ele>
        <time>2022-04-10T08:57:14.048Z</time>
      </trkpt>
      <trkpt lat="42.17501" lon="22.22303">
        <ele>578.327458</ele>
        <time>2022-04-10T08:57:16.038Z</time>
      </trkpt>
      <trkpt lat="42.17498" lon="22.22288">
        <ele>577.968838</ele>
        <time>2022-04-10T08:57:18.030Z</time>
      </trkpt>
      <trkpt lat="42.17495" lon="22.22275">
        <ele>577.673225</ele>
        <time>2022-04-10T08:57:20.039Z</time>
      </trkpt>
      <trkpt lat="42.17492" lon="22.22261">
        <ele>577.354495</ele>
        <time>2022-04-10T08:57:22.040Z</time>
      </trkpt>
      <trkpt lat="42.17488" lon="22.22247">
        <ele>577.021575</ele>
        <time>2022-04-10T08:57:24.038Z</time>
      </trkpt>
      <trkpt lat="42.17483" lon="22.22235">
        <ele>576.732094</ele>
        <time>2022-04-10T08:57:26.047Z</time>
      </trkpt>
      <trkpt lat="42.17476" lon="22.22226">
        <ele>576.447235</ele>
        <time>2022-04-10T08:57:28.025Z</time>
      </trkpt>
      <trkpt lat="42.17466" lon="22.22215">
        <ele>576.076556</ele>
        <time>2022-04-10T08:57:31.034Z</time>
      </trkpt>
      <trkpt lat="42.1746" lon="22.22206">
        <ele>575.806559</ele>
        <time>2022-04-10T08:57:33.036Z</time>
      </trkpt>
      <trkpt lat="42.17452" lon="22.22198">
        <ele>575.533232</ele>
        <time>2022-04-10T08:57:35.045Z</time>
      </trkpt>
      <trkpt lat="42.17445" lon="22.22191">
        <ele>575.262177</ele>
        <time>2022-04-10T08:57:37.031Z</time>
      </trkpt>
      <trkpt lat="42.17438" lon="22.22182">
        <ele>574.97481</ele>
        <time>2022-04-10T08:57:39.041Z</time>
      </trkpt>
      <trkpt lat="42.1743" lon="22.22173">
        <ele>574.695984</ele>
        <time>2022-04-10T08:57:41.024Z</time>
      </trkpt>
      <trkpt lat="42.17423" lon="22.22166">
        <ele>574.42856</ele>
        <time>2022-04-10T08:57:43.047Z</time>
      </trkpt>
      <trkpt lat="42.17416" lon="22.22157">
        <ele>574.153499</ele>
        <time>2022-04-10T08:57:45.034Z</time>
      </trkpt>
      <trkpt lat="42.17409" lon="22.22148">
        <ele>573.873367</ele>
        <time>2022-04-10T08:57:47.025Z</time>
      </trkpt>
      <trkpt lat="42.17402" lon="22.22139">
        <ele>573.596662</ele>
        <time>2022-04-10T08:57:49.053Z</time>
      </trkpt>
      <trkpt lat="42.17396" lon="22.2213">
        <ele>573.315835</ele>
        <time>2022-04-10T08:57:51.026Z</time>
      </trkpt>
      <trkpt lat="42.1739" lon="22.2212">
        <ele>573.042521</ele>
        <time>2022-04-10T08:57:53.095Z</time>
      </trkpt>
      <trkpt lat="42.17385" lon="22.2211">
        <ele>572.876921</ele>
        <time>2022-04-10T08:57:55.030Z</time>
      </trkpt>
      <trkpt lat="42.17379" lon="22.22096">
        <ele>572.861269</ele>
        <time>2022-04-10T08:57:58.033Z</time>
      </trkpt>
      <trkpt lat="42.17373" lon="22.2208">
        <ele>572.845229</ele>
        <time>2022-04-10T08:58:01.041Z</time>
      </trkpt>
      <trkpt lat="42.1737" lon="22.22068">
        <ele>572.833531</ele>
        <time>2022-04-10T08:58:03.038Z</time>
      </trkpt>
      <trkpt lat="42.17367" lon="22.22056">
        <ele>572.821176</ele>
        <time>2022-04-10T08:58:05.036Z</time>
      </trkpt>
      <trkpt lat="42.17365" lon="22.22043">
        <ele>572.808966</ele>
        <time>2022-04-10T08:58:07.037Z</time>
      </trkpt>
      <trkpt lat="42.17362" lon="22.22031">
        <ele>572.796594</ele>
        <time>2022-04-10T08:58:09.051Z</time>
      </trkpt>
      <trkpt lat="42.17359" lon="22.22017">
        <ele>572.783377</ele>
        <time>2022-04-10T08:58:11.033Z</time>
      </trkpt>
      <trkpt lat="42.17356" lon="22.22004">
        <ele>572.770034</ele>
        <time>2022-04-10T08:58:13.056Z</time>
      </trkpt>
      <trkpt lat="42.17352" lon="22.2199">
        <ele>572.756743</ele>
        <time>2022-04-10T08:58:15.073Z</time>
      </trkpt>
      <trkpt lat="42.17349" lon="22.21976">
        <ele>572.742481</ele>
        <time>2022-04-10T08:58:17.036Z</time>
      </trkpt>
      <trkpt lat="42.17345" lon="22.2196">
        <ele>572.727478</ele>
        <time>2022-04-10T08:58:19.034Z</time>
      </trkpt>
      <trkpt lat="42.17342" lon="22.21946">
        <ele>572.713127</ele>
        <time>2022-04-10T08:58:21.060Z</time>
      </trkpt>
      <trkpt lat="42.17338" lon="22.21931">
        <ele>572.698527</ele>
        <time>2022-04-10T08:58:23.062Z</time>
      </trkpt>
      <trkpt lat="42.17335" lon="22.21916">
        <ele>572.683494</ele>
        <time>2022-04-10T08:58:25.049Z</time>
      </trkpt>
      <trkpt lat="42.17331" lon="22.21899">
        <ele>572.667508</ele>
        <time>2022-04-10T08:58:27.074Z</time>
      </trkpt>
      <trkpt lat="42.17327" lon="22.21883">
        <ele>572.616406</ele>
        <time>2022-04-10T08:58:29.035Z</time>
      </trkpt>
      <trkpt lat="42.17323" lon="22.21867">
        <ele>572.339771</ele>
        <time>2022-04-10T08:58:31.023Z</time>
      </trkpt>
      <trkpt lat="42.17319" lon="22.21852">
        <ele>572.06696</ele>
        <time>2022-04-10T08:58:33.060Z</time>
      </trkpt>
      <trkpt lat="42.17314" lon="22.21835">
        <ele>571.770377</ele>
        <time>2022-04-10T08:58:35.051Z</time>
      </trkpt>
      <trkpt lat="42.17309" lon="22.21818">
        <ele>571.47382</ele>
        <time>2022-04-10T08:58:37.034Z</time>
      </trkpt>
      <trkpt lat="42.17304" lon="22.21802">
        <ele>571.182706</ele>
        <time>2022-04-10T08:58:39.031Z</time>
      </trkpt>
      <trkpt lat="42.17294" lon="22.21786">
        <ele>570.855482</ele>
        <time>2022-04-10T08:58:41.039Z</time>
      </trkpt>
      <trkpt lat="42.17283" lon="22.21774">
        <ele>570.534269</ele>
        <time>2022-04-10T08:58:43.039Z</time>
      </trkpt>
      <trkpt lat="42.1727" lon="22.21765">
        <ele>570.20291</ele>
        <time>2022-04-10T08:58:45.031Z</time>
      </trkpt>
      <trkpt lat="42.17255" lon="22.21759">
        <ele>569.86948</ele>
        <time>2022-04-10T08:58:47.021Z</time>
      </trkpt>
      <trkpt lat="42.17242" lon="22.21758">
        <ele>569.579541</ele>
        <time>2022-04-10T08:58:49.032Z</time>
      </trkpt>
      <trkpt lat="42.17229" lon="22.21758">
        <ele>569.29718</ele>
        <time>2022-04-10T08:58:51.036Z</time>
      </trkpt>
      <trkpt lat="42.17218" lon="22.21757">
        <ele>569.043433</ele>
        <time>2022-04-10T08:58:53.037Z</time>
      </trkpt>
      <trkpt lat="42.17207" lon="22.21756">
        <ele>568.80285</ele>
        <time>2022-04-10T08:58:55.016Z</time>
      </trkpt>
      <trkpt lat="42.17196" lon="22.21755">
        <ele>568.524188</ele>
        <time>2022-04-10T08:58:57.037Z</time>
      </trkpt>
      <trkpt lat="42.17186" lon="22.21752">
        <ele>568.201348</ele>
        <time>2022-04-10T08:58:59.037Z</time>
      </trkpt>
      <trkpt lat="42.17177" lon="22.21746">
        <ele>567.893935</ele>
        <time>2022-04-10T08:59:01.082Z</time>
      </trkpt>
      <trkpt lat="42.17169" lon="22.21739">
        <ele>567.575864</ele>
        <time>2022-04-10T08:59:03.035Z</time>
      </trkpt>
      <trkpt lat="42.1716" lon="22.2173">
        <ele>567.222038</ele>
        <time>2022-04-10T08:59:05.053Z</time>
      </trkpt>
      <trkpt lat="42.17152" lon="22.21717">
        <ele>566.85049</ele>
        <time>2022-04-10T08:59:07.024Z</time>
      </trkpt>
      <trkpt lat="42.17146" lon="22.21704">
        <ele>566.479676</ele>
        <time>2022-04-10T08:59:09.038Z</time>
      </trkpt>
      <trkpt lat="42.17143" lon="22.21689">
        <ele>566.134857</ele>
        <time>2022-04-10T08:59:11.049Z</time>
      </trkpt>
      <trkpt lat="42.17142" lon="22.21676">
        <ele>565.813147</ele>
        <time>2022-04-10T08:59:13.034Z</time>
      </trkpt>
      <trkpt lat="42.17142" lon="22.21662">
        <ele>565.502183</ele>
        <time>2022-04-10T08:59:15.035Z</time>
      </trkpt>
      <trkpt lat="42.17143" lon="22.2165">
        <ele>565.213394</ele>
        <time>2022-04-10T08:59:17.044Z</time>
      </trkpt>
      <trkpt lat="42.17143" lon="22.21637">
        <ele>564.922547</ele>
        <time>2022-04-10T08:59:19.048Z</time>
      </trkpt>
      <trkpt lat="42.17144" lon="22.21624">
        <ele>564.608934</ele>
        <time>2022-04-10T08:59:21.054Z</time>
      </trkpt>
      <trkpt lat="42.17145" lon="22.2161">
        <ele>564.285204</ele>
        <time>2022-04-10T08:59:23.065Z</time>
      </trkpt>
      <trkpt lat="42.17146" lon="22.21596">
        <ele>563.966187</ele>
        <time>2022-04-10T08:59:25.040Z</time>
      </trkpt>
      <trkpt lat="42.17146" lon="22.21582">
        <ele>563.636664</ele>
        <time>2022-04-10T08:59:27.043Z</time>
      </trkpt>
      <trkpt lat="42.17146" lon="22.21568">
        <ele>563.318802</ele>
        <time>2022-04-10T08:59:29.051Z</time>
      </trkpt>
      <trkpt lat="42.17147" lon="22.21553">
        <ele>563.063488</ele>
        <time>2022-04-10T08:59:31.045Z</time>
      </trkpt>
      <trkpt lat="42.17148" lon="22.21538">
        <ele>563.093905</ele>
        <time>2022-04-10T08:59:33.052Z</time>
      </trkpt>
      <trkpt lat="42.17149" lon="22.21522">
        <ele>563.125116</ele>
        <time>2022-04-10T08:59:35.043Z</time>
      </trkpt>
      <trkpt lat="42.1715" lon="22.21506">
        <ele>563.156931</ele>
        <time>2022-04-10T08:59:37.034Z</time>
      </trkpt>
      <trkpt lat="42.1715" lon="22.21488">
        <ele>563.190413</ele>
        <time>2022-04-10T08:59:39.039Z</time>
      </trkpt>
      <trkpt lat="42.17152" lon="22.21472">
        <ele>563.223238</ele>
        <time>2022-04-10T08:59:41.022Z</time>
      </trkpt>
      <trkpt lat="42.17155" lon="22.21455">
        <ele>563.255845</ele>
        <time>2022-04-10T08:59:43.045Z</time>
      </trkpt>
      <trkpt lat="42.17159" lon="22.2144">
        <ele>563.28804</ele>
        <time>2022-04-10T08:59:45.029Z</time>
      </trkpt>
      <trkpt lat="42.17164" lon="22.21424">
        <ele>563.321003</ele>
        <time>2022-04-10T08:59:47.020Z</time>
      </trkpt>
      <trkpt lat="42.17172" lon="22.21411">
        <ele>563.353039</ele>
        <time>2022-04-10T08:59:49.031Z</time>
      </trkpt>
      <trkpt lat="42.1718" lon="22.21401">
        <ele>563.383741</ele>
        <time>2022-04-10T08:59:51.027Z</time>
      </trkpt>
      <trkpt lat="42.17189" lon="22.21391">
        <ele>563.413258</ele>
        <time>2022-04-10T08:59:53.039Z</time>
      </trkpt>
      <trkpt lat="42.17198" lon="22.21384">
        <ele>563.440128</ele>
        <time>2022-04-10T08:59:55.035Z</time>
      </trkpt>
      <trkpt lat="42.17205" lon="22.21377">
        <ele>563.464173</ele>
        <time>2022-04-10T08:59:57.034Z</time>
      </trkpt>
      <trkpt lat="42.17215" lon="22.21367">
        <ele>563.496497</ele>
        <time>2022-04-10T09:00:00.031Z</time>
      </trkpt>
      <trkpt lat="42.17225" lon="22.21355">
        <ele>563.521299</ele>
        <time>2022-04-10T09:00:03.036Z</time>
      </trkpt>
      <trkpt lat="42.17232" lon="22.21346">
        <ele>563.457298</ele>
        <time>2022-04-10T09:00:05.051Z</time>
      </trkpt>
      <trkpt lat="42.1724" lon="22.21334">
        <ele>563.373954</ele>
        <time>2022-04-10T09:00:08.038Z</time>
      </trkpt>
      <trkpt lat="42.17244" lon="22.21322">
        <ele>563.310936</ele>
        <time>2022-04-10T09:00:10.048Z</time>
      </trkpt>
      <trkpt lat="42.17246" lon="22.21308">
        <ele>563.240965</ele>
        <time>2022-04-10T09:00:12.048Z</time>
      </trkpt>
      <trkpt lat="42.17247" lon="22.21293">
        <ele>563.164789</ele>
        <time>2022-04-10T09:00:14.017Z</time>
      </trkpt>
      <trkpt lat="42.17247" lon="22.21279">
        <ele>563.091874</ele>
        <time>2022-04-10T09:00:16.030Z</time>
      </trkpt>
      <trkpt lat="42.17246" lon="22.21266">
        <ele>563.028361</ele>
        <time>2022-04-10T09:00:18.029Z</time>
      </trkpt>
      <trkpt lat="42.17246" lon="22.21249">
        <ele>562.941837</ele>
        <time>2022-04-10T09:00:21.044Z</time>
      </trkpt>
      <trkpt lat="42.17246" lon="22.21231">
        <ele>562.852353</ele>
        <time>2022-04-10T09:00:24.042Z</time>
      </trkpt>
      <trkpt lat="42.17245" lon="22.21213">
        <ele>562.76217</ele>
        <time>2022-04-10T09:00:27.053Z</time>
      </trkpt>
      <trkpt lat="42.17244" lon="22.21199">
        <ele>562.688378</ele>
        <time>2022-04-10T09:00:29.053Z</time>
      </trkpt>
      <trkpt lat="42.17242" lon="22.21185">
        <ele>562.615082</ele>
        <time>2022-04-10T09:00:31.038Z</time>
      </trkpt>
      <trkpt lat="42.17239" lon="22.21171">
        <ele>562.543756</ele>
        <time>2022-04-10T09:00:33.038Z</time>
      </trkpt>
      <trkpt lat="42.17235" lon="22.21158">
        <ele>562.474855</ele>
        <time>2022-04-10T09:00:35.033Z</time>
      </trkpt>
      <trkpt lat="42.1723" lon="22.21145">
        <ele>562.399591</ele>
        <time>2022-04-10T09:00:37.035Z</time>
      </trkpt>
      <trkpt lat="42.17226" lon="22.21131">
        <ele>562.324538</ele>
        <time>2022-04-10T09:00:39.036Z</time>
      </trkpt>
      <trkpt lat="42.1722" lon="22.21118">
        <ele>562.138949</ele>
        <time>2022-04-10T09:00:41.079Z</time>
      </trkpt>
      <trkpt lat="42.17214" lon="22.21104">
        <ele>561.925142</ele>
        <time>2022-04-10T09:00:43.092Z</time>
      </trkpt>
      <trkpt lat="42.17208" lon="22.21088">
        <ele>561.69558</ele>
        <time>2022-04-10T09:00:45.055Z</time>
      </trkpt>
      <trkpt lat="42.17204" lon="22.21071">
        <ele>561.457936</ele>
        <time>2022-04-10T09:00:47.039Z</time>
      </trkpt>
      <trkpt lat="42.17202" lon="22.21055">
        <ele>561.241024</ele>
        <time>2022-04-10T09:00:49.032Z</time>
      </trkpt>
      <trkpt lat="42.17202" lon="22.21039">
        <ele>561.02522</ele>
        <time>2022-04-10T09:00:51.036Z</time>
      </trkpt>
      <trkpt lat="42.17203" lon="22.21024">
        <ele>560.819185</ele>
        <time>2022-04-10T09:00:53.040Z</time>
      </trkpt>
      <trkpt lat="42.17205" lon="22.21009">
        <ele>560.615218</ele>
        <time>2022-04-10T09:00:55.053Z</time>
      </trkpt>
      <trkpt lat="42.17208" lon="22.20995">
        <ele>560.424323</ele>
        <time>2022-04-10T09:00:57.028Z</time>
      </trkpt>
      <trkpt lat="42.17211" lon="22.20981">
        <ele>560.232328</ele>
        <time>2022-04-10T09:00:59.048Z</time>
      </trkpt>
      <trkpt lat="42.17213" lon="22.20967">
        <ele>560.030686</ele>
        <time>2022-04-10T09:01:01.034Z</time>
      </trkpt>
      <trkpt lat="42.17215" lon="22.20952">
        <ele>559.832305</ele>
        <time>2022-04-10T09:01:03.034Z</time>
      </trkpt>
      <trkpt lat="42.17217" lon="22.20937">
        <ele>559.62437</ele>
        <time>2022-04-10T09:01:05.053Z</time>
      </trkpt>
      <trkpt lat="42.17219" lon="22.20921">
        <ele>559.413029</ele>
        <time>2022-04-10T09:01:07.037Z</time>
      </trkpt>
      <trkpt lat="42.17221" lon="22.20906">
        <ele>559.199509</ele>
        <time>2022-04-10T09:01:09.024Z</time>
      </trkpt>
      <trkpt lat="42.17223" lon="22.20891">
        <ele>558.996992</ele>
        <time>2022-04-10T09:01:11.030Z</time>
      </trkpt>
      <trkpt lat="42.17225" lon="22.20878">
        <ele>558.769632</ele>
        <time>2022-04-10T09:01:13.038Z</time>
      </trkpt>
      <trkpt lat="42.17227" lon="22.20864">
        <ele>558.544325</ele>
        <time>2022-04-10T09:01:15.080Z</time>
      </trkpt>
      <trkpt lat="42.17229" lon="22.2085">
        <ele>558.311392</ele>
        <time>2022-04-10T09:01:17.033Z</time>
      </trkpt>
      <trkpt lat="42.17229" lon="22.20835">
        <ele>558.076447</ele>
        <time>2022-04-10T09:01:19.028Z</time>
      </trkpt>
      <trkpt lat="42.17229" lon="22.20821">
        <ele>557.836891</ele>
        <time>2022-04-10T09:01:21.034Z</time>
      </trkpt>
      <trkpt lat="42.17229" lon="22.20805">
        <ele>557.592478</ele>
        <time>2022-04-10T09:01:23.026Z</time>
      </trkpt>
      <trkpt lat="42.17229" lon="22.20791">
        <ele>557.357787</ele>
        <time>2022-04-10T09:01:25.043Z</time>
      </trkpt>
      <trkpt lat="42.17229" lon="22.20776">
        <ele>557.111679</ele>
        <time>2022-04-10T09:01:27.048Z</time>
      </trkpt>
      <trkpt lat="42.17229" lon="22.20759">
        <ele>556.84771</ele>
        <time>2022-04-10T09:01:29.053Z</time>
      </trkpt>
      <trkpt lat="42.1723" lon="22.20743">
        <ele>556.584767</ele>
        <time>2022-04-10T09:01:31.024Z</time>
      </trkpt>
      <trkpt lat="42.17231" lon="22.20727">
        <ele>556.328802</ele>
        <time>2022-04-10T09:01:33.075Z</time>
      </trkpt>
      <trkpt lat="42.17231" lon="22.20711">
        <ele>556.064968</ele>
        <time>2022-04-10T09:01:35.038Z</time>
      </trkpt>
      <trkpt lat="42.1723" lon="22.20696">
        <ele>555.812464</ele>
        <time>2022-04-10T09:01:37.039Z</time>
      </trkpt>
      <trkpt lat="42.17231" lon="22.2068">
        <ele>555.554965</ele>
        <time>2022-04-10T09:01:39.043Z</time>
      </trkpt>
      <trkpt lat="42.17231" lon="22.20664">
        <ele>555.300841</ele>
        <time>2022-04-10T09:01:41.043Z</time>
      </trkpt>
      <trkpt lat="42.17231" lon="22.20648">
        <ele>555.025407</ele>
        <time>2022-04-10T09:01:43.030Z</time>
      </trkpt>
      <trkpt lat="42.17231" lon="22.20634">
        <ele>554.732285</ele>
        <time>2022-04-10T09:01:45.038Z</time>
      </trkpt>
      <trkpt lat="42.17231" lon="22.20619">
        <ele>554.4395</ele>
        <time>2022-04-10T09:01:47.047Z</time>
      </trkpt>
      <trkpt lat="42.17231" lon="22.20604">
        <ele>554.138701</ele>
        <time>2022-04-10T09:01:49.038Z</time>
      </trkpt>
      <trkpt lat="42.17232" lon="22.2059">
        <ele>553.849987</ele>
        <time>2022-04-10T09:01:51.036Z</time>
      </trkpt>
      <trkpt lat="42.17231" lon="22.20575">
        <ele>553.565128</ele>
        <time>2022-04-10T09:01:53.073Z</time>
      </trkpt>
      <trkpt lat="42.17231" lon="22.20562">
        <ele>553.296457</ele>
        <time>2022-04-10T09:01:55.072Z</time>
      </trkpt>
      <trkpt lat="42.17231" lon="22.20549">
        <ele>553.043819</ele>
        <time>2022-04-10T09:01:57.047Z</time>
      </trkpt>
      <trkpt lat="42.17232" lon="22.20537">
        <ele>552.792879</ele>
        <time>2022-04-10T09:01:59.037Z</time>
      </trkpt>
      <trkpt lat="42.17232" lon="22.2052">
        <ele>552.456106</ele>
        <time>2022-04-10T09:02:02.041Z</time>
      </trkpt>
      <trkpt lat="42.17233" lon="22.20505">
        <ele>552.14444</ele>
        <time>2022-04-10T09:02:05.040Z</time>
      </trkpt>
      <trkpt lat="42.17233" lon="22.20487">
        <ele>551.799479</ele>
        <time>2022-04-10T09:02:08.041Z</time>
      </trkpt>
      <trkpt lat="42.17232" lon="22.20474">
        <ele>551.530196</ele>
        <time>2022-04-10T09:02:10.039Z</time>
      </trkpt>
      <trkpt lat="42.17232" lon="22.2046">
        <ele>551.249343</ele>
        <time>2022-04-10T09:02:12.020Z</time>
      </trkpt>
      <trkpt lat="42.17231" lon="22.20447">
        <ele>550.978772</ele>
        <time>2022-04-10T09:02:14.040Z</time>
      </trkpt>
      <trkpt lat="42.17229" lon="22.20433">
        <ele>550.711839</ele>
        <time>2022-04-10T09:02:16.049Z</time>
      </trkpt>
      <trkpt lat="42.17228" lon="22.20421">
        <ele>550.455521</ele>
        <time>2022-04-10T09:02:18.030Z</time>
      </trkpt>
      <trkpt lat="42.17227" lon="22.20407">
        <ele>550.257915</ele>
        <time>2022-04-10T09:02:20.047Z</time>
      </trkpt>
      <trkpt lat="42.17224" lon="22.20393">
        <ele>550.240805</ele>
        <time>2022-04-10T09:02:22.037Z</time>
      </trkpt>
      <trkpt lat="42.17222" lon="22.20378">
        <ele>550.22404</ele>
        <time>2022-04-10T09:02:24.028Z</time>
      </trkpt>
      <trkpt lat="42.17219" lon="22.20365">
        <ele>550.207556</ele>
        <time>2022-04-10T09:02:26.035Z</time>
      </trkpt>
      <trkpt lat="42.17215" lon="22.20352">
        <ele>550.191649</ele>
        <time>2022-04-10T09:02:28.030Z</time>
      </trkpt>
      <trkpt lat="42.17212" lon="22.20339">
        <ele>550.176608</ele>
        <time>2022-04-10T09:02:30.044Z</time>
      </trkpt>
      <trkpt lat="42.17209" lon="22.20327">
        <ele>550.161241</ele>
        <time>2022-04-10T09:02:32.044Z</time>
      </trkpt>
      <trkpt lat="42.17205" lon="22.20314">
        <ele>550.14539</ele>
        <time>2022-04-10T09:02:34.024Z</time>
      </trkpt>
      <trkpt lat="42.17202" lon="22.20302">
        <ele>550.130508</ele>
        <time>2022-04-10T09:02:36.050Z</time>
      </trkpt>
      <trkpt lat="42.17199" lon="22.20289">
        <ele>550.115299</ele>
        <time>2022-04-10T09:02:38.052Z</time>
      </trkpt>
      <trkpt lat="42.17196" lon="22.20278">
        <ele>550.100904</ele>
        <time>2022-04-10T09:02:40.153Z</time>
      </trkpt>
      <trkpt lat="42.17193" lon="22.20265">
        <ele>550.085881</ele>
        <time>2022-04-10T09:02:42.028Z</time>
      </trkpt>
      <trkpt lat="42.17191" lon="22.20252">
        <ele>550.070866</ele>
        <time>2022-04-10T09:02:44.031Z</time>
      </trkpt>
      <trkpt lat="42.1719" lon="22.2024">
        <ele>550.055844</ele>
        <time>2022-04-10T09:02:46.034Z</time>
      </trkpt>
      <trkpt lat="42.17188" lon="22.20227">
        <ele>550.040638</ele>
        <time>2022-04-10T09:02:48.070Z</time>
      </trkpt>
      <trkpt lat="42.17187" lon="22.20213">
        <ele>550.025443</ele>
        <time>2022-04-10T09:02:50.116Z</time>
      </trkpt>
      <trkpt lat="42.17187" lon="22.202">
        <ele>550.010084</ele>
        <time>2022-04-10T09:02:52.025Z</time>
      </trkpt>
      <trkpt lat="42.17187" lon="22.20186">
        <ele>549.994148</ele>
        <time>2022-04-10T09:02:54.042Z</time>
      </trkpt>
      <trkpt lat="42.17189" lon="22.20173">
        <ele>549.992471</ele>
        <time>2022-04-10T09:02:56.056Z</time>
      </trkpt>
      <trkpt lat="42.17191" lon="22.20161">
        <ele>550.034694</ele>
        <time>2022-04-10T09:02:58.047Z</time>
      </trkpt>
      <trkpt lat="42.17195" lon="22.20148">
        <ele>550.077159</ele>
        <time>2022-04-10T09:03:00.058Z</time>
      </trkpt>
      <trkpt lat="42.17199" lon="22.20136">
        <ele>550.119523</ele>
        <time>2022-04-10T09:03:02.085Z</time>
      </trkpt>
      <trkpt lat="42.17203" lon="22.20124">
        <ele>550.160725</ele>
        <time>2022-04-10T09:03:04.055Z</time>
      </trkpt>
      <trkpt lat="42.17206" lon="22.20112">
        <ele>550.201881</ele>
        <time>2022-04-10T09:03:06.047Z</time>
      </trkpt>
      <trkpt lat="42.17211" lon="22.20099">
        <ele>550.245415</ele>
        <time>2022-04-10T09:03:08.133Z</time>
      </trkpt>
      <trkpt lat="42.17215" lon="22.20087">
        <ele>550.289995</ele>
        <time>2022-04-10T09:03:10.038Z</time>
      </trkpt>
      <trkpt lat="42.1722" lon="22.20075">
        <ele>550.333534</ele>
        <time>2022-04-10T09:03:12.029Z</time>
      </trkpt>
      <trkpt lat="42.17224" lon="22.20062">
        <ele>550.377172</ele>
        <time>2022-04-10T09:03:14.033Z</time>
      </trkpt>
      <trkpt lat="42.17228" lon="22.20049">
        <ele>550.421452</ele>
        <time>2022-04-10T09:03:16.039Z</time>
      </trkpt>
      <trkpt lat="42.17232" lon="22.20036">
        <ele>550.466002</ele>
        <time>2022-04-10T09:03:18.043Z</time>
      </trkpt>
      <trkpt lat="42.17235" lon="22.20022">
        <ele>550.511504</ele>
        <time>2022-04-10T09:03:20.058Z</time>
      </trkpt>
      <trkpt lat="42.17237" lon="22.20008">
        <ele>550.558459</ele>
        <time>2022-04-10T09:03:22.038Z</time>
      </trkpt>
      <trkpt lat="42.17239" lon="22.19993">
        <ele>550.606263</ele>
        <time>2022-04-10T09:03:24.085Z</time>
      </trkpt>
      <trkpt lat="42.17241" lon="22.19978">
        <ele>550.654138</ele>
        <time>2022-04-10T09:03:26.031Z</time>
      </trkpt>
      <trkpt lat="42.17242" lon="22.19963">
        <ele>550.703261</ele>
        <time>2022-04-10T09:03:28.047Z</time>
      </trkpt>
      <trkpt lat="42.17245" lon="22.19947">
        <ele>550.749235</ele>
        <time>2022-04-10T09:03:30.082Z</time>
      </trkpt>
      <trkpt lat="42.17247" lon="22.19931">
        <ele>550.687533</ele>
        <time>2022-04-10T09:03:32.035Z</time>
      </trkpt>
      <trkpt lat="42.17249" lon="22.19915">
        <ele>550.62546</ele>
        <time>2022-04-10T09:03:34.023Z</time>
      </trkpt>
      <trkpt lat="42.17251" lon="22.19899">
        <ele>550.565497</ele>
        <time>2022-04-10T09:03:36.022Z</time>
      </trkpt>
      <trkpt lat="42.17253" lon="22.19883">
        <ele>550.504998</ele>
        <time>2022-04-10T09:03:38.047Z</time>
      </trkpt>
      <trkpt lat="42.17255" lon="22.19867">
        <ele>550.44301</ele>
        <time>2022-04-10T09:03:40.035Z</time>
      </trkpt>
      <trkpt lat="42.17257" lon="22.19851">
        <ele>550.38159</ele>
        <time>2022-04-10T09:03:42.041Z</time>
      </trkpt>
      <trkpt lat="42.17259" lon="22.19836">
        <ele>550.322896</ele>
        <time>2022-04-10T09:03:44.043Z</time>
      </trkpt>
      <trkpt lat="42.17261" lon="22.1982">
        <ele>550.262853</ele>
        <time>2022-04-10T09:03:46.034Z</time>
      </trkpt>
      <trkpt lat="42.17263" lon="22.19804">
        <ele>550.200225</ele>
        <time>2022-04-10T09:03:48.029Z</time>
      </trkpt>
      <trkpt lat="42.17265" lon="22.19788">
        <ele>550.13861</ele>
        <time>2022-04-10T09:03:50.084Z</time>
      </trkpt>
      <trkpt lat="42.17267" lon="22.19771">
        <ele>550.075333</ele>
        <time>2022-04-10T09:03:52.056Z</time>
      </trkpt>
      <trkpt lat="42.17269" lon="22.19755">
        <ele>550.014834</ele>
        <time>2022-04-10T09:03:54.045Z</time>
      </trkpt>
      <trkpt lat="42.17271" lon="22.1974">
        <ele>549.95628</ele>
        <time>2022-04-10T09:03:56.049Z</time>
      </trkpt>
      <trkpt lat="42.17273" lon="22.19726">
        <ele>549.901354</ele>
        <time>2022-04-10T09:03:58.050Z</time>
      </trkpt>
      <trkpt lat="42.17275" lon="22.19712">
        <ele>549.847659</ele>
        <time>2022-04-10T09:04:00.040Z</time>
      </trkpt>
      <trkpt lat="42.17275" lon="22.19698">
        <ele>549.692372</ele>
        <time>2022-04-10T09:04:02.077Z</time>
      </trkpt>
      <trkpt lat="42.17275" lon="22.19684">
        <ele>549.508528</ele>
        <time>2022-04-10T09:04:04.040Z</time>
      </trkpt>
      <trkpt lat="42.17274" lon="22.1967">
        <ele>549.324019</ele>
        <time>2022-04-10T09:04:06.076Z</time>
      </trkpt>
      <trkpt lat="42.17273" lon="22.19656">
        <ele>549.134345</ele>
        <time>2022-04-10T09:04:08.042Z</time>
      </trkpt>
      <trkpt lat="42.17271" lon="22.19642">
        <ele>548.946135</ele>
        <time>2022-04-10T09:04:10.025Z</time>
      </trkpt>
      <trkpt lat="42.17269" lon="22.19628">
        <ele>548.762431</ele>
        <time>2022-04-10T09:04:12.034Z</time>
      </trkpt>
      <trkpt lat="42.17266" lon="22.19614">
        <ele>548.57497</ele>
        <time>2022-04-10T09:04:14.044Z</time>
      </trkpt>
      <trkpt lat="42.17262" lon="22.19601">
        <ele>548.386489</ele>
        <time>2022-04-10T09:04:16.022Z</time>
      </trkpt>
      <trkpt lat="42.17259" lon="22.19589">
        <ele>548.214107</ele>
        <time>2022-04-10T09:04:18.050Z</time>
      </trkpt>
      <trkpt lat="42.17256" lon="22.19577">
        <ele>548.044129</ele>
        <time>2022-04-10T09:04:20.043Z</time>
      </trkpt>
      <trkpt lat="42.17252" lon="22.19563">
        <ele>547.858102</ele>
        <time>2022-04-10T09:04:22.030Z</time>
      </trkpt>
      <trkpt lat="42.17249" lon="22.1955">
        <ele>547.665887</ele>
        <time>2022-04-10T09:04:24.041Z</time>
      </trkpt>
      <trkpt lat="42.17245" lon="22.19536">
        <ele>547.476162</ele>
        <time>2022-04-10T09:04:26.044Z</time>
      </trkpt>
      <trkpt lat="42.17242" lon="22.19523">
        <ele>547.291945</ele>
        <time>2022-04-10T09:04:28.041Z</time>
      </trkpt>
      <trkpt lat="42.17239" lon="22.19511">
        <ele>547.124544</ele>
        <time>2022-04-10T09:04:30.067Z</time>
      </trkpt>
      <trkpt lat="42.17235" lon="22.19499">
        <ele>546.950238</ele>
        <time>2022-04-10T09:04:32.037Z</time>
      </trkpt>
      <trkpt lat="42.17232" lon="22.19485">
        <ele>546.764068</ele>
        <time>2022-04-10T09:04:34.035Z</time>
      </trkpt>
      <trkpt lat="42.17229" lon="22.19472">
        <ele>546.573069</ele>
        <time>2022-04-10T09:04:36.034Z</time>
      </trkpt>
      <trkpt lat="42.17226" lon="22.19458">
        <ele>546.363825</ele>
        <time>2022-04-10T09:04:38.031Z</time>
      </trkpt>
      <trkpt lat="42.17222" lon="22.19444">
        <ele>546.148109</ele>
        <time>2022-04-10T09:04:40.043Z</time>
      </trkpt>
      <trkpt lat="42.17219" lon="22.19429">
        <ele>545.929041</ele>
        <time>2022-04-10T09:04:42.029Z</time>
      </trkpt>
      <trkpt lat="42.17216" lon="22.19415">
        <ele>545.720011</ele>
        <time>2022-04-10T09:04:44.028Z</time>
      </trkpt>
      <trkpt lat="42.17214" lon="22.19402">
        <ele>545.523234</ele>
        <time>2022-04-10T09:04:46.046Z</time>
      </trkpt>
      <trkpt lat="42.17213" lon="22.19388">
        <ele>545.314464</ele>
        <time>2022-04-10T09:04:48.051Z</time>
      </trkpt>
      <trkpt lat="42.17211" lon="22.19373">
        <ele>545.102534</ele>
        <time>2022-04-10T09:04:50.038Z</time>
      </trkpt>
      <trkpt lat="42.17209" lon="22.19358">
        <ele>544.888069</ele>
        <time>2022-04-10T09:04:52.045Z</time>
      </trkpt>
      <trkpt lat="42.17208" lon="22.19343">
        <ele>544.663209</ele>
        <time>2022-04-10T09:04:54.049Z</time>
      </trkpt>
      <trkpt lat="42.17207" lon="22.19328">
        <ele>544.439994</ele>
        <time>2022-04-10T09:04:56.033Z</time>
      </trkpt>
      <trkpt lat="42.17206" lon="22.19312">
        <ele>544.213002</ele>
        <time>2022-04-10T09:04:58.031Z</time>
      </trkpt>
      <trkpt lat="42.17205" lon="22.19296">
        <ele>543.986385</ele>
        <time>2022-04-10T09:05:00.060Z</time>
      </trkpt>
      <trkpt lat="42.17205" lon="22.1928">
        <ele>543.757177</ele>
        <time>2022-04-10T09:05:02.042Z</time>
      </trkpt>
      <trkpt lat="42.17204" lon="22.19264">
        <ele>543.529212</ele>
        <time>2022-04-10T09:05:04.053Z</time>
      </trkpt>
      <trkpt lat="42.17203" lon="22.1925">
        <ele>543.317238</ele>
        <time>2022-04-10T09:05:06.023Z</time>
      </trkpt>
      <trkpt lat="42.17202" lon="22.19236">
        <ele>543.115811</ele>
        <time>2022-04-10T09:05:08.034Z</time>
      </trkpt>
      <trkpt lat="42.17201" lon="22.19221">
        <ele>542.853627</ele>
        <time>2022-04-10T09:05:10.065Z</time>
      </trkpt>
      <trkpt lat="42.172" lon="22.19206">
        <ele>542.591972</ele>
        <time>2022-04-10T09:05:12.033Z</time>
      </trkpt>
      <trkpt lat="42.17199" lon="22.19192">
        <ele>542.345664</ele>
        <time>2022-04-10T09:05:14.038Z</time>
      </trkpt>
      <trkpt lat="42.17198" lon="22.19178">
        <ele>542.104231</ele>
        <time>2022-04-10T09:05:16.033Z</time>
      </trkpt>
      <trkpt lat="42.17197" lon="22.19165">
        <ele>541.88199</ele>
        <time>2022-04-10T09:05:18.042Z</time>
      </trkpt>
      <trkpt lat="42.17196" lon="22.1915">
        <ele>541.624948</ele>
        <time>2022-04-10T09:05:20.043Z</time>
      </trkpt>
      <trkpt lat="42.17195" lon="22.19133">
        <ele>541.329612</ele>
        <time>2022-04-10T09:05:22.065Z</time>
      </trkpt>
      <trkpt lat="42.17194" lon="22.19114">
        <ele>541.012777</ele>
        <time>2022-04-10T09:05:24.051Z</time>
      </trkpt>
      <trkpt lat="42.17192" lon="22.19097">
        <ele>540.706457</ele>
        <time>2022-04-10T09:05:26.043Z</time>
      </trkpt>
      <trkpt lat="42.17191" lon="22.1908">
        <ele>540.416256</ele>
        <time>2022-04-10T09:05:28.086Z</time>
      </trkpt>
      <trkpt lat="42.1719" lon="22.19063">
        <ele>540.133804</ele>
        <time>2022-04-10T09:05:30.062Z</time>
      </trkpt>
      <trkpt lat="42.1719" lon="22.19047">
        <ele>539.85689</ele>
        <time>2022-04-10T09:05:32.058Z</time>
      </trkpt>
      <trkpt lat="42.17189" lon="22.19032">
        <ele>539.590219</ele>
        <time>2022-04-10T09:05:34.035Z</time>
      </trkpt>
      <trkpt lat="42.17189" lon="22.19018">
        <ele>539.344243</ele>
        <time>2022-04-10T09:05:36.045Z</time>
      </trkpt>
      <trkpt lat="42.17188" lon="22.19004">
        <ele>539.105595</ele>
        <time>2022-04-10T09:05:38.035Z</time>
      </trkpt>
      <trkpt lat="42.17187" lon="22.18989">
        <ele>538.889556</ele>
        <time>2022-04-10T09:05:40.041Z</time>
      </trkpt>
      <trkpt lat="42.17186" lon="22.18973">
        <ele>538.709729</ele>
        <time>2022-04-10T09:05:42.104Z</time>
      </trkpt>
      <trkpt lat="42.17184" lon="22.18957">
        <ele>538.530855</ele>
        <time>2022-04-10T09:05:44.036Z</time>
      </trkpt>
      <trkpt lat="42.17183" lon="22.1894">
        <ele>538.350735</ele>
        <time>2022-04-10T09:05:46.019Z</time>
      </trkpt>
      <trkpt lat="42.17182" lon="22.18924">
        <ele>538.171861</ele>
        <time>2022-04-10T09:05:48.043Z</time>
      </trkpt>
      <trkpt lat="42.17181" lon="22.18908">
        <ele>537.995671</ele>
        <time>2022-04-10T09:05:50.071Z</time>
      </trkpt>
      <trkpt lat="42.1718" lon="22.18892">
        <ele>537.820672</ele>
        <time>2022-04-10T09:05:52.053Z</time>
      </trkpt>
      <trkpt lat="42.17179" lon="22.18876">
        <ele>537.645353</ele>
        <time>2022-04-10T09:05:54.040Z</time>
      </trkpt>
      <trkpt lat="42.17179" lon="22.1886">
        <ele>537.468067</ele>
        <time>2022-04-10T09:05:56.026Z</time>
      </trkpt>
      <trkpt lat="42.17177" lon="22.18844">
        <ele>537.289595</ele>
        <time>2022-04-10T09:05:58.035Z</time>
      </trkpt>
      <trkpt lat="42.17175" lon="22.18828">
        <ele>537.11092</ele>
        <time>2022-04-10T09:06:00.080Z</time>
      </trkpt>
      <trkpt lat="42.17174" lon="22.18812">
        <ele>536.935326</ele>
        <time>2022-04-10T09:06:02.146Z</time>
      </trkpt>
      <trkpt lat="42.17173" lon="22.18797">
        <ele>536.771749</ele>
        <time>2022-04-10T09:06:04.041Z</time>
      </trkpt>
      <trkpt lat="42.17172" lon="22.18783">
        <ele>536.608914</ele>
        <time>2022-04-10T09:06:06.034Z</time>
      </trkpt>
      <trkpt lat="42.1717" lon="22.18768">
        <ele>536.448614</ele>
        <time>2022-04-10T09:06:08.045Z</time>
      </trkpt>
      <trkpt lat="42.1717" lon="22.18753">
        <ele>536.286184</ele>
        <time>2022-04-10T09:06:10.026Z</time>
      </trkpt>
      <trkpt lat="42.17169" lon="22.18737">
        <ele>536.231815</ele>
        <time>2022-04-10T09:06:12.032Z</time>
      </trkpt>
      <trkpt lat="42.17169" lon="22.18721">
        <ele>536.17715</ele>
        <time>2022-04-10T09:06:14.042Z</time>
      </trkpt>
      <trkpt lat="42.17169" lon="22.18704">
        <ele>536.121096</ele>
        <time>2022-04-10T09:06:16.047Z</time>
      </trkpt>
      <trkpt lat="42.17168" lon="22.18688">
        <ele>536.067257</ele>
        <time>2022-04-10T09:06:18.041Z</time>
      </trkpt>
      <trkpt lat="42.17166" lon="22.18673">
        <ele>536.015012</ele>
        <time>2022-04-10T09:06:20.045Z</time>
      </trkpt>
      <trkpt lat="42.17165" lon="22.18657">
        <ele>535.962812</ele>
        <time>2022-04-10T09:06:22.048Z</time>
      </trkpt>
      <trkpt lat="42.17164" lon="22.18642">
        <ele>535.911188</ele>
        <time>2022-04-10T09:06:24.041Z</time>
      </trkpt>
      <trkpt lat="42.17163" lon="22.18628">
        <ele>535.861961</ele>
        <time>2022-04-10T09:06:26.032Z</time>
      </trkpt>
      <trkpt lat="42.17161" lon="22.18614">
        <ele>535.814235</ele>
        <time>2022-04-10T09:06:28.030Z</time>
      </trkpt>
      <trkpt lat="42.1716" lon="22.18599">
        <ele>535.765625</ele>
        <time>2022-04-10T09:06:30.037Z</time>
      </trkpt>
      <trkpt lat="42.17159" lon="22.18584">
        <ele>535.715222</ele>
        <time>2022-04-10T09:06:32.042Z</time>
      </trkpt>
      <trkpt lat="42.17158" lon="22.1857">
        <ele>535.665551</ele>
        <time>2022-04-10T09:06:34.039Z</time>
      </trkpt>
      <trkpt lat="42.17156" lon="22.18555">
        <ele>535.613752</ele>
        <time>2022-04-10T09:06:36.033Z</time>
      </trkpt>
      <trkpt lat="42.17155" lon="22.18538">
        <ele>535.556177</ele>
        <time>2022-04-10T09:06:38.046Z</time>
      </trkpt>
      <trkpt lat="42.17154" lon="22.1852">
        <ele>535.49763</ele>
        <time>2022-04-10T09:06:40.027Z</time>
      </trkpt>
      <trkpt lat="42.17153" lon="22.18503">
        <ele>535.397242</ele>
        <time>2022-04-10T09:06:42.068Z</time>
      </trkpt>
      <trkpt lat="42.17153" lon="22.18486">
        <ele>535.257292</ele>
        <time>2022-04-10T09:06:44.055Z</time>
      </trkpt>
      <trkpt lat="42.17152" lon="22.18469">
        <ele>535.123559</ele>
        <time>2022-04-10T09:06:46.028Z</time>
      </trkpt>
      <trkpt lat="42.17151" lon="22.18453">
        <ele>534.991496</ele>
        <time>2022-04-10T09:06:48.039Z</time>
      </trkpt>
      <trkpt lat="42.17151" lon="22.18437">
        <ele>534.863378</ele>
        <time>2022-04-10T09:06:50.056Z</time>
      </trkpt>
      <trkpt lat="42.1715" lon="22.18421">
        <ele>534.737797</ele>
        <time>2022-04-10T09:06:52.037Z</time>
      </trkpt>
      <trkpt lat="42.17149" lon="22.18406">
        <ele>534.613689</ele>
        <time>2022-04-10T09:06:54.038Z</time>
      </trkpt>
      <trkpt lat="42.17149" lon="22.18391">
        <ele>534.493056</ele>
        <time>2022-04-10T09:06:56.042Z</time>
      </trkpt>
      <trkpt lat="42.17148" lon="22.18375">
        <ele>534.369478</ele>
        <time>2022-04-10T09:06:58.057Z</time>
      </trkpt>
      <trkpt lat="42.17147" lon="22.1836">
        <ele>534.243094</ele>
        <time>2022-04-10T09:07:00.044Z</time>
      </trkpt>
      <trkpt lat="42.17146" lon="22.18344">
        <ele>534.118905</ele>
        <time>2022-04-10T09:07:02.041Z</time>
      </trkpt>
      <trkpt lat="42.17145" lon="22.18329">
        <ele>533.997829</ele>
        <time>2022-04-10T09:07:04.041Z</time>
      </trkpt>
      <trkpt lat="42.17144" lon="22.18314">
        <ele>533.874692</ele>
        <time>2022-04-10T09:07:06.026Z</time>
      </trkpt>
      <trkpt lat="42.17143" lon="22.18299">
        <ele>533.749613</ele>
        <time>2022-04-10T09:07:08.054Z</time>
      </trkpt>
      <trkpt lat="42.17142" lon="22.18283">
        <ele>533.627026</ele>
        <time>2022-04-10T09:07:10.081Z</time>
      </trkpt>
      <trkpt lat="42.17141" lon="22.18269">
        <ele>533.504741</ele>
        <time>2022-04-10T09:07:12.040Z</time>
      </trkpt>
      <trkpt lat="42.17141" lon="22.18253">
        <ele>533.359301</ele>
        <time>2022-04-10T09:07:14.036Z</time>
      </trkpt>
      <trkpt lat="42.1714" lon="22.18238">
        <ele>533.216631</ele>
        <time>2022-04-10T09:07:16.074Z</time>
      </trkpt>
      <trkpt lat="42.17139" lon="22.18223">
        <ele>533.073667</ele>
        <time>2022-04-10T09:07:18.037Z</time>
      </trkpt>
      <trkpt lat="42.17138" lon="22.18208">
        <ele>532.928813</ele>
        <time>2022-04-10T09:07:20.018Z</time>
      </trkpt>
      <trkpt lat="42.17137" lon="22.18193">
        <ele>532.783958</ele>
        <time>2022-04-10T09:07:22.028Z</time>
      </trkpt>
      <trkpt lat="42.17136" lon="22.18178">
        <ele>532.639211</ele>
        <time>2022-04-10T09:07:24.063Z</time>
      </trkpt>
      <trkpt lat="42.17135" lon="22.18162">
        <ele>532.493293</ele>
        <time>2022-04-10T09:07:26.051Z</time>
      </trkpt>
      <trkpt lat="42.17134" lon="22.18147">
        <ele>532.351483</ele>
        <time>2022-04-10T09:07:28.049Z</time>
      </trkpt>
      <trkpt lat="42.17133" lon="22.18132">
        <ele>532.205022</ele>
        <time>2022-04-10T09:07:30.041Z</time>
      </trkpt>
      <trkpt lat="42.17132" lon="22.18117">
        <ele>532.057436</ele>
        <time>2022-04-10T09:07:32.045Z</time>
      </trkpt>
      <trkpt lat="42.17131" lon="22.18101">
        <ele>531.910573</ele>
        <time>2022-04-10T09:07:34.045Z</time>
      </trkpt>
      <trkpt lat="42.1713" lon="22.18086">
        <ele>531.762765</ele>
        <time>2022-04-10T09:07:36.054Z</time>
      </trkpt>
      <trkpt lat="42.17129" lon="22.1807">
        <ele>531.615074</ele>
        <time>2022-04-10T09:07:38.033Z</time>
      </trkpt>
      <trkpt lat="42.17128" lon="22.18055">
        <ele>531.470219</ele>
        <time>2022-04-10T09:07:40.037Z</time>
      </trkpt>
      <trkpt lat="42.17127" lon="22.1804">
        <ele>531.323579</ele>
        <time>2022-04-10T09:07:42.048Z</time>
      </trkpt>
      <trkpt lat="42.17126" lon="22.18024">
        <ele>531.190018</ele>
        <time>2022-04-10T09:07:44.081Z</time>
      </trkpt>
      <trkpt lat="42.17126" lon="22.18009">
        <ele>531.093524</ele>
        <time>2022-04-10T09:07:46.040Z</time>
      </trkpt>
      <trkpt lat="42.17125" lon="22.17994">
        <ele>530.997839</ele>
        <time>2022-04-10T09:07:48.047Z</time>
      </trkpt>
      <trkpt lat="42.17124" lon="22.17979">
        <ele>530.903093</ele>
        <time>2022-04-10T09:07:50.085Z</time>
      </trkpt>
      <trkpt lat="42.17123" lon="22.17965">
        <ele>530.810332</ele>
        <time>2022-04-10T09:07:52.059Z</time>
      </trkpt>
      <trkpt lat="42.17122" lon="22.1795">
        <ele>530.717647</ele>
        <time>2022-04-10T09:07:54.046Z</time>
      </trkpt>
      <trkpt lat="42.17121" lon="22.17936">
        <ele>530.623446</ele>
        <time>2022-04-10T09:07:56.048Z</time>
      </trkpt>
      <trkpt lat="42.1712" lon="22.1792">
        <ele>530.52561</ele>
        <time>2022-04-10T09:07:58.035Z</time>
      </trkpt>
      <trkpt lat="42.17119" lon="22.17905">
        <ele>530.428603</ele>
        <time>2022-04-10T09:08:00.046Z</time>
      </trkpt>
      <trkpt lat="42.17118" lon="22.1789">
        <ele>530.330903</ele>
        <time>2022-04-10T09:08:02.026Z</time>
      </trkpt>
      <trkpt lat="42.17117" lon="22.17875">
        <ele>530.233774</ele>
        <time>2022-04-10T09:08:04.056Z</time>
      </trkpt>
      <trkpt lat="42.17117" lon="22.1786">
        <ele>530.141792</ele>
        <time>2022-04-10T09:08:06.035Z</time>
      </trkpt>
      <trkpt lat="42.17116" lon="22.17846">
        <ele>530.050445</ele>
        <time>2022-04-10T09:08:08.044Z</time>
      </trkpt>
      <trkpt lat="42.17115" lon="22.17831">
        <ele>529.954165</ele>
        <time>2022-04-10T09:08:10.041Z</time>
      </trkpt>
      <trkpt lat="42.17115" lon="22.17816">
        <ele>529.858522</ele>
        <time>2022-04-10T09:08:12.027Z</time>
      </trkpt>
      <trkpt lat="42.17114" lon="22.17801">
        <ele>529.763224</ele>
        <time>2022-04-10T09:08:14.055Z</time>
      </trkpt>
      <trkpt lat="42.17113" lon="22.17786">
        <ele>529.667864</ele>
        <time>2022-04-10T09:08:16.047Z</time>
      </trkpt>
      <trkpt lat="42.17112" lon="22.17771">
        <ele>529.548268</ele>
        <time>2022-04-10T09:08:18.079Z</time>
      </trkpt>
      <trkpt lat="42.17111" lon="22.17756">
        <ele>529.42744</ele>
        <time>2022-04-10T09:08:20.047Z</time>
      </trkpt>
      <trkpt lat="42.1711" lon="22.1774">
        <ele>529.304891</ele>
        <time>2022-04-10T09:08:22.041Z</time>
      </trkpt>
      <trkpt lat="42.1711" lon="22.17725">
        <ele>529.184911</ele>
        <time>2022-04-10T09:08:24.048Z</time>
      </trkpt>
      <trkpt lat="42.17109" lon="22.1771">
        <ele>529.063845</ele>
        <time>2022-04-10T09:08:26.057Z</time>
      </trkpt>
      <trkpt lat="42.17107" lon="22.17695">
        <ele>528.944924</ele>
        <time>2022-04-10T09:08:28.017Z</time>
      </trkpt>
      <trkpt lat="42.17106" lon="22.1768">
        <ele>528.826998</ele>
        <time>2022-04-10T09:08:30.046Z</time>
      </trkpt>
      <trkpt lat="42.17106" lon="22.17665">
        <ele>528.708377</ele>
        <time>2022-04-10T09:08:32.049Z</time>
      </trkpt>
      <trkpt lat="42.17104" lon="22.1765">
        <ele>528.591135</ele>
        <time>2022-04-10T09:08:34.024Z</time>
      </trkpt>
      <trkpt lat="42.17104" lon="22.17636">
        <ele>528.478238</ele>
        <time>2022-04-10T09:08:36.038Z</time>
      </trkpt>
      <trkpt lat="42.17103" lon="22.17621">
        <ele>528.36433</ele>
        <time>2022-04-10T09:08:38.034Z</time>
      </trkpt>
      <trkpt lat="42.17102" lon="22.17607">
        <ele>528.248656</ele>
        <time>2022-04-10T09:08:40.080Z</time>
      </trkpt>
      <trkpt lat="42.17101" lon="22.17592">
        <ele>528.131689</ele>
        <time>2022-04-10T09:08:42.040Z</time>
      </trkpt>
      <trkpt lat="42.171" lon="22.17577">
        <ele>528.013763</ele>
        <time>2022-04-10T09:08:44.043Z</time>
      </trkpt>
      <trkpt lat="42.17099" lon="22.17562">
        <ele>527.898976</ele>
        <time>2022-04-10T09:08:46.029Z</time>
      </trkpt>
      <trkpt lat="42.17098" lon="22.17548">
        <ele>527.785227</ele>
        <time>2022-04-10T09:08:48.033Z</time>
      </trkpt>
      <trkpt lat="42.17098" lon="22.17534">
        <ele>527.872873</ele>
        <time>2022-04-10T09:08:50.041Z</time>
      </trkpt>
      <trkpt lat="42.17097" lon="22.17519">
        <ele>528.028569</ele>
        <time>2022-04-10T09:08:52.041Z</time>
      </trkpt>
      <trkpt lat="42.17097" lon="22.17505">
        <ele>528.17793</ele>
        <time>2022-04-10T09:08:54.058Z</time>
      </trkpt>
      <trkpt lat="42.17096" lon="22.17492">
        <ele>528.321027</ele>
        <time>2022-04-10T09:08:56.044Z</time>
      </trkpt>
      <trkpt lat="42.17095" lon="22.17479">
        <ele>528.466169</ele>
        <time>2022-04-10T09:08:58.019Z</time>
      </trkpt>
      <trkpt lat="42.17094" lon="22.17465">
        <ele>528.610469</ele>
        <time>2022-04-10T09:09:00.043Z</time>
      </trkpt>
      <trkpt lat="42.17094" lon="22.17453">
        <ele>528.749259</ele>
        <time>2022-04-10T09:09:02.026Z</time>
      </trkpt>
      <trkpt lat="42.17093" lon="22.17439">
        <ele>528.893559</ele>
        <time>2022-04-10T09:09:04.036Z</time>
      </trkpt>
      <trkpt lat="42.17092" lon="22.17426">
        <ele>529.040301</ele>
        <time>2022-04-10T09:09:06.037Z</time>
      </trkpt>
      <trkpt lat="42.17091" lon="22.17414">
        <ele>529.173589</ele>
        <time>2022-04-10T09:09:08.079Z</time>
      </trkpt>
      <trkpt lat="42.1709" lon="22.17396">
        <ele>529.365631</ele>
        <time>2022-04-10T09:09:11.037Z</time>
      </trkpt>
      <trkpt lat="42.17089" lon="22.17378">
        <ele>529.55615</ele>
        <time>2022-04-10T09:09:14.042Z</time>
      </trkpt>
      <trkpt lat="42.17088" lon="22.17361">
        <ele>529.744355</ele>
        <time>2022-04-10T09:09:17.035Z</time>
      </trkpt>
      <trkpt lat="42.17087" lon="22.17344">
        <ele>529.923488</ele>
        <time>2022-04-10T09:09:20.033Z</time>
      </trkpt>
      <trkpt lat="42.17086" lon="22.17327">
        <ele>530.106923</ele>
        <time>2022-04-10T09:09:23.041Z</time>
      </trkpt>
      <trkpt lat="42.17085" lon="22.17315">
        <ele>530.238317</ele>
        <time>2022-04-10T09:09:25.054Z</time>
      </trkpt>
      <trkpt lat="42.17084" lon="22.17303">
        <ele>530.371502</ele>
        <time>2022-04-10T09:09:27.036Z</time>
      </trkpt>
      <trkpt lat="42.17083" lon="22.17285">
        <ele>530.216867</ele>
        <time>2022-04-10T09:09:30.027Z</time>
      </trkpt>
      <trkpt lat="42.17083" lon="22.17267">
        <ele>530.045761</ele>
        <time>2022-04-10T09:09:33.065Z</time>
      </trkpt>
      <trkpt lat="42.17082" lon="22.17253">
        <ele>529.914257</ele>
        <time>2022-04-10T09:09:35.044Z</time>
      </trkpt>
      <trkpt lat="42.17081" lon="22.1724">
        <ele>529.789582</ele>
        <time>2022-04-10T09:09:37.046Z</time>
      </trkpt>
      <trkpt lat="42.17079" lon="22.17225">
        <ele>529.65344</ele>
        <time>2022-04-10T09:09:39.086Z</time>
      </trkpt>
      <trkpt lat="42.17078" lon="22.17209">
        <ele>529.50248</ele>
        <time>2022-04-10T09:09:41.017Z</time>
      </trkpt>
      <trkpt lat="42.17078" lon="22.17194">
        <ele>529.357421</ele>
        <time>2022-04-10T09:09:43.043Z</time>
      </trkpt>
      <trkpt lat="42.17076" lon="22.17179">
        <ele>529.221788</ele>
        <time>2022-04-10T09:09:45.030Z</time>
      </trkpt>
      <trkpt lat="42.17076" lon="22.17164">
        <ele>529.082196</ele>
        <time>2022-04-10T09:09:47.031Z</time>
      </trkpt>
      <trkpt lat="42.17075" lon="22.17148">
        <ele>528.931326</ele>
        <time>2022-04-10T09:09:49.038Z</time>
      </trkpt>
      <trkpt lat="42.17074" lon="22.17132">
        <ele>528.776724</ele>
        <time>2022-04-10T09:09:51.030Z</time>
      </trkpt>
      <trkpt lat="42.17073" lon="22.17116">
        <ele>528.6278</ele>
        <time>2022-04-10T09:09:53.032Z</time>
      </trkpt>
      <trkpt lat="42.17073" lon="22.171">
        <ele>528.478876</ele>
        <time>2022-04-10T09:09:55.052Z</time>
      </trkpt>
      <trkpt lat="42.17072" lon="22.17084">
        <ele>528.328938</ele>
        <time>2022-04-10T09:09:57.055Z</time>
      </trkpt>
      <trkpt lat="42.17071" lon="22.17068">
        <ele>528.177046</ele>
        <time>2022-04-10T09:09:59.046Z</time>
      </trkpt>
      <trkpt lat="42.1707" lon="22.17052">
        <ele>527.993297</ele>
        <time>2022-04-10T09:10:01.051Z</time>
      </trkpt>
      <trkpt lat="42.17069" lon="22.17036">
        <ele>527.785517</ele>
        <time>2022-04-10T09:10:03.055Z</time>
      </trkpt>
      <trkpt lat="42.17068" lon="22.1702">
        <ele>527.576857</ele>
        <time>2022-04-10T09:10:05.038Z</time>
      </trkpt>
      <trkpt lat="42.17067" lon="22.17005">
        <ele>527.375799</ele>
        <time>2022-04-10T09:10:07.040Z</time>
      </trkpt>
      <trkpt lat="42.17067" lon="22.1699">
        <ele>527.17393</ele>
        <time>2022-04-10T09:10:09.046Z</time>
      </trkpt>
      <trkpt lat="42.17066" lon="22.16973">
        <ele>526.95782</ele>
        <time>2022-04-10T09:10:11.060Z</time>
      </trkpt>
      <trkpt lat="42.17066" lon="22.16957">
        <ele>526.73875</ele>
        <time>2022-04-10T09:10:13.033Z</time>
      </trkpt>
      <trkpt lat="42.17065" lon="22.16941">
        <ele>526.52387</ele>
        <time>2022-04-10T09:10:15.046Z</time>
      </trkpt>
      <trkpt lat="42.17065" lon="22.16927">
        <ele>526.342037</ele>
        <time>2022-04-10T09:10:17.042Z</time>
      </trkpt>
      <trkpt lat="42.17064" lon="22.16913">
        <ele>526.16476</ele>
        <time>2022-04-10T09:10:19.074Z</time>
      </trkpt>
      <trkpt lat="42.17063" lon="22.16898">
        <ele>525.956744</ele>
        <time>2022-04-10T09:10:21.029Z</time>
      </trkpt>
      <trkpt lat="42.17062" lon="22.16882">
        <ele>525.751749</ele>
        <time>2022-04-10T09:10:23.039Z</time>
      </trkpt>
      <trkpt lat="42.1706" lon="22.16868">
        <ele>525.558205</ele>
        <time>2022-04-10T09:10:25.036Z</time>
      </trkpt>
      <trkpt lat="42.1706" lon="22.16853">
        <ele>525.363863</ele>
        <time>2022-04-10T09:10:27.020Z</time>
      </trkpt>
      <trkpt lat="42.17059" lon="22.16839">
        <ele>525.175926</ele>
        <time>2022-04-10T09:10:29.041Z</time>
      </trkpt>
      <trkpt lat="42.17058" lon="22.16825">
        <ele>524.991047</ele>
        <time>2022-04-10T09:10:31.078Z</time>
      </trkpt>
      <trkpt lat="42.17057" lon="22.16812">
        <ele>524.882778</ele>
        <time>2022-04-10T09:10:33.041Z</time>
      </trkpt>
      <trkpt lat="42.17056" lon="22.16799">
        <ele>524.833121</ele>
        <time>2022-04-10T09:10:35.035Z</time>
      </trkpt>
      <trkpt lat="42.17055" lon="22.16782">
        <ele>524.76115</ele>
        <time>2022-04-10T09:10:38.042Z</time>
      </trkpt>
      <trkpt lat="42.17055" lon="22.16769">
        <ele>524.70753</ele>
        <time>2022-04-10T09:10:40.049Z</time>
      </trkpt>
      <trkpt lat="42.17054" lon="22.16755">
        <ele>524.653911</ele>
        <time>2022-04-10T09:10:42.082Z</time>
      </trkpt>
      <trkpt lat="42.17054" lon="22.16742">
        <ele>524.600697</ele>
        <time>2022-04-10T09:10:44.041Z</time>
      </trkpt>
      <trkpt lat="42.17053" lon="22.16729">
        <ele>524.546673</ele>
        <time>2022-04-10T09:10:46.051Z</time>
      </trkpt>
      <trkpt lat="42.17052" lon="22.16715">
        <ele>524.489648</ele>
        <time>2022-04-10T09:10:48.034Z</time>
      </trkpt>
      <trkpt lat="42.17051" lon="22.16701">
        <ele>524.433885</ele>
        <time>2022-04-10T09:10:50.051Z</time>
      </trkpt>
      <trkpt lat="42.1705" lon="22.16688">
        <ele>524.37807</ele>
        <time>2022-04-10T09:10:52.050Z</time>
      </trkpt>
      <trkpt lat="42.17049" lon="22.16675">
        <ele>524.325665</ele>
        <time>2022-04-10T09:10:54.018Z</time>
      </trkpt>
      <trkpt lat="42.17049" lon="22.16661">
        <ele>524.268286</ele>
        <time>2022-04-10T09:10:56.040Z</time>
      </trkpt>
      <trkpt lat="42.17048" lon="22.16647">
        <ele>524.211834</ele>
        <time>2022-04-10T09:10:58.024Z</time>
      </trkpt>
      <trkpt lat="42.17047" lon="22.16633">
        <ele>524.156156</ele>
        <time>2022-04-10T09:11:00.044Z</time>
      </trkpt>
      <trkpt lat="42.17046" lon="22.16619">
        <ele>524.098727</ele>
        <time>2022-04-10T09:11:02.040Z</time>
      </trkpt>
      <trkpt lat="42.17045" lon="22.16605">
        <ele>524.042509</ele>
        <time>2022-04-10T09:11:04.068Z</time>
      </trkpt>
      <trkpt lat="42.17044" lon="22.16591">
        <ele>523.986791</ele>
        <time>2022-04-10T09:11:06.044Z</time>
      </trkpt>
      <trkpt lat="42.17044" lon="22.16578">
        <ele>523.932363</ele>
        <time>2022-04-10T09:11:08.035Z</time>
      </trkpt>
      <trkpt lat="42.17043" lon="22.16565">
        <ele>524.049536</ele>
        <time>2022-04-10T09:11:10.043Z</time>
      </trkpt>
      <trkpt lat="42.17043" lon="22.16551">
        <ele>524.184243</ele>
        <time>2022-04-10T09:11:12.041Z</time>
      </trkpt>
      <trkpt lat="42.17042" lon="22.16538">
        <ele>524.31926</ele>
        <time>2022-04-10T09:11:14.049Z</time>
      </trkpt>
      <trkpt lat="42.17042" lon="22.16525">
        <ele>524.453745</ele>
        <time>2022-04-10T09:11:16.040Z</time>
      </trkpt>
      <trkpt lat="42.17041" lon="22.16512">
        <ele>524.585283</ele>
        <time>2022-04-10T09:11:18.058Z</time>
      </trkpt>
      <trkpt lat="42.17041" lon="22.16499">
        <ele>524.715954</ele>
        <time>2022-04-10T09:11:20.069Z</time>
      </trkpt>
      <trkpt lat="42.17039" lon="22.16486">
        <ele>524.848233</ele>
        <time>2022-04-10T09:11:22.034Z</time>
      </trkpt>
      <trkpt lat="42.17038" lon="22.16473">
        <ele>524.983381</ele>
        <time>2022-04-10T09:11:24.048Z</time>
      </trkpt>
      <trkpt lat="42.17038" lon="22.16459">
        <ele>525.121115</ele>
        <time>2022-04-10T09:11:26.090Z</time>
      </trkpt>
      <trkpt lat="42.17037" lon="22.16446">
        <ele>525.25803</ele>
        <time>2022-04-10T09:11:28.049Z</time>
      </trkpt>
      <trkpt lat="42.17036" lon="22.16432">
        <ele>525.39519</ele>
        <time>2022-04-10T09:11:30.079Z</time>
      </trkpt>
      <trkpt lat="42.17035" lon="22.16419">
        <ele>525.524168</ele>
        <time>2022-04-10T09:11:32.027Z</time>
      </trkpt>
      <trkpt lat="42.17035" lon="22.16401">
        <ele>525.706269</ele>
        <time>2022-04-10T09:11:35.002Z</time>
      </trkpt>
      <trkpt lat="42.17034" lon="22.16389">
        <ele>525.832904</ele>
        <time>2022-04-10T09:11:37.055Z</time>
      </trkpt>
      <trkpt lat="42.17033" lon="22.16376">
        <ele>525.968052</ele>
        <time>2022-04-10T09:11:39.009Z</time>
      </trkpt>
      <trkpt lat="42.17032" lon="22.16363">
        <ele>526.098815</ele>
        <time>2022-04-10T09:11:41.045Z</time>
      </trkpt>
      <trkpt lat="42.17032" lon="22.1635">
        <ele>526.225369</ele>
        <time>2022-04-10T09:11:43.029Z</time>
      </trkpt>
      <trkpt lat="42.17031" lon="22.16338">
        <ele>526.353798</ele>
        <time>2022-04-10T09:11:45.029Z</time>
      </trkpt>
      <trkpt lat="42.1703" lon="22.16325">
        <ele>526.316256</ele>
        <time>2022-04-10T09:11:47.045Z</time>
      </trkpt>
      <trkpt lat="42.17029" lon="22.16311">
        <ele>526.231831</ele>
        <time>2022-04-10T09:11:49.032Z</time>
      </trkpt>
      <trkpt lat="42.17028" lon="22.16298">
        <ele>526.144264</ele>
        <time>2022-04-10T09:11:51.017Z</time>
      </trkpt>
      <trkpt lat="42.17027" lon="22.16284">
        <ele>526.057953</ele>
        <time>2022-04-10T09:11:53.034Z</time>
      </trkpt>
      <trkpt lat="42.17026" lon="22.16271">
        <ele>525.973053</ele>
        <time>2022-04-10T09:11:55.011Z</time>
      </trkpt>
      <trkpt lat="42.17025" lon="22.16258">
        <ele>525.891301</ele>
        <time>2022-04-10T09:11:57.026Z</time>
      </trkpt>
      <trkpt lat="42.17025" lon="22.16245">
        <ele>525.812244</ele>
        <time>2022-04-10T09:11:59.070Z</time>
      </trkpt>
      <trkpt lat="42.17024" lon="22.16233">
        <ele>525.733077</ele>
        <time>2022-04-10T09:12:01.046Z</time>
      </trkpt>
      <trkpt lat="42.17024" lon="22.16219">
        <ele>525.649014</ele>
        <time>2022-04-10T09:12:03.033Z</time>
      </trkpt>
      <trkpt lat="42.17023" lon="22.16206">
        <ele>525.566698</ele>
        <time>2022-04-10T09:12:05.037Z</time>
      </trkpt>
      <trkpt lat="42.17022" lon="22.16194">
        <ele>525.489898</ele>
        <time>2022-04-10T09:12:07.047Z</time>
      </trkpt>
      <trkpt lat="42.17022" lon="22.16177">
        <ele>525.378735</ele>
        <time>2022-04-10T09:12:10.060Z</time>
      </trkpt>
      <trkpt lat="42.1702" lon="22.16159">
        <ele>525.267574</ele>
        <time>2022-04-10T09:12:13.034Z</time>
      </trkpt>
      <trkpt lat="42.17019" lon="22.16142">
        <ele>525.156029</ele>
        <time>2022-04-10T09:12:16.035Z</time>
      </trkpt>
      <trkpt lat="42.17018" lon="22.16124">
        <ele>525.045245</ele>
        <time>2022-04-10T09:12:19.052Z</time>
      </trkpt>
      <trkpt lat="42.17017" lon="22.16111">
        <ele>524.964674</ele>
        <time>2022-04-10T09:12:21.029Z</time>
      </trkpt>
      <trkpt lat="42.17017" lon="22.16099">
        <ele>524.884247</ele>
        <time>2022-04-10T09:12:23.049Z</time>
      </trkpt>
      <trkpt lat="42.17016" lon="22.16086">
        <ele>524.804092</ele>
        <time>2022-04-10T09:12:25.024Z</time>
      </trkpt>
      <trkpt lat="42.17015" lon="22.16073">
        <ele>524.725906</ele>
        <time>2022-04-10T09:12:27.058Z</time>
      </trkpt>
      <trkpt lat="42.17014" lon="22.16061">
        <ele>524.651429</ele>
        <time>2022-04-10T09:12:29.036Z</time>
      </trkpt>
      <trkpt lat="42.17013" lon="22.16043">
        <ele>524.542925</ele>
        <time>2022-04-10T09:12:32.094Z</time>
      </trkpt>
      <trkpt lat="42.17012" lon="22.1603">
        <ele>524.465669</ele>
        <time>2022-04-10T09:12:34.041Z</time>
      </trkpt>
      <trkpt lat="42.17011" lon="22.16017">
        <ele>524.385216</ele>
        <time>2022-04-10T09:12:36.039Z</time>
      </trkpt>
      <trkpt lat="42.17011" lon="22.16004">
        <ele>524.303779</ele>
        <time>2022-04-10T09:12:38.073Z</time>
      </trkpt>
      <trkpt lat="42.1701" lon="22.15991">
        <ele>524.225782</ele>
        <time>2022-04-10T09:12:40.051Z</time>
      </trkpt>
      <trkpt lat="42.17009" lon="22.15972">
        <ele>524.111156</ele>
        <time>2022-04-10T09:12:43.050Z</time>
      </trkpt>
      <trkpt lat="42.17008" lon="22.15957">
        <ele>524.020462</ele>
        <time>2022-04-10T09:12:45.014Z</time>
      </trkpt>
      <trkpt lat="42.17007" lon="22.15943">
        <ele>523.935275</ele>
        <time>2022-04-10T09:12:47.042Z</time>
      </trkpt>
      <trkpt lat="42.17006" lon="22.15929">
        <ele>523.846207</ele>
        <time>2022-04-10T09:12:49.033Z</time>
      </trkpt>
      <trkpt lat="42.17005" lon="22.15914">
        <ele>523.756606</ele>
        <time>2022-04-10T09:12:51.043Z</time>
      </trkpt>
      <trkpt lat="42.17004" lon="22.159">
        <ele>523.669957</ele>
        <time>2022-04-10T09:12:53.061Z</time>
      </trkpt>
      <trkpt lat="42.17003" lon="22.15887">
        <ele>523.590643</ele>
        <time>2022-04-10T09:12:55.043Z</time>
      </trkpt>
      <trkpt lat="42.17003" lon="22.15874">
        <ele>523.510724</ele>
        <time>2022-04-10T09:12:57.045Z</time>
      </trkpt>
      <trkpt lat="42.17002" lon="22.1586">
        <ele>523.427437</ele>
        <time>2022-04-10T09:12:59.056Z</time>
      </trkpt>
      <trkpt lat="42.17001" lon="22.15846">
        <ele>523.303916</ele>
        <time>2022-04-10T09:13:01.059Z</time>
      </trkpt>
      <trkpt lat="42.17001" lon="22.15832">
        <ele>523.096476</ele>
        <time>2022-04-10T09:13:03.026Z</time>
      </trkpt>
      <trkpt lat="42.17001" lon="22.15818">
        <ele>522.878904</ele>
        <time>2022-04-10T09:13:05.072Z</time>
      </trkpt>
      <trkpt lat="42.17" lon="22.15802">
        <ele>522.653638</ele>
        <time>2022-04-10T09:13:07.043Z</time>
      </trkpt>
      <trkpt lat="42.16999" lon="22.15787">
        <ele>522.43005</ele>
        <time>2022-04-10T09:13:09.044Z</time>
      </trkpt>
      <trkpt lat="42.16999" lon="22.15772">
        <ele>522.210651</ele>
        <time>2022-04-10T09:13:11.038Z</time>
      </trkpt>
      <trkpt lat="42.16998" lon="22.15758">
        <ele>521.996649</ele>
        <time>2022-04-10T09:13:13.056Z</time>
      </trkpt>
      <trkpt lat="42.16997" lon="22.15743">
        <ele>521.778257</ele>
        <time>2022-04-10T09:13:15.044Z</time>
      </trkpt>
      <trkpt lat="42.16996" lon="22.15729">
        <ele>521.569123</ele>
        <time>2022-04-10T09:13:17.041Z</time>
      </trkpt>
      <trkpt lat="42.16995" lon="22.15714">
        <ele>521.358522</ele>
        <time>2022-04-10T09:13:19.078Z</time>
      </trkpt>
      <trkpt lat="42.16994" lon="22.15701">
        <ele>521.156223</ele>
        <time>2022-04-10T09:13:21.038Z</time>
      </trkpt>
      <trkpt lat="42.16993" lon="22.15686">
        <ele>520.945711</ele>
        <time>2022-04-10T09:13:23.031Z</time>
      </trkpt>
      <trkpt lat="42.16992" lon="22.15672">
        <ele>520.733348</ele>
        <time>2022-04-10T09:13:25.045Z</time>
      </trkpt>
      <trkpt lat="42.16991" lon="22.15657">
        <ele>520.516745</ele>
        <time>2022-04-10T09:13:27.042Z</time>
      </trkpt>
      <trkpt lat="42.1699" lon="22.15643">
        <ele>520.300143</ele>
        <time>2022-04-10T09:13:29.042Z</time>
      </trkpt>
      <trkpt lat="42.1699" lon="22.15628">
        <ele>520.086471</ele>
        <time>2022-04-10T09:13:31.021Z</time>
      </trkpt>
      <trkpt lat="42.16989" lon="22.15614">
        <ele>519.873058</ele>
        <time>2022-04-10T09:13:33.046Z</time>
      </trkpt>
      <trkpt lat="42.16989" lon="22.156">
        <ele>519.675808</ele>
        <time>2022-04-10T09:13:35.030Z</time>
      </trkpt>
      <trkpt lat="42.16988" lon="22.15586">
        <ele>519.484252</ele>
        <time>2022-04-10T09:13:37.038Z</time>
      </trkpt>
      <trkpt lat="42.16987" lon="22.15571">
        <ele>519.287248</ele>
        <time>2022-04-10T09:13:39.050Z</time>
      </trkpt>
      <trkpt lat="42.16986" lon="22.15557">
        <ele>519.092523</ele>
        <time>2022-04-10T09:13:41.074Z</time>
      </trkpt>
      <trkpt lat="42.16985" lon="22.15543">
        <ele>518.895844</ele>
        <time>2022-04-10T09:13:43.042Z</time>
      </trkpt>
      <trkpt lat="42.16983" lon="22.15528">
        <ele>518.700285</ele>
        <time>2022-04-10T09:13:45.034Z</time>
      </trkpt>
      <trkpt lat="42.16983" lon="22.15515">
        <ele>518.512679</ele>
        <time>2022-04-10T09:13:47.038Z</time>
      </trkpt>
      <trkpt lat="42.16982" lon="22.15502">
        <ele>518.336334</ele>
        <time>2022-04-10T09:13:49.044Z</time>
      </trkpt>
      <trkpt lat="42.16982" lon="22.15489">
        <ele>518.162715</ele>
        <time>2022-04-10T09:13:51.043Z</time>
      </trkpt>
      <trkpt lat="42.16981" lon="22.15476">
        <ele>517.98637</ele>
        <time>2022-04-10T09:13:53.087Z</time>
      </trkpt>
      <trkpt lat="42.1698" lon="22.15463">
        <ele>517.810663</ele>
        <time>2022-04-10T09:13:55.034Z</time>
      </trkpt>
      <trkpt lat="42.16979" lon="22.1545">
        <ele>517.63224</ele>
        <time>2022-04-10T09:13:57.056Z</time>
      </trkpt>
      <trkpt lat="42.16978" lon="22.15437">
        <ele>517.449334</ele>
        <time>2022-04-10T09:13:59.070Z</time>
      </trkpt>
      <trkpt lat="42.16977" lon="22.15424">
        <ele>517.268195</ele>
        <time>2022-04-10T09:14:01.031Z</time>
      </trkpt>
      <trkpt lat="42.16977" lon="22.1541">
        <ele>517.081024</ele>
        <time>2022-04-10T09:14:03.063Z</time>
      </trkpt>
      <trkpt lat="42.16976" lon="22.15397">
        <ele>516.895034</ele>
        <time>2022-04-10T09:14:05.046Z</time>
      </trkpt>
      <trkpt lat="42.16975" lon="22.15383">
        <ele>516.713236</ele>
        <time>2022-04-10T09:14:07.050Z</time>
      </trkpt>
      <trkpt lat="42.16975" lon="22.1537">
        <ele>516.528793</ele>
        <time>2022-04-10T09:14:09.047Z</time>
      </trkpt>
      <trkpt lat="42.16974" lon="22.15356">
        <ele>516.438452</ele>
        <time>2022-04-10T09:14:11.051Z</time>
      </trkpt>
      <trkpt lat="42.16974" lon="22.15344">
        <ele>516.373408</ele>
        <time>2022-04-10T09:14:13.038Z</time>
      </trkpt>
      <trkpt lat="42.16973" lon="22.1533">
        <ele>516.302489</ele>
        <time>2022-04-10T09:14:15.014Z</time>
      </trkpt>
      <trkpt lat="42.16972" lon="22.15316">
        <ele>516.230828</ele>
        <time>2022-04-10T09:14:17.048Z</time>
      </trkpt>
      <trkpt lat="42.16971" lon="22.15303">
        <ele>516.160545</ele>
        <time>2022-04-10T09:14:19.038Z</time>
      </trkpt>
      <trkpt lat="42.1697" lon="22.15289">
        <ele>516.091523</ele>
        <time>2022-04-10T09:14:21.063Z</time>
      </trkpt>
      <trkpt lat="42.16969" lon="22.15276">
        <ele>516.021695</ele>
        <time>2022-04-10T09:14:23.035Z</time>
      </trkpt>
      <trkpt lat="42.16969" lon="22.15263">
        <ele>515.9573</ele>
        <time>2022-04-10T09:14:25.077Z</time>
      </trkpt>
      <trkpt lat="42.16968" lon="22.15251">
        <ele>515.892601</ele>
        <time>2022-04-10T09:14:27.082Z</time>
      </trkpt>
      <trkpt lat="42.16967" lon="22.15233">
        <ele>515.8009</ele>
        <time>2022-04-10T09:14:30.037Z</time>
      </trkpt>
      <trkpt lat="42.16965" lon="22.15216">
        <ele>515.710657</ele>
        <time>2022-04-10T09:14:33.043Z</time>
      </trkpt>
      <trkpt lat="42.16963" lon="22.15199">
        <ele>515.620855</ele>
        <time>2022-04-10T09:14:36.021Z</time>
      </trkpt>
      <trkpt lat="42.16962" lon="22.15181">
        <ele>515.528324</ele>
        <time>2022-04-10T09:14:39.047Z</time>
      </trkpt>
      <trkpt lat="42.16962" lon="22.15168">
        <ele>515.463794</ele>
        <time>2022-04-10T09:14:41.021Z</time>
      </trkpt>
      <trkpt lat="42.16961" lon="22.15156">
        <ele>515.400395</ele>
        <time>2022-04-10T09:14:43.052Z</time>
      </trkpt>
      <trkpt lat="42.16961" lon="22.15143">
        <ele>515.333366</ele>
        <time>2022-04-10T09:14:45.034Z</time>
      </trkpt>
      <trkpt lat="42.16961" lon="22.15129">
        <ele>515.263763</ele>
        <time>2022-04-10T09:14:47.120Z</time>
      </trkpt>
      <trkpt lat="42.1696" lon="22.15116">
        <ele>515.249181</ele>
        <time>2022-04-10T09:14:49.062Z</time>
      </trkpt>
      <trkpt lat="42.16959" lon="22.15103">
        <ele>515.255086</ele>
        <time>2022-04-10T09:14:51.036Z</time>
      </trkpt>
      <trkpt lat="42.16958" lon="22.1509">
        <ele>515.260978</ele>
        <time>2022-04-10T09:14:53.037Z</time>
      </trkpt>
      <trkpt lat="42.16957" lon="22.15077">
        <ele>515.266986</ele>
        <time>2022-04-10T09:14:55.038Z</time>
      </trkpt>
      <trkpt lat="42.16957" lon="22.15064">
        <ele>515.273185</ele>
        <time>2022-04-10T09:14:57.045Z</time>
      </trkpt>
      <trkpt lat="42.16956" lon="22.1505">
        <ele>515.279446</ele>
        <time>2022-04-10T09:14:59.072Z</time>
      </trkpt>
      <trkpt lat="42.16955" lon="22.15036">
        <ele>515.285695</ele>
        <time>2022-04-10T09:15:01.074Z</time>
      </trkpt>
      <trkpt lat="42.16954" lon="22.15023">
        <ele>515.291796</ele>
        <time>2022-04-10T09:15:03.087Z</time>
      </trkpt>
      <trkpt lat="42.16954" lon="22.15009">
        <ele>515.297992</ele>
        <time>2022-04-10T09:15:05.047Z</time>
      </trkpt>
      <trkpt lat="42.16953" lon="22.14996">
        <ele>515.30393</ele>
        <time>2022-04-10T09:15:07.057Z</time>
      </trkpt>
      <trkpt lat="42.16952" lon="22.14983">
        <ele>515.309835</ele>
        <time>2022-04-10T09:15:09.049Z</time>
      </trkpt>
      <trkpt lat="42.16951" lon="22.1497">
        <ele>515.315976</ele>
        <time>2022-04-10T09:15:11.042Z</time>
      </trkpt>
      <trkpt lat="42.16951" lon="22.14956">
        <ele>515.322181</ele>
        <time>2022-04-10T09:15:13.035Z</time>
      </trkpt>
      <trkpt lat="42.1695" lon="22.14942">
        <ele>515.328425</ele>
        <time>2022-04-10T09:15:15.043Z</time>
      </trkpt>
      <trkpt lat="42.16949" lon="22.14929">
        <ele>515.334539</ele>
        <time>2022-04-10T09:15:17.028Z</time>
      </trkpt>
      <trkpt lat="42.16948" lon="22.14916">
        <ele>515.340557</ele>
        <time>2022-04-10T09:15:19.053Z</time>
      </trkpt>
      <trkpt lat="42.16948" lon="22.14903">
        <ele>515.346299</ele>
        <time>2022-04-10T09:15:21.074Z</time>
      </trkpt>
      <trkpt lat="42.16947" lon="22.1489">
        <ele>515.352135</ele>
        <time>2022-04-10T09:15:23.049Z</time>
      </trkpt>
      <trkpt lat="42.16946" lon="22.14878">
        <ele>515.403431</ele>
        <time>2022-04-10T09:15:25.035Z</time>
      </trkpt>
      <trkpt lat="42.16946" lon="22.14866">
        <ele>515.509287</ele>
        <time>2022-04-10T09:15:27.026Z</time>
      </trkpt>
      <trkpt lat="42.16945" lon="22.14848">
        <ele>515.665801</ele>
        <time>2022-04-10T09:15:30.045Z</time>
      </trkpt>
      <trkpt lat="42.16944" lon="22.14831">
        <ele>515.819115</ele>
        <time>2022-04-10T09:15:33.057Z</time>
      </trkpt>
      <trkpt lat="42.16943" lon="22.14813">
        <ele>515.973394</ele>
        <time>2022-04-10T09:15:36.042Z</time>
      </trkpt>
      <trkpt lat="42.16942" lon="22.14796">
        <ele>516.124298</ele>
        <time>2022-04-10T09:15:39.073Z</time>
      </trkpt>
      <trkpt lat="42.16942" lon="22.14779">
        <ele>516.271163</ele>
        <time>2022-04-10T09:15:42.056Z</time>
      </trkpt>
      <trkpt lat="42.16941" lon="22.14763">
        <ele>516.411</ele>
        <time>2022-04-10T09:15:45.022Z</time>
      </trkpt>
      <trkpt lat="42.1694" lon="22.14751">
        <ele>516.517014</ele>
        <time>2022-04-10T09:15:47.045Z</time>
      </trkpt>
      <trkpt lat="42.16939" lon="22.14734">
        <ele>516.663234</ele>
        <time>2022-04-10T09:15:50.042Z</time>
      </trkpt>
      <trkpt lat="42.16938" lon="22.14717">
        <ele>516.81364</ele>
        <time>2022-04-10T09:15:53.042Z</time>
      </trkpt>
      <trkpt lat="42.16938" lon="22.14699">
        <ele>516.972654</ele>
        <time>2022-04-10T09:15:56.030Z</time>
      </trkpt>
      <trkpt lat="42.16937" lon="22.14682">
        <ele>517.122188</ele>
        <time>2022-04-10T09:15:59.042Z</time>
      </trkpt>
      <trkpt lat="42.16936" lon="22.14665">
        <ele>517.271007</ele>
        <time>2022-04-10T09:16:02.097Z</time>
      </trkpt>
      <trkpt lat="42.16934" lon="22.14648">
        <ele>517.423948</ele>
        <time>2022-04-10T09:16:05.037Z</time>
      </trkpt>
      <trkpt lat="42.16932" lon="22.14636">
        <ele>517.466789</ele>
        <time>2022-04-10T09:16:07.030Z</time>
      </trkpt>
      <trkpt lat="42.16931" lon="22.14619">
        <ele>517.444752</ele>
        <time>2022-04-10T09:16:10.050Z</time>
      </trkpt>
      <trkpt lat="42.1693" lon="22.14601">
        <ele>517.421756</ele>
        <time>2022-04-10T09:16:13.070Z</time>
      </trkpt>
      <trkpt lat="42.16928" lon="22.14583">
        <ele>517.399505</ele>
        <time>2022-04-10T09:16:16.033Z</time>
      </trkpt>
      <trkpt lat="42.16927" lon="22.14567">
        <ele>517.377981</ele>
        <time>2022-04-10T09:16:19.076Z</time>
      </trkpt>
      <trkpt lat="42.16927" lon="22.1455">
        <ele>517.356867</ele>
        <time>2022-04-10T09:16:22.042Z</time>
      </trkpt>
      <trkpt lat="42.16926" lon="22.14534">
        <ele>517.335955</ele>
        <time>2022-04-10T09:16:25.056Z</time>
      </trkpt>
      <trkpt lat="42.16925" lon="22.14517">
        <ele>517.314419</ele>
        <time>2022-04-10T09:16:28.052Z</time>
      </trkpt>
      <trkpt lat="42.16924" lon="22.145">
        <ele>517.293094</ele>
        <time>2022-04-10T09:16:31.038Z</time>
      </trkpt>
      <trkpt lat="42.16922" lon="22.14485">
        <ele>517.272854</ele>
        <time>2022-04-10T09:16:34.057Z</time>
      </trkpt>
      <trkpt lat="42.16921" lon="22.14469">
        <ele>517.252564</ele>
        <time>2022-04-10T09:16:37.025Z</time>
      </trkpt>
      <trkpt lat="42.16921" lon="22.14454">
        <ele>517.233357</ele>
        <time>2022-04-10T09:16:40.056Z</time>
      </trkpt>
      <trkpt lat="42.1692" lon="22.14439">
        <ele>517.214229</ele>
        <time>2022-04-10T09:16:43.026Z</time>
      </trkpt>
      <trkpt lat="42.16919" lon="22.14422">
        <ele>517.193121</ele>
        <time>2022-04-10T09:16:46.031Z</time>
      </trkpt>
      <trkpt lat="42.16918" lon="22.14406">
        <ele>517.17199</ele>
        <time>2022-04-10T09:16:49.035Z</time>
      </trkpt>
      <trkpt lat="42.16918" lon="22.1439">
        <ele>517.188821</ele>
        <time>2022-04-10T09:16:52.018Z</time>
      </trkpt>
      <trkpt lat="42.16918" lon="22.14374">
        <ele>517.224555</ele>
        <time>2022-04-10T09:16:55.038Z</time>
      </trkpt>
      <trkpt lat="42.16917" lon="22.14358">
        <ele>517.260314</ele>
        <time>2022-04-10T09:16:58.025Z</time>
      </trkpt>
      <trkpt lat="42.16916" lon="22.14341">
        <ele>517.298139</ele>
        <time>2022-04-10T09:17:01.038Z</time>
      </trkpt>
      <trkpt lat="42.16915" lon="22.14325">
        <ele>517.335163</ele>
        <time>2022-04-10T09:17:04.081Z</time>
      </trkpt>
      <trkpt lat="42.16914" lon="22.1431">
        <ele>517.369683</ele>
        <time>2022-04-10T09:17:07.036Z</time>
      </trkpt>
      <trkpt lat="42.16913" lon="22.14295">
        <ele>517.402885</ele>
        <time>2022-04-10T09:17:10.083Z</time>
      </trkpt>
      <trkpt lat="42.16911" lon="22.1428">
        <ele>517.437504</ele>
        <time>2022-04-10T09:17:13.024Z</time>
      </trkpt>
      <trkpt lat="42.1691" lon="22.14263">
        <ele>517.477288</ele>
        <time>2022-04-10T09:17:16.067Z</time>
      </trkpt>
      <trkpt lat="42.16908" lon="22.14245">
        <ele>517.516787</ele>
        <time>2022-04-10T09:17:19.046Z</time>
      </trkpt>
      <trkpt lat="42.16908" lon="22.14233">
        <ele>517.54447</ele>
        <time>2022-04-10T09:17:21.038Z</time>
      </trkpt>
      <trkpt lat="42.16907" lon="22.14221">
        <ele>517.571847</ele>
        <time>2022-04-10T09:17:23.028Z</time>
      </trkpt>
      <trkpt lat="42.16906" lon="22.14203">
        <ele>517.61304</ele>
        <time>2022-04-10T09:17:26.062Z</time>
      </trkpt>
      <trkpt lat="42.16906" lon="22.14189">
        <ele>517.644304</ele>
        <time>2022-04-10T09:17:28.034Z</time>
      </trkpt>
      <trkpt lat="42.16905" lon="22.14174">
        <ele>517.677148</ele>
        <time>2022-04-10T09:17:30.039Z</time>
      </trkpt>
      <trkpt lat="42.16904" lon="22.1416">
        <ele>517.709111</ele>
        <time>2022-04-10T09:17:32.032Z</time>
      </trkpt>
      <trkpt lat="42.16903" lon="22.14147">
        <ele>517.483198</ele>
        <time>2022-04-10T09:17:34.038Z</time>
      </trkpt>
      <trkpt lat="42.16903" lon="22.14133">
        <ele>517.216268</ele>
        <time>2022-04-10T09:17:36.045Z</time>
      </trkpt>
      <trkpt lat="42.16902" lon="22.14119">
        <ele>516.94782</ele>
        <time>2022-04-10T09:17:38.036Z</time>
      </trkpt>
      <trkpt lat="42.16901" lon="22.14105">
        <ele>516.679675</ele>
        <time>2022-04-10T09:17:40.022Z</time>
      </trkpt>
      <trkpt lat="42.16901" lon="22.14091">
        <ele>516.409606</ele>
        <time>2022-04-10T09:17:42.040Z</time>
      </trkpt>
      <trkpt lat="42.169" lon="22.14077">
        <ele>516.135391</ele>
        <time>2022-04-10T09:17:44.062Z</time>
      </trkpt>
      <trkpt lat="42.169" lon="22.14063">
        <ele>515.863397</ele>
        <time>2022-04-10T09:17:46.036Z</time>
      </trkpt>
      <trkpt lat="42.16899" lon="22.14048">
        <ele>515.589182</ele>
        <time>2022-04-10T09:17:48.054Z</time>
      </trkpt>
      <trkpt lat="42.16898" lon="22.14034">
        <ele>515.316493</ele>
        <time>2022-04-10T09:17:50.112Z</time>
      </trkpt>
      <trkpt lat="42.16897" lon="22.1402">
        <ele>515.047404</ele>
        <time>2022-04-10T09:17:52.030Z</time>
      </trkpt>
      <trkpt lat="42.16896" lon="22.14006">
        <ele>514.776847</ele>
        <time>2022-04-10T09:17:54.039Z</time>
      </trkpt>
      <trkpt lat="42.16895" lon="22.13992">
        <ele>514.498167</ele>
        <time>2022-04-10T09:17:56.025Z</time>
      </trkpt>
      <trkpt lat="42.16894" lon="22.13978">
        <ele>514.217798</ele>
        <time>2022-04-10T09:17:58.018Z</time>
      </trkpt>
      <trkpt lat="42.16893" lon="22.13963">
        <ele>513.940781</ele>
        <time>2022-04-10T09:18:00.022Z</time>
      </trkpt>
      <trkpt lat="42.16892" lon="22.13949">
        <ele>513.667856</ele>
        <time>2022-04-10T09:18:02.028Z</time>
      </trkpt>
      <trkpt lat="42.16891" lon="22.13935">
        <ele>513.389407</ele>
        <time>2022-04-10T09:18:04.091Z</time>
      </trkpt>
      <trkpt lat="42.1689" lon="22.1392">
        <ele>513.105197</ele>
        <time>2022-04-10T09:18:06.040Z</time>
      </trkpt>
      <trkpt lat="42.16889" lon="22.13905">
        <ele>513.009593</ele>
        <time>2022-04-10T09:18:08.037Z</time>
      </trkpt>
      <trkpt lat="42.16889" lon="22.1389">
        <ele>512.97349</ele>
        <time>2022-04-10T09:18:10.010Z</time>
      </trkpt>
      <trkpt lat="42.16888" lon="22.13876">
        <ele>512.939382</ele>
        <time>2022-04-10T09:18:12.025Z</time>
      </trkpt>
      <trkpt lat="42.16888" lon="22.13863">
        <ele>512.906272</ele>
        <time>2022-04-10T09:18:14.035Z</time>
      </trkpt>
      <trkpt lat="42.16888" lon="22.13849">
        <ele>512.873105</ele>
        <time>2022-04-10T09:18:16.033Z</time>
      </trkpt>
      <trkpt lat="42.16887" lon="22.13835">
        <ele>512.838865</ele>
        <time>2022-04-10T09:18:18.027Z</time>
      </trkpt>
      <trkpt lat="42.16886" lon="22.13821">
        <ele>512.804897</ele>
        <time>2022-04-10T09:18:20.032Z</time>
      </trkpt>
      <trkpt lat="42.16885" lon="22.13808">
        <ele>512.771657</ele>
        <time>2022-04-10T09:18:22.029Z</time>
      </trkpt>
      <trkpt lat="42.16884" lon="22.13794">
        <ele>512.738836</ele>
        <time>2022-04-10T09:18:24.018Z</time>
      </trkpt>
      <trkpt lat="42.16883" lon="22.13781">
        <ele>512.706352</ele>
        <time>2022-04-10T09:18:26.064Z</time>
      </trkpt>
      <trkpt lat="42.16882" lon="22.13768">
        <ele>512.674808</ele>
        <time>2022-04-10T09:18:28.023Z</time>
      </trkpt>
      <trkpt lat="42.16881" lon="22.13755">
        <ele>512.64278</ele>
        <time>2022-04-10T09:18:30.023Z</time>
      </trkpt>
      <trkpt lat="42.1688" lon="22.13742">
        <ele>512.611237</ele>
        <time>2022-04-10T09:18:32.038Z</time>
      </trkpt>
      <trkpt lat="42.1688" lon="22.13729">
        <ele>512.579965</ele>
        <time>2022-04-10T09:18:34.036Z</time>
      </trkpt>
      <trkpt lat="42.16879" lon="22.13716">
        <ele>512.548234</ele>
        <time>2022-04-10T09:18:36.045Z</time>
      </trkpt>
      <trkpt lat="42.16878" lon="22.13703">
        <ele>512.516544</ele>
        <time>2022-04-10T09:18:38.042Z</time>
      </trkpt>
      <trkpt lat="42.16878" lon="22.1369">
        <ele>512.484835</ele>
        <time>2022-04-10T09:18:40.040Z</time>
      </trkpt>
      <trkpt lat="42.16877" lon="22.13678">
        <ele>512.45434</ele>
        <time>2022-04-10T09:18:42.058Z</time>
      </trkpt>
      <trkpt lat="42.16876" lon="22.13665">
        <ele>512.49222</ele>
        <time>2022-04-10T09:18:44.047Z</time>
      </trkpt>
      <trkpt lat="42.16876" lon="22.13653">
        <ele>512.552765</ele>
        <time>2022-04-10T09:18:46.057Z</time>
      </trkpt>
      <trkpt lat="42.16875" lon="22.13641">
        <ele>512.614366</ele>
        <time>2022-04-10T09:18:48.073Z</time>
      </trkpt>
      <trkpt lat="42.16874" lon="22.13629">
        <ele>512.676796</ele>
        <time>2022-04-10T09:18:50.044Z</time>
      </trkpt>
      <trkpt lat="42.16873" lon="22.13616">
        <ele>512.739327</ele>
        <time>2022-04-10T09:18:52.036Z</time>
      </trkpt>
      <trkpt lat="42.16872" lon="22.13603">
        <ele>512.802912</ele>
        <time>2022-04-10T09:18:54.054Z</time>
      </trkpt>
      <trkpt lat="42.16872" lon="22.13591">
        <ele>512.866436</ele>
        <time>2022-04-10T09:18:56.034Z</time>
      </trkpt>
      <trkpt lat="42.16871" lon="22.13578">
        <ele>512.929821</ele>
        <time>2022-04-10T09:18:58.035Z</time>
      </trkpt>
      <trkpt lat="42.16871" lon="22.13565">
        <ele>512.993206</ele>
        <time>2022-04-10T09:19:00.038Z</time>
      </trkpt>
      <trkpt lat="42.1687" lon="22.13553">
        <ele>513.05618</ele>
        <time>2022-04-10T09:19:02.045Z</time>
      </trkpt>
      <trkpt lat="42.16869" lon="22.13541">
        <ele>513.116124</ele>
        <time>2022-04-10T09:19:04.047Z</time>
      </trkpt>
      <trkpt lat="42.16869" lon="22.13523">
        <ele>513.201977</ele>
        <time>2022-04-10T09:19:07.028Z</time>
      </trkpt>
      <trkpt lat="42.16868" lon="22.13507">
        <ele>513.286473</ele>
        <time>2022-04-10T09:19:10.019Z</time>
      </trkpt>
      <trkpt lat="42.16867" lon="22.1349">
        <ele>513.368843</ele>
        <time>2022-04-10T09:19:13.053Z</time>
      </trkpt>
      <trkpt lat="42.16866" lon="22.13474">
        <ele>513.450259</ele>
        <time>2022-04-10T09:19:16.063Z</time>
      </trkpt>
      <trkpt lat="42.16865" lon="22.13458">
        <ele>513.527803</ele>
        <time>2022-04-10T09:19:19.040Z</time>
      </trkpt>
      <trkpt lat="42.16864" lon="22.13443">
        <ele>513.604415</ele>
        <time>2022-04-10T09:19:22.081Z</time>
      </trkpt>
      <trkpt lat="42.16863" lon="22.13427">
        <ele>513.74781</ele>
        <time>2022-04-10T09:19:25.049Z</time>
      </trkpt>
      <trkpt lat="42.16862" lon="22.13412">
        <ele>514.01544</ele>
        <time>2022-04-10T09:19:28.025Z</time>
      </trkpt>
      <trkpt lat="42.16862" lon="22.13397">
        <ele>514.277556</ele>
        <time>2022-04-10T09:19:31.038Z</time>
      </trkpt>
      <trkpt lat="42.1686" lon="22.13381">
        <ele>514.558136</ele>
        <time>2022-04-10T09:19:34.018Z</time>
      </trkpt>
      <trkpt lat="42.16859" lon="22.13365">
        <ele>514.838043</ele>
        <time>2022-04-10T09:19:37.021Z</time>
      </trkpt>
      <trkpt lat="42.16858" lon="22.1335">
        <ele>515.09746</ele>
        <time>2022-04-10T09:19:40.040Z</time>
      </trkpt>
      <trkpt lat="42.16857" lon="22.13335">
        <ele>515.362287</ele>
        <time>2022-04-10T09:19:43.031Z</time>
      </trkpt>
      <trkpt lat="42.16856" lon="22.13319">
        <ele>515.639966</ele>
        <time>2022-04-10T09:19:46.017Z</time>
      </trkpt>
      <trkpt lat="42.16855" lon="22.13302">
        <ele>515.927199</ele>
        <time>2022-04-10T09:19:49.036Z</time>
      </trkpt>
      <trkpt lat="42.16854" lon="22.13285">
        <ele>516.223284</ele>
        <time>2022-04-10T09:19:52.035Z</time>
      </trkpt>
      <trkpt lat="42.16853" lon="22.13268">
        <ele>516.52172</ele>
        <time>2022-04-10T09:19:55.081Z</time>
      </trkpt>
      <trkpt lat="42.16852" lon="22.13251">
        <ele>516.820814</ele>
        <time>2022-04-10T09:19:58.037Z</time>
      </trkpt>
      <trkpt lat="42.16851" lon="22.13234">
        <ele>517.11567</ele>
        <time>2022-04-10T09:20:01.030Z</time>
      </trkpt>
      <trkpt lat="42.16851" lon="22.13217">
        <ele>517.405334</ele>
        <time>2022-04-10T09:20:04.045Z</time>
      </trkpt>
      <trkpt lat="42.1685" lon="22.13201">
        <ele>517.686619</ele>
        <time>2022-04-10T09:20:07.046Z</time>
      </trkpt>
      <trkpt lat="42.16849" lon="22.13185">
        <ele>517.871516</ele>
        <time>2022-04-10T09:20:10.035Z</time>
      </trkpt>
      <trkpt lat="42.16848" lon="22.13169">
        <ele>517.901201</ele>
        <time>2022-04-10T09:20:13.029Z</time>
      </trkpt>
      <trkpt lat="42.16846" lon="22.13153">
        <ele>517.930887</ele>
        <time>2022-04-10T09:20:16.035Z</time>
      </trkpt>
      <trkpt lat="42.16845" lon="22.13137">
        <ele>517.959902</ele>
        <time>2022-04-10T09:20:19.054Z</time>
      </trkpt>
      <trkpt lat="42.16843" lon="22.13122">
        <ele>517.988637</ele>
        <time>2022-04-10T09:20:22.090Z</time>
      </trkpt>
      <trkpt lat="42.16842" lon="22.13107">
        <ele>518.016893</ele>
        <time>2022-04-10T09:20:25.037Z</time>
      </trkpt>
      <trkpt lat="42.1684" lon="22.13091">
        <ele>518.047038</ele>
        <time>2022-04-10T09:20:28.087Z</time>
      </trkpt>
      <trkpt lat="42.1684" lon="22.13074">
        <ele>518.078329</ele>
        <time>2022-04-10T09:20:31.059Z</time>
      </trkpt>
      <trkpt lat="42.16839" lon="22.13057">
        <ele>518.109425</ele>
        <time>2022-04-10T09:20:34.050Z</time>
      </trkpt>
      <trkpt lat="42.16839" lon="22.13041">
        <ele>518.139646</ele>
        <time>2022-04-10T09:20:37.053Z</time>
      </trkpt>
      <trkpt lat="42.16838" lon="22.13024">
        <ele>518.170921</ele>
        <time>2022-04-10T09:20:40.045Z</time>
      </trkpt>
      <trkpt lat="42.16838" lon="22.13006">
        <ele>518.202974</ele>
        <time>2022-04-10T09:20:43.027Z</time>
      </trkpt>
      <trkpt lat="42.16837" lon="22.1299">
        <ele>518.233581</ele>
        <time>2022-04-10T09:20:46.035Z</time>
      </trkpt>
      <trkpt lat="42.16836" lon="22.12974">
        <ele>518.263103</ele>
        <time>2022-04-10T09:20:49.056Z</time>
      </trkpt>
      <trkpt lat="42.16835" lon="22.12958">
        <ele>518.292216</ele>
        <time>2022-04-10T09:20:52.055Z</time>
      </trkpt>
      <trkpt lat="42.16834" lon="22.12944">
        <ele>518.360801</ele>
        <time>2022-04-10T09:20:55.053Z</time>
      </trkpt>
      <trkpt lat="42.16833" lon="22.12929">
        <ele>518.499288</ele>
        <time>2022-04-10T09:20:58.058Z</time>
      </trkpt>
      <trkpt lat="42.16833" lon="22.12915">
        <ele>518.635591</ele>
        <time>2022-04-10T09:21:01.070Z</time>
      </trkpt>
      <trkpt lat="42.16831" lon="22.129">
        <ele>518.774481</ele>
        <time>2022-04-10T09:21:04.040Z</time>
      </trkpt>
      <trkpt lat="42.16831" lon="22.12885">
        <ele>518.91625</ele>
        <time>2022-04-10T09:21:07.064Z</time>
      </trkpt>
      <trkpt lat="42.1683" lon="22.12869">
        <ele>519.067507</ele>
        <time>2022-04-10T09:21:10.053Z</time>
      </trkpt>
      <trkpt lat="42.1683" lon="22.12853">
        <ele>519.22054</ele>
        <time>2022-04-10T09:21:13.077Z</time>
      </trkpt>
      <trkpt lat="42.1683" lon="22.12837">
        <ele>519.373599</ele>
        <time>2022-04-10T09:21:16.081Z</time>
      </trkpt>
      <trkpt lat="42.16829" lon="22.12822">
        <ele>519.515029</ele>
        <time>2022-04-10T09:21:19.031Z</time>
      </trkpt>
      <trkpt lat="42.16827" lon="22.12808">
        <ele>519.649757</ele>
        <time>2022-04-10T09:21:22.037Z</time>
      </trkpt>
      <trkpt lat="42.16826" lon="22.12794">
        <ele>519.783809</ele>
        <time>2022-04-10T09:21:25.045Z</time>
      </trkpt>
      <trkpt lat="42.16825" lon="22.1278">
        <ele>519.912391</ele>
        <time>2022-04-10T09:21:28.054Z</time>
      </trkpt>
      <trkpt lat="42.16824" lon="22.12766">
        <ele>520.045119</ele>
        <time>2022-04-10T09:21:31.022Z</time>
      </trkpt>
      <trkpt lat="42.16823" lon="22.12753">
        <ele>520.169643</ele>
        <time>2022-04-10T09:21:34.023Z</time>
      </trkpt>
      <trkpt lat="42.16822" lon="22.1274">
        <ele>520.28984</ele>
        <time>2022-04-10T09:21:37.028Z</time>
      </trkpt>
      <trkpt lat="42.16821" lon="22.12727">
        <ele>520.417756</ele>
        <time>2022-04-10T09:21:40.022Z</time>
      </trkpt>
      <trkpt lat="42.1682" lon="22.12714">
        <ele>520.539084</ele>
        <time>2022-04-10T09:21:43.042Z</time>
      </trkpt>
      <trkpt lat="42.1682" lon="22.12701">
        <ele>520.628866</ele>
        <time>2022-04-10T09:21:46.050Z</time>
      </trkpt>
      <trkpt lat="42.1682" lon="22.12687">
        <ele>520.691354</ele>
        <time>2022-04-10T09:21:49.026Z</time>
      </trkpt>
      <trkpt lat="42.16818" lon="22.12674">
        <ele>520.748971</ele>
        <time>2022-04-10T09:21:52.078Z</time>
      </trkpt>
      <trkpt lat="42.16817" lon="22.12661">
        <ele>520.804855</ele>
        <time>2022-04-10T09:21:55.048Z</time>
      </trkpt>
      <trkpt lat="42.16817" lon="22.12648">
        <ele>520.860879</ele>
        <time>2022-04-10T09:21:58.028Z</time>
      </trkpt>
      <trkpt lat="42.16816" lon="22.12634">
        <ele>520.922451</ele>
        <time>2022-04-10T09:22:01.039Z</time>
      </trkpt>
      <trkpt lat="42.16815" lon="22.12619">
        <ele>520.98766</ele>
        <time>2022-04-10T09:22:04.051Z</time>
      </trkpt>
      <trkpt lat="42.16814" lon="22.12604">
        <ele>521.056061</ele>
        <time>2022-04-10T09:22:07.043Z</time>
      </trkpt>
      <trkpt lat="42.16814" lon="22.12589">
        <ele>521.121196</ele>
        <time>2022-04-10T09:22:10.049Z</time>
      </trkpt>
      <trkpt lat="42.16813" lon="22.12575">
        <ele>521.181505</ele>
        <time>2022-04-10T09:22:13.057Z</time>
      </trkpt>
      <trkpt lat="42.16813" lon="22.12561">
        <ele>521.242318</ele>
        <time>2022-04-10T09:22:16.056Z</time>
      </trkpt>
      <trkpt lat="42.16812" lon="22.12546">
        <ele>521.306319</ele>
        <time>2022-04-10T09:22:19.063Z</time>
      </trkpt>
      <trkpt lat="42.1681" lon="22.1253">
        <ele>521.378378</ele>
        <time>2022-04-10T09:22:22.052Z</time>
      </trkpt>
      <trkpt lat="42.16808" lon="22.12512">
        <ele>521.45845</ele>
        <time>2022-04-10T09:22:25.036Z</time>
      </trkpt>
      <trkpt lat="42.16808" lon="22.12499">
        <ele>521.514138</ele>
        <time>2022-04-10T09:22:27.058Z</time>
      </trkpt>
      <trkpt lat="42.16807" lon="22.12487">
        <ele>521.568957</ele>
        <time>2022-04-10T09:22:29.055Z</time>
      </trkpt>
      <trkpt lat="42.16806" lon="22.12473">
        <ele>521.628179</ele>
        <time>2022-04-10T09:22:31.074Z</time>
      </trkpt>
      <trkpt lat="42.16804" lon="22.12458">
        <ele>521.549809</ele>
        <time>2022-04-10T09:22:33.059Z</time>
      </trkpt>
      <trkpt lat="42.16803" lon="22.12442">
        <ele>521.329832</ele>
        <time>2022-04-10T09:22:35.038Z</time>
      </trkpt>
      <trkpt lat="42.16802" lon="22.12426">
        <ele>521.104368</ele>
        <time>2022-04-10T09:22:37.029Z</time>
      </trkpt>
      <trkpt lat="42.16801" lon="22.12409">
        <ele>520.873716</ele>
        <time>2022-04-10T09:22:39.024Z</time>
      </trkpt>
      <trkpt lat="42.16801" lon="22.12391">
        <ele>520.634021</ele>
        <time>2022-04-10T09:22:41.033Z</time>
      </trkpt>
      <trkpt lat="42.16799" lon="22.12374">
        <ele>520.397033</ele>
        <time>2022-04-10T09:22:43.067Z</time>
      </trkpt>
      <trkpt lat="42.16798" lon="22.12357">
        <ele>520.15388</ele>
        <time>2022-04-10T09:22:45.041Z</time>
      </trkpt>
      <trkpt lat="42.16798" lon="22.12339">
        <ele>519.908428</ele>
        <time>2022-04-10T09:22:47.050Z</time>
      </trkpt>
      <trkpt lat="42.16797" lon="22.12321">
        <ele>519.661678</ele>
        <time>2022-04-10T09:22:49.051Z</time>
      </trkpt>
      <trkpt lat="42.16796" lon="22.12304">
        <ele>519.429354</ele>
        <time>2022-04-10T09:22:51.055Z</time>
      </trkpt>
      <trkpt lat="42.16795" lon="22.12288">
        <ele>519.209001</ele>
        <time>2022-04-10T09:22:53.043Z</time>
      </trkpt>
      <trkpt lat="42.16794" lon="22.12273">
        <ele>518.992954</ele>
        <time>2022-04-10T09:22:55.032Z</time>
      </trkpt>
      <trkpt lat="42.16793" lon="22.12258">
        <ele>518.792998</ele>
        <time>2022-04-10T09:22:57.038Z</time>
      </trkpt>
      <trkpt lat="42.16793" lon="22.12245">
        <ele>518.603949</ele>
        <time>2022-04-10T09:22:59.021Z</time>
      </trkpt>
      <trkpt lat="42.16792" lon="22.12232">
        <ele>518.428374</ele>
        <time>2022-04-10T09:23:01.041Z</time>
      </trkpt>
      <trkpt lat="42.1679" lon="22.12215">
        <ele>518.262312</ele>
        <time>2022-04-10T09:23:04.034Z</time>
      </trkpt>
      <trkpt lat="42.16789" lon="22.12197">
        <ele>518.154933</ele>
        <time>2022-04-10T09:23:07.082Z</time>
      </trkpt>
      <trkpt lat="42.16788" lon="22.12185">
        <ele>518.078956</ele>
        <time>2022-04-10T09:23:09.083Z</time>
      </trkpt>
      <trkpt lat="42.16787" lon="22.12167">
        <ele>517.970081</ele>
        <time>2022-04-10T09:23:12.047Z</time>
      </trkpt>
      <trkpt lat="42.16786" lon="22.1215">
        <ele>517.86298</ele>
        <time>2022-04-10T09:23:15.055Z</time>
      </trkpt>
      <trkpt lat="42.16785" lon="22.12134">
        <ele>517.764463</ele>
        <time>2022-04-10T09:23:18.053Z</time>
      </trkpt>
      <trkpt lat="42.16785" lon="22.12117">
        <ele>517.66123</ele>
        <time>2022-04-10T09:23:21.050Z</time>
      </trkpt>
      <trkpt lat="42.16785" lon="22.12101">
        <ele>517.562292</ele>
        <time>2022-04-10T09:23:24.046Z</time>
      </trkpt>
      <trkpt lat="42.16783" lon="22.12084">
        <ele>517.462893</ele>
        <time>2022-04-10T09:23:27.038Z</time>
      </trkpt>
      <trkpt lat="42.16783" lon="22.12068">
        <ele>517.363253</ele>
        <time>2022-04-10T09:23:30.034Z</time>
      </trkpt>
      <trkpt lat="42.16782" lon="22.12052">
        <ele>517.26731</ele>
        <time>2022-04-10T09:23:33.073Z</time>
      </trkpt>
      <trkpt lat="42.16781" lon="22.12036">
        <ele>517.167989</ele>
        <time>2022-04-10T09:23:36.045Z</time>
      </trkpt>
      <trkpt lat="42.16781" lon="22.12019">
        <ele>517.065419</ele>
        <time>2022-04-10T09:23:39.025Z</time>
      </trkpt>
      <trkpt lat="42.1678" lon="22.12003">
        <ele>516.964465</ele>
        <time>2022-04-10T09:23:42.060Z</time>
      </trkpt>
      <trkpt lat="42.16779" lon="22.11987">
        <ele>516.867817</ele>
        <time>2022-04-10T09:23:45.051Z</time>
      </trkpt>
      <trkpt lat="42.16777" lon="22.11973">
        <ele>516.956239</ele>
        <time>2022-04-10T09:23:48.042Z</time>
      </trkpt>
      <trkpt lat="42.16777" lon="22.11956">
        <ele>517.167737</ele>
        <time>2022-04-10T09:23:51.054Z</time>
      </trkpt>
      <trkpt lat="42.16775" lon="22.11939">
        <ele>517.381132</ele>
        <time>2022-04-10T09:23:54.043Z</time>
      </trkpt>
      <trkpt lat="42.16774" lon="22.11922">
        <ele>517.593249</ele>
        <time>2022-04-10T09:23:57.062Z</time>
      </trkpt>
      <trkpt lat="42.16772" lon="22.11906">
        <ele>517.791816</ele>
        <time>2022-04-10T09:24:00.039Z</time>
      </trkpt>
      <trkpt lat="42.16771" lon="22.1189">
        <ele>517.99747</ele>
        <time>2022-04-10T09:24:03.053Z</time>
      </trkpt>
      <trkpt lat="42.1677" lon="22.11874">
        <ele>518.200292</ele>
        <time>2022-04-10T09:24:06.041Z</time>
      </trkpt>
      <trkpt lat="42.16769" lon="22.11858">
        <ele>518.407749</ele>
        <time>2022-04-10T09:24:09.038Z</time>
      </trkpt>
      <trkpt lat="42.16768" lon="22.11843">
        <ele>518.599476</ele>
        <time>2022-04-10T09:24:12.083Z</time>
      </trkpt>
      <trkpt lat="42.16767" lon="22.11828">
        <ele>518.786436</ele>
        <time>2022-04-10T09:24:15.156Z</time>
      </trkpt>
      <trkpt lat="42.16766" lon="22.11812">
        <ele>518.987661</ele>
        <time>2022-04-10T09:24:18.074Z</time>
      </trkpt>
      <trkpt lat="42.16766" lon="22.11797">
        <ele>519.175221</ele>
        <time>2022-04-10T09:24:21.028Z</time>
      </trkpt>
      <trkpt lat="42.16765" lon="22.11784">
        <ele>519.332421</ele>
        <time>2022-04-10T09:24:24.050Z</time>
      </trkpt>
      <trkpt lat="42.16765" lon="22.11769">
        <ele>519.529826</ele>
        <time>2022-04-10T09:24:28.031Z</time>
      </trkpt>
      <trkpt lat="42.16764" lon="22.11753">
        <ele>519.729642</ele>
        <time>2022-04-10T09:24:32.051Z</time>
      </trkpt>
      <trkpt lat="42.16763" lon="22.11737">
        <ele>520.037764</ele>
        <time>2022-04-10T09:24:36.047Z</time>
      </trkpt>
      <trkpt lat="42.16762" lon="22.11724">
        <ele>520.700412</ele>
        <time>2022-04-10T09:24:40.082Z</time>
      </trkpt>
      <trkpt lat="42.16762" lon="22.11711">
        <ele>521.375478</ele>
        <time>2022-04-10T09:24:44.063Z</time>
      </trkpt>
      <trkpt lat="42.16761" lon="22.11698">
        <ele>522.015727</ele>
        <time>2022-04-10T09:24:48.052Z</time>
      </trkpt>
      <trkpt lat="42.1676" lon="22.11683">
        <ele>522.766388</ele>
        <time>2022-04-10T09:24:53.042Z</time>
      </trkpt>
      <trkpt lat="42.16759" lon="22.11671">
        <ele>523.41285</ele>
        <time>2022-04-10T09:24:57.042Z</time>
      </trkpt>
      <trkpt lat="42.16758" lon="22.11655">
        <ele>524.190923</ele>
        <time>2022-04-10T09:25:02.079Z</time>
      </trkpt>
      <trkpt lat="42.16758" lon="22.11643">
        <ele>524.801321</ele>
        <time>2022-04-10T09:25:06.042Z</time>
      </trkpt>
      <trkpt lat="42.16757" lon="22.1163">
        <ele>525.452345</ele>
        <time>2022-04-10T09:25:11.049Z</time>
      </trkpt>
      <trkpt lat="42.16757" lon="22.11616">
        <ele>526.178788</ele>
        <time>2022-04-10T09:25:17.053Z</time>
      </trkpt>
      <trkpt lat="42.16756" lon="22.11602">
        <ele>526.854949</ele>
        <time>2022-04-10T09:25:23.078Z</time>
      </trkpt>
      <trkpt lat="42.16755" lon="22.1159">
        <ele>527.497539</ele>
        <time>2022-04-10T09:25:29.046Z</time>
      </trkpt>
      <trkpt lat="42.16754" lon="22.11576">
        <ele>528.182378</ele>
        <time>2022-04-10T09:25:35.023Z</time>
      </trkpt>
      <trkpt lat="42.16753" lon="22.11564">
        <ele>528.818795</ele>
        <time>2022-04-10T09:25:40.046Z</time>
      </trkpt>
      <trkpt lat="42.16753" lon="22.11551">
        <ele>529.433884</ele>
        <time>2022-04-10T09:25:45.052Z</time>
      </trkpt>
      <trkpt lat="42.16752" lon="22.11539">
        <ele>530.044283</ele>
        <time>2022-04-10T09:25:50.046Z</time>
      </trkpt>
      <trkpt lat="42.16751" lon="22.11527">
        <ele>530.683306</ele>
        <time>2022-04-10T09:25:55.050Z</time>
      </trkpt>
      <trkpt lat="42.16751" lon="22.11513">
        <ele>531.359468</ele>
        <time>2022-04-10T09:26:01.041Z</time>
      </trkpt>
      <trkpt lat="42.1675" lon="22.11501">
        <ele>532.001447</ele>
        <time>2022-04-10T09:26:07.063Z</time>
      </trkpt>
      <trkpt lat="42.16749" lon="22.11488">
        <ele>532.507002</ele>
        <time>2022-04-10T09:26:13.046Z</time>
      </trkpt>
      <trkpt lat="42.16748" lon="22.11476">
        <ele>532.982166</ele>
        <time>2022-04-10T09:26:19.122Z</time>
      </trkpt>
      <trkpt lat="42.16748" lon="22.11463">
        <ele>533.47865</ele>
        <time>2022-04-10T09:26:25.055Z</time>
      </trkpt>
      <trkpt lat="42.16748" lon="22.1145">
        <ele>533.977669</ele>
        <time>2022-04-10T09:26:32.085Z</time>
      </trkpt>
      <trkpt lat="42.16747" lon="22.11437">
        <ele>534.476305</ele>
        <time>2022-04-10T09:26:38.041Z</time>
      </trkpt>
      <trkpt lat="42.16745" lon="22.11423">
        <ele>535.018829</ele>
        <time>2022-04-10T09:26:44.055Z</time>
      </trkpt>
      <trkpt lat="42.16744" lon="22.11409">
        <ele>535.549969</ele>
        <time>2022-04-10T09:26:51.048Z</time>
      </trkpt>
      <trkpt lat="42.16744" lon="22.11397">
        <ele>536.014157</ele>
        <time>2022-04-10T09:26:56.054Z</time>
      </trkpt>
      <trkpt lat="42.16743" lon="22.11385">
        <ele>536.47895</ele>
        <time>2022-04-10T09:27:01.042Z</time>
      </trkpt>
      <trkpt lat="42.16743" lon="22.11372">
        <ele>536.977648</ele>
        <time>2022-04-10T09:27:06.090Z</time>
      </trkpt>
      <trkpt lat="42.16742" lon="22.11358">
        <ele>537.523146</ele>
        <time>2022-04-10T09:27:11.046Z</time>
      </trkpt>
      <trkpt lat="42.16743" lon="22.11345">
        <ele>538.011986</ele>
        <time>2022-04-10T09:27:16.057Z</time>
      </trkpt>
      <trkpt lat="42.16743" lon="22.11331">
        <ele>538.548955</ele>
        <time>2022-04-10T09:27:22.044Z</time>
      </trkpt>
      <trkpt lat="42.16743" lon="22.11319">
        <ele>539.013056</ele>
        <time>2022-04-10T09:27:27.056Z</time>
      </trkpt>
      <trkpt lat="42.16742" lon="22.11305">
        <ele>539.573875</ele>
        <time>2022-04-10T09:27:33.059Z</time>
      </trkpt>
      <trkpt lat="42.1674" lon="22.1129">
        <ele>540.126396</ele>
        <time>2022-04-10T09:27:38.037Z</time>
      </trkpt>
      <trkpt lat="42.16738" lon="22.11278">
        <ele>540.619141</ele>
        <time>2022-04-10T09:27:43.046Z</time>
      </trkpt>
      <trkpt lat="42.16736" lon="22.11265">
        <ele>541.13511</ele>
        <time>2022-04-10T09:27:49.086Z</time>
      </trkpt>
      <trkpt lat="42.16735" lon="22.11251">
        <ele>541.408045</ele>
        <time>2022-04-10T09:27:55.027Z</time>
      </trkpt>
      <trkpt lat="42.16734" lon="22.11237">
        <ele>541.390249</ele>
        <time>2022-04-10T09:28:01.034Z</time>
      </trkpt>
      <trkpt lat="42.16733" lon="22.11223">
        <ele>541.373711</ele>
        <time>2022-04-10T09:28:07.050Z</time>
      </trkpt>
      <trkpt lat="42.16732" lon="22.1121">
        <ele>541.356909</ele>
        <time>2022-04-10T09:28:13.042Z</time>
      </trkpt>
      <trkpt lat="42.16732" lon="22.11195">
        <ele>541.338391</ele>
        <time>2022-04-10T09:28:18.046Z</time>
      </trkpt>
      <trkpt lat="42.16731" lon="22.11181">
        <ele>541.320527</ele>
        <time>2022-04-10T09:28:23.041Z</time>
      </trkpt>
      <trkpt lat="42.16731" lon="22.11167">
        <ele>541.303399</ele>
        <time>2022-04-10T09:28:28.081Z</time>
      </trkpt>
      <trkpt lat="42.1673" lon="22.11154">
        <ele>541.287142</ele>
        <time>2022-04-10T09:28:33.061Z</time>
      </trkpt>
      <trkpt lat="42.16729" lon="22.11139">
        <ele>541.268634</ele>
        <time>2022-04-10T09:28:38.045Z</time>
      </trkpt>
      <trkpt lat="42.16728" lon="22.11127">
        <ele>541.252493</ele>
        <time>2022-04-10T09:28:42.066Z</time>
      </trkpt>
      <trkpt lat="42.16728" lon="22.11114">
        <ele>541.237214</ele>
        <time>2022-04-10T09:28:46.055Z</time>
      </trkpt>
      <trkpt lat="42.16727" lon="22.111">
        <ele>541.218919</ele>
        <time>2022-04-10T09:28:51.032Z</time>
      </trkpt>
      <trkpt lat="42.16725" lon="22.11085">
        <ele>541.200119</ele>
        <time>2022-04-10T09:28:56.083Z</time>
      </trkpt>
      <trkpt lat="42.16723" lon="22.11072">
        <ele>541.183627</ele>
        <time>2022-04-10T09:29:00.034Z</time>
      </trkpt>
      <trkpt lat="42.16722" lon="22.11058">
        <ele>541.166457</ele>
        <time>2022-04-10T09:29:04.040Z</time>
      </trkpt>
      <trkpt lat="42.1672" lon="22.11045">
        <ele>541.14993</ele>
        <time>2022-04-10T09:29:08.047Z</time>
      </trkpt>
      <trkpt lat="42.16719" lon="22.11033">
        <ele>541.134391</ele>
        <time>2022-04-10T09:29:12.049Z</time>
      </trkpt>
      <trkpt lat="42.16717" lon="22.1102">
        <ele>541.118427</ele>
        <time>2022-04-10T09:29:16.036Z</time>
      </trkpt>
      <trkpt lat="42.16717" lon="22.11008">
        <ele>541.11139</ele>
        <time>2022-04-10T09:29:21.046Z</time>
      </trkpt>
      <trkpt lat="42.16721" lon="22.10995">
        <ele>541.108051</ele>
        <time>2022-04-10T09:29:26.049Z</time>
      </trkpt>
      <trkpt lat="42.16719" lon="22.1098">
        <ele>541.104586</ele>
        <time>2022-04-10T09:29:31.121Z</time>
      </trkpt>
      <trkpt lat="42.16718" lon="22.10968">
        <ele>541.10172</ele>
        <time>2022-04-10T09:29:35.073Z</time>
      </trkpt>
      <trkpt lat="42.16721" lon="22.10956">
        <ele>541.098748</ele>
        <time>2022-04-10T09:29:39.038Z</time>
      </trkpt>
      <trkpt lat="42.16722" lon="22.10943">
        <ele>541.095826</ele>
        <time>2022-04-10T09:29:43.055Z</time>
      </trkpt>
      <trkpt lat="42.16721" lon="22.10928">
        <ele>541.092095</ele>
        <time>2022-04-10T09:29:47.034Z</time>
      </trkpt>
      <trkpt lat="42.16719" lon="22.10913">
        <ele>541.088513</ele>
        <time>2022-04-10T09:29:50.041Z</time>
      </trkpt>
      <trkpt lat="42.16717" lon="22.10895">
        <ele>541.08439</ele>
        <time>2022-04-10T09:29:53.046Z</time>
      </trkpt>
      <trkpt lat="42.16713" lon="22.10879">
        <ele>541.080481</ele>
        <time>2022-04-10T09:29:56.058Z</time>
      </trkpt>
      <trkpt lat="42.1671" lon="22.10864">
        <ele>541.076643</ele>
        <time>2022-04-10T09:29:59.059Z</time>
      </trkpt>
      <trkpt lat="42.16707" lon="22.1085">
        <ele>541.073211</ele>
        <time>2022-04-10T09:30:02.024Z</time>
      </trkpt>
      <trkpt lat="42.16704" lon="22.10838">
        <ele>541.070291</ele>
        <time>2022-04-10T09:30:05.037Z</time>
      </trkpt>
      <trkpt lat="42.16702" lon="22.10822">
        <ele>541.066386</ele>
        <time>2022-04-10T09:30:09.042Z</time>
      </trkpt>
      <trkpt lat="42.16701" lon="22.10809">
        <ele>541.063343</ele>
        <time>2022-04-10T09:30:12.044Z</time>
      </trkpt>
      <trkpt lat="42.167" lon="22.10796">
        <ele>541.060433</ele>
        <time>2022-04-10T09:30:15.053Z</time>
      </trkpt>
      <trkpt lat="42.16699" lon="22.10784">
        <ele>541.057444</ele>
        <time>2022-04-10T09:30:18.022Z</time>
      </trkpt>
      <trkpt lat="42.16699" lon="22.10771">
        <ele>541.178737</ele>
        <time>2022-04-10T09:30:21.057Z</time>
      </trkpt>
      <trkpt lat="42.16698" lon="22.10758">
        <ele>541.375404</ele>
        <time>2022-04-10T09:30:24.043Z</time>
      </trkpt>
      <trkpt lat="42.16698" lon="22.10745">
        <ele>541.575261</ele>
        <time>2022-04-10T09:30:27.035Z</time>
      </trkpt>
      <trkpt lat="42.16698" lon="22.10731">
        <ele>541.798063</ele>
        <time>2022-04-10T09:30:30.072Z</time>
      </trkpt>
      <trkpt lat="42.16697" lon="22.10717">
        <ele>542.01875</ele>
        <time>2022-04-10T09:30:33.048Z</time>
      </trkpt>
      <trkpt lat="42.16696" lon="22.10703">
        <ele>542.225041</ele>
        <time>2022-04-10T09:30:36.055Z</time>
      </trkpt>
      <trkpt lat="42.16695" lon="22.10691">
        <ele>542.42193</ele>
        <time>2022-04-10T09:30:39.044Z</time>
      </trkpt>
      <trkpt lat="42.16694" lon="22.10675">
        <ele>542.668813</ele>
        <time>2022-04-10T09:30:43.058Z</time>
      </trkpt>
      <trkpt lat="42.16694" lon="22.1066">
        <ele>542.905677</ele>
        <time>2022-04-10T09:30:47.045Z</time>
      </trkpt>
      <trkpt lat="42.16693" lon="22.10646">
        <ele>543.116464</ele>
        <time>2022-04-10T09:30:51.063Z</time>
      </trkpt>
      <trkpt lat="42.16693" lon="22.10631">
        <ele>543.345786</ele>
        <time>2022-04-10T09:30:55.053Z</time>
      </trkpt>
      <trkpt lat="42.16692" lon="22.10617">
        <ele>543.565732</ele>
        <time>2022-04-10T09:30:59.046Z</time>
      </trkpt>
      <trkpt lat="42.16692" lon="22.10603">
        <ele>543.779332</ele>
        <time>2022-04-10T09:31:03.078Z</time>
      </trkpt>
      <trkpt lat="42.16691" lon="22.10591">
        <ele>543.96683</ele>
        <time>2022-04-10T09:31:07.043Z</time>
      </trkpt>
      <trkpt lat="42.16691" lon="22.10577">
        <ele>544.189779</ele>
        <time>2022-04-10T09:31:12.056Z</time>
      </trkpt>
      <trkpt lat="42.1669" lon="22.10564">
        <ele>544.382545</ele>
        <time>2022-04-10T09:31:16.036Z</time>
      </trkpt>
      <trkpt lat="42.16689" lon="22.10549">
        <ele>544.617098</ele>
        <time>2022-04-10T09:31:21.053Z</time>
      </trkpt>
      <trkpt lat="42.16689" lon="22.10536">
        <ele>544.812504</ele>
        <time>2022-04-10T09:31:25.054Z</time>
      </trkpt>
      <trkpt lat="42.16687" lon="22.10524">
        <ele>544.917289</ele>
        <time>2022-04-10T09:31:29.034Z</time>
      </trkpt>
      <trkpt lat="42.16686" lon="22.1051">
        <ele>545.04436</ele>
        <time>2022-04-10T09:31:34.058Z</time>
      </trkpt>
      <trkpt lat="42.16685" lon="22.10497">
        <ele>545.151102</ele>
        <time>2022-04-10T09:31:38.037Z</time>
      </trkpt>
      <trkpt lat="42.16684" lon="22.10484">
        <ele>545.263286</ele>
        <time>2022-04-10T09:31:42.061Z</time>
      </trkpt>
      <trkpt lat="42.16684" lon="22.10469">
        <ele>545.390657</ele>
        <time>2022-04-10T09:31:47.035Z</time>
      </trkpt>
      <trkpt lat="42.16683" lon="22.10457">
        <ele>545.500915</ele>
        <time>2022-04-10T09:31:51.044Z</time>
      </trkpt>
      <trkpt lat="42.16682" lon="22.10444">
        <ele>545.613099</ele>
        <time>2022-04-10T09:31:55.055Z</time>
      </trkpt>
      <trkpt lat="42.16681" lon="22.10431">
        <ele>545.720896</ele>
        <time>2022-04-10T09:31:59.046Z</time>
      </trkpt>
      <trkpt lat="42.1668" lon="22.10419">
        <ele>545.826878</ele>
        <time>2022-04-10T09:32:03.050Z</time>
      </trkpt>
      <trkpt lat="42.16679" lon="22.10406">
        <ele>545.937935</ele>
        <time>2022-04-10T09:32:07.042Z</time>
      </trkpt>
      <trkpt lat="42.16678" lon="22.10391">
        <ele>546.064541</ele>
        <time>2022-04-10T09:32:12.047Z</time>
      </trkpt>
      <trkpt lat="42.16678" lon="22.10379">
        <ele>546.169259</ele>
        <time>2022-04-10T09:32:16.070Z</time>
      </trkpt>
      <trkpt lat="42.16677" lon="22.10367">
        <ele>546.274937</ele>
        <time>2022-04-10T09:32:20.035Z</time>
      </trkpt>
      <trkpt lat="42.16677" lon="22.10354">
        <ele>546.382454</ele>
        <time>2022-04-10T09:32:24.056Z</time>
      </trkpt>
      <trkpt lat="42.16675" lon="22.10341">
        <ele>546.496813</ele>
        <time>2022-04-10T09:32:28.029Z</time>
      </trkpt>
      <trkpt lat="42.16674" lon="22.10328">
        <ele>546.60707</ele>
        <time>2022-04-10T09:32:32.050Z</time>
      </trkpt>
      <trkpt lat="42.16673" lon="22.10316">
        <ele>546.718303</ele>
        <time>2022-04-10T09:32:36.046Z</time>
      </trkpt>
      <trkpt lat="42.16672" lon="22.10303">
        <ele>546.830612</ele>
        <time>2022-04-10T09:32:40.039Z</time>
      </trkpt>
      <trkpt lat="42.16671" lon="22.10287">
        <ele>547.218912</ele>
        <time>2022-04-10T09:32:45.055Z</time>
      </trkpt>
      <trkpt lat="42.16669" lon="22.10274">
        <ele>547.697151</ele>
        <time>2022-04-10T09:32:49.040Z</time>
      </trkpt>
      <trkpt lat="42.16667" lon="22.10261">
        <ele>548.224816</ele>
        <time>2022-04-10T09:32:54.061Z</time>
      </trkpt>
      <trkpt lat="42.16667" lon="22.10247">
        <ele>548.733235</ele>
        <time>2022-04-10T09:32:59.043Z</time>
      </trkpt>
      <trkpt lat="42.16666" lon="22.10235">
        <ele>549.209054</ele>
        <time>2022-04-10T09:33:04.071Z</time>
      </trkpt>
      <trkpt lat="42.16666" lon="22.10221">
        <ele>549.717885</ele>
        <time>2022-04-10T09:33:10.046Z</time>
      </trkpt>
      <trkpt lat="42.16665" lon="22.10209">
        <ele>550.189074</ele>
        <time>2022-04-10T09:33:15.048Z</time>
      </trkpt>
      <trkpt lat="42.16664" lon="22.10195">
        <ele>550.735401</ele>
        <time>2022-04-10T09:33:21.054Z</time>
      </trkpt>
      <trkpt lat="42.16663" lon="22.10182">
        <ele>551.233596</ele>
        <time>2022-04-10T09:33:27.073Z</time>
      </trkpt>
      <trkpt lat="42.16661" lon="22.10168">
        <ele>551.760442</ele>
        <time>2022-04-10T09:33:33.043Z</time>
      </trkpt>
      <trkpt lat="42.1666" lon="22.10154">
        <ele>552.282044</ele>
        <time>2022-04-10T09:33:39.115Z</time>
      </trkpt>
      <trkpt lat="42.16658" lon="22.10142">
        <ele>552.75938</ele>
        <time>2022-04-10T09:33:45.038Z</time>
      </trkpt>
      <trkpt lat="42.16657" lon="22.10128">
        <ele>553.272994</ele>
        <time>2022-04-10T09:33:51.044Z</time>
      </trkpt>
      <trkpt lat="42.16657" lon="22.10114">
        <ele>553.816857</ele>
        <time>2022-04-10T09:33:57.037Z</time>
      </trkpt>
      <trkpt lat="42.16656" lon="22.10102">
        <ele>554.287565</ele>
        <time>2022-04-10T09:34:03.045Z</time>
      </trkpt>
      <trkpt lat="42.16656" lon="22.10089">
        <ele>554.784613</ele>
        <time>2022-04-10T09:34:10.055Z</time>
      </trkpt>
      <trkpt lat="42.16656" lon="22.10076">
        <ele>555.270074</ele>
        <time>2022-04-10T09:34:16.039Z</time>
      </trkpt>
      <trkpt lat="42.16655" lon="22.10062">
        <ele>555.80301</ele>
        <time>2022-04-10T09:34:22.072Z</time>
      </trkpt>
      <trkpt lat="42.16653" lon="22.1005">
        <ele>556.258233</ele>
        <time>2022-04-10T09:34:27.034Z</time>
      </trkpt>
      <trkpt lat="42.16652" lon="22.10036">
        <ele>556.759302</ele>
        <time>2022-04-10T09:34:33.040Z</time>
      </trkpt>
      <trkpt lat="42.16652" lon="22.10023">
        <ele>557.203783</ele>
        <time>2022-04-10T09:34:38.056Z</time>
      </trkpt>
      <trkpt lat="42.16651" lon="22.1001">
        <ele>557.676917</ele>
        <time>2022-04-10T09:34:43.064Z</time>
      </trkpt>
      <trkpt lat="42.16651" lon="22.09998">
        <ele>558.109603</ele>
        <time>2022-04-10T09:34:47.042Z</time>
      </trkpt>
      <trkpt lat="42.1665" lon="22.09983">
        <ele>558.621621</ele>
        <time>2022-04-10T09:34:52.093Z</time>
      </trkpt>
      <trkpt lat="42.1665" lon="22.09969">
        <ele>559.132768</ele>
        <time>2022-04-10T09:34:57.046Z</time>
      </trkpt>
      <trkpt lat="42.1665" lon="22.09956">
        <ele>559.583306</ele>
        <time>2022-04-10T09:35:01.047Z</time>
      </trkpt>
      <trkpt lat="42.16649" lon="22.09942">
        <ele>560.103652</ele>
        <time>2022-04-10T09:35:06.045Z</time>
      </trkpt>
      <trkpt lat="42.16648" lon="22.09929">
        <ele>560.541061</ele>
        <time>2022-04-10T09:35:10.040Z</time>
      </trkpt>
      <trkpt lat="42.16647" lon="22.09916">
        <ele>561.008525</ele>
        <time>2022-04-10T09:35:14.050Z</time>
      </trkpt>
      <trkpt lat="42.16646" lon="22.09902">
        <ele>561.530823</ele>
        <time>2022-04-10T09:35:19.044Z</time>
      </trkpt>
      <trkpt lat="42.16645" lon="22.09888">
        <ele>562.031725</ele>
        <time>2022-04-10T09:35:24.035Z</time>
      </trkpt>
      <trkpt lat="42.16644" lon="22.09876">
        <ele>562.461069</ele>
        <time>2022-04-10T09:35:28.065Z</time>
      </trkpt>
      <trkpt lat="42.16643" lon="22.09862">
        <ele>562.959337</ele>
        <time>2022-04-10T09:35:33.035Z</time>
      </trkpt>
      <trkpt lat="42.16642" lon="22.09848">
        <ele>563.453332</ele>
        <time>2022-04-10T09:35:38.045Z</time>
      </trkpt>
      <trkpt lat="42.16641" lon="22.09835">
        <ele>563.899663</ele>
        <time>2022-04-10T09:35:43.043Z</time>
      </trkpt>
      <trkpt lat="42.1664" lon="22.09822">
        <ele>564.37212</ele>
        <time>2022-04-10T09:35:49.047Z</time>
      </trkpt>
      <trkpt lat="42.1664" lon="22.09808">
        <ele>564.878225</ele>
        <time>2022-04-10T09:35:55.050Z</time>
      </trkpt>
      <trkpt lat="42.16639" lon="22.09795">
        <ele>565.434752</ele>
        <time>2022-04-10T09:36:01.058Z</time>
      </trkpt>
      <trkpt lat="42.16637" lon="22.09782">
        <ele>565.940562</ele>
        <time>2022-04-10T09:36:07.053Z</time>
      </trkpt>
      <trkpt lat="42.16636" lon="22.0977">
        <ele>566.437626</ele>
        <time>2022-04-10T09:36:13.042Z</time>
      </trkpt>
      <trkpt lat="42.16636" lon="22.09757">
        <ele>566.977549</ele>
        <time>2022-04-10T09:36:20.057Z</time>
      </trkpt>
      <trkpt lat="42.16635" lon="22.09745">
        <ele>567.472656</ele>
        <time>2022-04-10T09:36:26.047Z</time>
      </trkpt>
      <trkpt lat="42.16632" lon="22.09732">
        <ele>568.024635</ele>
        <time>2022-04-10T09:36:32.041Z</time>
      </trkpt>
      <trkpt lat="42.16632" lon="22.09719">
        <ele>568.577142</ele>
        <time>2022-04-10T09:36:38.048Z</time>
      </trkpt>
      <trkpt lat="42.16631" lon="22.09706">
        <ele>569.104065</ele>
        <time>2022-04-10T09:36:44.050Z</time>
      </trkpt>
      <trkpt lat="42.16631" lon="22.09692">
        <ele>569.647088</ele>
        <time>2022-04-10T09:36:51.121Z</time>
      </trkpt>
      <trkpt lat="42.16631" lon="22.09678">
        <ele>570.21996</ele>
        <time>2022-04-10T09:36:58.046Z</time>
      </trkpt>
      <trkpt lat="42.16629" lon="22.09665">
        <ele>570.758858</ele>
        <time>2022-04-10T09:37:05.056Z</time>
      </trkpt>
      <trkpt lat="42.1663" lon="22.09653">
        <ele>571.258889</ele>
        <time>2022-04-10T09:37:12.045Z</time>
      </trkpt>
      <trkpt lat="42.16631" lon="22.0964">
        <ele>571.816857</ele>
        <time>2022-04-10T09:37:19.068Z</time>
      </trkpt>
      <trkpt lat="42.16633" lon="22.09626">
        <ele>572.373386</ele>
        <time>2022-04-10T09:37:26.036Z</time>
      </trkpt>
      <trkpt lat="42.16635" lon="22.09612">
        <ele>572.962627</ele>
        <time>2022-04-10T09:37:33.038Z</time>
      </trkpt>
      <trkpt lat="42.16638" lon="22.096">
        <ele>573.470069</ele>
        <time>2022-04-10T09:37:38.051Z</time>
      </trkpt>
      <trkpt lat="42.16642" lon="22.09587">
        <ele>574.06426</ele>
        <time>2022-04-10T09:37:44.045Z</time>
      </trkpt>
      <trkpt lat="42.16646" lon="22.09576">
        <ele>574.568611</ele>
        <time>2022-04-10T09:37:49.054Z</time>
      </trkpt>
      <trkpt lat="42.16651" lon="22.09565">
        <ele>575.001638</ele>
        <time>2022-04-10T09:37:54.082Z</time>
      </trkpt>
      <trkpt lat="42.16657" lon="22.09552">
        <ele>575.471818</ele>
        <time>2022-04-10T09:37:59.055Z</time>
      </trkpt>
      <trkpt lat="42.16662" lon="22.0954">
        <ele>575.94801</ele>
        <time>2022-04-10T09:38:04.040Z</time>
      </trkpt>
      <trkpt lat="42.16669" lon="22.09527">
        <ele>576.440511</ele>
        <time>2022-04-10T09:38:09.046Z</time>
      </trkpt>
      <trkpt lat="42.16674" lon="22.09517">
        <ele>576.850571</ele>
        <time>2022-04-10T09:38:13.053Z</time>
      </trkpt>
      <trkpt lat="42.16679" lon="22.09505">
        <ele>577.294842</ele>
        <time>2022-04-10T09:38:18.053Z</time>
      </trkpt>
      <trkpt lat="42.16683" lon="22.09494">
        <ele>577.692472</ele>
        <time>2022-04-10T09:38:23.070Z</time>
      </trkpt>
      <trkpt lat="42.16688" lon="22.09484">
        <ele>578.090126</ele>
        <time>2022-04-10T09:38:28.050Z</time>
      </trkpt>
      <trkpt lat="42.16693" lon="22.09473">
        <ele>578.518679</ele>
        <time>2022-04-10T09:38:34.035Z</time>
      </trkpt>
      <trkpt lat="42.16698" lon="22.09462">
        <ele>578.937758</ele>
        <time>2022-04-10T09:38:40.073Z</time>
      </trkpt>
      <trkpt lat="42.16704" lon="22.09451">
        <ele>579.355255</ele>
        <time>2022-04-10T09:38:46.038Z</time>
      </trkpt>
      <trkpt lat="42.16708" lon="22.0944">
        <ele>579.770601</ele>
        <time>2022-04-10T09:38:52.053Z</time>
      </trkpt>
      <trkpt lat="42.16713" lon="22.0943">
        <ele>580.16545</ele>
        <time>2022-04-10T09:38:58.037Z</time>
      </trkpt>
      <trkpt lat="42.16717" lon="22.09418">
        <ele>580.601933</ele>
        <time>2022-04-10T09:39:04.050Z</time>
      </trkpt>
      <trkpt lat="42.16722" lon="22.09407">
        <ele>581.035155</ele>
        <time>2022-04-10T09:39:10.045Z</time>
      </trkpt>
      <trkpt lat="42.16727" lon="22.09396">
        <ele>581.450774</ele>
        <time>2022-04-10T09:39:16.035Z</time>
      </trkpt>
      <trkpt lat="42.16733" lon="22.09385">
        <ele>581.882954</ele>
        <time>2022-04-10T09:39:22.046Z</time>
      </trkpt>
      <trkpt lat="42.16738" lon="22.09374">
        <ele>582.315829</ele>
        <time>2022-04-10T09:39:29.035Z</time>
      </trkpt>
      <trkpt lat="42.16745" lon="22.09363">
        <ele>582.680049</ele>
        <time>2022-04-10T09:39:36.031Z</time>
      </trkpt>
      <trkpt lat="42.16753" lon="22.09356">
        <ele>582.94936</ele>
        <time>2022-04-10T09:39:43.053Z</time>
      </trkpt>
      <trkpt lat="42.16759" lon="22.09345">
        <ele>583.234513</ele>
        <time>2022-04-10T09:39:49.056Z</time>
      </trkpt>
      <trkpt lat="42.16765" lon="22.09336">
        <ele>583.491222</ele>
        <time>2022-04-10T09:39:55.039Z</time>
      </trkpt>
      <trkpt lat="42.16772" lon="22.09328">
        <ele>583.74768</ele>
        <time>2022-04-10T09:40:01.067Z</time>
      </trkpt>
      <trkpt lat="42.16778" lon="22.09317">
        <ele>584.023418</ele>
        <time>2022-04-10T09:40:07.051Z</time>
      </trkpt>
      <trkpt lat="42.16781" lon="22.09304">
        <ele>584.308938</ele>
        <time>2022-04-10T09:40:13.044Z</time>
      </trkpt>
      <trkpt lat="42.1678" lon="22.09291">
        <ele>584.587181</ele>
        <time>2022-04-10T09:40:19.046Z</time>
      </trkpt>
      <trkpt lat="42.16776" lon="22.0928">
        <ele>584.84292</ele>
        <time>2022-04-10T09:40:25.042Z</time>
      </trkpt>
      <trkpt lat="42.16768" lon="22.09273">
        <ele>585.103974</ele>
        <time>2022-04-10T09:40:31.080Z</time>
      </trkpt>
      <trkpt lat="42.16759" lon="22.09268">
        <ele>585.398275</ele>
        <time>2022-04-10T09:40:37.076Z</time>
      </trkpt>
      <trkpt lat="42.16749" lon="22.09266">
        <ele>585.658882</ele>
        <time>2022-04-10T09:40:42.052Z</time>
      </trkpt>
      <trkpt lat="42.1674" lon="22.09265">
        <ele>585.914387</ele>
        <time>2022-04-10T09:40:47.051Z</time>
      </trkpt>
      <trkpt lat="42.16731" lon="22.09261">
        <ele>586.202249</ele>
        <time>2022-04-10T09:40:52.034Z</time>
      </trkpt>
      <trkpt lat="42.1672" lon="22.09259">
        <ele>586.491386</ele>
        <time>2022-04-10T09:40:57.049Z</time>
      </trkpt>
      <trkpt lat="42.16711" lon="22.09257">
        <ele>586.766258</ele>
        <time>2022-04-10T09:41:02.046Z</time>
      </trkpt>
      <trkpt lat="42.16702" lon="22.09255">
        <ele>587.023734</ele>
        <time>2022-04-10T09:41:06.052Z</time>
      </trkpt>
      <trkpt lat="42.16692" lon="22.09252">
        <ele>587.301434</ele>
        <time>2022-04-10T09:41:10.038Z</time>
      </trkpt>
      <trkpt lat="42.16683" lon="22.09249">
        <ele>587.570414</ele>
        <time>2022-04-10T09:41:14.083Z</time>
      </trkpt>
      <trkpt lat="42.16674" lon="22.09247">
        <ele>587.585192</ele>
        <time>2022-04-10T09:41:18.049Z</time>
      </trkpt>
      <trkpt lat="42.16664" lon="22.09246">
        <ele>587.57152</ele>
        <time>2022-04-10T09:41:22.085Z</time>
      </trkpt>
      <trkpt lat="42.16653" lon="22.09244">
        <ele>587.555458</ele>
        <time>2022-04-10T09:41:27.041Z</time>
      </trkpt>
      <trkpt lat="42.16643" lon="22.09241">
        <ele>587.541702</ele>
        <time>2022-04-10T09:41:31.049Z</time>
      </trkpt>
      <trkpt lat="42.16634" lon="22.09238">
        <ele>587.528294</ele>
        <time>2022-04-10T09:41:35.028Z</time>
      </trkpt>
      <trkpt lat="42.16625" lon="22.09234">
        <ele>587.514005</ele>
        <time>2022-04-10T09:41:40.057Z</time>
      </trkpt>
      <trkpt lat="42.16615" lon="22.09227">
        <ele>587.498542</ele>
        <time>2022-04-10T09:41:45.039Z</time>
      </trkpt>
      <trkpt lat="42.16607" lon="22.09217">
        <ele>587.483136</ele>
        <time>2022-04-10T09:41:50.027Z</time>
      </trkpt>
      <trkpt lat="42.16602" lon="22.09204">
        <ele>587.468035</ele>
        <time>2022-04-10T09:41:55.040Z</time>
      </trkpt>
      <trkpt lat="42.16599" lon="22.09191">
        <ele>587.453138</ele>
        <time>2022-04-10T09:42:00.060Z</time>
      </trkpt>
      <trkpt lat="42.16597" lon="22.09179">
        <ele>587.440315</ele>
        <time>2022-04-10T09:42:04.057Z</time>
      </trkpt>
      <trkpt lat="42.16595" lon="22.09166">
        <ele>587.426801</ele>
        <time>2022-04-10T09:42:07.080Z</time>
      </trkpt>
      <trkpt lat="42.16594" lon="22.09151">
        <ele>587.410423</ele>
        <time>2022-04-10T09:42:11.026Z</time>
      </trkpt>
      <trkpt lat="42.16594" lon="22.09137">
        <ele>587.395905</ele>
        <time>2022-04-10T09:42:15.073Z</time>
      </trkpt>
      <trkpt lat="42.16595" lon="22.09122">
        <ele>587.379991</ele>
        <time>2022-04-10T09:42:19.032Z</time>
      </trkpt>
      <trkpt lat="42.16597" lon="22.0911">
        <ele>587.36709</ele>
        <time>2022-04-10T09:42:22.051Z</time>
      </trkpt>
      <trkpt lat="42.16603" lon="22.09098">
        <ele>587.351864</ele>
        <time>2022-04-10T09:42:25.047Z</time>
      </trkpt>
      <trkpt lat="42.16612" lon="22.0909">
        <ele>587.092863</ele>
        <time>2022-04-10T09:42:28.040Z</time>
      </trkpt>
      <trkpt lat="42.16621" lon="22.09084">
        <ele>586.414647</ele>
        <time>2022-04-10T09:42:31.052Z</time>
      </trkpt>
      <trkpt lat="42.1663" lon="22.09077">
        <ele>585.736086</ele>
        <time>2022-04-10T09:42:34.044Z</time>
      </trkpt>
      <trkpt lat="42.16637" lon="22.09067">
        <ele>585.077978</ele>
        <time>2022-04-10T09:42:37.042Z</time>
      </trkpt>
      <trkpt lat="42.16639" lon="22.09052">
        <ele>584.351168</ele>
        <time>2022-04-10T09:42:40.043Z</time>
      </trkpt>
      <trkpt lat="42.16639" lon="22.09037">
        <ele>583.612532</ele>
        <time>2022-04-10T09:42:43.125Z</time>
      </trkpt>
      <trkpt lat="42.16636" lon="22.09022">
        <ele>582.874714</ele>
        <time>2022-04-10T09:42:46.054Z</time>
      </trkpt>
      <trkpt lat="42.16634" lon="22.09008">
        <ele>582.128877</ele>
        <time>2022-04-10T09:42:49.031Z</time>
      </trkpt>
      <trkpt lat="42.16629" lon="22.08991">
        <ele>581.286483</ele>
        <time>2022-04-10T09:42:52.043Z</time>
      </trkpt>
      <trkpt lat="42.16624" lon="22.08978">
        <ele>580.528942</ele>
        <time>2022-04-10T09:42:55.048Z</time>
      </trkpt>
      <trkpt lat="42.16618" lon="22.08964">
        <ele>579.757663</ele>
        <time>2022-04-10T09:42:58.047Z</time>
      </trkpt>
      <trkpt lat="42.16612" lon="22.08951">
        <ele>579.011835</ele>
        <time>2022-04-10T09:43:01.042Z</time>
      </trkpt>
      <trkpt lat="42.16605" lon="22.08939">
        <ele>578.262215</ele>
        <time>2022-04-10T09:43:04.055Z</time>
      </trkpt>
      <trkpt lat="42.16595" lon="22.08927">
        <ele>577.408066</ele>
        <time>2022-04-10T09:43:07.043Z</time>
      </trkpt>
      <trkpt lat="42.16587" lon="22.0892">
        <ele>576.777171</ele>
        <time>2022-04-10T09:43:09.055Z</time>
      </trkpt>
      <trkpt lat="42.16579" lon="22.08913">
        <ele>576.154371</ele>
        <time>2022-04-10T09:43:11.046Z</time>
      </trkpt>
      <trkpt lat="42.16571" lon="22.08906">
        <ele>575.528553</ele>
        <time>2022-04-10T09:43:13.074Z</time>
      </trkpt>
      <trkpt lat="42.16563" lon="22.08899">
        <ele>574.793064</ele>
        <time>2022-04-10T09:43:15.036Z</time>
      </trkpt>
      <trkpt lat="42.16555" lon="22.08891">
        <ele>574.067446</ele>
        <time>2022-04-10T09:43:17.033Z</time>
      </trkpt>
      <trkpt lat="42.16545" lon="22.08882">
        <ele>573.112887</ele>
        <time>2022-04-10T09:43:20.052Z</time>
      </trkpt>
      <trkpt lat="42.16535" lon="22.08872">
        <ele>572.217038</ele>
        <time>2022-04-10T09:43:23.052Z</time>
      </trkpt>
      <trkpt lat="42.16525" lon="22.08864">
        <ele>571.352444</ele>
        <time>2022-04-10T09:43:26.038Z</time>
      </trkpt>
      <trkpt lat="42.16518" lon="22.08856">
        <ele>570.666371</ele>
        <time>2022-04-10T09:43:28.052Z</time>
      </trkpt>
      <trkpt lat="42.16508" lon="22.08846">
        <ele>569.702479</ele>
        <time>2022-04-10T09:43:31.045Z</time>
      </trkpt>
      <trkpt lat="42.16497" lon="22.08836">
        <ele>568.722784</ele>
        <time>2022-04-10T09:43:34.053Z</time>
      </trkpt>
      <trkpt lat="42.16486" lon="22.08828">
        <ele>567.761578</ele>
        <time>2022-04-10T09:43:37.038Z</time>
      </trkpt>
      <trkpt lat="42.16475" lon="22.08818">
        <ele>566.772366</ele>
        <time>2022-04-10T09:43:40.059Z</time>
      </trkpt>
      <trkpt lat="42.16467" lon="22.08812">
        <ele>566.066036</ele>
        <time>2022-04-10T09:43:42.061Z</time>
      </trkpt>
      <trkpt lat="42.16458" lon="22.08807">
        <ele>565.363594</ele>
        <time>2022-04-10T09:43:44.098Z</time>
      </trkpt>
      <trkpt lat="42.16449" lon="22.08802">
        <ele>564.656417</ele>
        <time>2022-04-10T09:43:46.041Z</time>
      </trkpt>
      <trkpt lat="42.1644" lon="22.08797">
        <ele>563.928423</ele>
        <time>2022-04-10T09:43:48.054Z</time>
      </trkpt>
      <trkpt lat="42.16432" lon="22.08792">
        <ele>563.227503</ele>
        <time>2022-04-10T09:43:50.054Z</time>
      </trkpt>
      <trkpt lat="42.16423" lon="22.08788">
        <ele>562.520245</ele>
        <time>2022-04-10T09:43:52.064Z</time>
      </trkpt>
      <trkpt lat="42.16414" lon="22.08783">
        <ele>561.929816</ele>
        <time>2022-04-10T09:43:54.053Z</time>
      </trkpt>
      <trkpt lat="42.16405" lon="22.08778">
        <ele>561.595745</ele>
        <time>2022-04-10T09:43:56.062Z</time>
      </trkpt>
      <trkpt lat="42.16395" lon="22.08773">
        <ele>561.264807</ele>
        <time>2022-04-10T09:43:58.062Z</time>
      </trkpt>
      <trkpt lat="42.16383" lon="22.08767">
        <ele>560.840629</ele>
        <time>2022-04-10T09:44:01.079Z</time>
      </trkpt>
      <trkpt lat="42.16372" lon="22.0876">
        <ele>560.462611</ele>
        <time>2022-04-10T09:44:04.046Z</time>
      </trkpt>
      <trkpt lat="42.16362" lon="22.08751">
        <ele>560.092183</ele>
        <time>2022-04-10T09:44:07.084Z</time>
      </trkpt>
      <trkpt lat="42.16355" lon="22.0874">
        <ele>559.746915</ele>
        <time>2022-04-10T09:44:10.051Z</time>
      </trkpt>
      <trkpt lat="42.16351" lon="22.08729">
        <ele>559.44798</ele>
        <time>2022-04-10T09:44:13.088Z</time>
      </trkpt>
      <trkpt lat="42.16349" lon="22.08716">
        <ele>559.129731</ele>
        <time>2022-04-10T09:44:16.037Z</time>
      </trkpt>
      <trkpt lat="42.16345" lon="22.08703">
        <ele>558.789101</ele>
        <time>2022-04-10T09:44:19.046Z</time>
      </trkpt>
      <trkpt lat="42.16342" lon="22.08688">
        <ele>558.439524</ele>
        <time>2022-04-10T09:44:22.045Z</time>
      </trkpt>
      <trkpt lat="42.16338" lon="22.08676">
        <ele>558.123073</ele>
        <time>2022-04-10T09:44:25.073Z</time>
      </trkpt>
      <trkpt lat="42.16333" lon="22.08664">
        <ele>557.781173</ele>
        <time>2022-04-10T09:44:28.065Z</time>
      </trkpt>
      <trkpt lat="42.16326" lon="22.08649">
        <ele>557.366133</ele>
        <time>2022-04-10T09:44:31.046Z</time>
      </trkpt>
      <trkpt lat="42.16321" lon="22.08638">
        <ele>557.062358</ele>
        <time>2022-04-10T09:44:33.041Z</time>
      </trkpt>
      <trkpt lat="42.16315" lon="22.08628">
        <ele>556.750766</ele>
        <time>2022-04-10T09:44:35.081Z</time>
      </trkpt>
      <trkpt lat="42.16305" lon="22.08616">
        <ele>556.336248</ele>
        <time>2022-04-10T09:44:38.042Z</time>
      </trkpt>
      <trkpt lat="42.16296" lon="22.08606">
        <ele>556.335018</ele>
        <time>2022-04-10T09:44:41.032Z</time>
      </trkpt>
      <trkpt lat="42.16289" lon="22.08597">
        <ele>556.436376</ele>
        <time>2022-04-10T09:44:43.053Z</time>
      </trkpt>
      <trkpt lat="42.16282" lon="22.08589">
        <ele>556.539143</ele>
        <time>2022-04-10T09:44:45.049Z</time>
      </trkpt>
      <trkpt lat="42.16272" lon="22.0858">
        <ele>556.66442</ele>
        <time>2022-04-10T09:44:48.026Z</time>
      </trkpt>
      <trkpt lat="42.16264" lon="22.08571">
        <ele>556.770499</ele>
        <time>2022-04-10T09:44:51.042Z</time>
      </trkpt>
      <trkpt lat="42.16257" lon="22.08563">
        <ele>556.868707</ele>
        <time>2022-04-10T09:44:54.084Z</time>
      </trkpt>
      <trkpt lat="42.16251" lon="22.08553">
        <ele>556.97573</ele>
        <time>2022-04-10T09:44:58.037Z</time>
      </trkpt>
      <trkpt lat="42.16243" lon="22.08542">
        <ele>557.090267</ele>
        <time>2022-04-10T09:45:03.050Z</time>
      </trkpt>
      <trkpt lat="42.16238" lon="22.0853">
        <ele>557.199922</ele>
        <time>2022-04-10T09:45:08.035Z</time>
      </trkpt>
      <trkpt lat="42.16232" lon="22.0852">
        <ele>557.298983</ele>
        <time>2022-04-10T09:45:12.043Z</time>
      </trkpt>
      <trkpt lat="42.16226" lon="22.0851">
        <ele>557.407013</ele>
        <time>2022-04-10T09:45:16.033Z</time>
      </trkpt>
      <trkpt lat="42.1622" lon="22.08499">
        <ele>557.513639</ele>
        <time>2022-04-10T09:45:20.051Z</time>
      </trkpt>
      <trkpt lat="42.16216" lon="22.08487">
        <ele>557.611366</ele>
        <time>2022-04-10T09:45:24.054Z</time>
      </trkpt>
      <trkpt lat="42.16213" lon="22.08474">
        <ele>557.720139</ele>
        <time>2022-04-10T09:45:28.039Z</time>
      </trkpt>
      <trkpt lat="42.16213" lon="22.08459">
        <ele>557.83675</ele>
        <time>2022-04-10T09:45:32.074Z</time>
      </trkpt>
      <trkpt lat="42.16215" lon="22.08447">
        <ele>557.934339</ele>
        <time>2022-04-10T09:45:37.043Z</time>
      </trkpt>
      <trkpt lat="42.16221" lon="22.08439">
        <ele>558.031774</ele>
        <time>2022-04-10T09:45:43.072Z</time>
      </trkpt>
      <trkpt lat="42.1623" lon="22.08433">
        <ele>558.135189</ele>
        <time>2022-04-10T09:45:49.044Z</time>
      </trkpt>
      <trkpt lat="42.1624" lon="22.08428">
        <ele>558.55112</ele>
        <time>2022-04-10T09:45:56.026Z</time>
      </trkpt>
      <trkpt lat="42.16248" lon="22.08421">
        <ele>558.964453</ele>
        <time>2022-04-10T09:46:02.055Z</time>
      </trkpt>
      <trkpt lat="42.16257" lon="22.08415">
        <ele>559.387056</ele>
        <time>2022-04-10T09:46:08.042Z</time>
      </trkpt>
      <trkpt lat="42.16265" lon="22.0841">
        <ele>559.7879</ele>
        <time>2022-04-10T09:46:14.027Z</time>
      </trkpt>
      <trkpt lat="42.16274" lon="22.08405">
        <ele>560.222023</ele>
        <time>2022-04-10T09:46:23.055Z</time>
      </trkpt>
      <trkpt lat="42.16284" lon="22.08401">
        <ele>560.666908</ele>
        <time>2022-04-10T09:46:29.053Z</time>
      </trkpt>
      <trkpt lat="42.16294" lon="22.08396">
        <ele>561.129686</ele>
        <time>2022-04-10T09:46:35.063Z</time>
      </trkpt>
      <trkpt lat="42.16302" lon="22.08391">
        <ele>561.531907</ele>
        <time>2022-04-10T09:46:40.036Z</time>
      </trkpt>
      <trkpt lat="42.16311" lon="22.08386">
        <ele>561.949371</ele>
        <time>2022-04-10T09:46:46.045Z</time>
      </trkpt>
      <trkpt lat="42.1632" lon="22.08381">
        <ele>562.379521</ele>
        <time>2022-04-10T09:46:53.057Z</time>
      </trkpt>
      <trkpt lat="42.16329" lon="22.08375">
        <ele>562.824607</ele>
        <time>2022-04-10T09:47:00.037Z</time>
      </trkpt>
      <trkpt lat="42.16337" lon="22.08369">
        <ele>563.240103</ele>
        <time>2022-04-10T09:47:06.046Z</time>
      </trkpt>
      <trkpt lat="42.16346" lon="22.08366">
        <ele>563.642888</ele>
        <time>2022-04-10T09:47:12.053Z</time>
      </trkpt>
      <trkpt lat="42.16356" lon="22.08362">
        <ele>564.092856</ele>
        <time>2022-04-10T09:47:19.053Z</time>
      </trkpt>
      <trkpt lat="42.16365" lon="22.08358">
        <ele>564.503754</ele>
        <time>2022-04-10T09:47:25.063Z</time>
      </trkpt>
      <trkpt lat="42.16375" lon="22.08354">
        <ele>564.947853</ele>
        <time>2022-04-10T09:47:32.036Z</time>
      </trkpt>
      <trkpt lat="42.16384" lon="22.08347">
        <ele>565.391144</ele>
        <time>2022-04-10T09:47:40.030Z</time>
      </trkpt>
      <trkpt lat="42.16389" lon="22.08337">
        <ele>565.795753</ele>
        <time>2022-04-10T09:47:46.040Z</time>
      </trkpt>
      <trkpt lat="42.16393" lon="22.08325">
        <ele>566.372687</ele>
        <time>2022-04-10T09:47:52.044Z</time>
      </trkpt>
      <trkpt lat="42.16395" lon="22.08312">
        <ele>567.172101</ele>
        <time>2022-04-10T09:47:59.061Z</time>
      </trkpt>
      <trkpt lat="42.16396" lon="22.08299">
        <ele>567.909806</ele>
        <time>2022-04-10T09:48:05.060Z</time>
      </trkpt>
      <trkpt lat="42.16396" lon="22.08286">
        <ele>568.647759</ele>
        <time>2022-04-10T09:48:12.034Z</time>
      </trkpt>
      <trkpt lat="42.16395" lon="22.08273">
        <ele>569.437378</ele>
        <time>2022-04-10T09:48:19.054Z</time>
      </trkpt>
      <trkpt lat="42.16396" lon="22.08259">
        <ele>570.20879</ele>
        <time>2022-04-10T09:48:26.046Z</time>
      </trkpt>
      <trkpt lat="42.16395" lon="22.08246">
        <ele>571.003584</ele>
        <time>2022-04-10T09:48:33.046Z</time>
      </trkpt>
      <trkpt lat="42.16396" lon="22.08231">
        <ele>571.829402</ele>
        <time>2022-04-10T09:48:40.053Z</time>
      </trkpt>
      <trkpt lat="42.16396" lon="22.08219">
        <ele>572.578113</ele>
        <time>2022-04-10T09:48:46.043Z</time>
      </trkpt>
      <trkpt lat="42.16397" lon="22.08205">
        <ele>573.386017</ele>
        <time>2022-04-10T09:48:53.043Z</time>
      </trkpt>
      <trkpt lat="42.16398" lon="22.08191">
        <ele>574.153427</ele>
        <time>2022-04-10T09:49:00.043Z</time>
      </trkpt>
      <trkpt lat="42.16401" lon="22.08179">
        <ele>574.912287</ele>
        <time>2022-04-10T09:49:07.052Z</time>
      </trkpt>
      <trkpt lat="42.16402" lon="22.08166">
        <ele>575.685537</ele>
        <time>2022-04-10T09:49:14.097Z</time>
      </trkpt>
      <trkpt lat="42.16402" lon="22.08154">
        <ele>576.3988</ele>
        <time>2022-04-10T09:49:21.043Z</time>
      </trkpt>
      <trkpt lat="42.16404" lon="22.0814">
        <ele>577.20282</ele>
        <time>2022-04-10T09:49:28.050Z</time>
      </trkpt>
      <trkpt lat="42.16406" lon="22.08127">
        <ele>577.988681</ele>
        <time>2022-04-10T09:49:36.046Z</time>
      </trkpt>
      <trkpt lat="42.16407" lon="22.08114">
        <ele>578.725347</ele>
        <time>2022-04-10T09:49:43.076Z</time>
      </trkpt>
      <trkpt lat="42.16408" lon="22.08101">
        <ele>579.498595</ele>
        <time>2022-04-10T09:49:51.026Z</time>
      </trkpt>
      <trkpt lat="42.1641" lon="22.08088">
        <ele>580.235641</ele>
        <time>2022-04-10T09:49:58.043Z</time>
      </trkpt>
      <trkpt lat="42.16411" lon="22.08075">
        <ele>580.91754</ele>
        <time>2022-04-10T09:50:05.098Z</time>
      </trkpt>
      <trkpt lat="42.16413" lon="22.08063">
        <ele>581.589846</ele>
        <time>2022-04-10T09:50:12.057Z</time>
      </trkpt>
      <trkpt lat="42.16416" lon="22.08049">
        <ele>582.311407</ele>
        <time>2022-04-10T09:50:19.046Z</time>
      </trkpt>
      <trkpt lat="42.16417" lon="22.08036">
        <ele>582.994079</ele>
        <time>2022-04-10T09:50:26.057Z</time>
      </trkpt>
      <trkpt lat="42.16418" lon="22.08023">
        <ele>583.724361</ele>
        <time>2022-04-10T09:50:32.063Z</time>
      </trkpt>
      <trkpt lat="42.1642" lon="22.0801">
        <ele>584.387948</ele>
        <time>2022-04-10T09:50:38.054Z</time>
      </trkpt>
      <trkpt lat="42.1642" lon="22.07997">
        <ele>585.098966</ele>
        <time>2022-04-10T09:50:45.041Z</time>
      </trkpt>
      <trkpt lat="42.16418" lon="22.07984">
        <ele>585.789598</ele>
        <time>2022-04-10T09:50:52.061Z</time>
      </trkpt>
      <trkpt lat="42.16416" lon="22.0797">
        <ele>586.540548</ele>
        <time>2022-04-10T09:50:58.033Z</time>
      </trkpt>
      <trkpt lat="42.16415" lon="22.07957">
        <ele>587.237431</ele>
        <time>2022-04-10T09:51:03.038Z</time>
      </trkpt>
      <trkpt lat="42.16413" lon="22.07943">
        <ele>587.981111</ele>
        <time>2022-04-10T09:51:08.057Z</time>
      </trkpt>
      <trkpt lat="42.16412" lon="22.07931">
        <ele>588.624783</ele>
        <time>2022-04-10T09:51:12.077Z</time>
      </trkpt>
      <trkpt lat="42.16409" lon="22.07916">
        <ele>589.422822</ele>
        <time>2022-04-10T09:51:16.053Z</time>
      </trkpt>
      <trkpt lat="42.16407" lon="22.07901">
        <ele>590.215041</ele>
        <time>2022-04-10T09:51:20.035Z</time>
      </trkpt>
      <trkpt lat="42.16403" lon="22.07888">
        <ele>590.947485</ele>
        <time>2022-04-10T09:51:24.056Z</time>
      </trkpt>
      <trkpt lat="42.16399" lon="22.07876">
        <ele>591.618348</ele>
        <time>2022-04-10T09:51:28.050Z</time>
      </trkpt>
      <trkpt lat="42.16397" lon="22.07865">
        <ele>592.261957</ele>
        <time>2022-04-10T09:51:31.053Z</time>
      </trkpt>
      <trkpt lat="42.16393" lon="22.07853">
        <ele>592.736341</ele>
        <time>2022-04-10T09:51:34.086Z</time>
      </trkpt>
      <trkpt lat="42.16389" lon="22.07839">
        <ele>591.6819</ele>
        <time>2022-04-10T09:51:37.042Z</time>
      </trkpt>
      <trkpt lat="42.16384" lon="22.07823">
        <ele>590.449407</ele>
        <time>2022-04-10T09:51:40.063Z</time>
      </trkpt>
      <trkpt lat="42.1638" lon="22.07811">
        <ele>589.531379</ele>
        <time>2022-04-10T09:51:42.071Z</time>
      </trkpt>
      <trkpt lat="42.16376" lon="22.07797">
        <ele>588.47617</ele>
        <time>2022-04-10T09:51:44.106Z</time>
      </trkpt>
      <trkpt lat="42.16371" lon="22.07783">
        <ele>587.334205</ele>
        <time>2022-04-10T09:51:46.084Z</time>
      </trkpt>
      <trkpt lat="42.16366" lon="22.0777">
        <ele>586.31154</ele>
        <time>2022-04-10T09:51:48.053Z</time>
      </trkpt>
      <trkpt lat="42.16362" lon="22.07758">
        <ele>585.428398</ele>
        <time>2022-04-10T09:51:50.060Z</time>
      </trkpt>
      <trkpt lat="42.16358" lon="22.07747">
        <ele>584.490431</ele>
        <time>2022-04-10T09:51:52.047Z</time>
      </trkpt>
      <trkpt lat="42.16353" lon="22.07735">
        <ele>583.53509</ele>
        <time>2022-04-10T09:51:54.035Z</time>
      </trkpt>
      <trkpt lat="42.16349" lon="22.07722">
        <ele>582.550231</ele>
        <time>2022-04-10T09:51:56.054Z</time>
      </trkpt>
      <trkpt lat="42.16344" lon="22.0771">
        <ele>581.577858</ele>
        <time>2022-04-10T09:51:58.055Z</time>
      </trkpt>
      <trkpt lat="42.1634" lon="22.07697">
        <ele>580.591032</ele>
        <time>2022-04-10T09:52:00.055Z</time>
      </trkpt>
      <trkpt lat="42.16335" lon="22.07685">
        <ele>579.591647</ele>
        <time>2022-04-10T09:52:02.044Z</time>
      </trkpt>
      <trkpt lat="42.16331" lon="22.07672">
        <ele>578.611225</ele>
        <time>2022-04-10T09:52:04.044Z</time>
      </trkpt>
      <trkpt lat="42.16326" lon="22.07659">
        <ele>577.535642</ele>
        <time>2022-04-10T09:52:06.046Z</time>
      </trkpt>
      <trkpt lat="42.16321" lon="22.07645">
        <ele>576.489687</ele>
        <time>2022-04-10T09:52:08.041Z</time>
      </trkpt>
      <trkpt lat="42.16315" lon="22.07634">
        <ele>575.430484</ele>
        <time>2022-04-10T09:52:10.048Z</time>
      </trkpt>
      <trkpt lat="42.1631" lon="22.07624">
        <ele>574.160789</ele>
        <time>2022-04-10T09:52:12.056Z</time>
      </trkpt>
      <trkpt lat="42.16298" lon="22.07616">
        <ele>572.408015</ele>
        <time>2022-04-10T09:52:15.044Z</time>
      </trkpt>
      <trkpt lat="42.16285" lon="22.07612">
        <ele>570.514014</ele>
        <time>2022-04-10T09:52:18.065Z</time>
      </trkpt>
      <trkpt lat="42.16275" lon="22.07611">
        <ele>569.088516</ele>
        <time>2022-04-10T09:52:20.044Z</time>
      </trkpt>
      <trkpt lat="42.16264" lon="22.07612">
        <ele>567.593907</ele>
        <time>2022-04-10T09:52:22.038Z</time>
      </trkpt>
      <trkpt lat="42.16253" lon="22.07613">
        <ele>566.109718</ele>
        <time>2022-04-10T09:52:24.039Z</time>
      </trkpt>
      <trkpt lat="42.16242" lon="22.07614">
        <ele>564.569574</ele>
        <time>2022-04-10T09:52:26.051Z</time>
      </trkpt>
      <trkpt lat="42.16233" lon="22.07614">
        <ele>563.240391</ele>
        <time>2022-04-10T09:52:28.056Z</time>
      </trkpt>
      <trkpt lat="42.1622" lon="22.07614">
        <ele>561.525337</ele>
        <time>2022-04-10T09:52:31.040Z</time>
      </trkpt>
      <trkpt lat="42.1621" lon="22.07612">
        <ele>560.110332</ele>
        <time>2022-04-10T09:52:33.042Z</time>
      </trkpt>
      <trkpt lat="42.162" lon="22.07608">
        <ele>558.664787</ele>
        <time>2022-04-10T09:52:35.043Z</time>
      </trkpt>
      <trkpt lat="42.16191" lon="22.07604">
        <ele>557.334564</ele>
        <time>2022-04-10T09:52:37.041Z</time>
      </trkpt>
      <trkpt lat="42.16179" lon="22.07598">
        <ele>555.588032</ele>
        <time>2022-04-10T09:52:40.059Z</time>
      </trkpt>
      <trkpt lat="42.16167" lon="22.07591">
        <ele>553.792508</ele>
        <time>2022-04-10T09:52:43.045Z</time>
      </trkpt>
      <trkpt lat="42.16159" lon="22.07579">
        <ele>552.153064</ele>
        <time>2022-04-10T09:52:46.056Z</time>
      </trkpt>
      <trkpt lat="42.16157" lon="22.07563">
        <ele>550.697953</ele>
        <time>2022-04-10T09:52:49.062Z</time>
      </trkpt>
      <trkpt lat="42.16156" lon="22.07551">
        <ele>550.34623</ele>
        <time>2022-04-10T09:52:51.050Z</time>
      </trkpt>
      <trkpt lat="42.16156" lon="22.07535">
        <ele>549.912017</ele>
        <time>2022-04-10T09:52:54.049Z</time>
      </trkpt>
      <trkpt lat="42.16155" lon="22.07522">
        <ele>549.550927</ele>
        <time>2022-04-10T09:52:57.041Z</time>
      </trkpt>
      <trkpt lat="42.16152" lon="22.07506">
        <ele>549.092678</ele>
        <time>2022-04-10T09:53:00.048Z</time>
      </trkpt>
      <trkpt lat="42.16144" lon="22.07492">
        <ele>548.617141</ele>
        <time>2022-04-10T09:53:03.055Z</time>
      </trkpt>
      <trkpt lat="42.16135" lon="22.0748">
        <ele>548.148953</ele>
        <time>2022-04-10T09:53:06.053Z</time>
      </trkpt>
      <trkpt lat="42.16128" lon="22.0747">
        <ele>547.772571</ele>
        <time>2022-04-10T09:53:08.047Z</time>
      </trkpt>
      <trkpt lat="42.16121" lon="22.0746">
        <ele>547.388337</ele>
        <time>2022-04-10T09:53:10.079Z</time>
      </trkpt>
      <trkpt lat="42.16114" lon="22.07451">
        <ele>547.034855</ele>
        <time>2022-04-10T09:53:12.068Z</time>
      </trkpt>
      <trkpt lat="42.16106" lon="22.07438">
        <ele>546.55503</ele>
        <time>2022-04-10T09:53:15.053Z</time>
      </trkpt>
      <trkpt lat="42.161" lon="22.0743">
        <ele>546.217255</ele>
        <time>2022-04-10T09:53:17.081Z</time>
      </trkpt>
      <trkpt lat="42.16091" lon="22.07417">
        <ele>545.743566</ele>
        <time>2022-04-10T09:53:20.050Z</time>
      </trkpt>
      <trkpt lat="42.16082" lon="22.07404">
        <ele>545.243911</ele>
        <time>2022-04-10T09:53:23.030Z</time>
      </trkpt>
      <trkpt lat="42.16073" lon="22.0739">
        <ele>544.751623</ele>
        <time>2022-04-10T09:53:26.078Z</time>
      </trkpt>
      <trkpt lat="42.16064" lon="22.07378">
        <ele>544.253313</ele>
        <time>2022-04-10T09:53:29.045Z</time>
      </trkpt>
      <trkpt lat="42.16056" lon="22.07365">
        <ele>544.903017</ele>
        <time>2022-04-10T09:53:32.050Z</time>
      </trkpt>
      <trkpt lat="42.16049" lon="22.07353">
        <ele>546.124413</ele>
        <time>2022-04-10T09:53:35.043Z</time>
      </trkpt>
      <trkpt lat="42.16044" lon="22.0734">
        <ele>547.307438</ele>
        <time>2022-04-10T09:53:38.053Z</time>
      </trkpt>
      <trkpt lat="42.1604" lon="22.07328">
        <ele>548.378778</ele>
        <time>2022-04-10T09:53:41.042Z</time>
      </trkpt>
      <trkpt lat="42.16036" lon="22.07317">
        <ele>549.393935</ele>
        <time>2022-04-10T09:53:44.043Z</time>
      </trkpt>
      <trkpt lat="42.16032" lon="22.07304">
        <ele>550.55431</ele>
        <time>2022-04-10T09:53:48.033Z</time>
      </trkpt>
      <trkpt lat="42.1603" lon="22.07291">
        <ele>551.658936</ele>
        <time>2022-04-10T09:53:53.043Z</time>
      </trkpt>
      <trkpt lat="42.16028" lon="22.07275">
        <ele>552.904532</ele>
        <time>2022-04-10T09:53:57.028Z</time>
      </trkpt>
      <trkpt lat="42.16028" lon="22.07263">
        <ele>553.934919</ele>
        <time>2022-04-10T09:54:00.045Z</time>
      </trkpt>
      <trkpt lat="42.16029" lon="22.07247">
        <ele>555.233068</ele>
        <time>2022-04-10T09:54:04.053Z</time>
      </trkpt>
      <trkpt lat="42.1603" lon="22.07232">
        <ele>556.505679</ele>
        <time>2022-04-10T09:54:08.037Z</time>
      </trkpt>
      <trkpt lat="42.16031" lon="22.07217">
        <ele>557.729569</ele>
        <time>2022-04-10T09:54:12.059Z</time>
      </trkpt>
      <trkpt lat="42.16033" lon="22.07202">
        <ele>558.948079</ele>
        <time>2022-04-10T09:54:16.080Z</time>
      </trkpt>
      <trkpt lat="42.16035" lon="22.07187">
        <ele>560.151708</ele>
        <time>2022-04-10T09:54:21.062Z</time>
      </trkpt>
      <trkpt lat="42.16037" lon="22.07174">
        <ele>561.227912</ele>
        <time>2022-04-10T09:54:26.030Z</time>
      </trkpt>
      <trkpt lat="42.16038" lon="22.07161">
        <ele>562.328195</ele>
        <time>2022-04-10T09:54:31.043Z</time>
      </trkpt>
      <trkpt lat="42.1604" lon="22.07148">
        <ele>563.43654</ele>
        <time>2022-04-10T09:54:37.036Z</time>
      </trkpt>
      <trkpt lat="42.16041" lon="22.07135">
        <ele>564.243811</ele>
        <time>2022-04-10T09:54:44.047Z</time>
      </trkpt>
      <trkpt lat="42.16043" lon="22.07121">
        <ele>564.863637</ele>
        <time>2022-04-10T09:54:51.082Z</time>
      </trkpt>
      <trkpt lat="42.16045" lon="22.07108">
        <ele>565.515109</ele>
        <time>2022-04-10T09:54:57.075Z</time>
      </trkpt>
      <trkpt lat="42.16046" lon="22.07094">
        <ele>566.166196</ele>
        <time>2022-04-10T09:55:04.055Z</time>
      </trkpt>
      <trkpt lat="42.16047" lon="22.0708">
        <ele>566.812841</ele>
        <time>2022-04-10T09:55:11.033Z</time>
      </trkpt>
      <trkpt lat="42.16047" lon="22.07067">
        <ele>567.425638</ele>
        <time>2022-04-10T09:55:18.040Z</time>
      </trkpt>
      <trkpt lat="42.16046" lon="22.07054">
        <ele>568.002026</ele>
        <time>2022-04-10T09:55:24.065Z</time>
      </trkpt>
      <trkpt lat="42.16046" lon="22.0704">
        <ele>568.647214</ele>
        <time>2022-04-10T09:55:31.049Z</time>
      </trkpt>
      <trkpt lat="42.16048" lon="22.07027">
        <ele>569.265599</ele>
        <time>2022-04-10T09:55:38.035Z</time>
      </trkpt>
      <trkpt lat="42.1605" lon="22.07015">
        <ele>569.843185</ele>
        <time>2022-04-10T09:55:44.054Z</time>
      </trkpt>
      <trkpt lat="42.16052" lon="22.07001">
        <ele>570.491274</ele>
        <time>2022-04-10T09:55:51.040Z</time>
      </trkpt>
      <trkpt lat="42.16054" lon="22.06988">
        <ele>571.121158</ele>
        <time>2022-04-10T09:55:58.038Z</time>
      </trkpt>
      <trkpt lat="42.16056" lon="22.06976">
        <ele>571.693565</ele>
        <time>2022-04-10T09:56:04.046Z</time>
      </trkpt>
      <trkpt lat="42.1606" lon="22.06964">
        <ele>572.303501</ele>
        <time>2022-04-10T09:56:11.037Z</time>
      </trkpt>
      <trkpt lat="42.16064" lon="22.06952">
        <ele>572.920728</ele>
        <time>2022-04-10T09:56:18.059Z</time>
      </trkpt>
      <trkpt lat="42.16069" lon="22.0694">
        <ele>573.546565</ele>
        <time>2022-04-10T09:56:25.092Z</time>
      </trkpt>
      <trkpt lat="42.16075" lon="22.06929">
        <ele>574.169765</ele>
        <time>2022-04-10T09:56:33.052Z</time>
      </trkpt>
      <trkpt lat="42.16079" lon="22.06918">
        <ele>574.738768</ele>
        <time>2022-04-10T09:56:39.063Z</time>
      </trkpt>
      <trkpt lat="42.16083" lon="22.06906">
        <ele>575.337044</ele>
        <time>2022-04-10T09:56:46.070Z</time>
      </trkpt>
      <trkpt lat="42.16087" lon="22.06893">
        <ele>575.875545</ele>
        <time>2022-04-10T09:56:53.100Z</time>
      </trkpt>
      <trkpt lat="42.16089" lon="22.0688">
        <ele>576.423502</ele>
        <time>2022-04-10T09:57:00.055Z</time>
      </trkpt>
      <trkpt lat="42.16091" lon="22.06867">
        <ele>576.936354</ele>
        <time>2022-04-10T09:57:07.084Z</time>
      </trkpt>
      <trkpt lat="42.16089" lon="22.06853">
        <ele>577.464432</ele>
        <time>2022-04-10T09:57:15.074Z</time>
      </trkpt>
      <trkpt lat="42.16086" lon="22.06841">
        <ele>577.9853</ele>
        <time>2022-04-10T09:57:22.037Z</time>
      </trkpt>
      <trkpt lat="42.16083" lon="22.06828">
        <ele>578.506921</ele>
        <time>2022-04-10T09:57:31.054Z</time>
      </trkpt>
      <trkpt lat="42.16081" lon="22.06816">
        <ele>579.003222</ele>
        <time>2022-04-10T09:57:38.115Z</time>
      </trkpt>
      <trkpt lat="42.16078" lon="22.06803">
        <ele>579.521433</ele>
        <time>2022-04-10T09:57:44.055Z</time>
      </trkpt>
      <trkpt lat="42.16074" lon="22.0679">
        <ele>580.076402</ele>
        <time>2022-04-10T09:57:50.038Z</time>
      </trkpt>
      <trkpt lat="42.16071" lon="22.06777">
        <ele>580.586725</ele>
        <time>2022-04-10T09:57:56.050Z</time>
      </trkpt>
      <trkpt lat="42.16068" lon="22.06765">
        <ele>581.081119</ele>
        <time>2022-04-10T09:58:02.039Z</time>
      </trkpt>
      <trkpt lat="42.16065" lon="22.06753">
        <ele>581.597758</ele>
        <time>2022-04-10T09:58:09.040Z</time>
      </trkpt>
      <trkpt lat="42.16062" lon="22.0674">
        <ele>582.123516</ele>
        <time>2022-04-10T09:58:17.093Z</time>
      </trkpt>
      <trkpt lat="42.16058" lon="22.06729">
        <ele>582.599191</ele>
        <time>2022-04-10T09:58:23.046Z</time>
      </trkpt>
      <trkpt lat="42.16054" lon="22.06717">
        <ele>583.115792</ele>
        <time>2022-04-10T09:58:30.061Z</time>
      </trkpt>
      <trkpt lat="42.16049" lon="22.06706">
        <ele>583.621552</ele>
        <time>2022-04-10T09:58:36.046Z</time>
      </trkpt>
      <trkpt lat="42.16044" lon="22.06694">
        <ele>584.166374</ele>
        <time>2022-04-10T09:58:42.042Z</time>
      </trkpt>
      <trkpt lat="42.16037" lon="22.06686">
        <ele>584.669856</ele>
        <time>2022-04-10T09:58:50.088Z</time>
      </trkpt>
      <trkpt lat="42.16029" lon="22.06677">
        <ele>585.334109</ele>
        <time>2022-04-10T09:58:57.053Z</time>
      </trkpt>
      <trkpt lat="42.16021" lon="22.06668">
        <ele>585.995541</ele>
        <time>2022-04-10T09:59:05.052Z</time>
      </trkpt>
      <trkpt lat="42.16014" lon="22.0666">
        <ele>586.602201</ele>
        <time>2022-04-10T09:59:11.054Z</time>
      </trkpt>
      <trkpt lat="42.16008" lon="22.06648">
        <ele>587.272892</ele>
        <time>2022-04-10T09:59:17.054Z</time>
      </trkpt>
      <trkpt lat="42.16005" lon="22.06635">
        <ele>587.90841</ele>
        <time>2022-04-10T09:59:23.073Z</time>
      </trkpt>
      <trkpt lat="42.16005" lon="22.06622">
        <ele>588.541784</ele>
        <time>2022-04-10T09:59:30.061Z</time>
      </trkpt>
      <trkpt lat="42.16009" lon="22.06609">
        <ele>589.186997</ele>
        <time>2022-04-10T09:59:37.057Z</time>
      </trkpt>
      <trkpt lat="42.16011" lon="22.06597">
        <ele>589.766667</ele>
        <time>2022-04-10T09:59:44.059Z</time>
      </trkpt>
      <trkpt lat="42.16013" lon="22.06585">
        <ele>590.374835</ele>
        <time>2022-04-10T09:59:51.036Z</time>
      </trkpt>
      <trkpt lat="42.16016" lon="22.06572">
        <ele>591.020625</ele>
        <time>2022-04-10T09:59:58.045Z</time>
      </trkpt>
      <trkpt lat="42.16019" lon="22.0656">
        <ele>591.621272</ele>
        <time>2022-04-10T10:00:04.060Z</time>
      </trkpt>
      <trkpt lat="42.16021" lon="22.06547">
        <ele>592.260898</ele>
        <time>2022-04-10T10:00:10.045Z</time>
      </trkpt>
      <trkpt lat="42.16022" lon="22.06535">
        <ele>592.839382</ele>
        <time>2022-04-10T10:00:15.076Z</time>
      </trkpt>
      <trkpt lat="42.16023" lon="22.06521">
        <ele>593.490851</ele>
        <time>2022-04-10T10:00:22.054Z</time>
      </trkpt>
      <trkpt lat="42.16022" lon="22.06508">
        <ele>594.147778</ele>
        <time>2022-04-10T10:00:29.062Z</time>
      </trkpt>
      <trkpt lat="42.1602" lon="22.06495">
        <ele>594.74142</ele>
        <time>2022-04-10T10:00:36.038Z</time>
      </trkpt>
      <trkpt lat="42.16018" lon="22.06483">
        <ele>595.333774</ele>
        <time>2022-04-10T10:00:44.051Z</time>
      </trkpt>
      <trkpt lat="42.16015" lon="22.06471">
        <ele>595.934422</ele>
        <time>2022-04-10T10:00:53.049Z</time>
      </trkpt>
      <trkpt lat="42.16013" lon="22.06458">
        <ele>596.50341</ele>
        <time>2022-04-10T10:01:01.057Z</time>
      </trkpt>
      <trkpt lat="42.16011" lon="22.06446">
        <ele>596.966379</ele>
        <time>2022-04-10T10:01:09.065Z</time>
      </trkpt>
      <trkpt lat="42.16009" lon="22.06434">
        <ele>597.433708</ele>
        <time>2022-04-10T10:01:17.045Z</time>
      </trkpt>
      <trkpt lat="42.16007" lon="22.06422">
        <ele>597.89307</ele>
        <time>2022-04-10T10:01:24.061Z</time>
      </trkpt>
      <trkpt lat="42.16007" lon="22.06409">
        <ele>598.371179</ele>
        <time>2022-04-10T10:01:31.045Z</time>
      </trkpt>
      <trkpt lat="42.16007" lon="22.06397">
        <ele>598.843099</ele>
        <time>2022-04-10T10:01:39.044Z</time>
      </trkpt>
      <trkpt lat="42.16006" lon="22.06383">
        <ele>599.356699</ele>
        <time>2022-04-10T10:01:48.069Z</time>
      </trkpt>
      <trkpt lat="42.16007" lon="22.06371">
        <ele>599.821112</ele>
        <time>2022-04-10T10:01:56.049Z</time>
      </trkpt>
      <trkpt lat="42.16009" lon="22.06359">
        <ele>600.284081</ele>
        <time>2022-04-10T10:02:04.060Z</time>
      </trkpt>
      <trkpt lat="42.16011" lon="22.06347">
        <ele>600.747115</ele>
        <time>2022-04-10T10:02:12.060Z</time>
      </trkpt>
      <trkpt lat="42.16011" lon="22.06334">
        <ele>601.236623</ele>
        <time>2022-04-10T10:02:20.040Z</time>
      </trkpt>
      <trkpt lat="42.16012" lon="22.06321">
        <ele>601.715056</ele>
        <time>2022-04-10T10:02:28.081Z</time>
      </trkpt>
      <trkpt lat="42.16013" lon="22.06309">
        <ele>602.20284</ele>
        <time>2022-04-10T10:02:36.058Z</time>
      </trkpt>
      <trkpt lat="42.16014" lon="22.06296">
        <ele>602.685381</ele>
        <time>2022-04-10T10:02:44.042Z</time>
      </trkpt>
      <trkpt lat="42.16014" lon="22.06283">
        <ele>603.157301</ele>
        <time>2022-04-10T10:02:54.056Z</time>
      </trkpt>
      <trkpt lat="42.16014" lon="22.0627">
        <ele>603.667578</ele>
        <time>2022-04-10T10:03:04.060Z</time>
      </trkpt>
      <trkpt lat="42.16011" lon="22.06257">
        <ele>604.164627</ele>
        <time>2022-04-10T10:03:13.079Z</time>
      </trkpt>
      <trkpt lat="42.16009" lon="22.06245">
        <ele>604.637624</ele>
        <time>2022-04-10T10:03:21.067Z</time>
      </trkpt>
      <trkpt lat="42.16007" lon="22.06232">
        <ele>605.117765</ele>
        <time>2022-04-10T10:03:30.051Z</time>
      </trkpt>
      <trkpt lat="42.16004" lon="22.06221">
        <ele>605.693549</ele>
        <time>2022-04-10T10:03:37.034Z</time>
      </trkpt>
      <trkpt lat="42.15999" lon="22.06209">
        <ele>606.456069</ele>
        <time>2022-04-10T10:03:45.045Z</time>
      </trkpt>
      <trkpt lat="42.15993" lon="22.06199">
        <ele>607.212849</ele>
        <time>2022-04-10T10:03:53.064Z</time>
      </trkpt>
      <trkpt lat="42.15984" lon="22.06192">
        <ele>607.970986</ele>
        <time>2022-04-10T10:04:02.084Z</time>
      </trkpt>
      <trkpt lat="42.15974" lon="22.06188">
        <ele>608.723012</ele>
        <time>2022-04-10T10:04:11.034Z</time>
      </trkpt>
      <trkpt lat="42.15965" lon="22.06189">
        <ele>609.437945</ele>
        <time>2022-04-10T10:04:18.088Z</time>
      </trkpt>
      <trkpt lat="42.15956" lon="22.06191">
        <ele>610.171312</ele>
        <time>2022-04-10T10:04:25.048Z</time>
      </trkpt>
      <trkpt lat="42.15947" lon="22.06196">
        <ele>610.874077</ele>
        <time>2022-04-10T10:04:32.050Z</time>
      </trkpt>
      <trkpt lat="42.15938" lon="22.06201">
        <ele>611.616273</ele>
        <time>2022-04-10T10:04:39.050Z</time>
      </trkpt>
      <trkpt lat="42.1593" lon="22.06208">
        <ele>612.370171</ele>
        <time>2022-04-10T10:04:48.061Z</time>
      </trkpt>
      <trkpt lat="42.15923" lon="22.06217">
        <ele>613.118909</ele>
        <time>2022-04-10T10:04:56.054Z</time>
      </trkpt>
      <trkpt lat="42.15915" lon="22.06225">
        <ele>613.830675</ele>
        <time>2022-04-10T10:05:03.041Z</time>
      </trkpt>
      <trkpt lat="42.15909" lon="22.06215">
        <ele>614.561338</ele>
        <time>2022-04-10T10:05:13.046Z</time>
      </trkpt>
      <trkpt lat="42.15909" lon="22.06203">
        <ele>615.266225</ele>
        <time>2022-04-10T10:05:21.058Z</time>
      </trkpt>
      <trkpt lat="42.15911" lon="22.0619">
        <ele>616.018779</ele>
        <time>2022-04-10T10:05:29.055Z</time>
      </trkpt>
      <trkpt lat="42.15913" lon="22.06177">
        <ele>616.763142</ele>
        <time>2022-04-10T10:05:37.042Z</time>
      </trkpt>
      <trkpt lat="42.15918" lon="22.06166">
        <ele>617.479758</ele>
        <time>2022-04-10T10:05:44.046Z</time>
      </trkpt>
      <trkpt lat="42.15923" lon="22.06155">
        <ele>618.234968</ele>
        <time>2022-04-10T10:05:53.079Z</time>
      </trkpt>
      <trkpt lat="42.15925" lon="22.06142">
        <ele>618.981239</ele>
        <time>2022-04-10T10:06:01.048Z</time>
      </trkpt>
      <trkpt lat="42.15928" lon="22.06128">
        <ele>619.978222</ele>
        <time>2022-04-10T10:06:08.058Z</time>
      </trkpt>
      <trkpt lat="42.15927" lon="22.06115">
        <ele>620.989684</ele>
        <time>2022-04-10T10:06:16.068Z</time>
      </trkpt>
      <trkpt lat="42.15922" lon="22.06105">
        <ele>621.90138</ele>
        <time>2022-04-10T10:06:24.060Z</time>
      </trkpt>
      <trkpt lat="42.15914" lon="22.06097">
        <ele>622.889342</ele>
        <time>2022-04-10T10:06:33.061Z</time>
      </trkpt>
      <trkpt lat="42.15907" lon="22.06089">
        <ele>623.794486</ele>
        <time>2022-04-10T10:06:40.049Z</time>
      </trkpt>
      <trkpt lat="42.15899" lon="22.06082">
        <ele>624.71487</ele>
        <time>2022-04-10T10:06:47.056Z</time>
      </trkpt>
      <trkpt lat="42.15892" lon="22.06074">
        <ele>625.622924</ele>
        <time>2022-04-10T10:06:54.067Z</time>
      </trkpt>
      <trkpt lat="42.15885" lon="22.06065">
        <ele>626.591399</ele>
        <time>2022-04-10T10:07:02.060Z</time>
      </trkpt>
      <trkpt lat="42.15878" lon="22.06056">
        <ele>627.568101</ele>
        <time>2022-04-10T10:07:10.051Z</time>
      </trkpt>
      <trkpt lat="42.15873" lon="22.06044">
        <ele>628.551518</ele>
        <time>2022-04-10T10:07:19.059Z</time>
      </trkpt>
      <trkpt lat="42.15868" lon="22.06033">
        <ele>629.519726</ele>
        <time>2022-04-10T10:07:26.051Z</time>
      </trkpt>
      <trkpt lat="42.15863" lon="22.06021">
        <ele>630.528964</ele>
        <time>2022-04-10T10:07:33.061Z</time>
      </trkpt>
      <trkpt lat="42.15859" lon="22.06009">
        <ele>631.535191</ele>
        <time>2022-04-10T10:07:41.047Z</time>
      </trkpt>
      <trkpt lat="42.15854" lon="22.05999">
        <ele>632.442373</ele>
        <time>2022-04-10T10:07:48.071Z</time>
      </trkpt>
      <trkpt lat="42.15849" lon="22.05987">
        <ele>633.432227</ele>
        <time>2022-04-10T10:07:56.046Z</time>
      </trkpt>
      <trkpt lat="42.15845" lon="22.05975">
        <ele>634.378322</ele>
        <time>2022-04-10T10:08:04.047Z</time>
      </trkpt>
      <trkpt lat="42.1584" lon="22.05964">
        <ele>635.332512</ele>
        <time>2022-04-10T10:08:13.041Z</time>
      </trkpt>
      <trkpt lat="42.15836" lon="22.05953">
        <ele>636.271931</ele>
        <time>2022-04-10T10:08:21.042Z</time>
      </trkpt>
      <trkpt lat="42.15834" lon="22.05941">
        <ele>637.176343</ele>
        <time>2022-04-10T10:08:29.045Z</time>
      </trkpt>
      <trkpt lat="42.15827" lon="22.0593">
        <ele>638.072759</ele>
        <time>2022-04-10T10:08:37.048Z</time>
      </trkpt>
      <trkpt lat="42.15822" lon="22.05918">
        <ele>638.955294</ele>
        <time>2022-04-10T10:08:44.053Z</time>
      </trkpt>
      <trkpt lat="42.15818" lon="22.05906">
        <ele>639.85242</ele>
        <time>2022-04-10T10:08:53.080Z</time>
      </trkpt>
      <trkpt lat="42.15814" lon="22.05893">
        <ele>640.743133</ele>
        <time>2022-04-10T10:09:02.061Z</time>
      </trkpt>
      <trkpt lat="42.15814" lon="22.0588">
        <ele>641.598919</ele>
        <time>2022-04-10T10:09:10.054Z</time>
      </trkpt>
      <trkpt lat="42.15814" lon="22.05867">
        <ele>642.448222</ele>
        <time>2022-04-10T10:09:19.065Z</time>
      </trkpt>
      <trkpt lat="42.15815" lon="22.05853">
        <ele>643.326249</ele>
        <time>2022-04-10T10:09:28.074Z</time>
      </trkpt>
      <trkpt lat="42.15817" lon="22.0584">
        <ele>644.158167</ele>
        <time>2022-04-10T10:09:36.071Z</time>
      </trkpt>
      <trkpt lat="42.15818" lon="22.05828">
        <ele>644.988198</ele>
        <time>2022-04-10T10:09:44.029Z</time>
      </trkpt>
      <trkpt lat="42.15819" lon="22.05815">
        <ele>645.845076</ele>
        <time>2022-04-10T10:09:52.054Z</time>
      </trkpt>
      <trkpt lat="42.1582" lon="22.05802">
        <ele>646.660185</ele>
        <time>2022-04-10T10:09:59.060Z</time>
      </trkpt>
      <trkpt lat="42.15821" lon="22.0579">
        <ele>647.444849</ele>
        <time>2022-04-10T10:10:06.050Z</time>
      </trkpt>
      <trkpt lat="42.15821" lon="22.05777">
        <ele>648.268961</ele>
        <time>2022-04-10T10:10:14.038Z</time>
      </trkpt>
      <trkpt lat="42.1582" lon="22.05765">
        <ele>649.068044</ele>
        <time>2022-04-10T10:10:22.038Z</time>
      </trkpt>
      <trkpt lat="42.15816" lon="22.05754">
        <ele>649.868207</ele>
        <time>2022-04-10T10:10:29.056Z</time>
      </trkpt>
      <trkpt lat="42.15813" lon="22.05741">
        <ele>650.720113</ele>
        <time>2022-04-10T10:10:37.060Z</time>
      </trkpt>
      <trkpt lat="42.1581" lon="22.05729">
        <ele>651.549909</ele>
        <time>2022-04-10T10:10:44.078Z</time>
      </trkpt>
      <trkpt lat="42.15809" lon="22.05716">
        <ele>652.400832</ele>
        <time>2022-04-10T10:10:51.030Z</time>
      </trkpt>
      <trkpt lat="42.15806" lon="22.05704">
        <ele>652.483099</ele>
        <time>2022-04-10T10:10:58.058Z</time>
      </trkpt>
      <trkpt lat="42.15803" lon="22.05692">
        <ele>651.999422</ele>
        <time>2022-04-10T10:11:05.047Z</time>
      </trkpt>
      <trkpt lat="42.15801" lon="22.05679">
        <ele>651.511811</ele>
        <time>2022-04-10T10:11:13.103Z</time>
      </trkpt>
      <trkpt lat="42.15798" lon="22.05667">
        <ele>651.037244</ele>
        <time>2022-04-10T10:11:19.067Z</time>
      </trkpt>
      <trkpt lat="42.15795" lon="22.05655">
        <ele>650.536192</ele>
        <time>2022-04-10T10:11:25.042Z</time>
      </trkpt>
      <trkpt lat="42.15791" lon="22.05642">
        <ele>650.010653</ele>
        <time>2022-04-10T10:11:31.049Z</time>
      </trkpt>
      <trkpt lat="42.15787" lon="22.0563">
        <ele>649.502061</ele>
        <time>2022-04-10T10:11:36.053Z</time>
      </trkpt>
      <trkpt lat="42.15781" lon="22.05617">
        <ele>648.961143</ele>
        <time>2022-04-10T10:11:42.049Z</time>
      </trkpt>
      <trkpt lat="42.15776" lon="22.05606">
        <ele>648.484598</ele>
        <time>2022-04-10T10:11:47.059Z</time>
      </trkpt>
      <trkpt lat="42.15773" lon="22.05595">
        <ele>648.027592</ele>
        <time>2022-04-10T10:11:52.040Z</time>
      </trkpt>
      <trkpt lat="42.1577" lon="22.05583">
        <ele>647.540927</ele>
        <time>2022-04-10T10:11:58.050Z</time>
      </trkpt>
      <trkpt lat="42.15766" lon="22.05571">
        <ele>647.060198</ele>
        <time>2022-04-10T10:12:04.041Z</time>
      </trkpt>
      <trkpt lat="42.15762" lon="22.05558">
        <ele>646.531322</ele>
        <time>2022-04-10T10:12:10.058Z</time>
      </trkpt>
      <trkpt lat="42.15756" lon="22.05548">
        <ele>646.049588</ele>
        <time>2022-04-10T10:12:15.053Z</time>
      </trkpt>
      <trkpt lat="42.1575" lon="22.05537">
        <ele>645.540659</ele>
        <time>2022-04-10T10:12:21.039Z</time>
      </trkpt>
      <trkpt lat="42.15742" lon="22.05527">
        <ele>645.00316</ele>
        <time>2022-04-10T10:12:27.057Z</time>
      </trkpt>
      <trkpt lat="42.15735" lon="22.05518">
        <ele>644.489455</ele>
        <time>2022-04-10T10:12:32.047Z</time>
      </trkpt>
      <trkpt lat="42.15728" lon="22.0551">
        <ele>644.020795</ele>
        <time>2022-04-10T10:12:37.063Z</time>
      </trkpt>
      <trkpt lat="42.1572" lon="22.05503">
        <ele>643.574596</ele>
        <time>2022-04-10T10:12:42.102Z</time>
      </trkpt>
      <trkpt lat="42.15713" lon="22.05494">
        <ele>643.270595</ele>
        <time>2022-04-10T10:12:46.063Z</time>
      </trkpt>
      <trkpt lat="42.15705" lon="22.05484">
        <ele>642.907634</ele>
        <time>2022-04-10T10:12:51.048Z</time>
      </trkpt>
      <trkpt lat="42.15697" lon="22.05474">
        <ele>642.55679</ele>
        <time>2022-04-10T10:12:56.040Z</time>
      </trkpt>
      <trkpt lat="42.15691" lon="22.05463">
        <ele>642.220902</ele>
        <time>2022-04-10T10:13:01.043Z</time>
      </trkpt>
      <trkpt lat="42.15687" lon="22.05452">
        <ele>641.914697</ele>
        <time>2022-04-10T10:13:05.059Z</time>
      </trkpt>
      <trkpt lat="42.15682" lon="22.05441">
        <ele>641.586612</ele>
        <time>2022-04-10T10:13:10.037Z</time>
      </trkpt>
      <trkpt lat="42.15676" lon="22.05429">
        <ele>641.254444</ele>
        <time>2022-04-10T10:13:15.039Z</time>
      </trkpt>
      <trkpt lat="42.15669" lon="22.0542">
        <ele>640.941943</ele>
        <time>2022-04-10T10:13:20.085Z</time>
      </trkpt>
      <trkpt lat="42.15661" lon="22.05412">
        <ele>640.60938</ele>
        <time>2022-04-10T10:13:25.061Z</time>
      </trkpt>
      <trkpt lat="42.15652" lon="22.05409">
        <ele>640.295185</ele>
        <time>2022-04-10T10:13:29.047Z</time>
      </trkpt>
      <trkpt lat="42.15643" lon="22.05408">
        <ele>639.994405</ele>
        <time>2022-04-10T10:13:32.122Z</time>
      </trkpt>
      <trkpt lat="42.15631" lon="22.05409">
        <ele>639.607571</ele>
        <time>2022-04-10T10:13:35.061Z</time>
      </trkpt>
      <trkpt lat="42.15619" lon="22.05416">
        <ele>639.16938</ele>
        <time>2022-04-10T10:13:38.104Z</time>
      </trkpt>
      <trkpt lat="42.15611" lon="22.05424">
        <ele>638.846477</ele>
        <time>2022-04-10T10:13:40.062Z</time>
      </trkpt>
      <trkpt lat="42.15602" lon="22.05435">
        <ele>638.453265</ele>
        <time>2022-04-10T10:13:43.059Z</time>
      </trkpt>
      <trkpt lat="42.15596" lon="22.05444">
        <ele>638.156424</ele>
        <time>2022-04-10T10:13:46.067Z</time>
      </trkpt>
      <trkpt lat="42.15589" lon="22.05453">
        <ele>637.832256</ele>
        <time>2022-04-10T10:13:49.161Z</time>
      </trkpt>
      <trkpt lat="42.15579" lon="22.05457">
        <ele>638.054693</ele>
        <time>2022-04-10T10:13:52.085Z</time>
      </trkpt>
      <trkpt lat="42.15569" lon="22.05452">
        <ele>638.546133</ele>
        <time>2022-04-10T10:13:55.058Z</time>
      </trkpt>
      <trkpt lat="42.15566" lon="22.05438">
        <ele>639.043597</ele>
        <time>2022-04-10T10:13:58.043Z</time>
      </trkpt>
      <trkpt lat="42.1557" lon="22.05423">
        <ele>639.585034</ele>
        <time>2022-04-10T10:14:01.061Z</time>
      </trkpt>
      <trkpt lat="42.15578" lon="22.05412">
        <ele>640.0875</ele>
        <time>2022-04-10T10:14:05.082Z</time>
      </trkpt>
      <trkpt lat="42.15584" lon="22.05402">
        <ele>640.523771</ele>
        <time>2022-04-10T10:14:09.048Z</time>
      </trkpt>
      <trkpt lat="42.15589" lon="22.05392">
        <ele>640.953577</ele>
        <time>2022-04-10T10:14:13.057Z</time>
      </trkpt>
      <trkpt lat="42.15596" lon="22.05382">
        <ele>641.382171</ele>
        <time>2022-04-10T10:14:17.032Z</time>
      </trkpt>
      <trkpt lat="42.15601" lon="22.05372">
        <ele>641.809459</ele>
        <time>2022-04-10T10:14:21.063Z</time>
      </trkpt>
      <trkpt lat="42.15608" lon="22.05361">
        <ele>642.302307</ele>
        <time>2022-04-10T10:14:26.031Z</time>
      </trkpt>
      <trkpt lat="42.15615" lon="22.0535">
        <ele>642.803291</ele>
        <time>2022-04-10T10:14:31.060Z</time>
      </trkpt>
      <trkpt lat="42.15621" lon="22.0534">
        <ele>643.23313</ele>
        <time>2022-04-10T10:14:35.039Z</time>
      </trkpt>
      <trkpt lat="42.15627" lon="22.0533">
        <ele>643.663525</ele>
        <time>2022-04-10T10:14:39.051Z</time>
      </trkpt>
      <trkpt lat="42.15634" lon="22.05319">
        <ele>644.159716</ele>
        <time>2022-04-10T10:14:44.057Z</time>
      </trkpt>
      <trkpt lat="42.15643" lon="22.05309">
        <ele>644.671468</ele>
        <time>2022-04-10T10:14:49.054Z</time>
      </trkpt>
      <trkpt lat="42.15649" lon="22.05298">
        <ele>645.131194</ele>
        <time>2022-04-10T10:14:55.039Z</time>
      </trkpt>
      <trkpt lat="42.15653" lon="22.05286">
        <ele>645.584198</ele>
        <time>2022-04-10T10:15:01.047Z</time>
      </trkpt>
      <trkpt lat="42.15656" lon="22.05272">
        <ele>646.039189</ele>
        <time>2022-04-10T10:15:07.054Z</time>
      </trkpt>
      <trkpt lat="42.15658" lon="22.05259">
        <ele>646.391572</ele>
        <time>2022-04-10T10:15:13.051Z</time>
      </trkpt>
      <trkpt lat="42.1566" lon="22.05246">
        <ele>646.705458</ele>
        <time>2022-04-10T10:15:19.089Z</time>
      </trkpt>
      <trkpt lat="42.1566" lon="22.05234">
        <ele>647.021273</ele>
        <time>2022-04-10T10:15:25.039Z</time>
      </trkpt>
      <trkpt lat="42.15659" lon="22.05221">
        <ele>647.341796</ele>
        <time>2022-04-10T10:15:32.046Z</time>
      </trkpt>
      <trkpt lat="42.15655" lon="22.05209">
        <ele>647.678233</ele>
        <time>2022-04-10T10:15:40.069Z</time>
      </trkpt>
      <trkpt lat="42.1565" lon="22.05197">
        <ele>648.021132</ele>
        <time>2022-04-10T10:15:47.070Z</time>
      </trkpt>
      <trkpt lat="42.15644" lon="22.05187">
        <ele>648.337789</ele>
        <time>2022-04-10T10:15:54.047Z</time>
      </trkpt>
      <trkpt lat="42.15637" lon="22.05178">
        <ele>648.685007</ele>
        <time>2022-04-10T10:16:02.044Z</time>
      </trkpt>
      <trkpt lat="42.15629" lon="22.05169">
        <ele>649.031411</ele>
        <time>2022-04-10T10:16:10.066Z</time>
      </trkpt>
      <trkpt lat="42.1562" lon="22.05162">
        <ele>649.376966</ele>
        <time>2022-04-10T10:16:18.107Z</time>
      </trkpt>
      <trkpt lat="42.15612" lon="22.05156">
        <ele>649.707692</ele>
        <time>2022-04-10T10:16:25.038Z</time>
      </trkpt>
      <trkpt lat="42.15603" lon="22.0515">
        <ele>650.04677</ele>
        <time>2022-04-10T10:16:32.046Z</time>
      </trkpt>
      <trkpt lat="42.15593" lon="22.05146">
        <ele>650.387548</ele>
        <time>2022-04-10T10:16:39.043Z</time>
      </trkpt>
      <trkpt lat="42.15584" lon="22.05142">
        <ele>650.717748</ele>
        <time>2022-04-10T10:16:46.055Z</time>
      </trkpt>
      <trkpt lat="42.15576" lon="22.05137">
        <ele>651.026708</ele>
        <time>2022-04-10T10:16:53.038Z</time>
      </trkpt>
      <trkpt lat="42.15567" lon="22.05131">
        <ele>651.370795</ele>
        <time>2022-04-10T10:17:00.045Z</time>
      </trkpt>
      <trkpt lat="42.15558" lon="22.05125">
        <ele>651.716916</ele>
        <time>2022-04-10T10:17:07.049Z</time>
      </trkpt>
      <trkpt lat="42.1555" lon="22.05117">
        <ele>652.051741</ele>
        <time>2022-04-10T10:17:14.076Z</time>
      </trkpt>
      <trkpt lat="42.15543" lon="22.05108">
        <ele>652.71494</ele>
        <time>2022-04-10T10:17:20.058Z</time>
      </trkpt>
      <trkpt lat="42.15538" lon="22.05098">
        <ele>653.402438</ele>
        <time>2022-04-10T10:17:26.057Z</time>
      </trkpt>
      <trkpt lat="42.15532" lon="22.05086">
        <ele>654.182116</ele>
        <time>2022-04-10T10:17:33.046Z</time>
      </trkpt>
      <trkpt lat="42.15526" lon="22.05076">
        <ele>654.873742</ele>
        <time>2022-04-10T10:17:39.058Z</time>
      </trkpt>
      <trkpt lat="42.1552" lon="22.05066">
        <ele>655.531307</ele>
        <time>2022-04-10T10:17:45.044Z</time>
      </trkpt>
      <trkpt lat="42.15514" lon="22.05055">
        <ele>656.293032</ele>
        <time>2022-04-10T10:17:52.082Z</time>
      </trkpt>
      <trkpt lat="42.15512" lon="22.05041">
        <ele>657.052086</ele>
        <time>2022-04-10T10:17:59.032Z</time>
      </trkpt>
      <trkpt lat="42.1551" lon="22.05027">
        <ele>657.808148</ele>
        <time>2022-04-10T10:18:06.065Z</time>
      </trkpt>
      <trkpt lat="42.15506" lon="22.05015">
        <ele>658.546873</ele>
        <time>2022-04-10T10:18:13.049Z</time>
      </trkpt>
      <trkpt lat="42.15503" lon="22.05003">
        <ele>659.227463</ele>
        <time>2022-04-10T10:18:19.052Z</time>
      </trkpt>
      <trkpt lat="42.15499" lon="22.0499">
        <ele>659.970577</ele>
        <time>2022-04-10T10:18:26.057Z</time>
      </trkpt>
      <trkpt lat="42.15495" lon="22.04979">
        <ele>660.660259</ele>
        <time>2022-04-10T10:18:32.065Z</time>
      </trkpt>
      <trkpt lat="42.15491" lon="22.04967">
        <ele>661.335182</ele>
        <time>2022-04-10T10:18:38.044Z</time>
      </trkpt>
      <trkpt lat="42.15488" lon="22.04954">
        <ele>662.091839</ele>
        <time>2022-04-10T10:18:45.039Z</time>
      </trkpt>
      <trkpt lat="42.15484" lon="22.04943">
        <ele>662.74719</ele>
        <time>2022-04-10T10:18:52.047Z</time>
      </trkpt>
      <trkpt lat="42.1548" lon="22.04931">
        <ele>663.458196</ele>
        <time>2022-04-10T10:19:00.050Z</time>
      </trkpt>
      <trkpt lat="42.15477" lon="22.04918">
        <ele>664.186996</ele>
        <time>2022-04-10T10:19:08.078Z</time>
      </trkpt>
      <trkpt lat="42.15473" lon="22.04906">
        <ele>664.887723</ele>
        <time>2022-04-10T10:19:15.095Z</time>
      </trkpt>
      <trkpt lat="42.1547" lon="22.04894">
        <ele>665.388143</ele>
        <time>2022-04-10T10:19:24.062Z</time>
      </trkpt>
      <trkpt lat="42.15467" lon="22.04882">
        <ele>665.721325</ele>
        <time>2022-04-10T10:19:31.057Z</time>
      </trkpt>
      <trkpt lat="42.15464" lon="22.0487">
        <ele>666.076576</ele>
        <time>2022-04-10T10:19:38.061Z</time>
      </trkpt>
      <trkpt lat="42.1546" lon="22.04857">
        <ele>666.430636</ele>
        <time>2022-04-10T10:19:45.056Z</time>
      </trkpt>
      <trkpt lat="42.15458" lon="22.04843">
        <ele>666.799282</ele>
        <time>2022-04-10T10:19:53.102Z</time>
      </trkpt>
      <trkpt lat="42.15455" lon="22.04831">
        <ele>667.151419</ele>
        <time>2022-04-10T10:19:59.061Z</time>
      </trkpt>
      <trkpt lat="42.15452" lon="22.04818">
        <ele>667.492091</ele>
        <time>2022-04-10T10:20:05.060Z</time>
      </trkpt>
      <trkpt lat="42.15448" lon="22.04806">
        <ele>667.847876</ele>
        <time>2022-04-10T10:20:11.046Z</time>
      </trkpt>
      <trkpt lat="42.15443" lon="22.04795">
        <ele>668.185965</ele>
        <time>2022-04-10T10:20:17.097Z</time>
      </trkpt>
      <trkpt lat="42.15439" lon="22.04783">
        <ele>668.511971</ele>
        <time>2022-04-10T10:20:22.056Z</time>
      </trkpt>
      <trkpt lat="42.15436" lon="22.04772">
        <ele>668.835147</ele>
        <time>2022-04-10T10:20:28.141Z</time>
      </trkpt>
      <trkpt lat="42.15431" lon="22.04761">
        <ele>669.179118</ele>
        <time>2022-04-10T10:20:36.053Z</time>
      </trkpt>
      <trkpt lat="42.15425" lon="22.0475">
        <ele>669.534373</ele>
        <time>2022-04-10T10:20:43.036Z</time>
      </trkpt>
      <trkpt lat="42.15419" lon="22.04738">
        <ele>669.906407</ele>
        <time>2022-04-10T10:20:50.052Z</time>
      </trkpt>
      <trkpt lat="42.15413" lon="22.04728">
        <ele>670.255477</ele>
        <time>2022-04-10T10:20:56.124Z</time>
      </trkpt>
      <trkpt lat="42.15405" lon="22.0472">
        <ele>670.607533</ele>
        <time>2022-04-10T10:21:02.041Z</time>
      </trkpt>
      <trkpt lat="42.15398" lon="22.04711">
        <ele>670.945331</ele>
        <time>2022-04-10T10:21:08.066Z</time>
      </trkpt>
      <trkpt lat="42.15391" lon="22.04702">
        <ele>671.283985</ele>
        <time>2022-04-10T10:21:14.062Z</time>
      </trkpt>
      <trkpt lat="42.15384" lon="22.04692">
        <ele>671.691845</ele>
        <time>2022-04-10T10:21:21.073Z</time>
      </trkpt>
      <trkpt lat="42.15377" lon="22.04683">
        <ele>672.311634</ele>
        <time>2022-04-10T10:21:28.091Z</time>
      </trkpt>
      <trkpt lat="42.15369" lon="22.04674">
        <ele>672.940803</ele>
        <time>2022-04-10T10:21:34.055Z</time>
      </trkpt>
      <trkpt lat="42.15362" lon="22.04666">
        <ele>673.51712</ele>
        <time>2022-04-10T10:21:40.091Z</time>
      </trkpt>
      <trkpt lat="42.15355" lon="22.04656">
        <ele>674.164402</ele>
        <time>2022-04-10T10:21:48.121Z</time>
      </trkpt>
      <trkpt lat="42.15348" lon="22.04646">
        <ele>674.798142</ele>
        <time>2022-04-10T10:21:55.056Z</time>
      </trkpt>
      <trkpt lat="42.15342" lon="22.04638">
        <ele>675.365607</ele>
        <time>2022-04-10T10:22:02.099Z</time>
      </trkpt>
      <trkpt lat="42.15334" lon="22.04628">
        <ele>676.011887</ele>
        <time>2022-04-10T10:22:09.058Z</time>
      </trkpt>
      <trkpt lat="42.15326" lon="22.04619">
        <ele>676.65364</ele>
        <time>2022-04-10T10:22:16.064Z</time>
      </trkpt>
      <trkpt lat="42.15318" lon="22.0461">
        <ele>677.309246</ele>
        <time>2022-04-10T10:22:23.081Z</time>
      </trkpt>
      <trkpt lat="42.15312" lon="22.04601">
        <ele>677.909819</ele>
        <time>2022-04-10T10:22:29.053Z</time>
      </trkpt>
      <trkpt lat="42.15304" lon="22.04594">
        <ele>678.485748</ele>
        <time>2022-04-10T10:22:35.053Z</time>
      </trkpt>
      <trkpt lat="42.15296" lon="22.04586">
        <ele>679.10712</ele>
        <time>2022-04-10T10:22:42.057Z</time>
      </trkpt>
      <trkpt lat="42.1529" lon="22.04576">
        <ele>679.71471</ele>
        <time>2022-04-10T10:22:49.048Z</time>
      </trkpt>
      <trkpt lat="42.15283" lon="22.04567">
        <ele>680.336083</ele>
        <time>2022-04-10T10:22:56.049Z</time>
      </trkpt>
      <trkpt lat="42.15275" lon="22.04558">
        <ele>680.971863</ele>
        <time>2022-04-10T10:23:03.065Z</time>
      </trkpt>
      <trkpt lat="42.15266" lon="22.0455">
        <ele>681.637123</ele>
        <time>2022-04-10T10:23:10.060Z</time>
      </trkpt>
      <trkpt lat="42.15259" lon="22.04539">
        <ele>682.287836</ele>
        <time>2022-04-10T10:23:17.095Z</time>
      </trkpt>
      <trkpt lat="42.15253" lon="22.04528">
        <ele>682.933222</ele>
        <time>2022-04-10T10:23:24.046Z</time>
      </trkpt>
      <trkpt lat="42.15249" lon="22.04517">
        <ele>683.571506</ele>
        <time>2022-04-10T10:23:30.039Z</time>
      </trkpt>
      <trkpt lat="42.15246" lon="22.04505">
        <ele>684.158927</ele>
        <time>2022-04-10T10:23:37.060Z</time>
      </trkpt>
      <trkpt lat="42.15246" lon="22.04493">
        <ele>684.763504</ele>
        <time>2022-04-10T10:23:44.034Z</time>
      </trkpt>
      <trkpt lat="42.15247" lon="22.04481">
        <ele>685.377133</ele>
        <time>2022-04-10T10:23:50.052Z</time>
      </trkpt>
      <trkpt lat="42.15249" lon="22.04467">
        <ele>686.051848</ele>
        <time>2022-04-10T10:23:57.052Z</time>
      </trkpt>
      <trkpt lat="42.15251" lon="22.04454">
        <ele>686.689507</ele>
        <time>2022-04-10T10:24:04.038Z</time>
      </trkpt>
      <trkpt lat="42.15251" lon="22.04442">
        <ele>687.298958</ele>
        <time>2022-04-10T10:24:11.040Z</time>
      </trkpt>
      <trkpt lat="42.1525" lon="22.04429">
        <ele>687.933603</ele>
        <time>2022-04-10T10:24:18.066Z</time>
      </trkpt>
      <trkpt lat="42.1525" lon="22.04416">
        <ele>688.56743</ele>
        <time>2022-04-10T10:24:25.053Z</time>
      </trkpt>
      <trkpt lat="42.15249" lon="22.04402">
        <ele>689.215793</ele>
        <time>2022-04-10T10:24:33.078Z</time>
      </trkpt>
      <trkpt lat="42.15248" lon="22.0439">
        <ele>689.821522</ele>
        <time>2022-04-10T10:24:40.045Z</time>
      </trkpt>
      <trkpt lat="42.15247" lon="22.04377">
        <ele>690.475552</ele>
        <time>2022-04-10T10:24:48.097Z</time>
      </trkpt>
      <trkpt lat="42.15244" lon="22.04365">
        <ele>691.080387</ele>
        <time>2022-04-10T10:24:55.055Z</time>
      </trkpt>
      <trkpt lat="42.1524" lon="22.04353">
        <ele>691.700529</ele>
        <time>2022-04-10T10:25:02.042Z</time>
      </trkpt>
      <trkpt lat="42.15236" lon="22.04343">
        <ele>692.294344</ele>
        <time>2022-04-10T10:25:09.046Z</time>
      </trkpt>
      <trkpt lat="42.15233" lon="22.04331">
        <ele>692.921644</ele>
        <time>2022-04-10T10:25:16.056Z</time>
      </trkpt>
      <trkpt lat="42.1523" lon="22.04318">
        <ele>693.544285</ele>
        <time>2022-04-10T10:25:24.056Z</time>
      </trkpt>
      <trkpt lat="42.15228" lon="22.04306">
        <ele>694.162969</ele>
        <time>2022-04-10T10:25:32.097Z</time>
      </trkpt>
      <trkpt lat="42.15227" lon="22.04292">
        <ele>694.816123</ele>
        <time>2022-04-10T10:25:41.052Z</time>
      </trkpt>
      <trkpt lat="42.15227" lon="22.0428">
        <ele>695.401238</ele>
        <time>2022-04-10T10:25:48.092Z</time>
      </trkpt>
      <trkpt lat="42.15227" lon="22.04266">
        <ele>696.040859</ele>
        <time>2022-04-10T10:25:55.052Z</time>
      </trkpt>
      <trkpt lat="42.15227" lon="22.04252">
        <ele>696.698879</ele>
        <time>2022-04-10T10:26:01.062Z</time>
      </trkpt>
      <trkpt lat="42.15228" lon="22.04238">
        <ele>697.334869</ele>
        <time>2022-04-10T10:26:07.044Z</time>
      </trkpt>
      <trkpt lat="42.15228" lon="22.04224">
        <ele>697.951366</ele>
        <time>2022-04-10T10:26:13.069Z</time>
      </trkpt>
      <trkpt lat="42.15229" lon="22.04211">
        <ele>698.562485</ele>
        <time>2022-04-10T10:26:19.058Z</time>
      </trkpt>
      <trkpt lat="42.15228" lon="22.04199">
        <ele>699.118049</ele>
        <time>2022-04-10T10:26:24.063Z</time>
      </trkpt>
      <trkpt lat="42.15228" lon="22.04186">
        <ele>699.745253</ele>
        <time>2022-04-10T10:26:30.065Z</time>
      </trkpt>
      <trkpt lat="42.15228" lon="22.04172">
        <ele>700.348234</ele>
        <time>2022-04-10T10:26:38.125Z</time>
      </trkpt>
      <trkpt lat="42.15227" lon="22.0416">
        <ele>700.947185</ele>
        <time>2022-04-10T10:26:46.057Z</time>
      </trkpt>
      <trkpt lat="42.15227" lon="22.04147">
        <ele>701.519326</ele>
        <time>2022-04-10T10:26:54.049Z</time>
      </trkpt>
      <trkpt lat="42.15226" lon="22.04134">
        <ele>702.123697</ele>
        <time>2022-04-10T10:27:02.060Z</time>
      </trkpt>
      <trkpt lat="42.15225" lon="22.04122">
        <ele>702.695308</ele>
        <time>2022-04-10T10:27:11.064Z</time>
      </trkpt>
      <trkpt lat="42.15225" lon="22.04108">
        <ele>703.317923</ele>
        <time>2022-04-10T10:27:22.053Z</time>
      </trkpt>
      <trkpt lat="42.15225" lon="22.04096">
        <ele>703.898808</ele>
        <time>2022-04-10T10:27:30.068Z</time>
      </trkpt>
      <trkpt lat="42.15224" lon="22.04083">
        <ele>704.480621</ele>
        <time>2022-04-10T10:27:39.069Z</time>
      </trkpt>
      <trkpt lat="42.15223" lon="22.04071">
        <ele>705.046828</ele>
        <time>2022-04-10T10:27:47.053Z</time>
      </trkpt>
      <trkpt lat="42.15222" lon="22.04059">
        <ele>705.613941</ele>
        <time>2022-04-10T10:27:55.050Z</time>
      </trkpt>
      <trkpt lat="42.15223" lon="22.04045">
        <ele>706.30965</ele>
        <time>2022-04-10T10:28:06.096Z</time>
      </trkpt>
      <trkpt lat="42.15222" lon="22.04033">
        <ele>707.060476</ele>
        <time>2022-04-10T10:28:15.042Z</time>
      </trkpt>
      <trkpt lat="42.1522" lon="22.0402">
        <ele>707.800487</ele>
        <time>2022-04-10T10:28:23.047Z</time>
      </trkpt>
      <trkpt lat="42.15217" lon="22.04007">
        <ele>708.556396</ele>
        <time>2022-04-10T10:28:32.046Z</time>
      </trkpt>
      <trkpt lat="42.15215" lon="22.03994">
        <ele>709.331962</ele>
        <time>2022-04-10T10:28:40.176Z</time>
      </trkpt>
      <trkpt lat="42.15213" lon="22.03981">
        <ele>710.112295</ele>
        <time>2022-04-10T10:28:49.067Z</time>
      </trkpt>
      <trkpt lat="42.15211" lon="22.03969">
        <ele>710.8124</ele>
        <time>2022-04-10T10:28:58.055Z</time>
      </trkpt>
      <trkpt lat="42.15208" lon="22.03956">
        <ele>711.610401</ele>
        <time>2022-04-10T10:29:07.059Z</time>
      </trkpt>
      <trkpt lat="42.15206" lon="22.03944">
        <ele>712.327586</ele>
        <time>2022-04-10T10:29:15.038Z</time>
      </trkpt>
      <trkpt lat="42.15204" lon="22.03931">
        <ele>713.12186</ele>
        <time>2022-04-10T10:29:23.061Z</time>
      </trkpt>
      <trkpt lat="42.15202" lon="22.03918">
        <ele>713.860514</ele>
        <time>2022-04-10T10:29:30.049Z</time>
      </trkpt>
      <trkpt lat="42.152" lon="22.03906">
        <ele>714.610514</ele>
        <time>2022-04-10T10:29:38.043Z</time>
      </trkpt>
      <trkpt lat="42.15197" lon="22.03894">
        <ele>715.330922</ele>
        <time>2022-04-10T10:29:45.054Z</time>
      </trkpt>
      <trkpt lat="42.15195" lon="22.0388">
        <ele>716.127142</ele>
        <time>2022-04-10T10:29:53.098Z</time>
      </trkpt>
      <trkpt lat="42.15192" lon="22.03868">
        <ele>716.852275</ele>
        <time>2022-04-10T10:30:00.034Z</time>
      </trkpt>
      <trkpt lat="42.15189" lon="22.03856">
        <ele>717.639363</ele>
        <time>2022-04-10T10:30:08.057Z</time>
      </trkpt>
      <trkpt lat="42.15185" lon="22.03844">
        <ele>718.375086</ele>
        <time>2022-04-10T10:30:15.032Z</time>
      </trkpt>
      <trkpt lat="42.15181" lon="22.03833">
        <ele>719.077595</ele>
        <time>2022-04-10T10:30:22.043Z</time>
      </trkpt>
      <trkpt lat="42.15176" lon="22.03822">
        <ele>719.834418</ele>
        <time>2022-04-10T10:30:31.059Z</time>
      </trkpt>
      <trkpt lat="42.15173" lon="22.03809">
        <ele>720.63868</ele>
        <time>2022-04-10T10:30:40.043Z</time>
      </trkpt>
      <trkpt lat="42.15166" lon="22.038">
        <ele>721.419288</ele>
        <time>2022-04-10T10:30:48.063Z</time>
      </trkpt>
      <trkpt lat="42.15162" lon="22.03788">
        <ele>722.248484</ele>
        <time>2022-04-10T10:30:58.054Z</time>
      </trkpt>
      <trkpt lat="42.15157" lon="22.03777">
        <ele>723.027687</ele>
        <time>2022-04-10T10:31:06.046Z</time>
      </trkpt>
      <trkpt lat="42.15152" lon="22.03767">
        <ele>723.782492</ele>
        <time>2022-04-10T10:31:15.050Z</time>
      </trkpt>
      <trkpt lat="42.15145" lon="22.03756">
        <ele>724.610364</ele>
        <time>2022-04-10T10:31:23.076Z</time>
      </trkpt>
      <trkpt lat="42.1514" lon="22.03745">
        <ele>725.410295</ele>
        <time>2022-04-10T10:31:31.059Z</time>
      </trkpt>
      <trkpt lat="42.15135" lon="22.03734">
        <ele>726.213913</ele>
        <time>2022-04-10T10:31:39.064Z</time>
      </trkpt>
      <trkpt lat="42.15129" lon="22.03724">
        <ele>726.998136</ele>
        <time>2022-04-10T10:31:47.074Z</time>
      </trkpt>
      <trkpt lat="42.15124" lon="22.03712">
        <ele>727.8247</ele>
        <time>2022-04-10T10:31:56.053Z</time>
      </trkpt>
      <trkpt lat="42.15119" lon="22.03702">
        <ele>728.562176</ele>
        <time>2022-04-10T10:32:05.049Z</time>
      </trkpt>
      <trkpt lat="42.15114" lon="22.03692">
        <ele>729.326424</ele>
        <time>2022-04-10T10:32:13.109Z</time>
      </trkpt>
      <trkpt lat="42.15108" lon="22.03681">
        <ele>730.120097</ele>
        <time>2022-04-10T10:32:22.045Z</time>
      </trkpt>
      <trkpt lat="42.15102" lon="22.03671">
        <ele>730.918555</ele>
        <time>2022-04-10T10:32:32.053Z</time>
      </trkpt>
      <trkpt lat="42.15097" lon="22.0366">
        <ele>731.723002</ele>
        <time>2022-04-10T10:32:40.058Z</time>
      </trkpt>
      <trkpt lat="42.15091" lon="22.03651">
        <ele>732.465574</ele>
        <time>2022-04-10T10:32:47.070Z</time>
      </trkpt>
      <trkpt lat="42.15086" lon="22.03639">
        <ele>733.273231</ele>
        <time>2022-04-10T10:32:56.066Z</time>
      </trkpt>
      <trkpt lat="42.1508" lon="22.03631">
        <ele>734.019159</ele>
        <time>2022-04-10T10:33:04.051Z</time>
      </trkpt>
      <trkpt lat="42.15073" lon="22.0362">
        <ele>734.738546</ele>
        <time>2022-04-10T10:33:12.061Z</time>
      </trkpt>
      <trkpt lat="42.15069" lon="22.03609">
        <ele>734.852209</ele>
        <time>2022-04-10T10:33:20.078Z</time>
      </trkpt>
      <trkpt lat="42.15065" lon="22.03597">
        <ele>734.974736</ele>
        <time>2022-04-10T10:33:29.034Z</time>
      </trkpt>
      <trkpt lat="42.15061" lon="22.03584">
        <ele>735.104018</ele>
        <time>2022-04-10T10:33:38.084Z</time>
      </trkpt>
      <trkpt lat="42.15059" lon="22.03572">
        <ele>735.217153</ele>
        <time>2022-04-10T10:33:47.060Z</time>
      </trkpt>
      <trkpt lat="42.15057" lon="22.03561">
        <ele>735.332139</ele>
        <time>2022-04-10T10:33:56.074Z</time>
      </trkpt>
      <trkpt lat="42.15056" lon="22.03548">
        <ele>735.45101</ele>
        <time>2022-04-10T10:34:04.068Z</time>
      </trkpt>
      <trkpt lat="42.15053" lon="22.03535">
        <ele>735.573755</ele>
        <time>2022-04-10T10:34:13.063Z</time>
      </trkpt>
      <trkpt lat="42.15051" lon="22.03522">
        <ele>735.701348</ele>
        <time>2022-04-10T10:34:22.065Z</time>
      </trkpt>
      <trkpt lat="42.1505" lon="22.0351">
        <ele>735.813611</ele>
        <time>2022-04-10T10:34:29.053Z</time>
      </trkpt>
      <trkpt lat="42.15048" lon="22.03496">
        <ele>735.944582</ele>
        <time>2022-04-10T10:34:36.053Z</time>
      </trkpt>
      <trkpt lat="42.15046" lon="22.03482">
        <ele>736.07373</ele>
        <time>2022-04-10T10:34:41.055Z</time>
      </trkpt>
      <trkpt lat="42.15045" lon="22.03466">
        <ele>736.225598</ele>
        <time>2022-04-10T10:34:45.034Z</time>
      </trkpt>
      <trkpt lat="42.15046" lon="22.03454">
        <ele>736.339046</ele>
        <time>2022-04-10T10:34:48.114Z</time>
      </trkpt>
      <trkpt lat="42.15045" lon="22.03441">
        <ele>736.453835</ele>
        <time>2022-04-10T10:34:51.055Z</time>
      </trkpt>
      <trkpt lat="42.15045" lon="22.03426">
        <ele>736.594304</ele>
        <time>2022-04-10T10:34:55.059Z</time>
      </trkpt>
      <trkpt lat="42.15045" lon="22.03414">
        <ele>736.707136</ele>
        <time>2022-04-10T10:34:58.067Z</time>
      </trkpt>
      <trkpt lat="42.15045" lon="22.03402">
        <ele>736.820584</ele>
        <time>2022-04-10T10:35:01.066Z</time>
      </trkpt>
      <trkpt lat="42.15045" lon="22.03389">
        <ele>736.941441</ele>
        <time>2022-04-10T10:35:04.059Z</time>
      </trkpt>
      <trkpt lat="42.15045" lon="22.03376">
        <ele>736.628688</ele>
        <time>2022-04-10T10:35:08.061Z</time>
      </trkpt>
      <trkpt lat="42.15041" lon="22.03364">
        <ele>736.200711</ele>
        <time>2022-04-10T10:35:15.060Z</time>
      </trkpt>
      <trkpt lat="42.15041" lon="22.03332">
        <ele>735.068678</ele>
        <time>2022-04-10T10:36:37.065Z</time>
      </trkpt>
      <trkpt lat="42.15042" lon="22.03317">
        <ele>734.567495</ele>
        <time>2022-04-10T10:36:40.052Z</time>
      </trkpt>
      <trkpt lat="42.15043" lon="22.03303">
        <ele>734.074504</ele>
        <time>2022-04-10T10:36:44.060Z</time>
      </trkpt>
      <trkpt lat="42.15038" lon="22.0329">
        <ele>733.554215</ele>
        <time>2022-04-10T10:36:48.038Z</time>
      </trkpt>
      <trkpt lat="42.15027" lon="22.03284">
        <ele>733.015021</ele>
        <time>2022-04-10T10:36:52.072Z</time>
      </trkpt>
      <trkpt lat="42.15016" lon="22.03287">
        <ele>732.463878</ele>
        <time>2022-04-10T10:36:56.063Z</time>
      </trkpt>
      <trkpt lat="42.15008" lon="22.03294">
        <ele>732.017934</ele>
        <time>2022-04-10T10:36:59.077Z</time>
      </trkpt>
      <trkpt lat="42.14999" lon="22.03302">
        <ele>731.514296</ele>
        <time>2022-04-10T10:37:02.056Z</time>
      </trkpt>
      <trkpt lat="42.14989" lon="22.0331">
        <ele>730.969082</ele>
        <time>2022-04-10T10:37:05.054Z</time>
      </trkpt>
      <trkpt lat="42.14978" lon="22.03316">
        <ele>730.4483</ele>
        <time>2022-04-10T10:37:08.071Z</time>
      </trkpt>
      <trkpt lat="42.14968" lon="22.03322">
        <ele>729.940227</ele>
        <time>2022-04-10T10:37:11.051Z</time>
      </trkpt>
      <trkpt lat="42.1496" lon="22.03328">
        <ele>729.497774</ele>
        <time>2022-04-10T10:37:14.065Z</time>
      </trkpt>
      <trkpt lat="42.14949" lon="22.03334">
        <ele>728.963995</ele>
        <time>2022-04-10T10:37:18.056Z</time>
      </trkpt>
      <trkpt lat="42.14938" lon="22.03332">
        <ele>728.442773</ele>
        <time>2022-04-10T10:37:22.059Z</time>
      </trkpt>
      <trkpt lat="42.14933" lon="22.03322">
        <ele>727.994786</ele>
        <time>2022-04-10T10:37:25.085Z</time>
      </trkpt>
      <trkpt lat="42.14931" lon="22.03306">
        <ele>727.42812</ele>
        <time>2022-04-10T10:37:28.067Z</time>
      </trkpt>
      <trkpt lat="42.14929" lon="22.03289">
        <ele>726.839873</ele>
        <time>2022-04-10T10:37:31.061Z</time>
      </trkpt>
      <trkpt lat="42.14927" lon="22.03272">
        <ele>726.229404</ele>
        <time>2022-04-10T10:37:34.064Z</time>
      </trkpt>
      <trkpt lat="42.14926" lon="22.03253">
        <ele>725.577494</ele>
        <time>2022-04-10T10:37:37.084Z</time>
      </trkpt>
      <trkpt lat="42.14926" lon="22.03239">
        <ele>725.059066</ele>
        <time>2022-04-10T10:37:39.067Z</time>
      </trkpt>
      <trkpt lat="42.14926" lon="22.03223">
        <ele>724.502314</ele>
        <time>2022-04-10T10:37:41.052Z</time>
      </trkpt>
      <trkpt lat="42.14926" lon="22.03206">
        <ele>723.920879</ele>
        <time>2022-04-10T10:37:43.062Z</time>
      </trkpt>
      <trkpt lat="42.14927" lon="22.03189">
        <ele>723.318311</ele>
        <time>2022-04-10T10:37:45.056Z</time>
      </trkpt>
      <trkpt lat="42.14927" lon="22.03171">
        <ele>722.69151</ele>
        <time>2022-04-10T10:37:47.077Z</time>
      </trkpt>
      <trkpt lat="42.14927" lon="22.03152">
        <ele>722.018609</ele>
        <time>2022-04-10T10:37:49.064Z</time>
      </trkpt>
      <trkpt lat="42.14928" lon="22.03131">
        <ele>721.305892</ele>
        <time>2022-04-10T10:37:51.067Z</time>
      </trkpt>
      <trkpt lat="42.14929" lon="22.03112">
        <ele>720.619176</ele>
        <time>2022-04-10T10:37:53.058Z</time>
      </trkpt>
      <trkpt lat="42.1493" lon="22.03092">
        <ele>719.877849</ele>
        <time>2022-04-10T10:37:55.054Z</time>
      </trkpt>
      <trkpt lat="42.1493" lon="22.03072">
        <ele>718.974942</ele>
        <time>2022-04-10T10:37:57.054Z</time>
      </trkpt>
      <trkpt lat="42.14931" lon="22.03051">
        <ele>718.058166</ele>
        <time>2022-04-10T10:37:59.044Z</time>
      </trkpt>
      <trkpt lat="42.14932" lon="22.03029">
        <ele>717.092484</ele>
        <time>2022-04-10T10:38:01.051Z</time>
      </trkpt>
      <trkpt lat="42.14934" lon="22.03007">
        <ele>716.093683</ele>
        <time>2022-04-10T10:38:03.070Z</time>
      </trkpt>
      <trkpt lat="42.14935" lon="22.02984">
        <ele>715.072323</ele>
        <time>2022-04-10T10:38:05.066Z</time>
      </trkpt>
      <trkpt lat="42.14936" lon="22.0296">
        <ele>714.027523</ele>
        <time>2022-04-10T10:38:07.060Z</time>
      </trkpt>
      <trkpt lat="42.14937" lon="22.02936">
        <ele>712.965998</ele>
        <time>2022-04-10T10:38:09.069Z</time>
      </trkpt>
      <trkpt lat="42.14937" lon="22.02912">
        <ele>711.882786</ele>
        <time>2022-04-10T10:38:11.074Z</time>
      </trkpt>
      <trkpt lat="42.14936" lon="22.02899">
        <ele>711.307526</ele>
        <time>2022-04-10T10:38:12.061Z</time>
      </trkpt>
      <trkpt lat="42.14936" lon="22.02886">
        <ele>710.73606</ele>
        <time>2022-04-10T10:38:13.074Z</time>
      </trkpt>
      <trkpt lat="42.14935" lon="22.02873">
        <ele>710.177418</ele>
        <time>2022-04-10T10:38:14.044Z</time>
      </trkpt>
      <trkpt lat="42.14934" lon="22.02861">
        <ele>709.62155</ele>
        <time>2022-04-10T10:38:15.098Z</time>
      </trkpt>
      <trkpt lat="42.14933" lon="22.02848">
        <ele>709.096188</ele>
        <time>2022-04-10T10:38:16.106Z</time>
      </trkpt>
      <trkpt lat="42.14932" lon="22.02836">
        <ele>708.588672</ele>
        <time>2022-04-10T10:38:17.076Z</time>
      </trkpt>
      <trkpt lat="42.1493" lon="22.02824">
        <ele>708.073605</ele>
        <time>2022-04-10T10:38:18.054Z</time>
      </trkpt>
      <trkpt lat="42.14927" lon="22.028">
        <ele>707.060807</ele>
        <time>2022-04-10T10:38:20.061Z</time>
      </trkpt>
      <trkpt lat="42.14924" lon="22.02788">
        <ele>706.528022</ele>
        <time>2022-04-10T10:38:21.045Z</time>
      </trkpt>
      <trkpt lat="42.14922" lon="22.02775">
        <ele>705.980283</ele>
        <time>2022-04-10T10:38:22.097Z</time>
      </trkpt>
      <trkpt lat="42.14919" lon="22.02762">
        <ele>705.421477</ele>
        <time>2022-04-10T10:38:23.065Z</time>
      </trkpt>
      <trkpt lat="42.14916" lon="22.02749">
        <ele>704.865047</ele>
        <time>2022-04-10T10:38:24.080Z</time>
      </trkpt>
      <trkpt lat="42.14913" lon="22.02736">
        <ele>704.298256</ele>
        <time>2022-04-10T10:38:25.066Z</time>
      </trkpt>
      <trkpt lat="42.1491" lon="22.02724">
        <ele>703.747424</ele>
        <time>2022-04-10T10:38:26.072Z</time>
      </trkpt>
      <trkpt lat="42.14907" lon="22.02711">
        <ele>703.210838</ele>
        <time>2022-04-10T10:38:27.065Z</time>
      </trkpt>
      <trkpt lat="42.14904" lon="22.02699">
        <ele>702.694023</ele>
        <time>2022-04-10T10:38:28.084Z</time>
      </trkpt>
      <trkpt lat="42.14902" lon="22.02688">
        <ele>702.182902</ele>
        <time>2022-04-10T10:38:29.062Z</time>
      </trkpt>
      <trkpt lat="42.14899" lon="22.02676">
        <ele>701.678092</ele>
        <time>2022-04-10T10:38:30.061Z</time>
      </trkpt>
      <trkpt lat="42.14895" lon="22.02665">
        <ele>701.159641</ele>
        <time>2022-04-10T10:38:31.074Z</time>
      </trkpt>
      <trkpt lat="42.14892" lon="22.02653">
        <ele>700.647017</ele>
        <time>2022-04-10T10:38:32.059Z</time>
      </trkpt>
      <trkpt lat="42.14886" lon="22.0263">
        <ele>699.646989</ele>
        <time>2022-04-10T10:38:34.059Z</time>
      </trkpt>
      <trkpt lat="42.14883" lon="22.02619">
        <ele>699.19618</ele>
        <time>2022-04-10T10:38:35.078Z</time>
      </trkpt>
      <trkpt lat="42.1488" lon="22.02607">
        <ele>698.884781</ele>
        <time>2022-04-10T10:38:36.057Z</time>
      </trkpt>
      <trkpt lat="42.14877" lon="22.02595">
        <ele>698.561632</ele>
        <time>2022-04-10T10:38:37.057Z</time>
      </trkpt>
      <trkpt lat="42.14874" lon="22.02582">
        <ele>698.235039</ele>
        <time>2022-04-10T10:38:38.049Z</time>
      </trkpt>
      <trkpt lat="42.1487" lon="22.0257">
        <ele>697.906179</ele>
        <time>2022-04-10T10:38:39.058Z</time>
      </trkpt>
      <trkpt lat="42.14867" lon="22.02557">
        <ele>697.578315</ele>
        <time>2022-04-10T10:38:40.071Z</time>
      </trkpt>
      <trkpt lat="42.14865" lon="22.02545">
        <ele>697.254458</ele>
        <time>2022-04-10T10:38:41.051Z</time>
      </trkpt>
      <trkpt lat="42.14862" lon="22.02532">
        <ele>696.92343</ele>
        <time>2022-04-10T10:38:42.075Z</time>
      </trkpt>
      <trkpt lat="42.14859" lon="22.0252">
        <ele>696.600005</ele>
        <time>2022-04-10T10:38:43.097Z</time>
      </trkpt>
      <trkpt lat="42.14856" lon="22.02507">
        <ele>696.284705</ele>
        <time>2022-04-10T10:38:44.046Z</time>
      </trkpt>
      <trkpt lat="42.14854" lon="22.02495">
        <ele>695.965621</ele>
        <time>2022-04-10T10:38:45.053Z</time>
      </trkpt>
      <trkpt lat="42.14851" lon="22.02483">
        <ele>695.648376</ele>
        <time>2022-04-10T10:38:46.053Z</time>
      </trkpt>
      <trkpt lat="42.14848" lon="22.02471">
        <ele>695.335009</ele>
        <time>2022-04-10T10:38:47.062Z</time>
      </trkpt>
      <trkpt lat="42.14846" lon="22.02459">
        <ele>695.02911</ele>
        <time>2022-04-10T10:38:48.047Z</time>
      </trkpt>
      <trkpt lat="42.14842" lon="22.02436">
        <ele>694.440692</ele>
        <time>2022-04-10T10:38:50.063Z</time>
      </trkpt>
      <trkpt lat="42.14838" lon="22.02414">
        <ele>693.881976</ele>
        <time>2022-04-10T10:38:52.049Z</time>
      </trkpt>
      <trkpt lat="42.14835" lon="22.02392">
        <ele>693.329185</ele>
        <time>2022-04-10T10:38:54.070Z</time>
      </trkpt>
      <trkpt lat="42.14832" lon="22.0237">
        <ele>693.195316</ele>
        <time>2022-04-10T10:38:56.086Z</time>
      </trkpt>
      <trkpt lat="42.14829" lon="22.02349">
        <ele>693.124423</ele>
        <time>2022-04-10T10:38:58.059Z</time>
      </trkpt>
      <trkpt lat="42.14827" lon="22.02329">
        <ele>693.056889</ele>
        <time>2022-04-10T10:39:00.058Z</time>
      </trkpt>
      <trkpt lat="42.14825" lon="22.02311">
        <ele>692.993368</ele>
        <time>2022-04-10T10:39:02.064Z</time>
      </trkpt>
      <trkpt lat="42.14822" lon="22.02292">
        <ele>692.93116</ele>
        <time>2022-04-10T10:39:04.057Z</time>
      </trkpt>
      <trkpt lat="42.1482" lon="22.02274">
        <ele>692.870884</ele>
        <time>2022-04-10T10:39:06.064Z</time>
      </trkpt>
      <trkpt lat="42.14818" lon="22.02257">
        <ele>692.812715</ele>
        <time>2022-04-10T10:39:08.083Z</time>
      </trkpt>
      <trkpt lat="42.14817" lon="22.0224">
        <ele>692.756371</ele>
        <time>2022-04-10T10:39:10.057Z</time>
      </trkpt>
      <trkpt lat="42.14815" lon="22.02224">
        <ele>692.702343</ele>
        <time>2022-04-10T10:39:12.052Z</time>
      </trkpt>
      <trkpt lat="42.14813" lon="22.02209">
        <ele>692.649444</ele>
        <time>2022-04-10T10:39:14.080Z</time>
      </trkpt>
      <trkpt lat="42.14811" lon="22.02193">
        <ele>692.598588</ele>
        <time>2022-04-10T10:39:16.048Z</time>
      </trkpt>
      <trkpt lat="42.1481" lon="22.02179">
        <ele>692.550291</ele>
        <time>2022-04-10T10:39:18.080Z</time>
      </trkpt>
      <trkpt lat="42.14808" lon="22.02165">
        <ele>692.501589</ele>
        <time>2022-04-10T10:39:20.088Z</time>
      </trkpt>
      <trkpt lat="42.14806" lon="22.02151">
        <ele>692.454352</ele>
        <time>2022-04-10T10:39:22.046Z</time>
      </trkpt>
      <trkpt lat="42.14804" lon="22.02137">
        <ele>692.396839</ele>
        <time>2022-04-10T10:39:24.054Z</time>
      </trkpt>
      <trkpt lat="42.14803" lon="22.02125">
        <ele>692.342903</ele>
        <time>2022-04-10T10:39:26.100Z</time>
      </trkpt>
      <trkpt lat="42.148" lon="22.02107">
        <ele>692.267762</ele>
        <time>2022-04-10T10:39:29.066Z</time>
      </trkpt>
      <trkpt lat="42.14799" lon="22.0209">
        <ele>692.194564</ele>
        <time>2022-04-10T10:39:32.067Z</time>
      </trkpt>
      <trkpt lat="42.14797" lon="22.02073">
        <ele>692.1239</ele>
        <time>2022-04-10T10:39:35.052Z</time>
      </trkpt>
      <trkpt lat="42.14795" lon="22.02058">
        <ele>692.056974</ele>
        <time>2022-04-10T10:39:38.059Z</time>
      </trkpt>
      <trkpt lat="42.14794" lon="22.02042">
        <ele>691.990558</ele>
        <time>2022-04-10T10:39:41.092Z</time>
      </trkpt>
      <trkpt lat="42.14792" lon="22.02027">
        <ele>691.923723</ele>
        <time>2022-04-10T10:39:44.055Z</time>
      </trkpt>
      <trkpt lat="42.1479" lon="22.0201">
        <ele>691.85377</ele>
        <time>2022-04-10T10:39:47.065Z</time>
      </trkpt>
      <trkpt lat="42.14788" lon="22.01994">
        <ele>691.785591</ele>
        <time>2022-04-10T10:39:50.050Z</time>
      </trkpt>
      <trkpt lat="42.14786" lon="22.01978">
        <ele>691.715137</ele>
        <time>2022-04-10T10:39:53.051Z</time>
      </trkpt>
      <trkpt lat="42.14784" lon="22.01961">
        <ele>691.644031</ele>
        <time>2022-04-10T10:39:56.063Z</time>
      </trkpt>
      <trkpt lat="42.14783" lon="22.01945">
        <ele>691.573847</ele>
        <time>2022-04-10T10:39:59.062Z</time>
      </trkpt>
      <trkpt lat="42.14781" lon="22.01929">
        <ele>691.504323</ele>
        <time>2022-04-10T10:40:02.083Z</time>
      </trkpt>
      <trkpt lat="42.14778" lon="22.01912">
        <ele>691.433769</ele>
        <time>2022-04-10T10:40:05.052Z</time>
      </trkpt>
      <trkpt lat="42.14776" lon="22.01895">
        <ele>691.366252</ele>
        <time>2022-04-10T10:40:08.096Z</time>
      </trkpt>
      <trkpt lat="42.14774" lon="22.01878">
        <ele>691.300746</ele>
        <time>2022-04-10T10:40:11.064Z</time>
      </trkpt>
      <trkpt lat="42.14772" lon="22.01861">
        <ele>691.235752</ele>
        <time>2022-04-10T10:40:14.041Z</time>
      </trkpt>
      <trkpt lat="42.1477" lon="22.01844">
        <ele>691.171852</ele>
        <time>2022-04-10T10:40:17.062Z</time>
      </trkpt>
      <trkpt lat="42.14768" lon="22.01827">
        <ele>691.109968</ele>
        <time>2022-04-10T10:40:20.084Z</time>
      </trkpt>
      <trkpt lat="42.14767" lon="22.01811">
        <ele>691.047073</ele>
        <time>2022-04-10T10:40:23.064Z</time>
      </trkpt>
      <trkpt lat="42.14765" lon="22.01794">
        <ele>690.982687</ele>
        <time>2022-04-10T10:40:26.046Z</time>
      </trkpt>
      <trkpt lat="42.14764" lon="22.01776">
        <ele>690.91653</ele>
        <time>2022-04-10T10:40:29.098Z</time>
      </trkpt>
      <trkpt lat="42.14763" lon="22.01758">
        <ele>690.84933</ele>
        <time>2022-04-10T10:40:32.095Z</time>
      </trkpt>
      <trkpt lat="42.14762" lon="22.01746">
        <ele>690.803297</ele>
        <time>2022-04-10T10:40:34.061Z</time>
      </trkpt>
      <trkpt lat="42.14761" lon="22.01734">
        <ele>690.756432</ele>
        <time>2022-04-10T10:40:36.062Z</time>
      </trkpt>
      <trkpt lat="42.14759" lon="22.01721">
        <ele>690.70797</ele>
        <time>2022-04-10T10:40:38.104Z</time>
      </trkpt>
      <trkpt lat="42.14758" lon="22.01708">
        <ele>690.658691</ele>
        <time>2022-04-10T10:40:40.069Z</time>
      </trkpt>
      <trkpt lat="42.14756" lon="22.01695">
        <ele>690.609524</ele>
        <time>2022-04-10T10:40:42.060Z</time>
      </trkpt>
      <trkpt lat="42.14755" lon="22.01682">
        <ele>690.559648</ele>
        <time>2022-04-10T10:40:44.101Z</time>
      </trkpt>
      <trkpt lat="42.14754" lon="22.01667">
        <ele>690.484199</ele>
        <time>2022-04-10T10:40:46.063Z</time>
      </trkpt>
      <trkpt lat="42.14752" lon="22.01652">
        <ele>690.343147</ele>
        <time>2022-04-10T10:40:48.057Z</time>
      </trkpt>
      <trkpt lat="42.14751" lon="22.01637">
        <ele>690.199679</ele>
        <time>2022-04-10T10:40:50.061Z</time>
      </trkpt>
      <trkpt lat="42.14749" lon="22.01622">
        <ele>690.051447</ele>
        <time>2022-04-10T10:40:52.057Z</time>
      </trkpt>
      <trkpt lat="42.14748" lon="22.01606">
        <ele>689.897138</ele>
        <time>2022-04-10T10:40:54.079Z</time>
      </trkpt>
      <trkpt lat="42.14746" lon="22.01589">
        <ele>689.73431</ele>
        <time>2022-04-10T10:40:56.053Z</time>
      </trkpt>
      <trkpt lat="42.14743" lon="22.01573">
        <ele>689.570133</ele>
        <time>2022-04-10T10:40:58.050Z</time>
      </trkpt>
      <trkpt lat="42.1474" lon="22.01555">
        <ele>689.396052</ele>
        <time>2022-04-10T10:41:00.106Z</time>
      </trkpt>
      <trkpt lat="42.14738" lon="22.01536">
        <ele>689.211127</ele>
        <time>2022-04-10T10:41:02.048Z</time>
      </trkpt>
      <trkpt lat="42.14734" lon="22.01516">
        <ele>689.019486</ele>
        <time>2022-04-10T10:41:04.058Z</time>
      </trkpt>
      <trkpt lat="42.14731" lon="22.01496">
        <ele>688.824472</ele>
        <time>2022-04-10T10:41:06.094Z</time>
      </trkpt>
      <trkpt lat="42.14729" lon="22.01477">
        <ele>688.632282</ele>
        <time>2022-04-10T10:41:08.060Z</time>
      </trkpt>
      <trkpt lat="42.14726" lon="22.01457">
        <ele>688.442215</ele>
        <time>2022-04-10T10:41:10.064Z</time>
      </trkpt>
      <trkpt lat="42.14724" lon="22.01439">
        <ele>688.26343</ele>
        <time>2022-04-10T10:41:12.051Z</time>
      </trkpt>
      <trkpt lat="42.14721" lon="22.0142">
        <ele>687.700035</ele>
        <time>2022-04-10T10:41:14.046Z</time>
      </trkpt>
      <trkpt lat="42.14719" lon="22.014">
        <ele>686.838717</ele>
        <time>2022-04-10T10:41:16.088Z</time>
      </trkpt>
      <trkpt lat="42.14716" lon="22.01381">
        <ele>685.983908</ele>
        <time>2022-04-10T10:41:18.087Z</time>
      </trkpt>
      <trkpt lat="42.14713" lon="22.0136">
        <ele>685.086842</ele>
        <time>2022-04-10T10:41:20.054Z</time>
      </trkpt>
      <trkpt lat="42.14711" lon="22.01339">
        <ele>684.152899</ele>
        <time>2022-04-10T10:41:22.047Z</time>
      </trkpt>
      <trkpt lat="42.14708" lon="22.01317">
        <ele>683.221921</ele>
        <time>2022-04-10T10:41:24.067Z</time>
      </trkpt>
      <trkpt lat="42.14705" lon="22.01296">
        <ele>682.289</ele>
        <time>2022-04-10T10:41:26.067Z</time>
      </trkpt>
      <trkpt lat="42.14703" lon="22.01274">
        <ele>681.354699</ele>
        <time>2022-04-10T10:41:28.050Z</time>
      </trkpt>
      <trkpt lat="42.14701" lon="22.01252">
        <ele>680.391678</ele>
        <time>2022-04-10T10:41:30.071Z</time>
      </trkpt>
      <trkpt lat="42.14699" lon="22.0123">
        <ele>679.416591</ele>
        <time>2022-04-10T10:41:32.053Z</time>
      </trkpt>
      <trkpt lat="42.14696" lon="22.01208">
        <ele>678.459299</ele>
        <time>2022-04-10T10:41:34.069Z</time>
      </trkpt>
      <trkpt lat="42.14694" lon="22.01188">
        <ele>677.685177</ele>
        <time>2022-04-10T10:41:36.079Z</time>
      </trkpt>
      <trkpt lat="42.14692" lon="22.01168">
        <ele>677.204259</ele>
        <time>2022-04-10T10:41:38.075Z</time>
      </trkpt>
      <trkpt lat="42.1469" lon="22.01148">
        <ele>676.708923</ele>
        <time>2022-04-10T10:41:40.082Z</time>
      </trkpt>
      <trkpt lat="42.14688" lon="22.01127">
        <ele>676.202331</ele>
        <time>2022-04-10T10:41:42.045Z</time>
      </trkpt>
      <trkpt lat="42.14686" lon="22.01106">
        <ele>675.677874</ele>
        <time>2022-04-10T10:41:44.054Z</time>
      </trkpt>
      <trkpt lat="42.14683" lon="22.01085">
        <ele>675.158953</ele>
        <time>2022-04-10T10:41:46.117Z</time>
      </trkpt>
      <trkpt lat="42.1468" lon="22.01064">
        <ele>674.638211</ele>
        <time>2022-04-10T10:41:48.067Z</time>
      </trkpt>
      <trkpt lat="42.14678" lon="22.01043">
        <ele>674.123316</ele>
        <time>2022-04-10T10:41:50.054Z</time>
      </trkpt>
      <trkpt lat="42.14675" lon="22.01021">
        <ele>673.597829</ele>
        <time>2022-04-10T10:41:52.052Z</time>
      </trkpt>
      <trkpt lat="42.14671" lon="22.01">
        <ele>673.066304</ele>
        <time>2022-04-10T10:41:54.072Z</time>
      </trkpt>
      <trkpt lat="42.14669" lon="22.00978">
        <ele>672.523648</ele>
        <time>2022-04-10T10:41:56.073Z</time>
      </trkpt>
      <trkpt lat="42.14667" lon="22.00957">
        <ele>672.008752</ele>
        <time>2022-04-10T10:41:58.062Z</time>
      </trkpt>
      <trkpt lat="42.14664" lon="22.00935">
        <ele>671.572376</ele>
        <time>2022-04-10T10:42:00.054Z</time>
      </trkpt>
      <trkpt lat="42.14662" lon="22.00914">
        <ele>671.163158</ele>
        <time>2022-04-10T10:42:02.053Z</time>
      </trkpt>
      <trkpt lat="42.14659" lon="22.00891">
        <ele>670.72116</ele>
        <time>2022-04-10T10:42:04.059Z</time>
      </trkpt>
      <trkpt lat="42.14656" lon="22.00867">
        <ele>670.263741</ele>
        <time>2022-04-10T10:42:06.078Z</time>
      </trkpt>
      <trkpt lat="42.14654" lon="22.00843">
        <ele>669.805967</ele>
        <time>2022-04-10T10:42:08.044Z</time>
      </trkpt>
      <trkpt lat="42.14651" lon="22.0082">
        <ele>669.345942</ele>
        <time>2022-04-10T10:42:10.069Z</time>
      </trkpt>
      <trkpt lat="42.1465" lon="22.00807">
        <ele>669.112311</ele>
        <time>2022-04-10T10:42:11.056Z</time>
      </trkpt>
      <trkpt lat="42.14648" lon="22.00795">
        <ele>668.877208</ele>
        <time>2022-04-10T10:42:12.070Z</time>
      </trkpt>
      <trkpt lat="42.14647" lon="22.00783">
        <ele>668.643986</ele>
        <time>2022-04-10T10:42:13.063Z</time>
      </trkpt>
      <trkpt lat="42.14645" lon="22.00759">
        <ele>668.184678</ele>
        <time>2022-04-10T10:42:15.065Z</time>
      </trkpt>
      <trkpt lat="42.14643" lon="22.00747">
        <ele>667.953338</ele>
        <time>2022-04-10T10:42:16.061Z</time>
      </trkpt>
      <trkpt lat="42.1464" lon="22.00724">
        <ele>667.501941</ele>
        <time>2022-04-10T10:42:18.058Z</time>
      </trkpt>
      <trkpt lat="42.14638" lon="22.007">
        <ele>666.912262</ele>
        <time>2022-04-10T10:42:20.045Z</time>
      </trkpt>
      <trkpt lat="42.14635" lon="22.00677">
        <ele>666.202481</ele>
        <time>2022-04-10T10:42:22.065Z</time>
      </trkpt>
      <trkpt lat="42.14632" lon="22.00653">
        <ele>665.483793</ele>
        <time>2022-04-10T10:42:24.069Z</time>
      </trkpt>
      <trkpt lat="42.14629" lon="22.0063">
        <ele>664.77698</ele>
        <time>2022-04-10T10:42:26.062Z</time>
      </trkpt>
      <trkpt lat="42.14626" lon="22.00607">
        <ele>664.075433</ele>
        <time>2022-04-10T10:42:28.054Z</time>
      </trkpt>
      <trkpt lat="42.14624" lon="22.00585">
        <ele>663.410817</ele>
        <time>2022-04-10T10:42:30.067Z</time>
      </trkpt>
      <trkpt lat="42.14622" lon="22.00564">
        <ele>662.765203</ele>
        <time>2022-04-10T10:42:32.055Z</time>
      </trkpt>
      <trkpt lat="42.1462" lon="22.00543">
        <ele>662.111593</ele>
        <time>2022-04-10T10:42:34.064Z</time>
      </trkpt>
      <trkpt lat="42.14618" lon="22.00521">
        <ele>661.46349</ele>
        <time>2022-04-10T10:42:36.066Z</time>
      </trkpt>
      <trkpt lat="42.14616" lon="22.005">
        <ele>660.830313</ele>
        <time>2022-04-10T10:42:38.044Z</time>
      </trkpt>
      <trkpt lat="42.14615" lon="22.0048">
        <ele>660.214255</ele>
        <time>2022-04-10T10:42:40.059Z</time>
      </trkpt>
      <trkpt lat="42.14614" lon="22.00459">
        <ele>659.735014</ele>
        <time>2022-04-10T10:42:42.083Z</time>
      </trkpt>
      <trkpt lat="42.14614" lon="22.00438">
        <ele>659.342205</ele>
        <time>2022-04-10T10:42:44.057Z</time>
      </trkpt>
      <trkpt lat="42.14615" lon="22.00418">
        <ele>658.954459</ele>
        <time>2022-04-10T10:42:46.052Z</time>
      </trkpt>
      <trkpt lat="42.14616" lon="22.00398">
        <ele>658.569762</ele>
        <time>2022-04-10T10:42:48.074Z</time>
      </trkpt>
      <trkpt lat="42.14618" lon="22.00379">
        <ele>658.194322</ele>
        <time>2022-04-10T10:42:50.049Z</time>
      </trkpt>
      <trkpt lat="42.14622" lon="22.0036">
        <ele>657.820413</ele>
        <time>2022-04-10T10:42:52.110Z</time>
      </trkpt>
      <trkpt lat="42.14627" lon="22.00341">
        <ele>657.452952</ele>
        <time>2022-04-10T10:42:54.072Z</time>
      </trkpt>
      <trkpt lat="42.14632" lon="22.00324">
        <ele>657.085013</ele>
        <time>2022-04-10T10:42:56.050Z</time>
      </trkpt>
      <trkpt lat="42.14639" lon="22.00306">
        <ele>656.717521</ele>
        <time>2022-04-10T10:42:58.054Z</time>
      </trkpt>
      <trkpt lat="42.14646" lon="22.0029">
        <ele>656.355424</ele>
        <time>2022-04-10T10:43:00.061Z</time>
      </trkpt>
      <trkpt lat="42.14654" lon="22.00274">
        <ele>655.987775</ele>
        <time>2022-04-10T10:43:02.071Z</time>
      </trkpt>
      <trkpt lat="42.14663" lon="22.0026">
        <ele>655.622646</ele>
        <time>2022-04-10T10:43:04.057Z</time>
      </trkpt>
      <trkpt lat="42.14673" lon="22.00246">
        <ele>655.284528</ele>
        <time>2022-04-10T10:43:06.067Z</time>
      </trkpt>
      <trkpt lat="42.14682" lon="22.00233">
        <ele>654.995481</ele>
        <time>2022-04-10T10:43:08.065Z</time>
      </trkpt>
      <trkpt lat="42.14691" lon="22.00221">
        <ele>654.714035</ele>
        <time>2022-04-10T10:43:10.090Z</time>
      </trkpt>
      <trkpt lat="42.14701" lon="22.0021">
        <ele>654.432762</ele>
        <time>2022-04-10T10:43:12.062Z</time>
      </trkpt>
      <trkpt lat="42.14712" lon="22.00199">
        <ele>654.153377</ele>
        <time>2022-04-10T10:43:14.059Z</time>
      </trkpt>
      <trkpt lat="42.14722" lon="22.00189">
        <ele>653.867834</ele>
        <time>2022-04-10T10:43:16.043Z</time>
      </trkpt>
      <trkpt lat="42.14733" lon="22.00179">
        <ele>653.578984</ele>
        <time>2022-04-10T10:43:18.054Z</time>
      </trkpt>
      <trkpt lat="42.14745" lon="22.00169">
        <ele>653.284625</ele>
        <time>2022-04-10T10:43:20.077Z</time>
      </trkpt>
      <trkpt lat="42.14757" lon="22.00159">
        <ele>652.98023</ele>
        <time>2022-04-10T10:43:22.105Z</time>
      </trkpt>
      <trkpt lat="42.14768" lon="22.00149">
        <ele>652.677894</ele>
        <time>2022-04-10T10:43:24.086Z</time>
      </trkpt>
      <trkpt lat="42.1478" lon="22.00138">
        <ele>652.38096</ele>
        <time>2022-04-10T10:43:26.077Z</time>
      </trkpt>
      <trkpt lat="42.1479" lon="22.00128">
        <ele>652.103645</ele>
        <time>2022-04-10T10:43:28.064Z</time>
      </trkpt>
      <trkpt lat="42.148" lon="22.00117">
        <ele>651.828424</ele>
        <time>2022-04-10T10:43:30.064Z</time>
      </trkpt>
      <trkpt lat="42.14809" lon="22.00107">
        <ele>651.566129</ele>
        <time>2022-04-10T10:43:32.065Z</time>
      </trkpt>
      <trkpt lat="42.14818" lon="22.00096">
        <ele>651.319727</ele>
        <time>2022-04-10T10:43:34.052Z</time>
      </trkpt>
      <trkpt lat="42.14826" lon="22.00086">
        <ele>651.080884</ele>
        <time>2022-04-10T10:43:36.059Z</time>
      </trkpt>
      <trkpt lat="42.14834" lon="22.00075">
        <ele>650.847009</ele>
        <time>2022-04-10T10:43:38.088Z</time>
      </trkpt>
      <trkpt lat="42.14842" lon="22.00064">
        <ele>650.610395</ele>
        <time>2022-04-10T10:43:40.062Z</time>
      </trkpt>
      <trkpt lat="42.14848" lon="22.00053">
        <ele>650.394195</ele>
        <time>2022-04-10T10:43:42.063Z</time>
      </trkpt>
      <trkpt lat="42.14854" lon="22.00041">
        <ele>650.182413</ele>
        <time>2022-04-10T10:43:44.110Z</time>
      </trkpt>
      <trkpt lat="42.14858" lon="22.00031">
        <ele>649.99489</ele>
        <time>2022-04-10T10:43:46.045Z</time>
      </trkpt>
      <trkpt lat="42.14864" lon="22.00018">
        <ele>649.763636</ele>
        <time>2022-04-10T10:43:49.071Z</time>
      </trkpt>
      <trkpt lat="42.14873" lon="22.00007">
        <ele>649.516899</ele>
        <time>2022-04-10T10:43:53.054Z</time>
      </trkpt>
      <trkpt lat="42.14877" lon="21.99982">
        <ele>649.117125</ele>
        <time>2022-04-10T11:16:24.086Z</time>
      </trkpt>
      <trkpt lat="42.1488" lon="21.9997">
        <ele>648.924705</ele>
        <time>2022-04-10T11:16:26.064Z</time>
      </trkpt>
      <trkpt lat="42.14883" lon="21.99957">
        <ele>648.712034</ele>
        <time>2022-04-10T11:16:28.054Z</time>
      </trkpt>
      <trkpt lat="42.14885" lon="21.99942">
        <ele>648.474488</ele>
        <time>2022-04-10T11:16:30.095Z</time>
      </trkpt>
      <trkpt lat="42.14887" lon="21.99925">
        <ele>648.219838</ele>
        <time>2022-04-10T11:16:32.067Z</time>
      </trkpt>
      <trkpt lat="42.14889" lon="21.99908">
        <ele>647.947206</ele>
        <time>2022-04-10T11:16:34.151Z</time>
      </trkpt>
      <trkpt lat="42.14889" lon="21.99891">
        <ele>647.622766</ele>
        <time>2022-04-10T11:16:36.050Z</time>
      </trkpt>
      <trkpt lat="42.1489" lon="21.99876">
        <ele>646.864617</ele>
        <time>2022-04-10T11:16:38.072Z</time>
      </trkpt>
      <trkpt lat="42.1489" lon="21.9986">
        <ele>646.084839</ele>
        <time>2022-04-10T11:16:40.083Z</time>
      </trkpt>
      <trkpt lat="42.1489" lon="21.99843">
        <ele>645.235474</ele>
        <time>2022-04-10T11:16:42.079Z</time>
      </trkpt>
      <trkpt lat="42.14888" lon="21.99825">
        <ele>644.334991</ele>
        <time>2022-04-10T11:16:44.057Z</time>
      </trkpt>
      <trkpt lat="42.14886" lon="21.99807">
        <ele>643.478238</ele>
        <time>2022-04-10T11:16:46.080Z</time>
      </trkpt>
      <trkpt lat="42.14884" lon="21.99791">
        <ele>642.678942</ele>
        <time>2022-04-10T11:16:48.084Z</time>
      </trkpt>
      <trkpt lat="42.14881" lon="21.99777">
        <ele>641.932929</ele>
        <time>2022-04-10T11:16:50.103Z</time>
      </trkpt>
      <trkpt lat="42.14877" lon="21.99763">
        <ele>641.206207</ele>
        <time>2022-04-10T11:16:52.060Z</time>
      </trkpt>
      <trkpt lat="42.14873" lon="21.99748">
        <ele>640.465811</ele>
        <time>2022-04-10T11:16:54.065Z</time>
      </trkpt>
      <trkpt lat="42.14869" lon="21.99735">
        <ele>639.740711</ele>
        <time>2022-04-10T11:16:56.071Z</time>
      </trkpt>
      <trkpt lat="42.14864" lon="21.99721">
        <ele>638.981449</ele>
        <time>2022-04-10T11:16:58.079Z</time>
      </trkpt>
      <trkpt lat="42.14859" lon="21.99707">
        <ele>638.209914</ele>
        <time>2022-04-10T11:17:00.069Z</time>
      </trkpt>
      <trkpt lat="42.14852" lon="21.99694">
        <ele>637.420472</ele>
        <time>2022-04-10T11:17:02.098Z</time>
      </trkpt>
      <trkpt lat="42.14844" lon="21.9968">
        <ele>636.573431</ele>
        <time>2022-04-10T11:17:04.068Z</time>
      </trkpt>
      <trkpt lat="42.14836" lon="21.99666">
        <ele>635.775433</ele>
        <time>2022-04-10T11:17:06.058Z</time>
      </trkpt>
      <trkpt lat="42.14826" lon="21.99651">
        <ele>635.467037</ele>
        <time>2022-04-10T11:17:08.147Z</time>
      </trkpt>
      <trkpt lat="42.14816" lon="21.99637">
        <ele>635.150295</ele>
        <time>2022-04-10T11:17:10.077Z</time>
      </trkpt>
      <trkpt lat="42.14806" lon="21.99625">
        <ele>634.844299</ele>
        <time>2022-04-10T11:17:12.049Z</time>
      </trkpt>
      <trkpt lat="42.14795" lon="21.99614">
        <ele>634.555643</ele>
        <time>2022-04-10T11:17:14.060Z</time>
      </trkpt>
      <trkpt lat="42.14784" lon="21.99604">
        <ele>634.266893</ele>
        <time>2022-04-10T11:17:16.074Z</time>
      </trkpt>
      <trkpt lat="42.14773" lon="21.99595">
        <ele>633.990581</ele>
        <time>2022-04-10T11:17:18.061Z</time>
      </trkpt>
      <trkpt lat="42.14763" lon="21.99587">
        <ele>633.722017</ele>
        <time>2022-04-10T11:17:20.052Z</time>
      </trkpt>
      <trkpt lat="42.14752" lon="21.9958">
        <ele>633.456597</ele>
        <time>2022-04-10T11:17:22.077Z</time>
      </trkpt>
      <trkpt lat="42.1474" lon="21.99574">
        <ele>633.186191</ele>
        <time>2022-04-10T11:17:24.067Z</time>
      </trkpt>
      <trkpt lat="42.14728" lon="21.99569">
        <ele>632.916</ele>
        <time>2022-04-10T11:17:26.071Z</time>
      </trkpt>
      <trkpt lat="42.14716" lon="21.99564">
        <ele>632.644027</ele>
        <time>2022-04-10T11:17:28.089Z</time>
      </trkpt>
      <trkpt lat="42.14704" lon="21.99559">
        <ele>632.363242</ele>
        <time>2022-04-10T11:17:30.056Z</time>
      </trkpt>
      <trkpt lat="42.14691" lon="21.99553">
        <ele>632.080168</ele>
        <time>2022-04-10T11:17:32.082Z</time>
      </trkpt>
      <trkpt lat="42.14679" lon="21.99549">
        <ele>631.756173</ele>
        <time>2022-04-10T11:17:34.072Z</time>
      </trkpt>
      <trkpt lat="42.14667" lon="21.99544">
        <ele>631.375187</ele>
        <time>2022-04-10T11:17:36.119Z</time>
      </trkpt>
      <trkpt lat="42.14656" lon="21.99538">
        <ele>630.991251</ele>
        <time>2022-04-10T11:17:38.066Z</time>
      </trkpt>
      <trkpt lat="42.14643" lon="21.99533">
        <ele>630.5934</ele>
        <time>2022-04-10T11:17:40.059Z</time>
      </trkpt>
      <trkpt lat="42.14631" lon="21.99527">
        <ele>630.175683</ele>
        <time>2022-04-10T11:17:42.102Z</time>
      </trkpt>
      <trkpt lat="42.14618" lon="21.9952">
        <ele>629.749419</ele>
        <time>2022-04-10T11:17:44.055Z</time>
      </trkpt>
      <trkpt lat="42.14605" lon="21.99512">
        <ele>629.312147</ele>
        <time>2022-04-10T11:17:46.096Z</time>
      </trkpt>
      <trkpt lat="42.14593" lon="21.99502">
        <ele>628.86032</ele>
        <time>2022-04-10T11:17:48.078Z</time>
      </trkpt>
      <trkpt lat="42.14581" lon="21.99492">
        <ele>628.423555</ele>
        <time>2022-04-10T11:17:50.058Z</time>
      </trkpt>
      <trkpt lat="42.1457" lon="21.9948">
        <ele>628.002044</ele>
        <time>2022-04-10T11:17:52.069Z</time>
      </trkpt>
      <trkpt lat="42.14561" lon="21.99468">
        <ele>627.586354</ele>
        <time>2022-04-10T11:17:54.081Z</time>
      </trkpt>
      <trkpt lat="42.14551" lon="21.99455">
        <ele>627.171346</ele>
        <time>2022-04-10T11:17:56.080Z</time>
      </trkpt>
      <trkpt lat="42.14542" lon="21.9944">
        <ele>626.727776</ele>
        <time>2022-04-10T11:17:58.074Z</time>
      </trkpt>
      <trkpt lat="42.14532" lon="21.99426">
        <ele>626.233751</ele>
        <time>2022-04-10T11:18:00.078Z</time>
      </trkpt>
      <trkpt lat="42.14524" lon="21.99412">
        <ele>625.2378</ele>
        <time>2022-04-10T11:18:02.062Z</time>
      </trkpt>
      <trkpt lat="42.14516" lon="21.99397">
        <ele>624.23462</ele>
        <time>2022-04-10T11:18:04.126Z</time>
      </trkpt>
      <trkpt lat="42.14508" lon="21.99381">
        <ele>623.172593</ele>
        <time>2022-04-10T11:18:06.076Z</time>
      </trkpt>
      <trkpt lat="42.14501" lon="21.99365">
        <ele>622.108797</ele>
        <time>2022-04-10T11:18:08.085Z</time>
      </trkpt>
      <trkpt lat="42.14495" lon="21.99349">
        <ele>621.123132</ele>
        <time>2022-04-10T11:18:10.075Z</time>
      </trkpt>
      <trkpt lat="42.14489" lon="21.99333">
        <ele>620.139805</ele>
        <time>2022-04-10T11:18:12.069Z</time>
      </trkpt>
      <trkpt lat="42.14485" lon="21.99315">
        <ele>619.106931</ele>
        <time>2022-04-10T11:18:14.086Z</time>
      </trkpt>
      <trkpt lat="42.14483" lon="21.99296">
        <ele>618.024497</ele>
        <time>2022-04-10T11:18:16.097Z</time>
      </trkpt>
      <trkpt lat="42.1448" lon="21.99276">
        <ele>616.922704</ele>
        <time>2022-04-10T11:18:18.056Z</time>
      </trkpt>
      <trkpt lat="42.14478" lon="21.99256">
        <ele>615.816581</ele>
        <time>2022-04-10T11:18:20.225Z</time>
      </trkpt>
      <trkpt lat="42.14477" lon="21.99237">
        <ele>614.729398</ele>
        <time>2022-04-10T11:18:22.068Z</time>
      </trkpt>
      <trkpt lat="42.14478" lon="21.99218">
        <ele>613.710626</ele>
        <time>2022-04-10T11:18:24.063Z</time>
      </trkpt>
      <trkpt lat="42.14479" lon="21.99201">
        <ele>612.817723</ele>
        <time>2022-04-10T11:18:26.094Z</time>
      </trkpt>
      <trkpt lat="42.14481" lon="21.99183">
        <ele>612.238362</ele>
        <time>2022-04-10T11:18:28.064Z</time>
      </trkpt>
      <trkpt lat="42.14483" lon="21.99165">
        <ele>611.659457</ele>
        <time>2022-04-10T11:18:30.081Z</time>
      </trkpt>
      <trkpt lat="42.14486" lon="21.99147">
        <ele>611.072413</ele>
        <time>2022-04-10T11:18:32.071Z</time>
      </trkpt>
      <trkpt lat="42.1449" lon="21.99129">
        <ele>610.466891</ele>
        <time>2022-04-10T11:18:34.081Z</time>
      </trkpt>
      <trkpt lat="42.14493" lon="21.9911">
        <ele>609.836377</ele>
        <time>2022-04-10T11:18:36.057Z</time>
      </trkpt>
      <trkpt lat="42.14498" lon="21.99091">
        <ele>609.204212</ele>
        <time>2022-04-10T11:18:38.055Z</time>
      </trkpt>
      <trkpt lat="42.14503" lon="21.99073">
        <ele>608.574515</ele>
        <time>2022-04-10T11:18:40.066Z</time>
      </trkpt>
      <trkpt lat="42.14509" lon="21.99054">
        <ele>607.93166</ele>
        <time>2022-04-10T11:18:42.068Z</time>
      </trkpt>
      <trkpt lat="42.14516" lon="21.99036">
        <ele>607.281545</ele>
        <time>2022-04-10T11:18:44.045Z</time>
      </trkpt>
      <trkpt lat="42.14523" lon="21.99019">
        <ele>606.649343</ele>
        <time>2022-04-10T11:18:46.075Z</time>
      </trkpt>
      <trkpt lat="42.14531" lon="21.99004">
        <ele>606.053959</ele>
        <time>2022-04-10T11:18:48.055Z</time>
      </trkpt>
      <trkpt lat="42.14538" lon="21.98989">
        <ele>605.492753</ele>
        <time>2022-04-10T11:18:50.065Z</time>
      </trkpt>
      <trkpt lat="42.14545" lon="21.98976">
        <ele>604.955659</ele>
        <time>2022-04-10T11:18:52.078Z</time>
      </trkpt>
      <trkpt lat="42.14554" lon="21.98963">
        <ele>604.385944</ele>
        <time>2022-04-10T11:18:54.077Z</time>
      </trkpt>
      <trkpt lat="42.14562" lon="21.9895">
        <ele>603.817821</ele>
        <time>2022-04-10T11:18:56.070Z</time>
      </trkpt>
      <trkpt lat="42.14571" lon="21.98938">
        <ele>603.220877</ele>
        <time>2022-04-10T11:18:58.055Z</time>
      </trkpt>
      <trkpt lat="42.14581" lon="21.98926">
        <ele>602.633519</ele>
        <time>2022-04-10T11:19:00.085Z</time>
      </trkpt>
      <trkpt lat="42.1459" lon="21.98915">
        <ele>602.076359</ele>
        <time>2022-04-10T11:19:02.060Z</time>
      </trkpt>
      <trkpt lat="42.146" lon="21.98904">
        <ele>601.523574</ele>
        <time>2022-04-10T11:19:04.109Z</time>
      </trkpt>
      <trkpt lat="42.14609" lon="21.98896">
        <ele>601.019289</ele>
        <time>2022-04-10T11:19:06.069Z</time>
      </trkpt>
      <trkpt lat="42.14618" lon="21.98888">
        <ele>600.522461</ele>
        <time>2022-04-10T11:19:08.061Z</time>
      </trkpt>
      <trkpt lat="42.14627" lon="21.9888">
        <ele>600.044054</ele>
        <time>2022-04-10T11:19:10.112Z</time>
      </trkpt>
      <trkpt lat="42.14636" lon="21.98873">
        <ele>599.580344</ele>
        <time>2022-04-10T11:19:12.081Z</time>
      </trkpt>
      <trkpt lat="42.14645" lon="21.98866">
        <ele>599.113155</ele>
        <time>2022-04-10T11:19:14.078Z</time>
      </trkpt>
      <trkpt lat="42.14653" lon="21.98859">
        <ele>598.666248</ele>
        <time>2022-04-10T11:19:16.114Z</time>
      </trkpt>
      <trkpt lat="42.14661" lon="21.98853">
        <ele>598.24733</ele>
        <time>2022-04-10T11:19:18.061Z</time>
      </trkpt>
      <trkpt lat="42.14672" lon="21.98845">
        <ele>597.681337</ele>
        <time>2022-04-10T11:19:21.064Z</time>
      </trkpt>
      <trkpt lat="42.14682" lon="21.98837">
        <ele>597.159958</ele>
        <time>2022-04-10T11:19:24.076Z</time>
      </trkpt>
      <trkpt lat="42.14693" lon="21.9883">
        <ele>597.005477</ele>
        <time>2022-04-10T11:19:27.073Z</time>
      </trkpt>
      <trkpt lat="42.14703" lon="21.98824">
        <ele>596.977351</ele>
        <time>2022-04-10T11:19:30.072Z</time>
      </trkpt>
      <trkpt lat="42.14713" lon="21.98816">
        <ele>596.949285</ele>
        <time>2022-04-10T11:19:33.141Z</time>
      </trkpt>
      <trkpt lat="42.14723" lon="21.98808">
        <ele>596.919324</ele>
        <time>2022-04-10T11:19:36.089Z</time>
      </trkpt>
      <trkpt lat="42.14734" lon="21.988">
        <ele>596.888007</ele>
        <time>2022-04-10T11:19:39.059Z</time>
      </trkpt>
      <trkpt lat="42.14745" lon="21.98791">
        <ele>596.854595</ele>
        <time>2022-04-10T11:19:42.079Z</time>
      </trkpt>
      <trkpt lat="42.14756" lon="21.98782">
        <ele>596.822838</ele>
        <time>2022-04-10T11:19:45.077Z</time>
      </trkpt>
      <trkpt lat="42.14764" lon="21.98776">
        <ele>596.79994</ele>
        <time>2022-04-10T11:19:47.059Z</time>
      </trkpt>
      <trkpt lat="42.14772" lon="21.98769">
        <ele>596.777149</ele>
        <time>2022-04-10T11:19:49.070Z</time>
      </trkpt>
      <trkpt lat="42.14783" lon="21.98761">
        <ele>596.745787</ele>
        <time>2022-04-10T11:19:52.073Z</time>
      </trkpt>
      <trkpt lat="42.14795" lon="21.98754">
        <ele>596.713195</ele>
        <time>2022-04-10T11:19:55.076Z</time>
      </trkpt>
      <trkpt lat="42.14804" lon="21.98744">
        <ele>596.682488</ele>
        <time>2022-04-10T11:19:58.069Z</time>
      </trkpt>
      <trkpt lat="42.14814" lon="21.98736">
        <ele>596.654053</ele>
        <time>2022-04-10T11:20:01.053Z</time>
      </trkpt>
      <trkpt lat="42.14825" lon="21.98729">
        <ele>596.625715</ele>
        <time>2022-04-10T11:20:04.055Z</time>
      </trkpt>
      <trkpt lat="42.14835" lon="21.98721">
        <ele>596.595346</ele>
        <time>2022-04-10T11:20:07.071Z</time>
      </trkpt>
      <trkpt lat="42.14846" lon="21.98712">
        <ele>596.559414</ele>
        <time>2022-04-10T11:20:10.075Z</time>
      </trkpt>
      <trkpt lat="42.14856" lon="21.98702">
        <ele>596.516495</ele>
        <time>2022-04-10T11:20:13.082Z</time>
      </trkpt>
      <trkpt lat="42.14867" lon="21.98692">
        <ele>596.473201</ele>
        <time>2022-04-10T11:20:16.068Z</time>
      </trkpt>
      <trkpt lat="42.14878" lon="21.98684">
        <ele>596.43138</ele>
        <time>2022-04-10T11:20:19.089Z</time>
      </trkpt>
      <trkpt lat="42.14889" lon="21.98674">
        <ele>596.389443</ele>
        <time>2022-04-10T11:20:22.100Z</time>
      </trkpt>
      <trkpt lat="42.14898" lon="21.98665">
        <ele>596.351418</ele>
        <time>2022-04-10T11:20:25.064Z</time>
      </trkpt>
      <trkpt lat="42.14907" lon="21.98655">
        <ele>596.314484</ele>
        <time>2022-04-10T11:20:28.066Z</time>
      </trkpt>
      <trkpt lat="42.14915" lon="21.98645">
        <ele>596.278047</ele>
        <time>2022-04-10T11:20:31.075Z</time>
      </trkpt>
      <trkpt lat="42.14922" lon="21.98634">
        <ele>596.243823</ele>
        <time>2022-04-10T11:20:34.070Z</time>
      </trkpt>
      <trkpt lat="42.14928" lon="21.98624">
        <ele>596.211369</ele>
        <time>2022-04-10T11:20:37.058Z</time>
      </trkpt>
      <trkpt lat="42.14934" lon="21.98615">
        <ele>596.181441</ele>
        <time>2022-04-10T11:20:40.064Z</time>
      </trkpt>
      <trkpt lat="42.14939" lon="21.98605">
        <ele>596.151003</ele>
        <time>2022-04-10T11:20:44.051Z</time>
      </trkpt>
      <trkpt lat="42.14945" lon="21.98594">
        <ele>596.118778</ele>
        <time>2022-04-10T11:20:48.072Z</time>
      </trkpt>
      <trkpt lat="42.1495" lon="21.98581">
        <ele>596.0843</ele>
        <time>2022-04-10T11:20:52.116Z</time>
      </trkpt>
      <trkpt lat="42.14955" lon="21.98568">
        <ele>596.046088</ele>
        <time>2022-04-10T11:20:56.087Z</time>
      </trkpt>
      <trkpt lat="42.1496" lon="21.98553">
        <ele>596.007789</ele>
        <time>2022-04-10T11:21:00.064Z</time>
      </trkpt>
      <trkpt lat="42.14964" lon="21.98539">
        <ele>596.173331</ele>
        <time>2022-04-10T11:21:04.074Z</time>
      </trkpt>
      <trkpt lat="42.14967" lon="21.98524">
        <ele>596.64035</ele>
        <time>2022-04-10T11:21:08.100Z</time>
      </trkpt>
      <trkpt lat="42.1497" lon="21.98509">
        <ele>597.094258</ele>
        <time>2022-04-10T11:21:12.074Z</time>
      </trkpt>
      <trkpt lat="42.14972" lon="21.98496">
        <ele>597.522433</ele>
        <time>2022-04-10T11:21:16.069Z</time>
      </trkpt>
      <trkpt lat="42.14973" lon="21.9848">
        <ele>597.993509</ele>
        <time>2022-04-10T11:21:20.107Z</time>
      </trkpt>
      <trkpt lat="42.14974" lon="21.98468">
        <ele>598.373255</ele>
        <time>2022-04-10T11:21:23.073Z</time>
      </trkpt>
      <trkpt lat="42.14974" lon="21.98455">
        <ele>598.755301</ele>
        <time>2022-04-10T11:21:26.081Z</time>
      </trkpt>
      <trkpt lat="42.14975" lon="21.98443">
        <ele>599.129005</ele>
        <time>2022-04-10T11:21:29.059Z</time>
      </trkpt>
      <trkpt lat="42.14975" lon="21.98428">
        <ele>599.565229</ele>
        <time>2022-04-10T11:21:33.072Z</time>
      </trkpt>
      <trkpt lat="42.14974" lon="21.98412">
        <ele>600.054336</ele>
        <time>2022-04-10T11:21:37.067Z</time>
      </trkpt>
      <trkpt lat="42.14973" lon="21.98396">
        <ele>600.538093</ele>
        <time>2022-04-10T11:21:41.074Z</time>
      </trkpt>
      <trkpt lat="42.14971" lon="21.98381">
        <ele>601.021742</ele>
        <time>2022-04-10T11:21:45.103Z</time>
      </trkpt>
      <trkpt lat="42.14969" lon="21.98366">
        <ele>601.482793</ele>
        <time>2022-04-10T11:21:49.074Z</time>
      </trkpt>
      <trkpt lat="42.14966" lon="21.98351">
        <ele>601.931902</ele>
        <time>2022-04-10T11:21:53.120Z</time>
      </trkpt>
      <trkpt lat="42.14963" lon="21.98337">
        <ele>602.382706</ele>
        <time>2022-04-10T11:21:57.077Z</time>
      </trkpt>
      <trkpt lat="42.14959" lon="21.98323">
        <ele>602.841524</ele>
        <time>2022-04-10T11:22:01.066Z</time>
      </trkpt>
      <trkpt lat="42.14956" lon="21.98311">
        <ele>603.212212</ele>
        <time>2022-04-10T11:22:04.107Z</time>
      </trkpt>
      <trkpt lat="42.14952" lon="21.983">
        <ele>603.395152</ele>
        <time>2022-04-10T11:22:07.086Z</time>
      </trkpt>
      <trkpt lat="42.14948" lon="21.98286">
        <ele>603.508478</ele>
        <time>2022-04-10T11:22:11.067Z</time>
      </trkpt>
      <trkpt lat="42.14942" lon="21.98272">
        <ele>603.621923</ele>
        <time>2022-04-10T11:22:15.068Z</time>
      </trkpt>
      <trkpt lat="42.14935" lon="21.98259">
        <ele>603.737453</ele>
        <time>2022-04-10T11:22:19.064Z</time>
      </trkpt>
      <trkpt lat="42.14928" lon="21.98246">
        <ele>603.8518</ele>
        <time>2022-04-10T11:22:23.083Z</time>
      </trkpt>
      <trkpt lat="42.14921" lon="21.98234">
        <ele>603.962635</ele>
        <time>2022-04-10T11:22:27.117Z</time>
      </trkpt>
      <trkpt lat="42.14915" lon="21.98224">
        <ele>604.061966</ele>
        <time>2022-04-10T11:22:31.072Z</time>
      </trkpt>
      <trkpt lat="42.14908" lon="21.98213">
        <ele>604.161467</ele>
        <time>2022-04-10T11:22:35.076Z</time>
      </trkpt>
      <trkpt lat="42.14902" lon="21.98203">
        <ele>604.259342</ele>
        <time>2022-04-10T11:22:39.066Z</time>
      </trkpt>
      <trkpt lat="42.14895" lon="21.98193">
        <ele>604.35994</ele>
        <time>2022-04-10T11:22:43.067Z</time>
      </trkpt>
      <trkpt lat="42.14888" lon="21.98183">
        <ele>604.458921</ele>
        <time>2022-04-10T11:22:47.068Z</time>
      </trkpt>
      <trkpt lat="42.1488" lon="21.98174">
        <ele>604.56041</ele>
        <time>2022-04-10T11:22:51.061Z</time>
      </trkpt>
      <trkpt lat="42.14872" lon="21.98165">
        <ele>604.661897</ele>
        <time>2022-04-10T11:22:55.107Z</time>
      </trkpt>
      <trkpt lat="42.14865" lon="21.98155">
        <ele>604.761958</ele>
        <time>2022-04-10T11:22:59.079Z</time>
      </trkpt>
      <trkpt lat="42.14858" lon="21.98146">
        <ele>604.859066</ele>
        <time>2022-04-10T11:23:03.098Z</time>
      </trkpt>
      <trkpt lat="42.1485" lon="21.98137">
        <ele>604.955934</ele>
        <time>2022-04-10T11:23:07.065Z</time>
      </trkpt>
      <trkpt lat="42.14844" lon="21.98128">
        <ele>605.051147</ele>
        <time>2022-04-10T11:23:11.065Z</time>
      </trkpt>
      <trkpt lat="42.14837" lon="21.98117">
        <ele>605.173435</ele>
        <time>2022-04-10T11:23:15.077Z</time>
      </trkpt>
      <trkpt lat="42.1483" lon="21.98108">
        <ele>605.312327</ele>
        <time>2022-04-10T11:23:19.053Z</time>
      </trkpt>
      <trkpt lat="42.14824" lon="21.98099">
        <ele>605.446224</ele>
        <time>2022-04-10T11:23:23.088Z</time>
      </trkpt>
      <trkpt lat="42.14816" lon="21.98089">
        <ele>605.591857</ele>
        <time>2022-04-10T11:23:27.053Z</time>
      </trkpt>
      <trkpt lat="42.1481" lon="21.98079">
        <ele>605.733464</ele>
        <time>2022-04-10T11:23:31.060Z</time>
      </trkpt>
      <trkpt lat="42.14803" lon="21.98068">
        <ele>605.881043</ele>
        <time>2022-04-10T11:23:35.079Z</time>
      </trkpt>
      <trkpt lat="42.14796" lon="21.98057">
        <ele>606.029161</ele>
        <time>2022-04-10T11:23:39.086Z</time>
      </trkpt>
      <trkpt lat="42.1479" lon="21.98047">
        <ele>606.175562</ele>
        <time>2022-04-10T11:23:43.073Z</time>
      </trkpt>
      <trkpt lat="42.14783" lon="21.98036">
        <ele>606.322355</ele>
        <time>2022-04-10T11:23:47.084Z</time>
      </trkpt>
      <trkpt lat="42.14776" lon="21.98026">
        <ele>606.465427</ele>
        <time>2022-04-10T11:23:51.078Z</time>
      </trkpt>
      <trkpt lat="42.14769" lon="21.98015">
        <ele>606.61446</ele>
        <time>2022-04-10T11:23:55.066Z</time>
      </trkpt>
      <trkpt lat="42.14764" lon="21.98002">
        <ele>606.769881</ele>
        <time>2022-04-10T11:23:59.070Z</time>
      </trkpt>
      <trkpt lat="42.14759" lon="21.97988">
        <ele>606.93038</ele>
        <time>2022-04-10T11:24:03.118Z</time>
      </trkpt>
      <trkpt lat="42.14756" lon="21.97975">
        <ele>607.082896</ele>
        <time>2022-04-10T11:24:07.071Z</time>
      </trkpt>
      <trkpt lat="42.14753" lon="21.97961">
        <ele>607.228971</ele>
        <time>2022-04-10T11:24:11.073Z</time>
      </trkpt>
      <trkpt lat="42.1475" lon="21.97949">
        <ele>607.371053</ele>
        <time>2022-04-10T11:24:15.080Z</time>
      </trkpt>
      <trkpt lat="42.14746" lon="21.97934">
        <ele>607.52845</ele>
        <time>2022-04-10T11:24:19.067Z</time>
      </trkpt>
      <trkpt lat="42.14743" lon="21.9792">
        <ele>607.645414</ele>
        <time>2022-04-10T11:24:23.073Z</time>
      </trkpt>
      <trkpt lat="42.14742" lon="21.97905">
        <ele>607.635968</ele>
        <time>2022-04-10T11:24:27.080Z</time>
      </trkpt>
      <trkpt lat="42.14739" lon="21.9789">
        <ele>607.6268</ele>
        <time>2022-04-10T11:24:31.070Z</time>
      </trkpt>
      <trkpt lat="42.14738" lon="21.97875">
        <ele>607.617659</ele>
        <time>2022-04-10T11:24:35.070Z</time>
      </trkpt>
      <trkpt lat="42.14738" lon="21.97859">
        <ele>607.608118</ele>
        <time>2022-04-10T11:24:39.085Z</time>
      </trkpt>
      <trkpt lat="42.14738" lon="21.97844">
        <ele>607.598703</ele>
        <time>2022-04-10T11:24:43.053Z</time>
      </trkpt>
      <trkpt lat="42.14738" lon="21.97828">
        <ele>607.589042</ele>
        <time>2022-04-10T11:24:47.079Z</time>
      </trkpt>
      <trkpt lat="42.14739" lon="21.97815">
        <ele>607.581621</ele>
        <time>2022-04-10T11:24:50.067Z</time>
      </trkpt>
      <trkpt lat="42.1474" lon="21.978">
        <ele>607.572206</ele>
        <time>2022-04-10T11:24:54.059Z</time>
      </trkpt>
      <trkpt lat="42.14742" lon="21.97785">
        <ele>607.562963</ele>
        <time>2022-04-10T11:24:58.065Z</time>
      </trkpt>
      <trkpt lat="42.14744" lon="21.9777">
        <ele>607.553897</ele>
        <time>2022-04-10T11:25:02.072Z</time>
      </trkpt>
      <trkpt lat="42.14747" lon="21.97755">
        <ele>607.544207</ele>
        <time>2022-04-10T11:25:06.134Z</time>
      </trkpt>
      <trkpt lat="42.14749" lon="21.9774">
        <ele>607.535106</ele>
        <time>2022-04-10T11:25:10.072Z</time>
      </trkpt>
      <trkpt lat="42.14753" lon="21.97726">
        <ele>607.526106</ele>
        <time>2022-04-10T11:25:14.064Z</time>
      </trkpt>
      <trkpt lat="42.14756" lon="21.97712">
        <ele>607.517137</ele>
        <time>2022-04-10T11:25:18.070Z</time>
      </trkpt>
      <trkpt lat="42.14758" lon="21.97698">
        <ele>607.508164</ele>
        <time>2022-04-10T11:25:22.069Z</time>
      </trkpt>
      <trkpt lat="42.14758" lon="21.97684">
        <ele>607.485173</ele>
        <time>2022-04-10T11:25:26.077Z</time>
      </trkpt>
      <trkpt lat="42.1475" lon="21.97679">
        <ele>607.215942</ele>
        <time>2022-04-10T11:25:29.075Z</time>
      </trkpt>
      <trkpt lat="42.14739" lon="21.97683">
        <ele>606.89281</ele>
        <time>2022-04-10T11:25:32.099Z</time>
      </trkpt>
      <trkpt lat="42.14731" lon="21.97691">
        <ele>606.586961</ele>
        <time>2022-04-10T11:25:35.076Z</time>
      </trkpt>
      <trkpt lat="42.14723" lon="21.97699">
        <ele>606.303406</ele>
        <time>2022-04-10T11:25:38.080Z</time>
      </trkpt>
      <trkpt lat="42.14715" lon="21.97705">
        <ele>606.029128</ele>
        <time>2022-04-10T11:25:41.062Z</time>
      </trkpt>
      <trkpt lat="42.14706" lon="21.977">
        <ele>605.757679</ele>
        <time>2022-04-10T11:25:45.066Z</time>
      </trkpt>
      <trkpt lat="42.14706" lon="21.97687">
        <ele>605.457679</ele>
        <time>2022-04-10T11:25:48.072Z</time>
      </trkpt>
      <trkpt lat="42.1471" lon="21.97669">
        <ele>605.048609</ele>
        <time>2022-04-10T11:25:51.074Z</time>
      </trkpt>
      <trkpt lat="42.14714" lon="21.97655">
        <ele>604.739807</ele>
        <time>2022-04-10T11:25:53.073Z</time>
      </trkpt>
      <trkpt lat="42.14716" lon="21.97642">
        <ele>604.432494</ele>
        <time>2022-04-10T11:25:55.077Z</time>
      </trkpt>
      <trkpt lat="42.14718" lon="21.9763">
        <ele>604.16271</ele>
        <time>2022-04-10T11:25:57.081Z</time>
      </trkpt>
      <trkpt lat="42.1472" lon="21.97617">
        <ele>603.879792</ele>
        <time>2022-04-10T11:25:59.068Z</time>
      </trkpt>
      <trkpt lat="42.14722" lon="21.97604">
        <ele>603.578938</ele>
        <time>2022-04-10T11:26:01.079Z</time>
      </trkpt>
      <trkpt lat="42.14723" lon="21.97588">
        <ele>603.243814</ele>
        <time>2022-04-10T11:26:03.077Z</time>
      </trkpt>
      <trkpt lat="42.14726" lon="21.97574">
        <ele>602.921648</ele>
        <time>2022-04-10T11:26:05.087Z</time>
      </trkpt>
      <trkpt lat="42.14728" lon="21.9756">
        <ele>602.616465</ele>
        <time>2022-04-10T11:26:07.059Z</time>
      </trkpt>
      <trkpt lat="42.14729" lon="21.97547">
        <ele>602.317949</ele>
        <time>2022-04-10T11:26:09.077Z</time>
      </trkpt>
      <trkpt lat="42.14731" lon="21.97534">
        <ele>601.975539</ele>
        <time>2022-04-10T11:26:11.085Z</time>
      </trkpt>
      <trkpt lat="42.14733" lon="21.9752">
        <ele>601.601418</ele>
        <time>2022-04-10T11:26:13.074Z</time>
      </trkpt>
      <trkpt lat="42.14735" lon="21.97507">
        <ele>601.223862</ele>
        <time>2022-04-10T11:26:15.090Z</time>
      </trkpt>
      <trkpt lat="42.14737" lon="21.97494">
        <ele>600.842085</ele>
        <time>2022-04-10T11:26:17.074Z</time>
      </trkpt>
      <trkpt lat="42.1474" lon="21.97481">
        <ele>600.475809</ele>
        <time>2022-04-10T11:26:19.060Z</time>
      </trkpt>
      <trkpt lat="42.14743" lon="21.97468">
        <ele>600.106919</ele>
        <time>2022-04-10T11:26:21.060Z</time>
      </trkpt>
      <trkpt lat="42.14745" lon="21.97455">
        <ele>599.728946</ele>
        <time>2022-04-10T11:26:23.063Z</time>
      </trkpt>
      <trkpt lat="42.14748" lon="21.97443">
        <ele>599.374475</ele>
        <time>2022-04-10T11:26:25.074Z</time>
      </trkpt>
      <trkpt lat="42.14751" lon="21.97426">
        <ele>598.892715</ele>
        <time>2022-04-10T11:26:28.068Z</time>
      </trkpt>
      <trkpt lat="42.14754" lon="21.97411">
        <ele>598.461438</ele>
        <time>2022-04-10T11:26:31.075Z</time>
      </trkpt>
      <trkpt lat="42.14755" lon="21.97397">
        <ele>598.059367</ele>
        <time>2022-04-10T11:26:34.083Z</time>
      </trkpt>
      <trkpt lat="42.14757" lon="21.97383">
        <ele>597.649536</ele>
        <time>2022-04-10T11:26:37.069Z</time>
      </trkpt>
      <trkpt lat="42.1476" lon="21.97369">
        <ele>597.251695</ele>
        <time>2022-04-10T11:26:40.073Z</time>
      </trkpt>
      <trkpt lat="42.14761" lon="21.97354">
        <ele>596.833039</ele>
        <time>2022-04-10T11:26:43.080Z</time>
      </trkpt>
      <trkpt lat="42.14764" lon="21.97339">
        <ele>596.409069</ele>
        <time>2022-04-10T11:26:46.074Z</time>
      </trkpt>
      <trkpt lat="42.14766" lon="21.97326">
        <ele>596.021198</ele>
        <time>2022-04-10T11:26:49.093Z</time>
      </trkpt>
      <trkpt lat="42.14768" lon="21.97312">
        <ele>595.620312</ele>
        <time>2022-04-10T11:26:52.080Z</time>
      </trkpt>
      <trkpt lat="42.14771" lon="21.97295">
        <ele>595.389295</ele>
        <time>2022-04-10T11:26:55.109Z</time>
      </trkpt>
      <trkpt lat="42.14774" lon="21.97279">
        <ele>595.323457</ele>
        <time>2022-04-10T11:26:58.078Z</time>
      </trkpt>
      <trkpt lat="42.14776" lon="21.97265">
        <ele>595.261696</ele>
        <time>2022-04-10T11:27:01.075Z</time>
      </trkpt>
      <trkpt lat="42.14778" lon="21.9725">
        <ele>595.199634</ele>
        <time>2022-04-10T11:27:04.083Z</time>
      </trkpt>
      <trkpt lat="42.14781" lon="21.97233">
        <ele>595.128645</ele>
        <time>2022-04-10T11:27:07.074Z</time>
      </trkpt>
      <trkpt lat="42.14784" lon="21.97215">
        <ele>595.055138</ele>
        <time>2022-04-10T11:27:10.109Z</time>
      </trkpt>
      <trkpt lat="42.14788" lon="21.97198">
        <ele>594.98111</ele>
        <time>2022-04-10T11:27:13.088Z</time>
      </trkpt>
      <trkpt lat="42.1479" lon="21.9718">
        <ele>594.907796</ele>
        <time>2022-04-10T11:27:16.075Z</time>
      </trkpt>
      <trkpt lat="42.14792" lon="21.97168">
        <ele>594.856981</ele>
        <time>2022-04-10T11:27:18.086Z</time>
      </trkpt>
      <trkpt lat="42.14794" lon="21.97156">
        <ele>594.804856</ele>
        <time>2022-04-10T11:27:20.081Z</time>
      </trkpt>
      <trkpt lat="42.14796" lon="21.97143">
        <ele>594.753815</ele>
        <time>2022-04-10T11:27:22.079Z</time>
      </trkpt>
      <trkpt lat="42.14798" lon="21.97131">
        <ele>594.703318</ele>
        <time>2022-04-10T11:27:24.093Z</time>
      </trkpt>
      <trkpt lat="42.14802" lon="21.97114">
        <ele>594.630877</ele>
        <time>2022-04-10T11:27:27.085Z</time>
      </trkpt>
      <trkpt lat="42.14805" lon="21.97097">
        <ele>594.558017</ele>
        <time>2022-04-10T11:27:30.070Z</time>
      </trkpt>
      <trkpt lat="42.14808" lon="21.97079">
        <ele>594.483397</ele>
        <time>2022-04-10T11:27:33.085Z</time>
      </trkpt>
      <trkpt lat="42.1481" lon="21.97062">
        <ele>594.354328</ele>
        <time>2022-04-10T11:27:36.077Z</time>
      </trkpt>
      <trkpt lat="42.14813" lon="21.97045">
        <ele>594.139062</ele>
        <time>2022-04-10T11:27:39.065Z</time>
      </trkpt>
      <trkpt lat="42.14816" lon="21.97028">
        <ele>593.92299</ele>
        <time>2022-04-10T11:27:42.076Z</time>
      </trkpt>
      <trkpt lat="42.14819" lon="21.9701">
        <ele>593.700448</ele>
        <time>2022-04-10T11:27:45.077Z</time>
      </trkpt>
      <trkpt lat="42.14822" lon="21.96992">
        <ele>593.478011</ele>
        <time>2022-04-10T11:27:48.075Z</time>
      </trkpt>
      <trkpt lat="42.14825" lon="21.96976">
        <ele>593.267838</ele>
        <time>2022-04-10T11:27:51.133Z</time>
      </trkpt>
      <trkpt lat="42.14828" lon="21.9696">
        <ele>593.064905</ele>
        <time>2022-04-10T11:27:54.082Z</time>
      </trkpt>
      <trkpt lat="42.14831" lon="21.96945">
        <ele>592.874705</ele>
        <time>2022-04-10T11:27:57.071Z</time>
      </trkpt>
      <trkpt lat="42.14833" lon="21.9693">
        <ele>592.689272</ele>
        <time>2022-04-10T11:28:00.081Z</time>
      </trkpt>
      <trkpt lat="42.14836" lon="21.96915">
        <ele>592.501052</ele>
        <time>2022-04-10T11:28:03.074Z</time>
      </trkpt>
      <trkpt lat="42.14838" lon="21.96902">
        <ele>592.331439</ele>
        <time>2022-04-10T11:28:06.067Z</time>
      </trkpt>
      <trkpt lat="42.14839" lon="21.96888">
        <ele>592.169329</ele>
        <time>2022-04-10T11:28:09.081Z</time>
      </trkpt>
      <trkpt lat="42.14841" lon="21.96875">
        <ele>592.001769</ele>
        <time>2022-04-10T11:28:12.083Z</time>
      </trkpt>
      <trkpt lat="42.14843" lon="21.96861">
        <ele>591.826762</ele>
        <time>2022-04-10T11:28:15.067Z</time>
      </trkpt>
      <trkpt lat="42.14845" lon="21.96848">
        <ele>591.665937</ele>
        <time>2022-04-10T11:28:18.074Z</time>
      </trkpt>
      <trkpt lat="42.14847" lon="21.96836">
        <ele>591.509898</ele>
        <time>2022-04-10T11:28:21.064Z</time>
      </trkpt>
      <trkpt lat="42.14849" lon="21.96824">
        <ele>591.457642</ele>
        <time>2022-04-10T11:28:24.109Z</time>
      </trkpt>
      <trkpt lat="42.14851" lon="21.96811">
        <ele>591.460449</ele>
        <time>2022-04-10T11:28:27.073Z</time>
      </trkpt>
      <trkpt lat="42.14854" lon="21.96798">
        <ele>591.463348</ele>
        <time>2022-04-10T11:28:30.070Z</time>
      </trkpt>
      <trkpt lat="42.14856" lon="21.96785">
        <ele>591.46639</ele>
        <time>2022-04-10T11:28:33.066Z</time>
      </trkpt>
      <trkpt lat="42.14859" lon="21.9677">
        <ele>591.469736</ele>
        <time>2022-04-10T11:28:36.076Z</time>
      </trkpt>
      <trkpt lat="42.14862" lon="21.96754">
        <ele>591.473315</ele>
        <time>2022-04-10T11:28:39.077Z</time>
      </trkpt>
      <trkpt lat="42.14865" lon="21.9674">
        <ele>591.476639</ele>
        <time>2022-04-10T11:28:42.114Z</time>
      </trkpt>
      <trkpt lat="42.14867" lon="21.96727">
        <ele>591.479474</ele>
        <time>2022-04-10T11:28:45.064Z</time>
      </trkpt>
      <trkpt lat="42.14869" lon="21.96714">
        <ele>591.48238</ele>
        <time>2022-04-10T11:28:48.065Z</time>
      </trkpt>
      <trkpt lat="42.14871" lon="21.96701">
        <ele>591.485245</ele>
        <time>2022-04-10T11:28:51.118Z</time>
      </trkpt>
      <trkpt lat="42.14873" lon="21.96686">
        <ele>591.488631</ele>
        <time>2022-04-10T11:28:55.081Z</time>
      </trkpt>
      <trkpt lat="42.14876" lon="21.96674">
        <ele>591.491414</ele>
        <time>2022-04-10T11:28:58.074Z</time>
      </trkpt>
      <trkpt lat="42.14878" lon="21.96661">
        <ele>591.49433</ele>
        <time>2022-04-10T11:29:01.088Z</time>
      </trkpt>
      <trkpt lat="42.14879" lon="21.96648">
        <ele>591.497117</ele>
        <time>2022-04-10T11:29:04.072Z</time>
      </trkpt>
      <trkpt lat="42.14881" lon="21.96635">
        <ele>591.500022</ele>
        <time>2022-04-10T11:29:07.082Z</time>
      </trkpt>
      <trkpt lat="42.14883" lon="21.96623">
        <ele>591.502854</ele>
        <time>2022-04-10T11:29:10.068Z</time>
      </trkpt>
      <trkpt lat="42.14885" lon="21.9661">
        <ele>591.505681</ele>
        <time>2022-04-10T11:29:13.073Z</time>
      </trkpt>
      <trkpt lat="42.14887" lon="21.96598">
        <ele>591.50846</ele>
        <time>2022-04-10T11:29:16.078Z</time>
      </trkpt>
      <trkpt lat="42.14889" lon="21.96585">
        <ele>591.410827</ele>
        <time>2022-04-10T11:29:19.108Z</time>
      </trkpt>
      <trkpt lat="42.14891" lon="21.96572">
        <ele>591.29</ele>
        <time>2022-04-10T11:29:22.070Z</time>
      </trkpt>
      <trkpt lat="42.14893" lon="21.96558">
        <ele>591.163274</ele>
        <time>2022-04-10T11:29:25.078Z</time>
      </trkpt>
      <trkpt lat="42.14896" lon="21.96544">
        <ele>591.036008</ele>
        <time>2022-04-10T11:29:28.074Z</time>
      </trkpt>
      <trkpt lat="42.14898" lon="21.96531">
        <ele>590.91042</ele>
        <time>2022-04-10T11:29:31.059Z</time>
      </trkpt>
      <trkpt lat="42.149" lon="21.96518">
        <ele>590.788129</ele>
        <time>2022-04-10T11:29:34.070Z</time>
      </trkpt>
      <trkpt lat="42.14903" lon="21.96505">
        <ele>590.668856</ele>
        <time>2022-04-10T11:29:37.086Z</time>
      </trkpt>
      <trkpt lat="42.14907" lon="21.9649">
        <ele>590.527405</ele>
        <time>2022-04-10T11:29:41.125Z</time>
      </trkpt>
      <trkpt lat="42.14909" lon="21.96478">
        <ele>590.414178</ele>
        <time>2022-04-10T11:29:44.064Z</time>
      </trkpt>
      <trkpt lat="42.14911" lon="21.96464">
        <ele>590.287058</ele>
        <time>2022-04-10T11:29:47.089Z</time>
      </trkpt>
      <trkpt lat="42.14912" lon="21.9645">
        <ele>590.15989</ele>
        <time>2022-04-10T11:29:50.070Z</time>
      </trkpt>
      <trkpt lat="42.14914" lon="21.96436">
        <ele>590.028761</ele>
        <time>2022-04-10T11:29:53.085Z</time>
      </trkpt>
      <trkpt lat="42.14916" lon="21.96421">
        <ele>589.890979</ele>
        <time>2022-04-10T11:29:56.112Z</time>
      </trkpt>
      <trkpt lat="42.14919" lon="21.96406">
        <ele>589.74846</ele>
        <time>2022-04-10T11:29:59.077Z</time>
      </trkpt>
      <trkpt lat="42.14922" lon="21.96389">
        <ele>589.590478</ele>
        <time>2022-04-10T11:30:02.074Z</time>
      </trkpt>
      <trkpt lat="42.14925" lon="21.96372">
        <ele>589.435805</ele>
        <time>2022-04-10T11:30:05.084Z</time>
      </trkpt>
      <trkpt lat="42.14927" lon="21.96355">
        <ele>589.133963</ele>
        <time>2022-04-10T11:30:08.085Z</time>
      </trkpt>
      <trkpt lat="42.1493" lon="21.96339">
        <ele>588.323615</ele>
        <time>2022-04-10T11:30:11.068Z</time>
      </trkpt>
      <trkpt lat="42.14933" lon="21.96321">
        <ele>587.456312</ele>
        <time>2022-04-10T11:30:14.068Z</time>
      </trkpt>
      <trkpt lat="42.14934" lon="21.96309">
        <ele>586.86296</ele>
        <time>2022-04-10T11:30:16.089Z</time>
      </trkpt>
      <trkpt lat="42.14936" lon="21.96296">
        <ele>586.21435</ele>
        <time>2022-04-10T11:30:18.066Z</time>
      </trkpt>
      <trkpt lat="42.14939" lon="21.96284">
        <ele>585.597099</ele>
        <time>2022-04-10T11:30:20.112Z</time>
      </trkpt>
      <trkpt lat="42.14941" lon="21.96272">
        <ele>584.979848</ele>
        <time>2022-04-10T11:30:22.068Z</time>
      </trkpt>
      <trkpt lat="42.14943" lon="21.96259">
        <ele>584.331238</ele>
        <time>2022-04-10T11:30:24.078Z</time>
      </trkpt>
      <trkpt lat="42.14946" lon="21.96244">
        <ele>583.61346</ele>
        <time>2022-04-10T11:30:26.113Z</time>
      </trkpt>
      <trkpt lat="42.14949" lon="21.96231">
        <ele>582.919114</ele>
        <time>2022-04-10T11:30:28.086Z</time>
      </trkpt>
      <trkpt lat="42.14951" lon="21.96218">
        <ele>582.279942</ele>
        <time>2022-04-10T11:30:30.086Z</time>
      </trkpt>
      <trkpt lat="42.14954" lon="21.96205">
        <ele>581.660994</ele>
        <time>2022-04-10T11:30:32.067Z</time>
      </trkpt>
      <trkpt lat="42.14956" lon="21.96192">
        <ele>581.006125</ele>
        <time>2022-04-10T11:30:34.082Z</time>
      </trkpt>
      <trkpt lat="42.14959" lon="21.96179">
        <ele>580.352795</ele>
        <time>2022-04-10T11:30:36.091Z</time>
      </trkpt>
      <trkpt lat="42.14961" lon="21.96166">
        <ele>579.677508</ele>
        <time>2022-04-10T11:30:38.095Z</time>
      </trkpt>
      <trkpt lat="42.14964" lon="21.96152">
        <ele>578.9818</ele>
        <time>2022-04-10T11:30:40.080Z</time>
      </trkpt>
      <trkpt lat="42.14966" lon="21.96138">
        <ele>578.284462</ele>
        <time>2022-04-10T11:30:42.077Z</time>
      </trkpt>
      <trkpt lat="42.14969" lon="21.96125">
        <ele>577.635855</ele>
        <time>2022-04-10T11:30:44.081Z</time>
      </trkpt>
      <trkpt lat="42.14971" lon="21.96111">
        <ele>576.740159</ele>
        <time>2022-04-10T11:30:46.083Z</time>
      </trkpt>
      <trkpt lat="42.14974" lon="21.96097">
        <ele>575.755277</ele>
        <time>2022-04-10T11:30:48.104Z</time>
      </trkpt>
      <trkpt lat="42.14977" lon="21.96083">
        <ele>574.823008</ele>
        <time>2022-04-10T11:30:50.081Z</time>
      </trkpt>
      <trkpt lat="42.14979" lon="21.9607">
        <ele>573.954205</ele>
        <time>2022-04-10T11:30:52.068Z</time>
      </trkpt>
      <trkpt lat="42.14981" lon="21.96057">
        <ele>573.071641</ele>
        <time>2022-04-10T11:30:54.111Z</time>
      </trkpt>
      <trkpt lat="42.14983" lon="21.96044">
        <ele>572.229128</ele>
        <time>2022-04-10T11:30:56.071Z</time>
      </trkpt>
      <trkpt lat="42.14985" lon="21.96032">
        <ele>571.431154</ele>
        <time>2022-04-10T11:30:58.074Z</time>
      </trkpt>
      <trkpt lat="42.14987" lon="21.96019">
        <ele>570.606697</ele>
        <time>2022-04-10T11:31:00.094Z</time>
      </trkpt>
      <trkpt lat="42.14989" lon="21.96007">
        <ele>569.80715</ele>
        <time>2022-04-10T11:31:02.081Z</time>
      </trkpt>
      <trkpt lat="42.14991" lon="21.95995">
        <ele>568.980273</ele>
        <time>2022-04-10T11:31:04.070Z</time>
      </trkpt>
      <trkpt lat="42.14993" lon="21.95982">
        <ele>568.106958</ele>
        <time>2022-04-10T11:31:06.063Z</time>
      </trkpt>
      <trkpt lat="42.14995" lon="21.9597">
        <ele>567.288835</ele>
        <time>2022-04-10T11:31:08.057Z</time>
      </trkpt>
      <trkpt lat="42.14998" lon="21.95952">
        <ele>566.128661</ele>
        <time>2022-04-10T11:31:11.106Z</time>
      </trkpt>
      <trkpt lat="42.15" lon="21.95939">
        <ele>565.266152</ele>
        <time>2022-04-10T11:31:13.083Z</time>
      </trkpt>
      <trkpt lat="42.15002" lon="21.95926">
        <ele>564.369922</ele>
        <time>2022-04-10T11:31:15.079Z</time>
      </trkpt>
      <trkpt lat="42.15004" lon="21.95914">
        <ele>563.559389</ele>
        <time>2022-04-10T11:31:17.105Z</time>
      </trkpt>
      <trkpt lat="42.15006" lon="21.95902">
        <ele>562.756929</ele>
        <time>2022-04-10T11:31:19.086Z</time>
      </trkpt>
      <trkpt lat="42.15007" lon="21.95889">
        <ele>561.898264</ele>
        <time>2022-04-10T11:31:21.078Z</time>
      </trkpt>
      <trkpt lat="42.1501" lon="21.95876">
        <ele>561.341094</ele>
        <time>2022-04-10T11:31:23.104Z</time>
      </trkpt>
      <trkpt lat="42.15012" lon="21.95863">
        <ele>560.856538</ele>
        <time>2022-04-10T11:31:25.069Z</time>
      </trkpt>
      <trkpt lat="42.15016" lon="21.9585">
        <ele>560.357126</ele>
        <time>2022-04-10T11:31:27.074Z</time>
      </trkpt>
      <trkpt lat="42.15018" lon="21.95837">
        <ele>559.869064</ele>
        <time>2022-04-10T11:31:29.069Z</time>
      </trkpt>
      <trkpt lat="42.15021" lon="21.95819">
        <ele>559.19387</ele>
        <time>2022-04-10T11:31:32.073Z</time>
      </trkpt>
      <trkpt lat="42.15023" lon="21.95806">
        <ele>558.710863</ele>
        <time>2022-04-10T11:31:34.070Z</time>
      </trkpt>
      <trkpt lat="42.15025" lon="21.95793">
        <ele>558.230813</ele>
        <time>2022-04-10T11:31:36.078Z</time>
      </trkpt>
      <trkpt lat="42.15026" lon="21.9578">
        <ele>557.753279</ele>
        <time>2022-04-10T11:31:38.084Z</time>
      </trkpt>
      <trkpt lat="42.15028" lon="21.95768">
        <ele>557.291672</ele>
        <time>2022-04-10T11:31:40.098Z</time>
      </trkpt>
      <trkpt lat="42.15031" lon="21.95756">
        <ele>556.819377</ele>
        <time>2022-04-10T11:31:42.093Z</time>
      </trkpt>
      <trkpt lat="42.15033" lon="21.95744">
        <ele>556.372022</ele>
        <time>2022-04-10T11:31:44.074Z</time>
      </trkpt>
      <trkpt lat="42.15034" lon="21.95731">
        <ele>555.896461</ele>
        <time>2022-04-10T11:31:46.059Z</time>
      </trkpt>
      <trkpt lat="42.15036" lon="21.95718">
        <ele>555.412817</ele>
        <time>2022-04-10T11:31:48.074Z</time>
      </trkpt>
      <trkpt lat="42.15038" lon="21.95706">
        <ele>554.964165</ele>
        <time>2022-04-10T11:31:50.103Z</time>
      </trkpt>
      <trkpt lat="42.15039" lon="21.95693">
        <ele>554.497467</ele>
        <time>2022-04-10T11:31:52.057Z</time>
      </trkpt>
      <trkpt lat="42.15042" lon="21.95681">
        <ele>554.018164</ele>
        <time>2022-04-10T11:31:54.084Z</time>
      </trkpt>
      <trkpt lat="42.15044" lon="21.95668">
        <ele>553.549485</ele>
        <time>2022-04-10T11:31:56.076Z</time>
      </trkpt>
      <trkpt lat="42.15046" lon="21.95656">
        <ele>553.080758</ele>
        <time>2022-04-10T11:31:58.068Z</time>
      </trkpt>
      <trkpt lat="42.15048" lon="21.95642">
        <ele>552.538577</ele>
        <time>2022-04-10T11:32:00.086Z</time>
      </trkpt>
      <trkpt lat="42.15049" lon="21.95628">
        <ele>551.919096</ele>
        <time>2022-04-10T11:32:02.074Z</time>
      </trkpt>
      <trkpt lat="42.15051" lon="21.95614">
        <ele>551.33949</ele>
        <time>2022-04-10T11:32:04.068Z</time>
      </trkpt>
      <trkpt lat="42.15053" lon="21.95601">
        <ele>550.746083</ele>
        <time>2022-04-10T11:32:06.062Z</time>
      </trkpt>
      <trkpt lat="42.15055" lon="21.95587">
        <ele>550.150797</ele>
        <time>2022-04-10T11:32:08.078Z</time>
      </trkpt>
      <trkpt lat="42.15057" lon="21.95574">
        <ele>549.596715</ele>
        <time>2022-04-10T11:32:10.071Z</time>
      </trkpt>
      <trkpt lat="42.15059" lon="21.95561">
        <ele>549.013636</ele>
        <time>2022-04-10T11:32:12.054Z</time>
      </trkpt>
      <trkpt lat="42.15061" lon="21.95546">
        <ele>548.368191</ele>
        <time>2022-04-10T11:32:14.075Z</time>
      </trkpt>
      <trkpt lat="42.15065" lon="21.9553">
        <ele>547.665157</ele>
        <time>2022-04-10T11:32:16.077Z</time>
      </trkpt>
      <trkpt lat="42.15068" lon="21.95515">
        <ele>546.985691</ele>
        <time>2022-04-10T11:32:18.114Z</time>
      </trkpt>
      <trkpt lat="42.15071" lon="21.95499">
        <ele>546.307922</ele>
        <time>2022-04-10T11:32:20.098Z</time>
      </trkpt>
      <trkpt lat="42.15073" lon="21.95484">
        <ele>545.658311</ele>
        <time>2022-04-10T11:32:22.063Z</time>
      </trkpt>
      <trkpt lat="42.15074" lon="21.95471">
        <ele>545.078371</ele>
        <time>2022-04-10T11:32:24.075Z</time>
      </trkpt>
      <trkpt lat="42.15077" lon="21.95458">
        <ele>544.525688</ele>
        <time>2022-04-10T11:32:26.074Z</time>
      </trkpt>
      <trkpt lat="42.15079" lon="21.95445">
        <ele>543.97703</ele>
        <time>2022-04-10T11:32:28.082Z</time>
      </trkpt>
      <trkpt lat="42.15081" lon="21.95432">
        <ele>543.41593</ele>
        <time>2022-04-10T11:32:30.077Z</time>
      </trkpt>
      <trkpt lat="42.15083" lon="21.9542">
        <ele>542.857713</ele>
        <time>2022-04-10T11:32:32.074Z</time>
      </trkpt>
      <trkpt lat="42.15085" lon="21.95407">
        <ele>542.326859</ele>
        <time>2022-04-10T11:32:34.063Z</time>
      </trkpt>
      <trkpt lat="42.15087" lon="21.95394">
        <ele>541.868799</ele>
        <time>2022-04-10T11:32:36.081Z</time>
      </trkpt>
      <trkpt lat="42.1509" lon="21.95377">
        <ele>541.23311</ele>
        <time>2022-04-10T11:32:39.063Z</time>
      </trkpt>
      <trkpt lat="42.15092" lon="21.95365">
        <ele>540.785738</ele>
        <time>2022-04-10T11:32:41.094Z</time>
      </trkpt>
      <trkpt lat="42.15093" lon="21.95352">
        <ele>540.305448</ele>
        <time>2022-04-10T11:32:43.077Z</time>
      </trkpt>
      <trkpt lat="42.15095" lon="21.95339">
        <ele>539.836756</ele>
        <time>2022-04-10T11:32:45.076Z</time>
      </trkpt>
      <trkpt lat="42.15097" lon="21.95327">
        <ele>539.394793</ele>
        <time>2022-04-10T11:32:47.067Z</time>
      </trkpt>
      <trkpt lat="42.15099" lon="21.9531">
        <ele>538.767692</ele>
        <time>2022-04-10T11:32:50.079Z</time>
      </trkpt>
      <trkpt lat="42.151" lon="21.95297">
        <ele>538.313942</ele>
        <time>2022-04-10T11:32:52.069Z</time>
      </trkpt>
      <trkpt lat="42.15102" lon="21.95285">
        <ele>537.863002</ele>
        <time>2022-04-10T11:32:54.064Z</time>
      </trkpt>
      <trkpt lat="42.15108" lon="21.9527">
        <ele>537.238208</ele>
        <time>2022-04-10T11:32:57.083Z</time>
      </trkpt>
      <trkpt lat="42.15116" lon="21.95264">
        <ele>536.780923</ele>
        <time>2022-04-10T11:32:59.075Z</time>
      </trkpt>
      <trkpt lat="42.15125" lon="21.95259">
        <ele>536.290481</ele>
        <time>2022-04-10T11:33:01.069Z</time>
      </trkpt>
      <trkpt lat="42.15134" lon="21.95256">
        <ele>535.845356</ele>
        <time>2022-04-10T11:33:03.076Z</time>
      </trkpt>
      <trkpt lat="42.15144" lon="21.95254">
        <ele>535.384635</ele>
        <time>2022-04-10T11:33:05.075Z</time>
      </trkpt>
      <trkpt lat="42.15153" lon="21.9525">
        <ele>534.918743</ele>
        <time>2022-04-10T11:33:07.086Z</time>
      </trkpt>
      <trkpt lat="42.15161" lon="21.95244">
        <ele>534.446797</ele>
        <time>2022-04-10T11:33:09.079Z</time>
      </trkpt>
      <trkpt lat="42.15169" lon="21.95237">
        <ele>533.983454</ele>
        <time>2022-04-10T11:33:11.062Z</time>
      </trkpt>
      <trkpt lat="42.15175" lon="21.95228">
        <ele>533.401274</ele>
        <time>2022-04-10T11:33:13.065Z</time>
      </trkpt>
      <trkpt lat="42.1518" lon="21.95211">
        <ele>532.424931</ele>
        <time>2022-04-10T11:33:16.111Z</time>
      </trkpt>
      <trkpt lat="42.15181" lon="21.95199">
        <ele>531.722577</ele>
        <time>2022-04-10T11:33:18.082Z</time>
      </trkpt>
      <trkpt lat="42.15181" lon="21.95184">
        <ele>530.926763</ele>
        <time>2022-04-10T11:33:20.066Z</time>
      </trkpt>
      <trkpt lat="42.15182" lon="21.9517">
        <ele>530.133085</ele>
        <time>2022-04-10T11:33:22.077Z</time>
      </trkpt>
      <trkpt lat="42.15183" lon="21.95158">
        <ele>529.415545</ele>
        <time>2022-04-10T11:33:24.082Z</time>
      </trkpt>
      <trkpt lat="42.15183" lon="21.9514">
        <ele>528.418985</ele>
        <time>2022-04-10T11:33:27.085Z</time>
      </trkpt>
      <trkpt lat="42.15181" lon="21.95122">
        <ele>527.433293</ele>
        <time>2022-04-10T11:33:30.068Z</time>
      </trkpt>
      <trkpt lat="42.15174" lon="21.95109">
        <ele>526.545671</ele>
        <time>2022-04-10T11:33:33.067Z</time>
      </trkpt>
      <trkpt lat="42.15165" lon="21.95096">
        <ele>525.551672</ele>
        <time>2022-04-10T11:33:36.084Z</time>
      </trkpt>
      <trkpt lat="42.15158" lon="21.95089">
        <ele>524.847168</ele>
        <time>2022-04-10T11:33:38.082Z</time>
      </trkpt>
      <trkpt lat="42.1515" lon="21.95083">
        <ele>524.146674</ele>
        <time>2022-04-10T11:33:40.066Z</time>
      </trkpt>
      <trkpt lat="42.15141" lon="21.95079">
        <ele>523.461148</ele>
        <time>2022-04-10T11:33:42.109Z</time>
      </trkpt>
      <trkpt lat="42.15128" lon="21.95077">
        <ele>522.44793</ele>
        <time>2022-04-10T11:33:45.066Z</time>
      </trkpt>
      <trkpt lat="42.15118" lon="21.95077">
        <ele>521.745606</ele>
        <time>2022-04-10T11:33:47.082Z</time>
      </trkpt>
      <trkpt lat="42.15108" lon="21.95077">
        <ele>520.990494</ele>
        <time>2022-04-10T11:33:49.076Z</time>
      </trkpt>
      <trkpt lat="42.15099" lon="21.95074">
        <ele>520.236467</ele>
        <time>2022-04-10T11:33:51.076Z</time>
      </trkpt>
      <trkpt lat="42.15091" lon="21.95067">
        <ele>520.562919</ele>
        <time>2022-04-10T11:33:53.127Z</time>
      </trkpt>
      <trkpt lat="42.15085" lon="21.95057">
        <ele>520.934447</ele>
        <time>2022-04-10T11:33:55.073Z</time>
      </trkpt>
      <trkpt lat="42.15081" lon="21.95041">
        <ele>521.43221</ele>
        <time>2022-04-10T11:33:58.080Z</time>
      </trkpt>
      <trkpt lat="42.15079" lon="21.95025">
        <ele>521.922519</ele>
        <time>2022-04-10T11:34:01.070Z</time>
      </trkpt>
      <trkpt lat="42.15078" lon="21.95012">
        <ele>522.323316</ele>
        <time>2022-04-10T11:34:04.057Z</time>
      </trkpt>
      <trkpt lat="42.15077" lon="21.94999">
        <ele>522.703315</ele>
        <time>2022-04-10T11:34:07.063Z</time>
      </trkpt>
      <trkpt lat="42.15082" lon="21.94987">
        <ele>523.120286</ele>
        <time>2022-04-10T11:34:11.064Z</time>
      </trkpt>
      <trkpt lat="42.15091" lon="21.94979">
        <ele>523.555688</ele>
        <time>2022-04-10T11:34:16.071Z</time>
      </trkpt>
      <trkpt lat="42.15101" lon="21.94973">
        <ele>523.992253</ele>
        <time>2022-04-10T11:34:22.064Z</time>
      </trkpt>
      <trkpt lat="42.15111" lon="21.94966">
        <ele>524.435436</ele>
        <time>2022-04-10T11:34:27.073Z</time>
      </trkpt>
      <trkpt lat="42.1512" lon="21.94959">
        <ele>524.854316</ele>
        <time>2022-04-10T11:34:32.122Z</time>
      </trkpt>
      <trkpt lat="42.15128" lon="21.94952">
        <ele>525.228005</ele>
        <time>2022-04-10T11:34:38.054Z</time>
      </trkpt>
      <trkpt lat="42.15137" lon="21.94946">
        <ele>525.646354</ele>
        <time>2022-04-10T11:34:44.076Z</time>
      </trkpt>
      <trkpt lat="42.15146" lon="21.94939">
        <ele>526.043443</ele>
        <time>2022-04-10T11:34:50.094Z</time>
      </trkpt>
      <trkpt lat="42.15155" lon="21.94935">
        <ele>526.439056</ele>
        <time>2022-04-10T11:34:56.079Z</time>
      </trkpt>
      <trkpt lat="42.15165" lon="21.94929">
        <ele>526.873102</ele>
        <time>2022-04-10T11:35:02.087Z</time>
      </trkpt>
      <trkpt lat="42.15174" lon="21.94921">
        <ele>527.291705</ele>
        <time>2022-04-10T11:35:08.082Z</time>
      </trkpt>
      <trkpt lat="42.15182" lon="21.94915">
        <ele>527.779545</ele>
        <time>2022-04-10T11:35:16.064Z</time>
      </trkpt>
      <trkpt lat="42.1519" lon="21.94908">
        <ele>528.378831</ele>
        <time>2022-04-10T11:35:25.062Z</time>
      </trkpt>
      <trkpt lat="42.15199" lon="21.94902">
        <ele>528.940391</ele>
        <time>2022-04-10T11:35:31.078Z</time>
      </trkpt>
      <trkpt lat="42.15206" lon="21.94895">
        <ele>529.491248</ele>
        <time>2022-04-10T11:35:37.083Z</time>
      </trkpt>
      <trkpt lat="42.15214" lon="21.94887">
        <ele>530.02799</ele>
        <time>2022-04-10T11:35:44.077Z</time>
      </trkpt>
      <trkpt lat="42.15222" lon="21.94879">
        <ele>530.636195</ele>
        <time>2022-04-10T11:35:51.066Z</time>
      </trkpt>
      <trkpt lat="42.15228" lon="21.9487">
        <ele>531.170349</ele>
        <time>2022-04-10T11:35:56.069Z</time>
      </trkpt>
      <trkpt lat="42.15234" lon="21.94861">
        <ele>531.716791</ele>
        <time>2022-04-10T11:36:02.108Z</time>
      </trkpt>
      <trkpt lat="42.15241" lon="21.9485">
        <ele>532.315144</ele>
        <time>2022-04-10T11:36:09.082Z</time>
      </trkpt>
      <trkpt lat="42.15246" lon="21.94841">
        <ele>532.853137</ele>
        <time>2022-04-10T11:36:16.076Z</time>
      </trkpt>
      <trkpt lat="42.15254" lon="21.9483">
        <ele>533.472372</ele>
        <time>2022-04-10T11:36:22.096Z</time>
      </trkpt>
      <trkpt lat="42.15261" lon="21.9482">
        <ele>534.078028</ele>
        <time>2022-04-10T11:36:28.092Z</time>
      </trkpt>
      <trkpt lat="42.15267" lon="21.94812">
        <ele>534.616432</ele>
        <time>2022-04-10T11:36:34.064Z</time>
      </trkpt>
      <trkpt lat="42.15276" lon="21.94807">
        <ele>535.167258</ele>
        <time>2022-04-10T11:36:40.073Z</time>
      </trkpt>
      <trkpt lat="42.15284" lon="21.94801">
        <ele>535.711537</ele>
        <time>2022-04-10T11:36:46.082Z</time>
      </trkpt>
      <trkpt lat="42.15293" lon="21.94795">
        <ele>536.305615</ele>
        <time>2022-04-10T11:36:53.076Z</time>
      </trkpt>
      <trkpt lat="42.15302" lon="21.94789">
        <ele>536.88503</ele>
        <time>2022-04-10T11:36:59.079Z</time>
      </trkpt>
      <trkpt lat="42.15311" lon="21.94783">
        <ele>537.484591</ele>
        <time>2022-04-10T11:37:05.083Z</time>
      </trkpt>
      <trkpt lat="42.1532" lon="21.94777">
        <ele>538.069941</ele>
        <time>2022-04-10T11:37:11.073Z</time>
      </trkpt>
      <trkpt lat="42.15328" lon="21.94771">
        <ele>538.61269</ele>
        <time>2022-04-10T11:37:17.086Z</time>
      </trkpt>
      <trkpt lat="42.15336" lon="21.94764">
        <ele>539.131416</ele>
        <time>2022-04-10T11:37:23.050Z</time>
      </trkpt>
      <trkpt lat="42.15345" lon="21.94758">
        <ele>539.672268</ele>
        <time>2022-04-10T11:37:29.070Z</time>
      </trkpt>
      <trkpt lat="42.15354" lon="21.94753">
        <ele>540.227898</ele>
        <time>2022-04-10T11:37:35.102Z</time>
      </trkpt>
      <trkpt lat="42.15363" lon="21.94748">
        <ele>540.782361</ele>
        <time>2022-04-10T11:37:41.100Z</time>
      </trkpt>
      <trkpt lat="42.15372" lon="21.94743">
        <ele>541.328587</ele>
        <time>2022-04-10T11:37:47.121Z</time>
      </trkpt>
      <trkpt lat="42.15382" lon="21.94739">
        <ele>541.883669</ele>
        <time>2022-04-10T11:37:54.089Z</time>
      </trkpt>
      <trkpt lat="42.1539" lon="21.94733">
        <ele>542.400774</ele>
        <time>2022-04-10T11:38:01.071Z</time>
      </trkpt>
      <trkpt lat="42.15399" lon="21.94728">
        <ele>542.959899</ele>
        <time>2022-04-10T11:38:08.072Z</time>
      </trkpt>
      <trkpt lat="42.15406" lon="21.9472">
        <ele>543.46886</ele>
        <time>2022-04-10T11:38:14.070Z</time>
      </trkpt>
      <trkpt lat="42.15405" lon="21.94706">
        <ele>544.038878</ele>
        <time>2022-04-10T11:38:21.060Z</time>
      </trkpt>
      <trkpt lat="42.15402" lon="21.94695">
        <ele>544.549527</ele>
        <time>2022-04-10T11:38:27.075Z</time>
      </trkpt>
      <trkpt lat="42.15398" lon="21.94682">
        <ele>545.110685</ele>
        <time>2022-04-10T11:38:34.067Z</time>
      </trkpt>
      <trkpt lat="42.15394" lon="21.94671">
        <ele>545.645517</ele>
        <time>2022-04-10T11:38:41.080Z</time>
      </trkpt>
      <trkpt lat="42.15387" lon="21.9466">
        <ele>546.213629</ele>
        <time>2022-04-10T11:38:48.060Z</time>
      </trkpt>
      <trkpt lat="42.15384" lon="21.94648">
        <ele>546.763052</ele>
        <time>2022-04-10T11:38:57.113Z</time>
      </trkpt>
      <trkpt lat="42.15378" lon="21.94638">
        <ele>547.27807</ele>
        <time>2022-04-10T11:39:04.079Z</time>
      </trkpt>
      <trkpt lat="42.15374" lon="21.94627">
        <ele>547.789722</ele>
        <time>2022-04-10T11:39:10.081Z</time>
      </trkpt>
      <trkpt lat="42.15371" lon="21.94615">
        <ele>548.197233</ele>
        <time>2022-04-10T11:39:18.077Z</time>
      </trkpt>
      <trkpt lat="42.15368" lon="21.94601">
        <ele>548.406357</ele>
        <time>2022-04-10T11:39:26.101Z</time>
      </trkpt>
      <trkpt lat="42.15367" lon="21.94589">
        <ele>548.585604</ele>
        <time>2022-04-10T11:39:32.098Z</time>
      </trkpt>
      <trkpt lat="42.15372" lon="21.94579">
        <ele>548.765886</ele>
        <time>2022-04-10T11:39:39.073Z</time>
      </trkpt>
      <trkpt lat="42.15379" lon="21.9457">
        <ele>548.951366</ele>
        <time>2022-04-10T11:39:46.086Z</time>
      </trkpt>
      <trkpt lat="42.15385" lon="21.9456">
        <ele>549.145473</ele>
        <time>2022-04-10T11:39:52.088Z</time>
      </trkpt>
      <trkpt lat="42.15392" lon="21.94551">
        <ele>549.337953</ele>
        <time>2022-04-10T11:39:59.054Z</time>
      </trkpt>
      <trkpt lat="42.15399" lon="21.94542">
        <ele>549.531792</ele>
        <time>2022-04-10T11:40:06.067Z</time>
      </trkpt>
      <trkpt lat="42.15401" lon="21.94528">
        <ele>549.730234</ele>
        <time>2022-04-10T11:40:13.091Z</time>
      </trkpt>
      <trkpt lat="42.15402" lon="21.94515">
        <ele>549.923744</ele>
        <time>2022-04-10T11:40:19.107Z</time>
      </trkpt>
      <trkpt lat="42.15404" lon="21.94503">
        <ele>550.112826</ele>
        <time>2022-04-10T11:40:25.066Z</time>
      </trkpt>
      <trkpt lat="42.15403" lon="21.9449">
        <ele>550.303655</ele>
        <time>2022-04-10T11:40:30.121Z</time>
      </trkpt>
      <trkpt lat="42.15402" lon="21.94477">
        <ele>550.489273</ele>
        <time>2022-04-10T11:40:34.077Z</time>
      </trkpt>
      <trkpt lat="42.15402" lon="21.94464">
        <ele>550.684529</ele>
        <time>2022-04-10T11:40:38.069Z</time>
      </trkpt>
      <trkpt lat="42.15403" lon="21.94449">
        <ele>550.90139</ele>
        <time>2022-04-10T11:40:42.077Z</time>
      </trkpt>
      <trkpt lat="42.15404" lon="21.94433">
        <ele>551.138234</ele>
        <time>2022-04-10T11:40:46.077Z</time>
      </trkpt>
      <trkpt lat="42.15404" lon="21.94418">
        <ele>551.356196</ele>
        <time>2022-04-10T11:40:49.104Z</time>
      </trkpt>
      <trkpt lat="42.15406" lon="21.94402">
        <ele>551.592913</ele>
        <time>2022-04-10T11:40:52.071Z</time>
      </trkpt>
      <trkpt lat="42.15408" lon="21.94385">
        <ele>551.307418</ele>
        <time>2022-04-10T11:40:55.079Z</time>
      </trkpt>
      <trkpt lat="42.15409" lon="21.94373">
        <ele>550.863845</ele>
        <time>2022-04-10T11:40:57.068Z</time>
      </trkpt>
      <trkpt lat="42.15411" lon="21.94361">
        <ele>550.425104</ele>
        <time>2022-04-10T11:40:59.075Z</time>
      </trkpt>
      <trkpt lat="42.15417" lon="21.94346">
        <ele>549.836391</ele>
        <time>2022-04-10T11:41:02.095Z</time>
      </trkpt>
      <trkpt lat="42.15422" lon="21.94331">
        <ele>549.262459</ele>
        <time>2022-04-10T11:41:05.075Z</time>
      </trkpt>
      <trkpt lat="42.15425" lon="21.94317">
        <ele>548.752916</ele>
        <time>2022-04-10T11:41:08.069Z</time>
      </trkpt>
      <trkpt lat="42.15427" lon="21.94302">
        <ele>548.21745</ele>
        <time>2022-04-10T11:41:11.077Z</time>
      </trkpt>
      <trkpt lat="42.1543" lon="21.94291">
        <ele>547.777035</ele>
        <time>2022-04-10T11:41:13.082Z</time>
      </trkpt>
      <trkpt lat="42.15433" lon="21.94277">
        <ele>547.268467</ele>
        <time>2022-04-10T11:41:15.070Z</time>
      </trkpt>
      <trkpt lat="42.15437" lon="21.94262">
        <ele>546.730406</ele>
        <time>2022-04-10T11:41:17.076Z</time>
      </trkpt>
      <trkpt lat="42.1544" lon="21.94249">
        <ele>546.222262</ele>
        <time>2022-04-10T11:41:19.078Z</time>
      </trkpt>
      <trkpt lat="42.15444" lon="21.94236">
        <ele>545.727143</ele>
        <time>2022-04-10T11:41:21.082Z</time>
      </trkpt>
      <trkpt lat="42.15448" lon="21.94224">
        <ele>545.284986</ele>
        <time>2022-04-10T11:41:23.075Z</time>
      </trkpt>
      <trkpt lat="42.15451" lon="21.94213">
        <ele>544.846098</ele>
        <time>2022-04-10T11:41:25.100Z</time>
      </trkpt>
      <trkpt lat="42.15455" lon="21.942">
        <ele>544.366068</ele>
        <time>2022-04-10T11:41:27.195Z</time>
      </trkpt>
      <trkpt lat="42.15459" lon="21.94186">
        <ele>543.838005</ele>
        <time>2022-04-10T11:41:29.076Z</time>
      </trkpt>
      <trkpt lat="42.15464" lon="21.94172">
        <ele>543.280942</ele>
        <time>2022-04-10T11:41:31.061Z</time>
      </trkpt>
      <trkpt lat="42.1547" lon="21.94158">
        <ele>542.87364</ele>
        <time>2022-04-10T11:41:33.089Z</time>
      </trkpt>
      <trkpt lat="42.15475" lon="21.94144">
        <ele>542.528798</ele>
        <time>2022-04-10T11:41:35.074Z</time>
      </trkpt>
      <trkpt lat="42.15481" lon="21.9413">
        <ele>542.171158</ele>
        <time>2022-04-10T11:41:37.060Z</time>
      </trkpt>
      <trkpt lat="42.15487" lon="21.94115">
        <ele>541.805976</ele>
        <time>2022-04-10T11:41:39.068Z</time>
      </trkpt>
      <trkpt lat="42.15492" lon="21.941">
        <ele>541.460094</ele>
        <time>2022-04-10T11:41:41.085Z</time>
      </trkpt>
      <trkpt lat="42.15496" lon="21.94086">
        <ele>541.134712</ele>
        <time>2022-04-10T11:41:43.093Z</time>
      </trkpt>
      <trkpt lat="42.155" lon="21.94074">
        <ele>540.839842</ele>
        <time>2022-04-10T11:41:45.065Z</time>
      </trkpt>
      <trkpt lat="42.15504" lon="21.94062">
        <ele>540.556095</ele>
        <time>2022-04-10T11:41:47.080Z</time>
      </trkpt>
      <trkpt lat="42.15508" lon="21.94051">
        <ele>540.281429</ele>
        <time>2022-04-10T11:41:49.081Z</time>
      </trkpt>
      <trkpt lat="42.15514" lon="21.94034">
        <ele>539.895597</ele>
        <time>2022-04-10T11:41:52.063Z</time>
      </trkpt>
      <trkpt lat="42.15519" lon="21.94022">
        <ele>539.585243</ele>
        <time>2022-04-10T11:41:55.088Z</time>
      </trkpt>
      <trkpt lat="42.15524" lon="21.94009">
        <ele>539.275366</ele>
        <time>2022-04-10T11:41:59.078Z</time>
      </trkpt>
      <trkpt lat="42.15531" lon="21.93999">
        <ele>538.973631</ele>
        <time>2022-04-10T11:42:04.067Z</time>
      </trkpt>
      <trkpt lat="42.15542" lon="21.93997">
        <ele>538.637476</ele>
        <time>2022-04-10T11:42:09.069Z</time>
      </trkpt>
      <trkpt lat="42.15553" lon="21.93993">
        <ele>538.290741</ele>
        <time>2022-04-10T11:42:13.167Z</time>
      </trkpt>
      <trkpt lat="42.15565" lon="21.9399">
        <ele>537.952663</ele>
        <time>2022-04-10T11:42:17.070Z</time>
      </trkpt>
      <trkpt lat="42.15576" lon="21.93988">
        <ele>538.236481</ele>
        <time>2022-04-10T11:42:21.084Z</time>
      </trkpt>
      <trkpt lat="42.15586" lon="21.93986">
        <ele>538.699156</ele>
        <time>2022-04-10T11:42:25.078Z</time>
      </trkpt>
      <trkpt lat="42.15595" lon="21.93984">
        <ele>539.125808</ele>
        <time>2022-04-10T11:42:29.083Z</time>
      </trkpt>
      <trkpt lat="42.15606" lon="21.93983">
        <ele>539.628256</ele>
        <time>2022-04-10T11:42:34.088Z</time>
      </trkpt>
      <trkpt lat="42.15616" lon="21.93983">
        <ele>540.052012</ele>
        <time>2022-04-10T11:42:38.080Z</time>
      </trkpt>
      <trkpt lat="42.15626" lon="21.93982">
        <ele>540.521793</ele>
        <time>2022-04-10T11:42:43.087Z</time>
      </trkpt>
      <trkpt lat="42.15637" lon="21.93981">
        <ele>541.010147</ele>
        <time>2022-04-10T11:42:50.077Z</time>
      </trkpt>
      <trkpt lat="42.15646" lon="21.93979">
        <ele>541.428718</ele>
        <time>2022-04-10T11:42:54.076Z</time>
      </trkpt>
      <trkpt lat="42.15655" lon="21.93975">
        <ele>541.863642</ele>
        <time>2022-04-10T11:42:59.072Z</time>
      </trkpt>
      <trkpt lat="42.15664" lon="21.9397">
        <ele>542.326592</ele>
        <time>2022-04-10T11:43:06.077Z</time>
      </trkpt>
      <trkpt lat="42.15672" lon="21.93964">
        <ele>542.742161</ele>
        <time>2022-04-10T11:43:12.083Z</time>
      </trkpt>
      <trkpt lat="42.15678" lon="21.93954">
        <ele>543.165365</ele>
        <time>2022-04-10T11:43:18.074Z</time>
      </trkpt>
      <trkpt lat="42.1568" lon="21.93941">
        <ele>543.599857</ele>
        <time>2022-04-10T11:43:25.106Z</time>
      </trkpt>
      <trkpt lat="42.15681" lon="21.93928">
        <ele>544.045691</ele>
        <time>2022-04-10T11:43:31.086Z</time>
      </trkpt>
      <trkpt lat="42.15681" lon="21.93915">
        <ele>544.501586</ele>
        <time>2022-04-10T11:43:37.072Z</time>
      </trkpt>
      <trkpt lat="42.15681" lon="21.93901">
        <ele>544.961037</ele>
        <time>2022-04-10T11:43:43.087Z</time>
      </trkpt>
      <trkpt lat="42.15681" lon="21.93888">
        <ele>545.413532</ele>
        <time>2022-04-10T11:43:49.070Z</time>
      </trkpt>
      <trkpt lat="42.1568" lon="21.93875">
        <ele>545.850664</ele>
        <time>2022-04-10T11:43:55.086Z</time>
      </trkpt>
      <trkpt lat="42.15678" lon="21.93862">
        <ele>545.911688</ele>
        <time>2022-04-10T11:44:01.085Z</time>
      </trkpt>
      <trkpt lat="42.15676" lon="21.93849">
        <ele>545.601721</ele>
        <time>2022-04-10T11:44:07.078Z</time>
      </trkpt>
      <trkpt lat="42.15675" lon="21.93836">
        <ele>545.323823</ele>
        <time>2022-04-10T11:44:12.078Z</time>
      </trkpt>
      <trkpt lat="42.15674" lon="21.93822">
        <ele>545.011848</ele>
        <time>2022-04-10T11:44:17.079Z</time>
      </trkpt>
      <trkpt lat="42.15672" lon="21.93809">
        <ele>544.733258</ele>
        <time>2022-04-10T11:44:21.084Z</time>
      </trkpt>
      <trkpt lat="42.15671" lon="21.93794">
        <ele>544.403089</ele>
        <time>2022-04-10T11:44:25.067Z</time>
      </trkpt>
      <trkpt lat="42.15671" lon="21.93782">
        <ele>544.13114</ele>
        <time>2022-04-10T11:44:28.086Z</time>
      </trkpt>
      <trkpt lat="42.15671" lon="21.93767">
        <ele>543.803726</ele>
        <time>2022-04-10T11:44:31.089Z</time>
      </trkpt>
      <trkpt lat="42.15673" lon="21.93751">
        <ele>543.447874</ele>
        <time>2022-04-10T11:44:34.076Z</time>
      </trkpt>
      <trkpt lat="42.15675" lon="21.93734">
        <ele>543.07562</ele>
        <time>2022-04-10T11:44:37.102Z</time>
      </trkpt>
      <trkpt lat="42.15678" lon="21.93718">
        <ele>542.698719</ele>
        <time>2022-04-10T11:44:40.100Z</time>
      </trkpt>
      <trkpt lat="42.15682" lon="21.93702">
        <ele>542.338826</ele>
        <time>2022-04-10T11:44:43.089Z</time>
      </trkpt>
      <trkpt lat="42.15689" lon="21.93688">
        <ele>541.971296</ele>
        <time>2022-04-10T11:44:46.075Z</time>
      </trkpt>
      <trkpt lat="42.15697" lon="21.93675">
        <ele>541.585587</ele>
        <time>2022-04-10T11:44:49.115Z</time>
      </trkpt>
      <trkpt lat="42.15706" lon="21.93665">
        <ele>541.251938</ele>
        <time>2022-04-10T11:44:52.082Z</time>
      </trkpt>
      <trkpt lat="42.15714" lon="21.93655">
        <ele>540.943194</ele>
        <time>2022-04-10T11:44:55.094Z</time>
      </trkpt>
      <trkpt lat="42.1572" lon="21.93646">
        <ele>540.552762</ele>
        <time>2022-04-10T11:44:57.084Z</time>
      </trkpt>
      <trkpt lat="42.15727" lon="21.93637">
        <ele>539.826715</ele>
        <time>2022-04-10T11:44:59.079Z</time>
      </trkpt>
      <trkpt lat="42.15733" lon="21.93628">
        <ele>539.111224</ele>
        <time>2022-04-10T11:45:01.080Z</time>
      </trkpt>
      <trkpt lat="42.15742" lon="21.93615">
        <ele>538.13889</ele>
        <time>2022-04-10T11:45:04.087Z</time>
      </trkpt>
      <trkpt lat="42.15749" lon="21.93601">
        <ele>537.163783</ele>
        <time>2022-04-10T11:45:07.093Z</time>
      </trkpt>
      <trkpt lat="42.15753" lon="21.93588">
        <ele>536.384653</ele>
        <time>2022-04-10T11:45:10.073Z</time>
      </trkpt>
      <trkpt lat="42.15756" lon="21.93574">
        <ele>535.556044</ele>
        <time>2022-04-10T11:45:13.089Z</time>
      </trkpt>
      <trkpt lat="42.15759" lon="21.9356">
        <ele>534.723824</ele>
        <time>2022-04-10T11:45:16.077Z</time>
      </trkpt>
      <trkpt lat="42.15764" lon="21.93548">
        <ele>533.945553</ele>
        <time>2022-04-10T11:45:19.105Z</time>
      </trkpt>
      <trkpt lat="42.15772" lon="21.93537">
        <ele>533.059429</ele>
        <time>2022-04-10T11:45:22.112Z</time>
      </trkpt>
      <trkpt lat="42.15781" lon="21.93528">
        <ele>532.190032</ele>
        <time>2022-04-10T11:45:25.089Z</time>
      </trkpt>
      <trkpt lat="42.15793" lon="21.9352">
        <ele>531.215159</ele>
        <time>2022-04-10T11:45:28.079Z</time>
      </trkpt>
      <trkpt lat="42.15806" lon="21.93513">
        <ele>530.161697</ele>
        <time>2022-04-10T11:45:31.066Z</time>
      </trkpt>
      <trkpt lat="42.15818" lon="21.93511">
        <ele>529.199999</ele>
        <time>2022-04-10T11:45:34.068Z</time>
      </trkpt>
      <trkpt lat="42.1583" lon="21.9351">
        <ele>528.286179</ele>
        <time>2022-04-10T11:45:37.079Z</time>
      </trkpt>
      <trkpt lat="42.15854" lon="21.93511">
        <ele>526.721737</ele>
        <time>2022-04-10T11:51:44.082Z</time>
      </trkpt>
      <trkpt lat="42.15868" lon="21.93514">
        <ele>526.250142</ele>
        <time>2022-04-10T11:51:47.061Z</time>
      </trkpt>
      <trkpt lat="42.15878" lon="21.93516">
        <ele>525.90707</ele>
        <time>2022-04-10T11:51:49.069Z</time>
      </trkpt>
      <trkpt lat="42.1589" lon="21.93519">
        <ele>525.455037</ele>
        <time>2022-04-10T11:51:52.089Z</time>
      </trkpt>
      <trkpt lat="42.15903" lon="21.93522">
        <ele>525.023177</ele>
        <time>2022-04-10T11:51:55.081Z</time>
      </trkpt>
      <trkpt lat="42.15914" lon="21.93524">
        <ele>524.640877</ele>
        <time>2022-04-10T11:51:58.083Z</time>
      </trkpt>
      <trkpt lat="42.15924" lon="21.93525">
        <ele>524.278584</ele>
        <time>2022-04-10T11:52:01.074Z</time>
      </trkpt>
      <trkpt lat="42.15934" lon="21.93528">
        <ele>523.940815</ele>
        <time>2022-04-10T11:52:04.086Z</time>
      </trkpt>
      <trkpt lat="42.15944" lon="21.93529">
        <ele>523.568159</ele>
        <time>2022-04-10T11:52:08.062Z</time>
      </trkpt>
      <trkpt lat="42.15954" lon="21.93534">
        <ele>523.213495</ele>
        <time>2022-04-10T11:52:12.089Z</time>
      </trkpt>
      <trkpt lat="42.15962" lon="21.9354">
        <ele>522.892732</ele>
        <time>2022-04-10T11:52:15.085Z</time>
      </trkpt>
      <trkpt lat="42.15971" lon="21.93543">
        <ele>522.58125</ele>
        <time>2022-04-10T11:52:18.068Z</time>
      </trkpt>
      <trkpt lat="42.15982" lon="21.93545">
        <ele>522.17527</ele>
        <time>2022-04-10T11:52:22.108Z</time>
      </trkpt>
      <trkpt lat="42.15992" lon="21.93544">
        <ele>521.838322</ele>
        <time>2022-04-10T11:52:25.079Z</time>
      </trkpt>
      <trkpt lat="42.16" lon="21.93539">
        <ele>521.518799</ele>
        <time>2022-04-10T11:52:28.124Z</time>
      </trkpt>
      <trkpt lat="42.16007" lon="21.9353">
        <ele>521.180469</ele>
        <time>2022-04-10T11:52:32.075Z</time>
      </trkpt>
      <trkpt lat="42.16011" lon="21.93514">
        <ele>520.770443</ele>
        <time>2022-04-10T11:52:36.077Z</time>
      </trkpt>
      <trkpt lat="42.16012" lon="21.93502">
        <ele>520.794717</ele>
        <time>2022-04-10T11:52:39.081Z</time>
      </trkpt>
      <trkpt lat="42.1601" lon="21.93486">
        <ele>520.875914</ele>
        <time>2022-04-10T11:52:43.074Z</time>
      </trkpt>
      <trkpt lat="42.16007" lon="21.93474">
        <ele>520.941941</ele>
        <time>2022-04-10T11:52:47.076Z</time>
      </trkpt>
      <trkpt lat="42.16001" lon="21.93463">
        <ele>521.016429</ele>
        <time>2022-04-10T11:52:52.068Z</time>
      </trkpt>
      <trkpt lat="42.15996" lon="21.93452">
        <ele>521.081069</ele>
        <time>2022-04-10T11:52:56.114Z</time>
      </trkpt>
      <trkpt lat="42.1599" lon="21.9344">
        <ele>521.153902</ele>
        <time>2022-04-10T11:53:01.087Z</time>
      </trkpt>
      <trkpt lat="42.15986" lon="21.93427">
        <ele>521.230709</ele>
        <time>2022-04-10T11:53:06.088Z</time>
      </trkpt>
      <trkpt lat="42.15982" lon="21.93416">
        <ele>521.296316</ele>
        <time>2022-04-10T11:53:10.081Z</time>
      </trkpt>
      <trkpt lat="42.15979" lon="21.93404">
        <ele>521.359925</ele>
        <time>2022-04-10T11:53:14.121Z</time>
      </trkpt>
      <trkpt lat="42.15975" lon="21.93393">
        <ele>521.425817</ele>
        <time>2022-04-10T11:53:18.074Z</time>
      </trkpt>
      <trkpt lat="42.15971" lon="21.93381">
        <ele>521.496396</ele>
        <time>2022-04-10T11:53:23.099Z</time>
      </trkpt>
      <trkpt lat="42.15968" lon="21.93366">
        <ele>521.576882</ele>
        <time>2022-04-10T11:53:27.075Z</time>
      </trkpt>
      <trkpt lat="42.15964" lon="21.93353">
        <ele>521.647321</ele>
        <time>2022-04-10T11:53:31.120Z</time>
      </trkpt>
      <trkpt lat="42.15959" lon="21.9334">
        <ele>521.725047</ele>
        <time>2022-04-10T11:53:35.092Z</time>
      </trkpt>
      <trkpt lat="42.15955" lon="21.93325">
        <ele>521.808238</ele>
        <time>2022-04-10T11:53:39.091Z</time>
      </trkpt>
      <trkpt lat="42.1595" lon="21.93311">
        <ele>521.890718</ele>
        <time>2022-04-10T11:53:43.097Z</time>
      </trkpt>
      <trkpt lat="42.15947" lon="21.93295">
        <ele>521.974514</ele>
        <time>2022-04-10T11:53:47.087Z</time>
      </trkpt>
      <trkpt lat="42.15943" lon="21.93282">
        <ele>521.962884</ele>
        <time>2022-04-10T11:53:51.080Z</time>
      </trkpt>
      <trkpt lat="42.15939" lon="21.9327">
        <ele>521.901163</ele>
        <time>2022-04-10T11:53:54.078Z</time>
      </trkpt>
      <trkpt lat="42.15937" lon="21.93258">
        <ele>521.837501</ele>
        <time>2022-04-10T11:53:57.086Z</time>
      </trkpt>
      <trkpt lat="42.15936" lon="21.93244">
        <ele>521.773128</ele>
        <time>2022-04-10T11:54:00.068Z</time>
      </trkpt>
      <trkpt lat="42.15937" lon="21.93232">
        <ele>521.711577</ele>
        <time>2022-04-10T11:54:03.089Z</time>
      </trkpt>
      <trkpt lat="42.15939" lon="21.93217">
        <ele>521.638864</ele>
        <time>2022-04-10T11:54:07.086Z</time>
      </trkpt>
      <trkpt lat="42.15942" lon="21.93203">
        <ele>521.569791</ele>
        <time>2022-04-10T11:54:11.078Z</time>
      </trkpt>
      <trkpt lat="42.15945" lon="21.9319">
        <ele>521.502159</ele>
        <time>2022-04-10T11:54:15.099Z</time>
      </trkpt>
      <trkpt lat="42.15948" lon="21.93177">
        <ele>521.437285</ele>
        <time>2022-04-10T11:54:19.102Z</time>
      </trkpt>
      <trkpt lat="42.15951" lon="21.93164">
        <ele>521.370654</ele>
        <time>2022-04-10T11:54:23.090Z</time>
      </trkpt>
      <trkpt lat="42.15955" lon="21.9315">
        <ele>521.298941</ele>
        <time>2022-04-10T11:54:27.095Z</time>
      </trkpt>
      <trkpt lat="42.15959" lon="21.93136">
        <ele>521.223357</ele>
        <time>2022-04-10T11:54:31.082Z</time>
      </trkpt>
      <trkpt lat="42.15962" lon="21.9312">
        <ele>521.146297</ele>
        <time>2022-04-10T11:54:35.098Z</time>
      </trkpt>
      <trkpt lat="42.15964" lon="21.93107">
        <ele>521.083335</ele>
        <time>2022-04-10T11:54:38.068Z</time>
      </trkpt>
      <trkpt lat="42.15967" lon="21.93094">
        <ele>521.017234</ele>
        <time>2022-04-10T11:54:41.074Z</time>
      </trkpt>
      <trkpt lat="42.1597" lon="21.9308">
        <ele>520.945307</ele>
        <time>2022-04-10T11:54:44.097Z</time>
      </trkpt>
      <trkpt lat="42.15973" lon="21.93064">
        <ele>520.865901</ele>
        <time>2022-04-10T11:54:47.087Z</time>
      </trkpt>
      <trkpt lat="42.15977" lon="21.93049">
        <ele>520.87388</ele>
        <time>2022-04-10T11:54:50.080Z</time>
      </trkpt>
      <trkpt lat="42.15981" lon="21.93034">
        <ele>520.949375</ele>
        <time>2022-04-10T11:54:53.082Z</time>
      </trkpt>
      <trkpt lat="42.15985" lon="21.93018">
        <ele>521.030254</ele>
        <time>2022-04-10T11:54:56.082Z</time>
      </trkpt>
      <trkpt lat="42.15989" lon="21.93005">
        <ele>521.099644</ele>
        <time>2022-04-10T11:54:59.094Z</time>
      </trkpt>
      <trkpt lat="42.15992" lon="21.92993">
        <ele>521.159721</ele>
        <time>2022-04-10T11:55:02.080Z</time>
      </trkpt>
      <trkpt lat="42.15995" lon="21.9298">
        <ele>521.223832</ele>
        <time>2022-04-10T11:55:06.081Z</time>
      </trkpt>
      <trkpt lat="42.15997" lon="21.92967">
        <ele>521.287456</ele>
        <time>2022-04-10T11:55:10.079Z</time>
      </trkpt>
      <trkpt lat="42.16" lon="21.92953">
        <ele>521.356679</ele>
        <time>2022-04-10T11:55:14.101Z</time>
      </trkpt>
      <trkpt lat="42.16003" lon="21.9294">
        <ele>521.423787</ele>
        <time>2022-04-10T11:55:18.082Z</time>
      </trkpt>
      <trkpt lat="42.16005" lon="21.92928">
        <ele>521.482641</ele>
        <time>2022-04-10T11:55:23.130Z</time>
      </trkpt>
      <trkpt lat="42.16009" lon="21.92916">
        <ele>521.544112</ele>
        <time>2022-04-10T11:55:28.089Z</time>
      </trkpt>
      <trkpt lat="42.16011" lon="21.92904">
        <ele>521.60416</ele>
        <time>2022-04-10T11:55:33.076Z</time>
      </trkpt>
      <trkpt lat="42.16016" lon="21.92892">
        <ele>521.671786</ele>
        <time>2022-04-10T11:55:39.082Z</time>
      </trkpt>
      <trkpt lat="42.16018" lon="21.9288">
        <ele>521.73221</ele>
        <time>2022-04-10T11:55:45.083Z</time>
      </trkpt>
      <trkpt lat="42.16019" lon="21.92866">
        <ele>521.799145</ele>
        <time>2022-04-10T11:55:51.079Z</time>
      </trkpt>
      <trkpt lat="42.1602" lon="21.92852">
        <ele>521.86871</ele>
        <time>2022-04-10T11:55:57.129Z</time>
      </trkpt>
      <trkpt lat="42.1602" lon="21.92839">
        <ele>521.930403</ele>
        <time>2022-04-10T11:56:03.084Z</time>
      </trkpt>
      <trkpt lat="42.16017" lon="21.92827">
        <ele>521.991356</ele>
        <time>2022-04-10T11:56:09.084Z</time>
      </trkpt>
      <trkpt lat="42.16014" lon="21.92815">
        <ele>521.942412</ele>
        <time>2022-04-10T11:56:14.080Z</time>
      </trkpt>
      <trkpt lat="42.1601" lon="21.92802">
        <ele>521.872855</ele>
        <time>2022-04-10T11:56:19.114Z</time>
      </trkpt>
      <trkpt lat="42.16009" lon="21.92787">
        <ele>521.797864</ele>
        <time>2022-04-10T11:56:24.073Z</time>
      </trkpt>
      <trkpt lat="42.16006" lon="21.92774">
        <ele>521.731534</ele>
        <time>2022-04-10T11:56:28.095Z</time>
      </trkpt>
      <trkpt lat="42.16006" lon="21.92758">
        <ele>521.6554</ele>
        <time>2022-04-10T11:56:32.091Z</time>
      </trkpt>
      <trkpt lat="42.16007" lon="21.92744">
        <ele>521.585437</ele>
        <time>2022-04-10T11:56:35.087Z</time>
      </trkpt>
      <trkpt lat="42.16009" lon="21.92728">
        <ele>521.5006</ele>
        <time>2022-04-10T11:56:38.115Z</time>
      </trkpt>
      <trkpt lat="42.16013" lon="21.92712">
        <ele>521.418489</ele>
        <time>2022-04-10T11:56:41.128Z</time>
      </trkpt>
      <trkpt lat="42.16016" lon="21.92696">
        <ele>521.337604</ele>
        <time>2022-04-10T11:56:44.075Z</time>
      </trkpt>
      <trkpt lat="42.1602" lon="21.92681">
        <ele>521.257755</ele>
        <time>2022-04-10T11:56:47.084Z</time>
      </trkpt>
      <trkpt lat="42.16024" lon="21.92665">
        <ele>521.173096</ele>
        <time>2022-04-10T11:56:50.085Z</time>
      </trkpt>
      <trkpt lat="42.16028" lon="21.92648">
        <ele>521.086584</ele>
        <time>2022-04-10T11:56:53.073Z</time>
      </trkpt>
      <trkpt lat="42.16031" lon="21.92637">
        <ele>521.025664</ele>
        <time>2022-04-10T11:56:55.085Z</time>
      </trkpt>
      <trkpt lat="42.16036" lon="21.92623">
        <ele>520.948761</ele>
        <time>2022-04-10T11:56:58.098Z</time>
      </trkpt>
      <trkpt lat="42.16039" lon="21.92611">
        <ele>520.887891</ele>
        <time>2022-04-10T11:57:01.075Z</time>
      </trkpt>
      <trkpt lat="42.16043" lon="21.92597">
        <ele>520.809298</ele>
        <time>2022-04-10T11:57:05.079Z</time>
      </trkpt>
      <trkpt lat="42.16046" lon="21.92584">
        <ele>520.751296</ele>
        <time>2022-04-10T11:57:08.099Z</time>
      </trkpt>
      <trkpt lat="42.16049" lon="21.92571">
        <ele>520.693145</ele>
        <time>2022-04-10T11:57:11.087Z</time>
      </trkpt>
      <trkpt lat="42.16052" lon="21.92558">
        <ele>520.633033</ele>
        <time>2022-04-10T11:57:14.128Z</time>
      </trkpt>
      <trkpt lat="42.16055" lon="21.92545">
        <ele>520.57426</ele>
        <time>2022-04-10T11:57:17.077Z</time>
      </trkpt>
      <trkpt lat="42.16059" lon="21.92533">
        <ele>520.516579</ele>
        <time>2022-04-10T11:57:20.135Z</time>
      </trkpt>
      <trkpt lat="42.16061" lon="21.92521">
        <ele>520.463246</ele>
        <time>2022-04-10T11:57:23.079Z</time>
      </trkpt>
      <trkpt lat="42.16065" lon="21.92506">
        <ele>520.397323</ele>
        <time>2022-04-10T11:57:27.081Z</time>
      </trkpt>
      <trkpt lat="42.16068" lon="21.92492">
        <ele>520.334675</ele>
        <time>2022-04-10T11:57:31.126Z</time>
      </trkpt>
      <trkpt lat="42.16071" lon="21.92478">
        <ele>520.272185</ele>
        <time>2022-04-10T11:57:35.077Z</time>
      </trkpt>
      <trkpt lat="42.16072" lon="21.92464">
        <ele>520.212946</ele>
        <time>2022-04-10T11:57:39.086Z</time>
      </trkpt>
      <trkpt lat="42.16073" lon="21.92451">
        <ele>520.153145</ele>
        <time>2022-04-10T11:57:43.126Z</time>
      </trkpt>
      <trkpt lat="42.16076" lon="21.92437">
        <ele>520.092558</ele>
        <time>2022-04-10T11:57:47.098Z</time>
      </trkpt>
      <trkpt lat="42.16078" lon="21.92423">
        <ele>520.02989</ele>
        <time>2022-04-10T11:57:51.085Z</time>
      </trkpt>
      <trkpt lat="42.1608" lon="21.92408">
        <ele>519.965932</ele>
        <time>2022-04-10T11:57:55.069Z</time>
      </trkpt>
      <trkpt lat="42.16081" lon="21.92395">
        <ele>519.907284</ele>
        <time>2022-04-10T11:57:59.094Z</time>
      </trkpt>
      <trkpt lat="42.16082" lon="21.9238">
        <ele>519.844625</ele>
        <time>2022-04-10T11:58:03.088Z</time>
      </trkpt>
      <trkpt lat="42.16081" lon="21.92364">
        <ele>519.775431</ele>
        <time>2022-04-10T11:58:07.078Z</time>
      </trkpt>
      <trkpt lat="42.16079" lon="21.92351">
        <ele>519.434286</ele>
        <time>2022-04-10T11:58:10.124Z</time>
      </trkpt>
      <trkpt lat="42.16077" lon="21.92338">
        <ele>518.854453</ele>
        <time>2022-04-10T11:58:13.076Z</time>
      </trkpt>
      <trkpt lat="42.16075" lon="21.92325">
        <ele>518.260278</ele>
        <time>2022-04-10T11:58:16.088Z</time>
      </trkpt>
      <trkpt lat="42.16073" lon="21.9231">
        <ele>517.567165</ele>
        <time>2022-04-10T11:58:19.092Z</time>
      </trkpt>
      <trkpt lat="42.16072" lon="21.92296">
        <ele>516.943564</ele>
        <time>2022-04-10T11:58:22.086Z</time>
      </trkpt>
      <trkpt lat="42.1607" lon="21.92281">
        <ele>516.287424</ele>
        <time>2022-04-10T11:58:25.101Z</time>
      </trkpt>
      <trkpt lat="42.16067" lon="21.92265">
        <ele>515.575859</ele>
        <time>2022-04-10T11:58:28.104Z</time>
      </trkpt>
      <trkpt lat="42.16064" lon="21.92249">
        <ele>514.819784</ele>
        <time>2022-04-10T11:58:31.084Z</time>
      </trkpt>
      <trkpt lat="42.16061" lon="21.92232">
        <ele>514.047973</ele>
        <time>2022-04-10T11:58:34.089Z</time>
      </trkpt>
      <trkpt lat="42.16059" lon="21.92216">
        <ele>513.327839</ele>
        <time>2022-04-10T11:58:37.082Z</time>
      </trkpt>
      <trkpt lat="42.16059" lon="21.92201">
        <ele>512.666614</ele>
        <time>2022-04-10T11:58:40.084Z</time>
      </trkpt>
      <trkpt lat="42.16061" lon="21.92185">
        <ele>511.950874</ele>
        <time>2022-04-10T11:58:43.088Z</time>
      </trkpt>
      <trkpt lat="42.16065" lon="21.9217">
        <ele>511.22527</ele>
        <time>2022-04-10T11:58:46.066Z</time>
      </trkpt>
      <trkpt lat="42.16071" lon="21.92157">
        <ele>510.579006</ele>
        <time>2022-04-10T11:58:49.124Z</time>
      </trkpt>
      <trkpt lat="42.16077" lon="21.92145">
        <ele>509.937312</ele>
        <time>2022-04-10T11:58:52.096Z</time>
      </trkpt>
      <trkpt lat="42.16082" lon="21.92135">
        <ele>509.391872</ele>
        <time>2022-04-10T11:58:55.076Z</time>
      </trkpt>
      <trkpt lat="42.16087" lon="21.92124">
        <ele>508.790346</ele>
        <time>2022-04-10T11:58:58.057Z</time>
      </trkpt>
      <trkpt lat="42.16091" lon="21.9211">
        <ele>508.070323</ele>
        <time>2022-04-10T11:59:02.068Z</time>
      </trkpt>
      <trkpt lat="42.16097" lon="21.92099">
        <ele>507.466626</ele>
        <time>2022-04-10T11:59:05.118Z</time>
      </trkpt>
      <trkpt lat="42.16104" lon="21.92088">
        <ele>506.76381</ele>
        <time>2022-04-10T11:59:08.088Z</time>
      </trkpt>
      <trkpt lat="42.1611" lon="21.92077">
        <ele>506.091393</ele>
        <time>2022-04-10T11:59:11.082Z</time>
      </trkpt>
      <trkpt lat="42.16116" lon="21.92064">
        <ele>505.378444</ele>
        <time>2022-04-10T11:59:14.084Z</time>
      </trkpt>
      <trkpt lat="42.16122" lon="21.92051">
        <ele>504.662169</ele>
        <time>2022-04-10T11:59:17.078Z</time>
      </trkpt>
      <trkpt lat="42.16128" lon="21.92039">
        <ele>503.989884</ele>
        <time>2022-04-10T11:59:20.081Z</time>
      </trkpt>
      <trkpt lat="42.16132" lon="21.92027">
        <ele>503.359878</ele>
        <time>2022-04-10T11:59:23.143Z</time>
      </trkpt>
      <trkpt lat="42.16137" lon="21.92016">
        <ele>502.767183</ele>
        <time>2022-04-10T11:59:26.065Z</time>
      </trkpt>
      <trkpt lat="42.16143" lon="21.92004">
        <ele>502.05951</ele>
        <time>2022-04-10T11:59:29.085Z</time>
      </trkpt>
      <trkpt lat="42.16148" lon="21.91992">
        <ele>501.423627</ele>
        <time>2022-04-10T11:59:32.071Z</time>
      </trkpt>
      <trkpt lat="42.16154" lon="21.91979">
        <ele>500.702585</ele>
        <time>2022-04-10T11:59:36.090Z</time>
      </trkpt>
      <trkpt lat="42.1616" lon="21.91969">
        <ele>500.090964</ele>
        <time>2022-04-10T11:59:39.097Z</time>
      </trkpt>
      <trkpt lat="42.16165" lon="21.91959">
        <ele>499.51705</ele>
        <time>2022-04-10T11:59:43.099Z</time>
      </trkpt>
      <trkpt lat="42.16171" lon="21.91946">
        <ele>498.782012</ele>
        <time>2022-04-10T11:59:47.095Z</time>
      </trkpt>
      <trkpt lat="42.16176" lon="21.91935">
        <ele>498.156854</ele>
        <time>2022-04-10T11:59:51.082Z</time>
      </trkpt>
      <trkpt lat="42.16184" lon="21.91922">
        <ele>497.405212</ele>
        <time>2022-04-10T11:59:56.044Z</time>
      </trkpt>
      <trkpt lat="42.1619" lon="21.91909">
        <ele>496.739602</ele>
        <time>2022-04-10T12:00:00.111Z</time>
      </trkpt>
      <trkpt lat="42.16195" lon="21.91897">
        <ele>496.203414</ele>
        <time>2022-04-10T12:00:03.079Z</time>
      </trkpt>
      <trkpt lat="42.16201" lon="21.91885">
        <ele>495.578554</ele>
        <time>2022-04-10T12:00:07.075Z</time>
      </trkpt>
      <trkpt lat="42.16207" lon="21.91874">
        <ele>495.005254</ele>
        <time>2022-04-10T12:00:11.097Z</time>
      </trkpt>
      <trkpt lat="42.16212" lon="21.91863">
        <ele>494.474475</ele>
        <time>2022-04-10T12:00:14.094Z</time>
      </trkpt>
      <trkpt lat="42.16216" lon="21.91852">
        <ele>493.948203</ele>
        <time>2022-04-10T12:00:17.066Z</time>
      </trkpt>
      <trkpt lat="42.16223" lon="21.91838">
        <ele>493.273447</ele>
        <time>2022-04-10T12:00:21.084Z</time>
      </trkpt>
      <trkpt lat="42.16228" lon="21.91826">
        <ele>492.697077</ele>
        <time>2022-04-10T12:00:24.076Z</time>
      </trkpt>
      <trkpt lat="42.16234" lon="21.91815">
        <ele>492.106893</ele>
        <time>2022-04-10T12:00:27.105Z</time>
      </trkpt>
      <trkpt lat="42.1624" lon="21.91802">
        <ele>491.485542</ele>
        <time>2022-04-10T12:00:30.073Z</time>
      </trkpt>
      <trkpt lat="42.16248" lon="21.91791">
        <ele>490.843815</ele>
        <time>2022-04-10T12:00:33.074Z</time>
      </trkpt>
      <trkpt lat="42.16253" lon="21.91778">
        <ele>490.217204</ele>
        <time>2022-04-10T12:00:36.080Z</time>
      </trkpt>
      <trkpt lat="42.16258" lon="21.91766">
        <ele>489.68351</ele>
        <time>2022-04-10T12:00:39.066Z</time>
      </trkpt>
      <trkpt lat="42.16264" lon="21.91754">
        <ele>489.079836</ele>
        <time>2022-04-10T12:00:43.099Z</time>
      </trkpt>
      <trkpt lat="42.16271" lon="21.91742">
        <ele>488.429506</ele>
        <time>2022-04-10T12:00:47.076Z</time>
      </trkpt>
      <trkpt lat="42.16276" lon="21.91731">
        <ele>487.868953</ele>
        <time>2022-04-10T12:00:50.084Z</time>
      </trkpt>
      <trkpt lat="42.16281" lon="21.91719">
        <ele>487.383819</ele>
        <time>2022-04-10T12:00:53.115Z</time>
      </trkpt>
      <trkpt lat="42.16286" lon="21.91709">
        <ele>487.296996</ele>
        <time>2022-04-10T12:00:56.076Z</time>
      </trkpt>
      <trkpt lat="42.16291" lon="21.91698">
        <ele>487.203127</ele>
        <time>2022-04-10T12:00:59.076Z</time>
      </trkpt>
      <trkpt lat="42.16296" lon="21.91687">
        <ele>487.112842</ele>
        <time>2022-04-10T12:01:02.071Z</time>
      </trkpt>
      <trkpt lat="42.16301" lon="21.91675">
        <ele>487.016645</ele>
        <time>2022-04-10T12:01:06.081Z</time>
      </trkpt>
      <trkpt lat="42.16307" lon="21.91663">
        <ele>486.913706</ele>
        <time>2022-04-10T12:01:10.074Z</time>
      </trkpt>
      <trkpt lat="42.16313" lon="21.91651">
        <ele>486.810614</ele>
        <time>2022-04-10T12:01:14.085Z</time>
      </trkpt>
      <trkpt lat="42.16319" lon="21.91639">
        <ele>486.705702</ele>
        <time>2022-04-10T12:01:19.075Z</time>
      </trkpt>
      <trkpt lat="42.16325" lon="21.91628">
        <ele>486.605489</ele>
        <time>2022-04-10T12:01:23.097Z</time>
      </trkpt>
      <trkpt lat="42.16332" lon="21.91617">
        <ele>486.507271</ele>
        <time>2022-04-10T12:01:27.105Z</time>
      </trkpt>
      <trkpt lat="42.16338" lon="21.91606">
        <ele>486.408464</ele>
        <time>2022-04-10T12:01:31.088Z</time>
      </trkpt>
      <trkpt lat="42.16342" lon="21.91595">
        <ele>486.319565</ele>
        <time>2022-04-10T12:01:35.068Z</time>
      </trkpt>
      <trkpt lat="42.16348" lon="21.91582">
        <ele>486.212641</ele>
        <time>2022-04-10T12:01:40.121Z</time>
      </trkpt>
      <trkpt lat="42.16354" lon="21.91573">
        <ele>486.12162</ele>
        <time>2022-04-10T12:01:44.091Z</time>
      </trkpt>
      <trkpt lat="42.1636" lon="21.91561">
        <ele>486.018529</ele>
        <time>2022-04-10T12:01:49.086Z</time>
      </trkpt>
      <trkpt lat="42.16366" lon="21.91551">
        <ele>485.928831</ele>
        <time>2022-04-10T12:01:53.075Z</time>
      </trkpt>
      <trkpt lat="42.16371" lon="21.91539">
        <ele>485.830424</ele>
        <time>2022-04-10T12:01:58.089Z</time>
      </trkpt>
      <trkpt lat="42.16377" lon="21.91527">
        <ele>485.725692</ele>
        <time>2022-04-10T12:02:03.089Z</time>
      </trkpt>
      <trkpt lat="42.16382" lon="21.91514">
        <ele>485.920741</ele>
        <time>2022-04-10T12:02:08.129Z</time>
      </trkpt>
      <trkpt lat="42.16387" lon="21.91503">
        <ele>486.43916</ele>
        <time>2022-04-10T12:02:13.082Z</time>
      </trkpt>
      <trkpt lat="42.16392" lon="21.91491">
        <ele>486.976831</ele>
        <time>2022-04-10T12:02:18.075Z</time>
      </trkpt>
      <trkpt lat="42.16397" lon="21.91479">
        <ele>487.537134</ele>
        <time>2022-04-10T12:02:23.080Z</time>
      </trkpt>
      <trkpt lat="42.16402" lon="21.91468">
        <ele>488.037588</ele>
        <time>2022-04-10T12:02:28.079Z</time>
      </trkpt>
      <trkpt lat="42.16408" lon="21.91458">
        <ele>488.550627</ele>
        <time>2022-04-10T12:02:33.088Z</time>
      </trkpt>
      <trkpt lat="42.16412" lon="21.91445">
        <ele>489.130827</ele>
        <time>2022-04-10T12:02:39.068Z</time>
      </trkpt>
      <trkpt lat="42.16416" lon="21.91434">
        <ele>489.620568</ele>
        <time>2022-04-10T12:02:44.076Z</time>
      </trkpt>
      <trkpt lat="42.16422" lon="21.91424">
        <ele>490.120207</ele>
        <time>2022-04-10T12:02:50.083Z</time>
      </trkpt>
      <trkpt lat="42.16428" lon="21.91414">
        <ele>490.636206</ele>
        <time>2022-04-10T12:02:56.098Z</time>
      </trkpt>
      <trkpt lat="42.16432" lon="21.91402">
        <ele>491.154908</ele>
        <time>2022-04-10T12:03:03.085Z</time>
      </trkpt>
      <trkpt lat="42.16438" lon="21.91391">
        <ele>491.690188</ele>
        <time>2022-04-10T12:03:10.116Z</time>
      </trkpt>
      <trkpt lat="42.16444" lon="21.9138">
        <ele>492.22506</ele>
        <time>2022-04-10T12:03:16.094Z</time>
      </trkpt>
      <trkpt lat="42.16449" lon="21.91369">
        <ele>492.759908</ele>
        <time>2022-04-10T12:03:22.110Z</time>
      </trkpt>
      <trkpt lat="42.16454" lon="21.91357">
        <ele>493.303505</ele>
        <time>2022-04-10T12:03:29.094Z</time>
      </trkpt>
      <trkpt lat="42.1646" lon="21.91346">
        <ele>493.842844</ele>
        <time>2022-04-10T12:03:36.075Z</time>
      </trkpt>
      <trkpt lat="42.16464" lon="21.91334">
        <ele>494.35157</ele>
        <time>2022-04-10T12:03:43.065Z</time>
      </trkpt>
      <trkpt lat="42.1647" lon="21.91324">
        <ele>494.867357</ele>
        <time>2022-04-10T12:03:50.100Z</time>
      </trkpt>
      <trkpt lat="42.16475" lon="21.91313">
        <ele>495.341031</ele>
        <time>2022-04-10T12:03:57.092Z</time>
      </trkpt>
      <trkpt lat="42.16481" lon="21.91302">
        <ele>495.34788</ele>
        <time>2022-04-10T12:04:04.069Z</time>
      </trkpt>
      <trkpt lat="42.16486" lon="21.91291">
        <ele>495.35425</ele>
        <time>2022-04-10T12:04:10.079Z</time>
      </trkpt>
      <trkpt lat="42.1649" lon="21.91279">
        <ele>495.360988</ele>
        <time>2022-04-10T12:04:16.068Z</time>
      </trkpt>
      <trkpt lat="42.16495" lon="21.91267">
        <ele>495.368179</ele>
        <time>2022-04-10T12:04:21.069Z</time>
      </trkpt>
      <trkpt lat="42.16499" lon="21.91256">
        <ele>495.374395</ele>
        <time>2022-04-10T12:04:25.098Z</time>
      </trkpt>
      <trkpt lat="42.16504" lon="21.91245">
        <ele>495.38099</ele>
        <time>2022-04-10T12:04:29.099Z</time>
      </trkpt>
      <trkpt lat="42.1651" lon="21.91233">
        <ele>495.388216</ele>
        <time>2022-04-10T12:04:33.087Z</time>
      </trkpt>
      <trkpt lat="42.16517" lon="21.9122">
        <ele>495.396362</ele>
        <time>2022-04-10T12:04:37.079Z</time>
      </trkpt>
      <trkpt lat="42.16523" lon="21.91207">
        <ele>495.403729</ele>
        <time>2022-04-10T12:04:40.077Z</time>
      </trkpt>
      <trkpt lat="42.16529" lon="21.91194">
        <ele>495.411368</ele>
        <time>2022-04-10T12:04:43.099Z</time>
      </trkpt>
      <trkpt lat="42.16535" lon="21.91181">
        <ele>495.419287</ele>
        <time>2022-04-10T12:04:46.089Z</time>
      </trkpt>
      <trkpt lat="42.16543" lon="21.91169">
        <ele>495.427338</ele>
        <time>2022-04-10T12:04:49.160Z</time>
      </trkpt>
      <trkpt lat="42.1655" lon="21.91158">
        <ele>495.434748</ele>
        <time>2022-04-10T12:04:52.100Z</time>
      </trkpt>
      <trkpt lat="42.16555" lon="21.91145">
        <ele>495.442118</ele>
        <time>2022-04-10T12:04:55.076Z</time>
      </trkpt>
      <trkpt lat="42.16561" lon="21.91131">
        <ele>495.450244</ele>
        <time>2022-04-10T12:04:58.107Z</time>
      </trkpt>
      <trkpt lat="42.16568" lon="21.91117">
        <ele>495.45893</ele>
        <time>2022-04-10T12:05:01.084Z</time>
      </trkpt>
      <trkpt lat="42.16576" lon="21.91104">
        <ele>495.138086</ele>
        <time>2022-04-10T12:05:04.090Z</time>
      </trkpt>
      <trkpt lat="42.16582" lon="21.9109">
        <ele>494.525438</ele>
        <time>2022-04-10T12:05:07.096Z</time>
      </trkpt>
      <trkpt lat="42.16589" lon="21.91076">
        <ele>493.908258</ele>
        <time>2022-04-10T12:05:10.089Z</time>
      </trkpt>
      <trkpt lat="42.16595" lon="21.91064">
        <ele>493.331661</ele>
        <time>2022-04-10T12:05:13.080Z</time>
      </trkpt>
      <trkpt lat="42.16602" lon="21.91051">
        <ele>492.770013</ele>
        <time>2022-04-10T12:05:16.082Z</time>
      </trkpt>
      <trkpt lat="42.16607" lon="21.91038">
        <ele>492.192807</ele>
        <time>2022-04-10T12:05:19.090Z</time>
      </trkpt>
      <trkpt lat="42.16613" lon="21.91022">
        <ele>491.550791</ele>
        <time>2022-04-10T12:05:22.074Z</time>
      </trkpt>
      <trkpt lat="42.16619" lon="21.91008">
        <ele>490.946614</ele>
        <time>2022-04-10T12:05:25.101Z</time>
      </trkpt>
      <trkpt lat="42.16626" lon="21.90994">
        <ele>490.288905</ele>
        <time>2022-04-10T12:05:28.082Z</time>
      </trkpt>
      <trkpt lat="42.16633" lon="21.90979">
        <ele>489.636533</ele>
        <time>2022-04-10T12:05:31.085Z</time>
      </trkpt>
      <trkpt lat="42.1664" lon="21.90965">
        <ele>489.023332</ele>
        <time>2022-04-10T12:05:34.106Z</time>
      </trkpt>
      <trkpt lat="42.16647" lon="21.90951">
        <ele>488.389583</ele>
        <time>2022-04-10T12:05:37.121Z</time>
      </trkpt>
      <trkpt lat="42.16653" lon="21.90938">
        <ele>487.799431</ele>
        <time>2022-04-10T12:05:40.086Z</time>
      </trkpt>
      <trkpt lat="42.16658" lon="21.90925">
        <ele>487.269109</ele>
        <time>2022-04-10T12:05:43.094Z</time>
      </trkpt>
      <trkpt lat="42.16662" lon="21.90911">
        <ele>486.70157</ele>
        <time>2022-04-10T12:05:46.128Z</time>
      </trkpt>
      <trkpt lat="42.16669" lon="21.90896">
        <ele>486.148783</ele>
        <time>2022-04-10T12:05:49.077Z</time>
      </trkpt>
      <trkpt lat="42.16676" lon="21.90883">
        <ele>485.729334</ele>
        <time>2022-04-10T12:05:52.080Z</time>
      </trkpt>
      <trkpt lat="42.16683" lon="21.9087">
        <ele>485.286498</ele>
        <time>2022-04-10T12:05:55.121Z</time>
      </trkpt>
      <trkpt lat="42.16689" lon="21.90857">
        <ele>484.870989</ele>
        <time>2022-04-10T12:05:58.096Z</time>
      </trkpt>
      <trkpt lat="42.16696" lon="21.90842">
        <ele>484.415049</ele>
        <time>2022-04-10T12:06:01.068Z</time>
      </trkpt>
      <trkpt lat="42.16703" lon="21.90828">
        <ele>483.963338</ele>
        <time>2022-04-10T12:06:04.086Z</time>
      </trkpt>
      <trkpt lat="42.1671" lon="21.90814">
        <ele>483.507002</ele>
        <time>2022-04-10T12:06:07.087Z</time>
      </trkpt>
      <trkpt lat="42.16715" lon="21.90803">
        <ele>483.166038</ele>
        <time>2022-04-10T12:06:09.077Z</time>
      </trkpt>
      <trkpt lat="42.1672" lon="21.90792">
        <ele>482.814706</ele>
        <time>2022-04-10T12:06:11.093Z</time>
      </trkpt>
      <trkpt lat="42.16726" lon="21.90781">
        <ele>482.459356</ele>
        <time>2022-04-10T12:06:13.085Z</time>
      </trkpt>
      <trkpt lat="42.16731" lon="21.9077">
        <ele>482.116665</ele>
        <time>2022-04-10T12:06:15.064Z</time>
      </trkpt>
      <trkpt lat="42.16736" lon="21.9076">
        <ele>481.786823</ele>
        <time>2022-04-10T12:06:17.094Z</time>
      </trkpt>
      <trkpt lat="42.16742" lon="21.9075">
        <ele>481.448818</ele>
        <time>2022-04-10T12:06:19.076Z</time>
      </trkpt>
      <trkpt lat="42.16747" lon="21.90739">
        <ele>481.09566</ele>
        <time>2022-04-10T12:06:21.069Z</time>
      </trkpt>
      <trkpt lat="42.16753" lon="21.90728">
        <ele>480.753159</ele>
        <time>2022-04-10T12:06:23.093Z</time>
      </trkpt>
      <trkpt lat="42.16758" lon="21.90718">
        <ele>480.43012</ele>
        <time>2022-04-10T12:06:25.083Z</time>
      </trkpt>
      <trkpt lat="42.16764" lon="21.90709">
        <ele>480.100614</ele>
        <time>2022-04-10T12:06:27.072Z</time>
      </trkpt>
      <trkpt lat="42.16769" lon="21.90698">
        <ele>479.633915</ele>
        <time>2022-04-10T12:06:29.078Z</time>
      </trkpt>
      <trkpt lat="42.16774" lon="21.90686">
        <ele>479.039494</ele>
        <time>2022-04-10T12:06:31.127Z</time>
      </trkpt>
      <trkpt lat="42.16779" lon="21.90674">
        <ele>478.438812</ele>
        <time>2022-04-10T12:06:33.066Z</time>
      </trkpt>
      <trkpt lat="42.16782" lon="21.90661">
        <ele>477.841609</ele>
        <time>2022-04-10T12:06:35.082Z</time>
      </trkpt>
      <trkpt lat="42.16783" lon="21.90649">
        <ele>477.300053</ele>
        <time>2022-04-10T12:06:37.090Z</time>
      </trkpt>
      <trkpt lat="42.16781" lon="21.90632">
        <ele>476.528393</ele>
        <time>2022-04-10T12:06:40.085Z</time>
      </trkpt>
      <trkpt lat="42.1678" lon="21.90619">
        <ele>475.970839</ele>
        <time>2022-04-10T12:06:42.129Z</time>
      </trkpt>
      <trkpt lat="42.16778" lon="21.90606">
        <ele>475.359528</ele>
        <time>2022-04-10T12:06:44.069Z</time>
      </trkpt>
      <trkpt lat="42.16775" lon="21.90591">
        <ele>474.707574</ele>
        <time>2022-04-10T12:06:46.083Z</time>
      </trkpt>
      <trkpt lat="42.16773" lon="21.90576">
        <ele>474.03097</ele>
        <time>2022-04-10T12:06:48.083Z</time>
      </trkpt>
      <trkpt lat="42.1677" lon="21.90563">
        <ele>473.416322</ele>
        <time>2022-04-10T12:06:50.082Z</time>
      </trkpt>
      <trkpt lat="42.16768" lon="21.9055">
        <ele>472.841552</ele>
        <time>2022-04-10T12:06:52.093Z</time>
      </trkpt>
      <trkpt lat="42.16767" lon="21.90537">
        <ele>472.254101</ele>
        <time>2022-04-10T12:06:54.089Z</time>
      </trkpt>
      <trkpt lat="42.16765" lon="21.90525">
        <ele>471.717515</ele>
        <time>2022-04-10T12:06:56.087Z</time>
      </trkpt>
      <trkpt lat="42.16763" lon="21.90508">
        <ele>470.938956</ele>
        <time>2022-04-10T12:06:59.123Z</time>
      </trkpt>
      <trkpt lat="42.1676" lon="21.90491">
        <ele>470.164199</ele>
        <time>2022-04-10T12:07:02.083Z</time>
      </trkpt>
      <trkpt lat="42.16756" lon="21.90475">
        <ele>469.444959</ele>
        <time>2022-04-10T12:07:05.070Z</time>
      </trkpt>
      <trkpt lat="42.16752" lon="21.9046">
        <ele>468.883398</ele>
        <time>2022-04-10T12:07:08.087Z</time>
      </trkpt>
      <trkpt lat="42.16747" lon="21.90446">
        <ele>468.384141</ele>
        <time>2022-04-10T12:07:11.090Z</time>
      </trkpt>
      <trkpt lat="42.16741" lon="21.90432">
        <ele>467.869913</ele>
        <time>2022-04-10T12:07:14.069Z</time>
      </trkpt>
      <trkpt lat="42.16736" lon="21.90418">
        <ele>467.381052</ele>
        <time>2022-04-10T12:07:17.072Z</time>
      </trkpt>
      <trkpt lat="42.16732" lon="21.90405">
        <ele>466.942409</ele>
        <time>2022-04-10T12:07:20.082Z</time>
      </trkpt>
      <trkpt lat="42.16729" lon="21.90391">
        <ele>466.474275</ele>
        <time>2022-04-10T12:07:23.079Z</time>
      </trkpt>
      <trkpt lat="42.16726" lon="21.90374">
        <ele>465.949003</ele>
        <time>2022-04-10T12:07:26.084Z</time>
      </trkpt>
      <trkpt lat="42.16723" lon="21.90358">
        <ele>465.430722</ele>
        <time>2022-04-10T12:07:29.077Z</time>
      </trkpt>
      <trkpt lat="42.1672" lon="21.90343">
        <ele>464.927735</ele>
        <time>2022-04-10T12:07:32.101Z</time>
      </trkpt>
      <trkpt lat="42.16718" lon="21.90328">
        <ele>464.455981</ele>
        <time>2022-04-10T12:07:35.076Z</time>
      </trkpt>
      <trkpt lat="42.16716" lon="21.90315">
        <ele>464.015201</ele>
        <time>2022-04-10T12:07:38.134Z</time>
      </trkpt>
      <trkpt lat="42.16714" lon="21.90302">
        <ele>463.616883</ele>
        <time>2022-04-10T12:07:41.087Z</time>
      </trkpt>
      <trkpt lat="42.16712" lon="21.90288">
        <ele>463.169904</ele>
        <time>2022-04-10T12:07:45.097Z</time>
      </trkpt>
      <trkpt lat="42.16711" lon="21.90273">
        <ele>462.688581</ele>
        <time>2022-04-10T12:07:49.080Z</time>
      </trkpt>
      <trkpt lat="42.16709" lon="21.90258">
        <ele>462.216116</ele>
        <time>2022-04-10T12:07:53.104Z</time>
      </trkpt>
      <trkpt lat="42.16708" lon="21.90245">
        <ele>461.80089</ele>
        <time>2022-04-10T12:07:56.078Z</time>
      </trkpt>
      <trkpt lat="42.16708" lon="21.90231">
        <ele>461.31597</ele>
        <time>2022-04-10T12:08:00.084Z</time>
      </trkpt>
      <trkpt lat="42.1671" lon="21.90217">
        <ele>460.797105</ele>
        <time>2022-04-10T12:08:04.087Z</time>
      </trkpt>
      <trkpt lat="42.16713" lon="21.90202">
        <ele>460.222802</ele>
        <time>2022-04-10T12:08:08.081Z</time>
      </trkpt>
      <trkpt lat="42.16715" lon="21.9019">
        <ele>459.7542</ele>
        <time>2022-04-10T12:08:12.087Z</time>
      </trkpt>
      <trkpt lat="42.16717" lon="21.90177">
        <ele>459.253061</ele>
        <time>2022-04-10T12:08:16.084Z</time>
      </trkpt>
      <trkpt lat="42.1672" lon="21.90164">
        <ele>458.757072</ele>
        <time>2022-04-10T12:08:21.066Z</time>
      </trkpt>
      <trkpt lat="42.16721" lon="21.90151">
        <ele>458.283885</ele>
        <time>2022-04-10T12:08:25.089Z</time>
      </trkpt>
      <trkpt lat="42.16723" lon="21.90136">
        <ele>457.701125</ele>
        <time>2022-04-10T12:08:29.069Z</time>
      </trkpt>
      <trkpt lat="42.16726" lon="21.90121">
        <ele>457.132369</ele>
        <time>2022-04-10T12:08:33.126Z</time>
      </trkpt>
      <trkpt lat="42.16727" lon="21.90109">
        <ele>456.660462</ele>
        <time>2022-04-10T12:08:37.095Z</time>
      </trkpt>
      <trkpt lat="42.16728" lon="21.90094">
        <ele>456.104408</ele>
        <time>2022-04-10T12:08:42.090Z</time>
      </trkpt>
      <trkpt lat="42.16728" lon="21.9008">
        <ele>455.60204</ele>
        <time>2022-04-10T12:08:46.104Z</time>
      </trkpt>
      <trkpt lat="42.16728" lon="21.90068">
        <ele>455.136849</ele>
        <time>2022-04-10T12:08:50.121Z</time>
      </trkpt>
      <trkpt lat="42.16728" lon="21.90054">
        <ele>454.634706</ele>
        <time>2022-04-10T12:08:55.073Z</time>
      </trkpt>
      <trkpt lat="42.16729" lon="21.9004">
        <ele>454.111553</ele>
        <time>2022-04-10T12:09:00.108Z</time>
      </trkpt>
      <trkpt lat="42.16729" lon="21.90028">
        <ele>453.657737</ele>
        <time>2022-04-10T12:09:04.086Z</time>
      </trkpt>
      <trkpt lat="42.16729" lon="21.90014">
        <ele>453.155368</ele>
        <time>2022-04-10T12:09:10.094Z</time>
      </trkpt>
      <trkpt lat="42.16731" lon="21.90001">
        <ele>452.627716</ele>
        <time>2022-04-10T12:09:15.078Z</time>
      </trkpt>
      <trkpt lat="42.16731" lon="21.89988">
        <ele>452.288725</ele>
        <time>2022-04-10T12:09:19.088Z</time>
      </trkpt>
      <trkpt lat="42.16729" lon="21.89976">
        <ele>451.981904</ele>
        <time>2022-04-10T12:09:23.080Z</time>
      </trkpt>
      <trkpt lat="42.16729" lon="21.89963">
        <ele>451.645824</ele>
        <time>2022-04-10T12:09:27.091Z</time>
      </trkpt>
      <trkpt lat="42.16729" lon="21.89948">
        <ele>451.261775</ele>
        <time>2022-04-10T12:09:31.072Z</time>
      </trkpt>
      <trkpt lat="42.16729" lon="21.89935">
        <ele>450.939849</ele>
        <time>2022-04-10T12:09:34.077Z</time>
      </trkpt>
      <trkpt lat="42.1673" lon="21.89921">
        <ele>450.584917</ele>
        <time>2022-04-10T12:09:37.115Z</time>
      </trkpt>
      <trkpt lat="42.1673" lon="21.89906">
        <ele>450.216017</ele>
        <time>2022-04-10T12:09:40.086Z</time>
      </trkpt>
      <trkpt lat="42.16729" lon="21.89893">
        <ele>449.868316</ele>
        <time>2022-04-10T12:09:43.097Z</time>
      </trkpt>
      <trkpt lat="42.16729" lon="21.89879">
        <ele>449.524544</ele>
        <time>2022-04-10T12:09:46.085Z</time>
      </trkpt>
      <trkpt lat="42.16729" lon="21.89865">
        <ele>449.175841</ele>
        <time>2022-04-10T12:09:49.105Z</time>
      </trkpt>
      <trkpt lat="42.16731" lon="21.89852">
        <ele>448.842998</ele>
        <time>2022-04-10T12:09:52.091Z</time>
      </trkpt>
      <trkpt lat="42.16731" lon="21.89838">
        <ele>448.476195</ele>
        <time>2022-04-10T12:09:55.067Z</time>
      </trkpt>
      <trkpt lat="42.1673" lon="21.89824">
        <ele>448.131327</ele>
        <time>2022-04-10T12:09:58.118Z</time>
      </trkpt>
      <trkpt lat="42.1673" lon="21.89808">
        <ele>447.737296</ele>
        <time>2022-04-10T12:10:02.081Z</time>
      </trkpt>
      <trkpt lat="42.16731" lon="21.89794">
        <ele>447.380906</ele>
        <time>2022-04-10T12:10:06.087Z</time>
      </trkpt>
      <trkpt lat="42.1673" lon="21.89782">
        <ele>447.059847</ele>
        <time>2022-04-10T12:10:09.085Z</time>
      </trkpt>
      <trkpt lat="42.16729" lon="21.89766">
        <ele>446.661537</ele>
        <time>2022-04-10T12:10:12.093Z</time>
      </trkpt>
      <trkpt lat="42.16728" lon="21.89748">
        <ele>446.124742</ele>
        <time>2022-04-10T12:10:15.085Z</time>
      </trkpt>
      <trkpt lat="42.16729" lon="21.89735">
        <ele>445.701119</ele>
        <time>2022-04-10T12:10:17.085Z</time>
      </trkpt>
      <trkpt lat="42.16729" lon="21.8972">
        <ele>445.221638</ele>
        <time>2022-04-10T12:10:20.075Z</time>
      </trkpt>
      <trkpt lat="42.1673" lon="21.89707">
        <ele>444.788985</ele>
        <time>2022-04-10T12:10:25.098Z</time>
      </trkpt>
      <trkpt lat="42.16728" lon="21.89693">
        <ele>444.300457</ele>
        <time>2022-04-10T12:10:31.077Z</time>
      </trkpt>
      <trkpt lat="42.16729" lon="21.8968">
        <ele>443.879168</ele>
        <time>2022-04-10T12:10:35.077Z</time>
      </trkpt>
      <trkpt lat="42.16731" lon="21.89668">
        <ele>443.45213</ele>
        <time>2022-04-10T12:10:40.077Z</time>
      </trkpt>
      <trkpt lat="42.1673" lon="21.89653">
        <ele>442.95492</ele>
        <time>2022-04-10T12:10:45.116Z</time>
      </trkpt>
      <trkpt lat="42.16728" lon="21.89639">
        <ele>442.492326</ele>
        <time>2022-04-10T12:10:50.088Z</time>
      </trkpt>
      <trkpt lat="42.16727" lon="21.89626">
        <ele>442.060594</ele>
        <time>2022-04-10T12:10:54.101Z</time>
      </trkpt>
      <trkpt lat="42.16727" lon="21.89612">
        <ele>441.590524</ele>
        <time>2022-04-10T12:10:58.074Z</time>
      </trkpt>
      <trkpt lat="42.16727" lon="21.89598">
        <ele>441.130882</ele>
        <time>2022-04-10T12:11:02.084Z</time>
      </trkpt>
      <trkpt lat="42.16729" lon="21.89585">
        <ele>440.693849</ele>
        <time>2022-04-10T12:11:05.090Z</time>
      </trkpt>
      <trkpt lat="42.1673" lon="21.89569">
        <ele>440.172796</ele>
        <time>2022-04-10T12:11:08.086Z</time>
      </trkpt>
      <trkpt lat="42.16728" lon="21.89552">
        <ele>439.598251</ele>
        <time>2022-04-10T12:11:11.090Z</time>
      </trkpt>
      <trkpt lat="42.16725" lon="21.89534">
        <ele>438.986116</ele>
        <time>2022-04-10T12:11:14.099Z</time>
      </trkpt>
      <trkpt lat="42.16722" lon="21.89522">
        <ele>438.564223</ele>
        <time>2022-04-10T12:11:16.089Z</time>
      </trkpt>
      <trkpt lat="42.16718" lon="21.89506">
        <ele>437.918932</ele>
        <time>2022-04-10T12:11:19.077Z</time>
      </trkpt>
      <trkpt lat="42.16714" lon="21.89491">
        <ele>437.244745</ele>
        <time>2022-04-10T12:11:22.082Z</time>
      </trkpt>
      <trkpt lat="42.16711" lon="21.8948">
        <ele>436.742099</ele>
        <time>2022-04-10T12:11:24.114Z</time>
      </trkpt>
      <trkpt lat="42.16707" lon="21.89463">
        <ele>436.01284</ele>
        <time>2022-04-10T12:11:27.076Z</time>
      </trkpt>
      <trkpt lat="42.16704" lon="21.89445">
        <ele>435.246747</ele>
        <time>2022-04-10T12:11:30.121Z</time>
      </trkpt>
      <trkpt lat="42.16704" lon="21.89431">
        <ele>434.669142</ele>
        <time>2022-04-10T12:11:32.077Z</time>
      </trkpt>
      <trkpt lat="42.16706" lon="21.89417">
        <ele>434.100029</ele>
        <time>2022-04-10T12:11:34.085Z</time>
      </trkpt>
      <trkpt lat="42.1671" lon="21.89406">
        <ele>433.568047</ele>
        <time>2022-04-10T12:11:36.114Z</time>
      </trkpt>
      <trkpt lat="42.16714" lon="21.89392">
        <ele>432.965112</ele>
        <time>2022-04-10T12:11:38.079Z</time>
      </trkpt>
      <trkpt lat="42.16719" lon="21.89378">
        <ele>432.321747</ele>
        <time>2022-04-10T12:11:40.068Z</time>
      </trkpt>
      <trkpt lat="42.16723" lon="21.89362">
        <ele>431.627976</ele>
        <time>2022-04-10T12:11:42.260Z</time>
      </trkpt>
      <trkpt lat="42.16727" lon="21.89347">
        <ele>430.955291</ele>
        <time>2022-04-10T12:11:44.088Z</time>
      </trkpt>
      <trkpt lat="42.16729" lon="21.89332">
        <ele>430.306597</ele>
        <time>2022-04-10T12:11:46.089Z</time>
      </trkpt>
      <trkpt lat="42.16731" lon="21.89317">
        <ele>429.675198</ele>
        <time>2022-04-10T12:11:48.090Z</time>
      </trkpt>
      <trkpt lat="42.16732" lon="21.89303">
        <ele>429.101286</ele>
        <time>2022-04-10T12:11:50.098Z</time>
      </trkpt>
      <trkpt lat="42.16732" lon="21.89285">
        <ele>428.369945</ele>
        <time>2022-04-10T12:11:53.087Z</time>
      </trkpt>
      <trkpt lat="42.16732" lon="21.89271">
        <ele>427.87027</ele>
        <time>2022-04-10T12:11:56.068Z</time>
      </trkpt>
      <trkpt lat="42.16729" lon="21.89259">
        <ele>427.467851</ele>
        <time>2022-04-10T12:11:59.079Z</time>
      </trkpt>
      <trkpt lat="42.16727" lon="21.89247">
        <ele>427.058966</ele>
        <time>2022-04-10T12:12:02.091Z</time>
      </trkpt>
      <trkpt lat="42.16724" lon="21.89233">
        <ele>426.585875</ele>
        <time>2022-04-10T12:12:05.085Z</time>
      </trkpt>
      <trkpt lat="42.16722" lon="21.89216">
        <ele>426.011504</ele>
        <time>2022-04-10T12:12:08.080Z</time>
      </trkpt>
      <trkpt lat="42.16718" lon="21.89199">
        <ele>425.43394</ele>
        <time>2022-04-10T12:12:11.092Z</time>
      </trkpt>
      <trkpt lat="42.16715" lon="21.89181">
        <ele>424.83517</ele>
        <time>2022-04-10T12:12:14.075Z</time>
      </trkpt>
      <trkpt lat="42.16713" lon="21.89169">
        <ele>424.404617</ele>
        <time>2022-04-10T12:12:16.071Z</time>
      </trkpt>
      <trkpt lat="42.16711" lon="21.89156">
        <ele>423.964817</ele>
        <time>2022-04-10T12:12:18.098Z</time>
      </trkpt>
      <trkpt lat="42.16709" lon="21.89143">
        <ele>423.533622</ele>
        <time>2022-04-10T12:12:20.106Z</time>
      </trkpt>
      <trkpt lat="42.16706" lon="21.89131">
        <ele>423.110931</ele>
        <time>2022-04-10T12:12:22.081Z</time>
      </trkpt>
      <trkpt lat="42.16704" lon="21.89118">
        <ele>422.688239</ele>
        <time>2022-04-10T12:12:24.149Z</time>
      </trkpt>
      <trkpt lat="42.16702" lon="21.89105">
        <ele>422.255849</ele>
        <time>2022-04-10T12:12:26.094Z</time>
      </trkpt>
      <trkpt lat="42.16699" lon="21.89093">
        <ele>421.8289</ele>
        <time>2022-04-10T12:12:28.086Z</time>
      </trkpt>
      <trkpt lat="42.16697" lon="21.89075">
        <ele>421.234244</ele>
        <time>2022-04-10T12:12:31.087Z</time>
      </trkpt>
      <trkpt lat="42.16694" lon="21.89063">
        <ele>420.813424</ele>
        <time>2022-04-10T12:12:33.082Z</time>
      </trkpt>
      <trkpt lat="42.1669" lon="21.89051">
        <ele>420.398934</ele>
        <time>2022-04-10T12:12:35.070Z</time>
      </trkpt>
      <trkpt lat="42.16686" lon="21.89039">
        <ele>419.841487</ele>
        <time>2022-04-10T12:12:37.088Z</time>
      </trkpt>
      <trkpt lat="42.16682" lon="21.89029">
        <ele>419.292989</ele>
        <time>2022-04-10T12:12:39.088Z</time>
      </trkpt>
      <trkpt lat="42.16676" lon="21.89019">
        <ele>418.734987</ele>
        <time>2022-04-10T12:12:41.110Z</time>
      </trkpt>
      <trkpt lat="42.16666" lon="21.89008">
        <ele>417.951127</ele>
        <time>2022-04-10T12:12:44.098Z</time>
      </trkpt>
      <trkpt lat="42.16656" lon="21.88998">
        <ele>417.17182</ele>
        <time>2022-04-10T12:12:47.122Z</time>
      </trkpt>
      <trkpt lat="42.16647" lon="21.88987">
        <ele>416.400742</ele>
        <time>2022-04-10T12:12:50.094Z</time>
      </trkpt>
      <trkpt lat="42.1664" lon="21.88975">
        <ele>415.708353</ele>
        <time>2022-04-10T12:12:53.108Z</time>
      </trkpt>
      <trkpt lat="42.16634" lon="21.88961">
        <ele>414.998547</ele>
        <time>2022-04-10T12:12:57.081Z</time>
      </trkpt>
      <trkpt lat="42.16634" lon="21.88947">
        <ele>414.382175</ele>
        <time>2022-04-10T12:13:01.078Z</time>
      </trkpt>
      <trkpt lat="42.16633" lon="21.88933">
        <ele>413.724246</ele>
        <time>2022-04-10T12:13:04.131Z</time>
      </trkpt>
      <trkpt lat="42.16631" lon="21.8892">
        <ele>413.112647</ele>
        <time>2022-04-10T12:13:07.089Z</time>
      </trkpt>
      <trkpt lat="42.16629" lon="21.88906">
        <ele>412.492538</ele>
        <time>2022-04-10T12:13:11.083Z</time>
      </trkpt>
      <trkpt lat="42.16625" lon="21.88893">
        <ele>411.857447</ele>
        <time>2022-04-10T12:13:16.086Z</time>
      </trkpt>
      <trkpt lat="42.16618" lon="21.88882">
        <ele>411.183903</ele>
        <time>2022-04-10T12:13:21.086Z</time>
      </trkpt>
      <trkpt lat="42.16612" lon="21.88868">
        <ele>410.441945</ele>
        <time>2022-04-10T12:13:25.113Z</time>
      </trkpt>
      <trkpt lat="42.16604" lon="21.88858">
        <ele>409.79051</ele>
        <time>2022-04-10T12:13:28.086Z</time>
      </trkpt>
      <trkpt lat="42.16597" lon="21.88849">
        <ele>409.178234</ele>
        <time>2022-04-10T12:13:31.086Z</time>
      </trkpt>
      <trkpt lat="42.16593" lon="21.88837">
        <ele>408.453078</ele>
        <time>2022-04-10T12:13:34.075Z</time>
      </trkpt>
      <trkpt lat="42.1659" lon="21.88823">
        <ele>407.676049</ele>
        <time>2022-04-10T12:13:37.100Z</time>
      </trkpt>
      <trkpt lat="42.16588" lon="21.8881">
        <ele>406.918569</ele>
        <time>2022-04-10T12:13:40.090Z</time>
      </trkpt>
      <trkpt lat="42.1659" lon="21.88795">
        <ele>406.026641</ele>
        <time>2022-04-10T12:13:43.125Z</time>
      </trkpt>
      <trkpt lat="42.16596" lon="21.8878">
        <ele>405.091367</ele>
        <time>2022-04-10T12:13:46.109Z</time>
      </trkpt>
      <trkpt lat="42.16602" lon="21.88767">
        <ele>404.246201</ele>
        <time>2022-04-10T12:13:49.122Z</time>
      </trkpt>
      <trkpt lat="42.16608" lon="21.88753">
        <ele>403.362448</ele>
        <time>2022-04-10T12:13:52.092Z</time>
      </trkpt>
      <trkpt lat="42.16615" lon="21.88739">
        <ele>402.417036</ele>
        <time>2022-04-10T12:13:55.082Z</time>
      </trkpt>
      <trkpt lat="42.16621" lon="21.88725">
        <ele>401.500037</ele>
        <time>2022-04-10T12:13:58.080Z</time>
      </trkpt>
      <trkpt lat="42.16626" lon="21.88711">
        <ele>400.635639</ele>
        <time>2022-04-10T12:14:01.112Z</time>
      </trkpt>
      <trkpt lat="42.16629" lon="21.88699">
        <ele>399.948079</ele>
        <time>2022-04-10T12:14:04.077Z</time>
      </trkpt>
      <trkpt lat="42.16631" lon="21.88687">
        <ele>399.249991</ele>
        <time>2022-04-10T12:14:07.072Z</time>
      </trkpt>
      <trkpt lat="42.16635" lon="21.88672">
        <ele>398.334821</ele>
        <time>2022-04-10T12:14:10.102Z</time>
      </trkpt>
      <trkpt lat="42.16636" lon="21.88656">
        <ele>397.459309</ele>
        <time>2022-04-10T12:14:14.096Z</time>
      </trkpt>
      <trkpt lat="42.16636" lon="21.88641">
        <ele>396.628866</ele>
        <time>2022-04-10T12:14:17.081Z</time>
      </trkpt>
      <trkpt lat="42.16634" lon="21.88624">
        <ele>395.702571</ele>
        <time>2022-04-10T12:14:20.091Z</time>
      </trkpt>
      <trkpt lat="42.16632" lon="21.88611">
        <ele>394.909662</ele>
        <time>2022-04-10T12:14:23.095Z</time>
      </trkpt>
      <trkpt lat="42.16629" lon="21.88597">
        <ele>394.061985</ele>
        <time>2022-04-10T12:14:26.090Z</time>
      </trkpt>
      <trkpt lat="42.16626" lon="21.88583">
        <ele>393.261325</ele>
        <time>2022-04-10T12:14:29.091Z</time>
      </trkpt>
      <trkpt lat="42.16625" lon="21.8857">
        <ele>392.525366</ele>
        <time>2022-04-10T12:14:32.082Z</time>
      </trkpt>
      <trkpt lat="42.16621" lon="21.88556">
        <ele>391.630997</ele>
        <time>2022-04-10T12:14:36.085Z</time>
      </trkpt>
      <trkpt lat="42.16617" lon="21.88545">
        <ele>390.917553</ele>
        <time>2022-04-10T12:14:40.091Z</time>
      </trkpt>
      <trkpt lat="42.16613" lon="21.88533">
        <ele>390.215717</ele>
        <time>2022-04-10T12:14:44.097Z</time>
      </trkpt>
      <trkpt lat="42.16608" lon="21.88522">
        <ele>389.463055</ele>
        <time>2022-04-10T12:14:48.093Z</time>
      </trkpt>
      <trkpt lat="42.16603" lon="21.88511">
        <ele>388.719714</ele>
        <time>2022-04-10T12:14:52.079Z</time>
      </trkpt>
      <trkpt lat="42.16596" lon="21.885">
        <ele>387.88428</ele>
        <time>2022-04-10T12:14:56.135Z</time>
      </trkpt>
      <trkpt lat="42.16588" lon="21.88491">
        <ele>387.121249</ele>
        <time>2022-04-10T12:14:59.093Z</time>
      </trkpt>
      <trkpt lat="42.16578" lon="21.88485">
        <ele>386.275337</ele>
        <time>2022-04-10T12:15:02.088Z</time>
      </trkpt>
      <trkpt lat="42.1657" lon="21.88479">
        <ele>385.538681</ele>
        <time>2022-04-10T12:15:05.122Z</time>
      </trkpt>
      <trkpt lat="42.16561" lon="21.88473">
        <ele>384.807743</ele>
        <time>2022-04-10T12:15:08.357Z</time>
      </trkpt>
      <trkpt lat="42.16548" lon="21.88468">
        <ele>383.757118</ele>
        <time>2022-04-10T12:15:11.070Z</time>
      </trkpt>
      <trkpt lat="42.16538" lon="21.88463">
        <ele>382.913501</ele>
        <time>2022-04-10T12:15:13.098Z</time>
      </trkpt>
      <trkpt lat="42.1653" lon="21.88456">
        <ele>382.14993</ele>
        <time>2022-04-10T12:15:15.088Z</time>
      </trkpt>
      <trkpt lat="42.16521" lon="21.88451">
        <ele>381.471887</ele>
        <time>2022-04-10T12:15:17.090Z</time>
      </trkpt>
      <trkpt lat="42.16512" lon="21.88447">
        <ele>380.801128</ele>
        <time>2022-04-10T12:15:19.103Z</time>
      </trkpt>
      <trkpt lat="42.16499" lon="21.88441">
        <ele>379.888956</ele>
        <time>2022-04-10T12:15:22.104Z</time>
      </trkpt>
      <trkpt lat="42.16489" lon="21.88435">
        <ele>379.079113</ele>
        <time>2022-04-10T12:15:25.091Z</time>
      </trkpt>
      <trkpt lat="42.16479" lon="21.88428">
        <ele>378.320661</ele>
        <time>2022-04-10T12:15:28.088Z</time>
      </trkpt>
      <trkpt lat="42.1647" lon="21.88422">
        <ele>377.652886</ele>
        <time>2022-04-10T12:15:31.096Z</time>
      </trkpt>
      <trkpt lat="42.16461" lon="21.8842">
        <ele>377.001608</ele>
        <time>2022-04-10T12:15:35.124Z</time>
      </trkpt>
      <trkpt lat="42.1645" lon="21.88422">
        <ele>376.244614</ele>
        <time>2022-04-10T12:15:39.087Z</time>
      </trkpt>
      <trkpt lat="42.1644" lon="21.8842">
        <ele>375.526675</ele>
        <time>2022-04-10T12:15:44.097Z</time>
      </trkpt>
      <trkpt lat="42.16431" lon="21.88411">
        <ele>374.777052</ele>
        <time>2022-04-10T12:15:50.086Z</time>
      </trkpt>
      <trkpt lat="42.16422" lon="21.88406">
        <ele>374.088149</ele>
        <time>2022-04-10T12:15:54.080Z</time>
      </trkpt>
      <trkpt lat="42.16412" lon="21.884">
        <ele>373.321121</ele>
        <time>2022-04-10T12:15:58.079Z</time>
      </trkpt>
      <trkpt lat="42.16403" lon="21.88394">
        <ele>372.583584</ele>
        <time>2022-04-10T12:16:03.066Z</time>
      </trkpt>
      <trkpt lat="42.16392" lon="21.8839">
        <ele>371.855731</ele>
        <time>2022-04-10T12:16:08.110Z</time>
      </trkpt>
      <trkpt lat="42.16383" lon="21.88389">
        <ele>371.205336</ele>
        <time>2022-04-10T12:16:12.095Z</time>
      </trkpt>
      <trkpt lat="42.16372" lon="21.8839">
        <ele>370.447116</ele>
        <time>2022-04-10T12:16:17.075Z</time>
      </trkpt>
      <trkpt lat="42.16362" lon="21.88393">
        <ele>369.70887</ele>
        <time>2022-04-10T12:16:22.111Z</time>
      </trkpt>
      <trkpt lat="42.16353" lon="21.88399">
        <ele>369.485441</ele>
        <time>2022-04-10T12:16:26.084Z</time>
      </trkpt>
      <trkpt lat="42.16343" lon="21.88406">
        <ele>369.565765</ele>
        <time>2022-04-10T12:16:31.093Z</time>
      </trkpt>
      <trkpt lat="42.16334" lon="21.88413">
        <ele>369.647106</ele>
        <time>2022-04-10T12:16:37.087Z</time>
      </trkpt>
      <trkpt lat="42.16324" lon="21.88413">
        <ele>369.717868</ele>
        <time>2022-04-10T12:16:42.089Z</time>
      </trkpt>
      <trkpt lat="42.16315" lon="21.88408">
        <ele>369.795515</ele>
        <time>2022-04-10T12:16:48.069Z</time>
      </trkpt>
      <trkpt lat="42.16307" lon="21.88401">
        <ele>369.863568</ele>
        <time>2022-04-10T12:16:55.079Z</time>
      </trkpt>
      <trkpt lat="42.16302" lon="21.88391">
        <ele>369.933656</ele>
        <time>2022-04-10T12:17:02.082Z</time>
      </trkpt>
      <trkpt lat="42.16301" lon="21.88378">
        <ele>370.002964</ele>
        <time>2022-04-10T12:17:08.085Z</time>
      </trkpt>
      <trkpt lat="42.16306" lon="21.8836">
        <ele>370.110475</ele>
        <time>2022-04-10T12:19:09.112Z</time>
      </trkpt>
      <trkpt lat="42.16319" lon="21.88352">
        <ele>370.22144</ele>
        <time>2022-04-10T12:19:26.097Z</time>
      </trkpt>
      <trkpt lat="42.16329" lon="21.88347">
        <ele>370.301192</ele>
        <time>2022-04-10T12:19:32.068Z</time>
      </trkpt>
      <trkpt lat="42.16339" lon="21.88343">
        <ele>370.379532</ele>
        <time>2022-04-10T12:19:37.089Z</time>
      </trkpt>
      <trkpt lat="42.16349" lon="21.88339">
        <ele>370.454427</ele>
        <time>2022-04-10T12:19:42.092Z</time>
      </trkpt>
      <trkpt lat="42.16358" lon="21.88335">
        <ele>370.525762</ele>
        <time>2022-04-10T12:19:47.125Z</time>
      </trkpt>
      <trkpt lat="42.1638" lon="21.8833">
        <ele>370.696451</ele>
        <time>2022-04-10T12:20:58.089Z</time>
      </trkpt>
      <trkpt lat="42.16389" lon="21.88326">
        <ele>370.767978</ele>
        <time>2022-04-10T12:21:03.087Z</time>
      </trkpt>
      <trkpt lat="42.1639" lon="21.88313">
        <ele>371.087788</ele>
        <time>2022-04-10T12:21:08.085Z</time>
      </trkpt>
      <trkpt lat="42.16389" lon="21.88299">
        <ele>371.496219</ele>
        <time>2022-04-10T12:21:15.075Z</time>
      </trkpt>
      <trkpt lat="42.16388" lon="21.88286">
        <ele>371.892118</ele>
        <time>2022-04-10T12:21:24.089Z</time>
      </trkpt>
      <trkpt lat="42.16386" lon="21.88273">
        <ele>372.293672</ele>
        <time>2022-04-10T12:21:33.094Z</time>
      </trkpt>
      <trkpt lat="42.16385" lon="21.88261">
        <ele>372.674078</ele>
        <time>2022-04-10T12:21:41.105Z</time>
      </trkpt>
      <trkpt lat="42.16383" lon="21.88247">
        <ele>373.082113</ele>
        <time>2022-04-10T12:21:50.092Z</time>
      </trkpt>
      <trkpt lat="42.16379" lon="21.88234">
        <ele>373.510853</ele>
        <time>2022-04-10T12:21:57.102Z</time>
      </trkpt>
      <trkpt lat="42.16375" lon="21.88223">
        <ele>373.894045</ele>
        <time>2022-04-10T12:22:02.086Z</time>
      </trkpt>
      <trkpt lat="42.1637" lon="21.8821">
        <ele>374.323208</ele>
        <time>2022-04-10T12:22:07.088Z</time>
      </trkpt>
      <trkpt lat="42.16366" lon="21.88196">
        <ele>374.772221</ele>
        <time>2022-04-10T12:22:12.074Z</time>
      </trkpt>
      <trkpt lat="42.16362" lon="21.88183">
        <ele>375.206981</ele>
        <time>2022-04-10T12:22:17.100Z</time>
      </trkpt>
      <trkpt lat="42.16357" lon="21.8817">
        <ele>375.65097</ele>
        <time>2022-04-10T12:22:22.093Z</time>
      </trkpt>
      <trkpt lat="42.16353" lon="21.88157">
        <ele>376.075778</ele>
        <time>2022-04-10T12:22:26.114Z</time>
      </trkpt>
      <trkpt lat="42.16349" lon="21.88145">
        <ele>376.480764</ele>
        <time>2022-04-10T12:22:30.090Z</time>
      </trkpt>
      <trkpt lat="42.16345" lon="21.88132">
        <ele>376.887794</ele>
        <time>2022-04-10T12:22:34.088Z</time>
      </trkpt>
      <trkpt lat="42.1634" lon="21.88121">
        <ele>377.264346</ele>
        <time>2022-04-10T12:22:38.105Z</time>
      </trkpt>
      <trkpt lat="42.16335" lon="21.8811">
        <ele>377.664803</ele>
        <time>2022-04-10T12:22:42.082Z</time>
      </trkpt>
      <trkpt lat="42.1633" lon="21.88099">
        <ele>378.059946</ele>
        <time>2022-04-10T12:22:46.078Z</time>
      </trkpt>
      <trkpt lat="42.16325" lon="21.88086">
        <ele>378.224002</ele>
        <time>2022-04-10T12:22:50.096Z</time>
      </trkpt>
      <trkpt lat="42.16321" lon="21.88074">
        <ele>378.34302</ele>
        <time>2022-04-10T12:22:54.077Z</time>
      </trkpt>
      <trkpt lat="42.16318" lon="21.88061">
        <ele>378.458237</ele>
        <time>2022-04-10T12:22:58.094Z</time>
      </trkpt>
      <trkpt lat="42.16313" lon="21.88049">
        <ele>378.576211</ele>
        <time>2022-04-10T12:23:02.095Z</time>
      </trkpt>
      <trkpt lat="42.16309" lon="21.88037">
        <ele>378.692646</ele>
        <time>2022-04-10T12:23:06.082Z</time>
      </trkpt>
      <trkpt lat="42.16305" lon="21.88025">
        <ele>378.8043</ele>
        <time>2022-04-10T12:23:10.093Z</time>
      </trkpt>
      <trkpt lat="42.16302" lon="21.88013">
        <ele>378.917923</ele>
        <time>2022-04-10T12:23:14.093Z</time>
      </trkpt>
      <trkpt lat="42.16298" lon="21.88001">
        <ele>379.031791</ele>
        <time>2022-04-10T12:23:18.082Z</time>
      </trkpt>
      <trkpt lat="42.16294" lon="21.87989">
        <ele>379.148046</ele>
        <time>2022-04-10T12:23:22.109Z</time>
      </trkpt>
      <trkpt lat="42.16289" lon="21.87978">
        <ele>379.25433</ele>
        <time>2022-04-10T12:23:26.088Z</time>
      </trkpt>
      <trkpt lat="42.16286" lon="21.87967">
        <ele>379.36088</ele>
        <time>2022-04-10T12:23:30.076Z</time>
      </trkpt>
      <trkpt lat="42.16282" lon="21.87955">
        <ele>379.474097</ele>
        <time>2022-04-10T12:23:34.096Z</time>
      </trkpt>
      <trkpt lat="42.1628" lon="21.87943">
        <ele>379.584218</ele>
        <time>2022-04-10T12:23:38.129Z</time>
      </trkpt>
      <trkpt lat="42.16277" lon="21.87931">
        <ele>379.695407</ele>
        <time>2022-04-10T12:23:42.075Z</time>
      </trkpt>
      <trkpt lat="42.16273" lon="21.87919">
        <ele>379.80613</ele>
        <time>2022-04-10T12:23:46.089Z</time>
      </trkpt>
      <trkpt lat="42.1627" lon="21.87907">
        <ele>379.914467</ele>
        <time>2022-04-10T12:23:50.096Z</time>
      </trkpt>
      <trkpt lat="42.16267" lon="21.87894">
        <ele>380.036453</ele>
        <time>2022-04-10T12:23:54.068Z</time>
      </trkpt>
      <trkpt lat="42.16265" lon="21.8788">
        <ele>380.160829</ele>
        <time>2022-04-10T12:23:58.095Z</time>
      </trkpt>
      <trkpt lat="42.16261" lon="21.87868">
        <ele>380.240533</ele>
        <time>2022-04-10T12:24:02.096Z</time>
      </trkpt>
      <trkpt lat="42.16258" lon="21.87855">
        <ele>380.270902</ele>
        <time>2022-04-10T12:24:06.083Z</time>
      </trkpt>
      <trkpt lat="42.16253" lon="21.87842">
        <ele>380.302584</ele>
        <time>2022-04-10T12:24:10.079Z</time>
      </trkpt>
      <trkpt lat="42.16248" lon="21.8783">
        <ele>380.334517</ele>
        <time>2022-04-10T12:24:14.084Z</time>
      </trkpt>
      <trkpt lat="42.16244" lon="21.87816">
        <ele>380.368058</ele>
        <time>2022-04-10T12:24:18.076Z</time>
      </trkpt>
      <trkpt lat="42.16241" lon="21.878">
        <ele>380.403163</ele>
        <time>2022-04-10T12:24:22.098Z</time>
      </trkpt>
      <trkpt lat="42.16239" lon="21.87785">
        <ele>380.438126</ele>
        <time>2022-04-10T12:24:26.091Z</time>
      </trkpt>
      <trkpt lat="42.16235" lon="21.87771">
        <ele>380.472699</ele>
        <time>2022-04-10T12:24:30.073Z</time>
      </trkpt>
      <trkpt lat="42.1623" lon="21.87757">
        <ele>380.507147</ele>
        <time>2022-04-10T12:24:34.087Z</time>
      </trkpt>
      <trkpt lat="42.16226" lon="21.87744">
        <ele>380.538727</ele>
        <time>2022-04-10T12:24:38.094Z</time>
      </trkpt>
      <trkpt lat="42.16222" lon="21.87732">
        <ele>380.566367</ele>
        <time>2022-04-10T12:24:42.073Z</time>
      </trkpt>
      <trkpt lat="42.16221" lon="21.8772">
        <ele>380.59524</ele>
        <time>2022-04-10T12:24:46.102Z</time>
      </trkpt>
      <trkpt lat="42.16218" lon="21.87705">
        <ele>380.629496</ele>
        <time>2022-04-10T12:24:50.076Z</time>
      </trkpt>
      <trkpt lat="42.16213" lon="21.8769">
        <ele>380.664822</ele>
        <time>2022-04-10T12:24:54.073Z</time>
      </trkpt>
      <trkpt lat="42.1621" lon="21.87679">
        <ele>380.693198</ele>
        <time>2022-04-10T12:24:57.124Z</time>
      </trkpt>
      <trkpt lat="42.16207" lon="21.87666">
        <ele>380.722317</ele>
        <time>2022-04-10T12:25:00.073Z</time>
      </trkpt>
      <trkpt lat="42.16204" lon="21.87654">
        <ele>380.75193</ele>
        <time>2022-04-10T12:25:03.070Z</time>
      </trkpt>
      <trkpt lat="42.16201" lon="21.87641">
        <ele>380.772961</ele>
        <time>2022-04-10T12:25:06.067Z</time>
      </trkpt>
      <trkpt lat="42.16198" lon="21.87628">
        <ele>380.775087</ele>
        <time>2022-04-10T12:25:09.126Z</time>
      </trkpt>
      <trkpt lat="42.16195" lon="21.87616">
        <ele>380.777142</ele>
        <time>2022-04-10T12:25:12.075Z</time>
      </trkpt>
      <trkpt lat="42.16192" lon="21.87604">
        <ele>380.779167</ele>
        <time>2022-04-10T12:25:15.077Z</time>
      </trkpt>
      <trkpt lat="42.16188" lon="21.87593">
        <ele>380.781194</ele>
        <time>2022-04-10T12:25:18.083Z</time>
      </trkpt>
      <trkpt lat="42.16185" lon="21.87581">
        <ele>380.783242</ele>
        <time>2022-04-10T12:25:21.085Z</time>
      </trkpt>
      <trkpt lat="42.16183" lon="21.87569">
        <ele>380.785263</ele>
        <time>2022-04-10T12:25:24.077Z</time>
      </trkpt>
      <trkpt lat="42.1618" lon="21.87556">
        <ele>380.78735</ele>
        <time>2022-04-10T12:25:27.077Z</time>
      </trkpt>
      <trkpt lat="42.16177" lon="21.87544">
        <ele>380.789391</ele>
        <time>2022-04-10T12:25:30.079Z</time>
      </trkpt>
      <trkpt lat="42.16174" lon="21.87532">
        <ele>380.791471</ele>
        <time>2022-04-10T12:25:33.078Z</time>
      </trkpt>
      <trkpt lat="42.1617" lon="21.87517">
        <ele>380.794018</ele>
        <time>2022-04-10T12:25:37.128Z</time>
      </trkpt>
      <trkpt lat="42.16166" lon="21.87503">
        <ele>380.796401</ele>
        <time>2022-04-10T12:25:41.083Z</time>
      </trkpt>
      <trkpt lat="42.16163" lon="21.87488">
        <ele>380.798944</ele>
        <time>2022-04-10T12:25:45.090Z</time>
      </trkpt>
      <trkpt lat="42.1616" lon="21.87476">
        <ele>380.801037</ele>
        <time>2022-04-10T12:25:48.085Z</time>
      </trkpt>
      <trkpt lat="42.16158" lon="21.87462">
        <ele>380.803363</ele>
        <time>2022-04-10T12:25:51.080Z</time>
      </trkpt>
      <trkpt lat="42.16154" lon="21.87449">
        <ele>380.805463</ele>
        <time>2022-04-10T12:25:54.132Z</time>
      </trkpt>
      <trkpt lat="42.16151" lon="21.87436">
        <ele>380.807803</ele>
        <time>2022-04-10T12:25:57.096Z</time>
      </trkpt>
      <trkpt lat="42.16147" lon="21.87422">
        <ele>380.810201</ele>
        <time>2022-04-10T12:26:00.084Z</time>
      </trkpt>
      <trkpt lat="42.16142" lon="21.87408">
        <ele>380.593779</ele>
        <time>2022-04-10T12:26:03.098Z</time>
      </trkpt>
      <trkpt lat="42.16138" lon="21.87394">
        <ele>380.164585</ele>
        <time>2022-04-10T12:26:06.090Z</time>
      </trkpt>
      <trkpt lat="42.16136" lon="21.8738">
        <ele>379.760783</ele>
        <time>2022-04-10T12:26:09.090Z</time>
      </trkpt>
      <trkpt lat="42.16134" lon="21.87367">
        <ele>379.382437</ele>
        <time>2022-04-10T12:26:12.103Z</time>
      </trkpt>
      <trkpt lat="42.16131" lon="21.87354">
        <ele>379.012347</ele>
        <time>2022-04-10T12:26:15.099Z</time>
      </trkpt>
      <trkpt lat="42.16127" lon="21.87342">
        <ele>378.638444</ele>
        <time>2022-04-10T12:26:18.088Z</time>
      </trkpt>
      <trkpt lat="42.16124" lon="21.87329">
        <ele>378.262991</ele>
        <time>2022-04-10T12:26:21.088Z</time>
      </trkpt>
      <trkpt lat="42.16121" lon="21.87315">
        <ele>377.84224</ele>
        <time>2022-04-10T12:26:24.098Z</time>
      </trkpt>
      <trkpt lat="42.16116" lon="21.873">
        <ele>377.386434</ele>
        <time>2022-04-10T12:26:27.128Z</time>
      </trkpt>
      <trkpt lat="42.16113" lon="21.87287">
        <ele>376.986028</ele>
        <time>2022-04-10T12:26:30.090Z</time>
      </trkpt>
      <trkpt lat="42.16111" lon="21.87271">
        <ele>376.549051</ele>
        <time>2022-04-10T12:26:33.104Z</time>
      </trkpt>
      <trkpt lat="42.16108" lon="21.87257">
        <ele>376.128618</ele>
        <time>2022-04-10T12:26:36.102Z</time>
      </trkpt>
      <trkpt lat="42.16105" lon="21.87244">
        <ele>375.74168</ele>
        <time>2022-04-10T12:26:39.085Z</time>
      </trkpt>
      <trkpt lat="42.161" lon="21.87233">
        <ele>375.399475</ele>
        <time>2022-04-10T12:26:42.103Z</time>
      </trkpt>
      <trkpt lat="42.16095" lon="21.87219">
        <ele>374.951566</ele>
        <time>2022-04-10T12:26:46.087Z</time>
      </trkpt>
      <trkpt lat="42.16092" lon="21.87208">
        <ele>374.601022</ele>
        <time>2022-04-10T12:26:49.174Z</time>
      </trkpt>
      <trkpt lat="42.16088" lon="21.87195">
        <ele>374.221141</ele>
        <time>2022-04-10T12:26:53.104Z</time>
      </trkpt>
      <trkpt lat="42.16085" lon="21.87184">
        <ele>373.752369</ele>
        <time>2022-04-10T12:26:57.096Z</time>
      </trkpt>
      <trkpt lat="42.16085" lon="21.8717">
        <ele>372.888123</ele>
        <time>2022-04-10T12:27:02.107Z</time>
      </trkpt>
      <trkpt lat="42.16088" lon="21.87158">
        <ele>372.045237</ele>
        <time>2022-04-10T12:27:05.108Z</time>
      </trkpt>
      <trkpt lat="42.16093" lon="21.87147">
        <ele>371.23747</ele>
        <time>2022-04-10T12:27:08.084Z</time>
      </trkpt>
      <trkpt lat="42.161" lon="21.87139">
        <ele>370.458271</ele>
        <time>2022-04-10T12:27:12.094Z</time>
      </trkpt>
      <trkpt lat="42.16109" lon="21.87133">
        <ele>369.632444</ele>
        <time>2022-04-10T12:27:16.097Z</time>
      </trkpt>
      <trkpt lat="42.16119" lon="21.87127">
        <ele>368.701086</ele>
        <time>2022-04-10T12:27:20.096Z</time>
      </trkpt>
      <trkpt lat="42.16129" lon="21.87124">
        <ele>367.861358</ele>
        <time>2022-04-10T12:27:23.066Z</time>
      </trkpt>
      <trkpt lat="42.16138" lon="21.87121">
        <ele>367.031067</ele>
        <time>2022-04-10T12:27:27.108Z</time>
      </trkpt>
      <trkpt lat="42.16149" lon="21.87118">
        <ele>366.125827</ele>
        <time>2022-04-10T12:27:31.083Z</time>
      </trkpt>
      <trkpt lat="42.16158" lon="21.87115">
        <ele>365.318867</ele>
        <time>2022-04-10T12:27:36.088Z</time>
      </trkpt>
      <trkpt lat="42.16168" lon="21.87108">
        <ele>364.372248</ele>
        <time>2022-04-10T12:27:40.094Z</time>
      </trkpt>
      <trkpt lat="42.16177" lon="21.87098">
        <ele>363.341611</ele>
        <time>2022-04-10T12:27:44.083Z</time>
      </trkpt>
      <trkpt lat="42.16186" lon="21.87091">
        <ele>362.487507</ele>
        <time>2022-04-10T12:27:47.101Z</time>
      </trkpt>
      <trkpt lat="42.16195" lon="21.87084">
        <ele>361.618942</ele>
        <time>2022-04-10T12:27:50.094Z</time>
      </trkpt>
      <trkpt lat="42.16203" lon="21.87077">
        <ele>360.793493</ele>
        <time>2022-04-10T12:27:53.094Z</time>
      </trkpt>
      <trkpt lat="42.1621" lon="21.87069">
        <ele>359.97027</ele>
        <time>2022-04-10T12:27:56.080Z</time>
      </trkpt>
      <trkpt lat="42.16218" lon="21.87059">
        <ele>359.037868</ele>
        <time>2022-04-10T12:27:59.094Z</time>
      </trkpt>
      <trkpt lat="42.16227" lon="21.87049">
        <ele>358.429673</ele>
        <time>2022-04-10T12:28:02.094Z</time>
      </trkpt>
      <trkpt lat="42.16236" lon="21.8704">
        <ele>358.063529</ele>
        <time>2022-04-10T12:28:05.105Z</time>
      </trkpt>
      <trkpt lat="42.16244" lon="21.87028">
        <ele>357.656142</ele>
        <time>2022-04-10T12:28:08.108Z</time>
      </trkpt>
      <trkpt lat="42.1625" lon="21.87015">
        <ele>357.263859</ele>
        <time>2022-04-10T12:28:11.084Z</time>
      </trkpt>
      <trkpt lat="42.16255" lon="21.87003">
        <ele>356.91515</ele>
        <time>2022-04-10T12:28:14.098Z</time>
      </trkpt>
      <trkpt lat="42.16256" lon="21.86986">
        <ele>356.503691</ele>
        <time>2022-04-10T12:28:18.101Z</time>
      </trkpt>
      <trkpt lat="42.16257" lon="21.86973">
        <ele>356.183347</ele>
        <time>2022-04-10T12:28:20.083Z</time>
      </trkpt>
      <trkpt lat="42.16259" lon="21.86961">
        <ele>355.876808</ele>
        <time>2022-04-10T12:28:22.096Z</time>
      </trkpt>
      <trkpt lat="42.1626" lon="21.86948">
        <ele>355.550235</ele>
        <time>2022-04-10T12:28:25.098Z</time>
      </trkpt>
      <trkpt lat="42.16261" lon="21.86932">
        <ele>355.138459</ele>
        <time>2022-04-10T12:28:29.112Z</time>
      </trkpt>
      <trkpt lat="42.16261" lon="21.86917">
        <ele>354.773403</ele>
        <time>2022-04-10T12:28:32.096Z</time>
      </trkpt>
      <trkpt lat="42.16259" lon="21.86903">
        <ele>354.401392</ele>
        <time>2022-04-10T12:28:35.102Z</time>
      </trkpt>
      <trkpt lat="42.16259" lon="21.86888">
        <ele>354.038081</ele>
        <time>2022-04-10T12:28:38.112Z</time>
      </trkpt>
      <trkpt lat="42.16258" lon="21.86874">
        <ele>353.696593</ele>
        <time>2022-04-10T12:28:41.075Z</time>
      </trkpt>
      <trkpt lat="42.16258" lon="21.86862">
        <ele>353.374245</ele>
        <time>2022-04-10T12:28:44.081Z</time>
      </trkpt>
      <trkpt lat="42.16259" lon="21.86848">
        <ele>353.030584</ele>
        <time>2022-04-10T12:28:47.096Z</time>
      </trkpt>
      <trkpt lat="42.16258" lon="21.86833">
        <ele>352.656757</ele>
        <time>2022-04-10T12:28:50.126Z</time>
      </trkpt>
      <trkpt lat="42.16258" lon="21.86819">
        <ele>352.70239</ele>
        <time>2022-04-10T12:28:53.085Z</time>
      </trkpt>
      <trkpt lat="42.16257" lon="21.86803">
        <ele>352.836403</ele>
        <time>2022-04-10T12:28:57.084Z</time>
      </trkpt>
      <trkpt lat="42.16256" lon="21.86788">
        <ele>352.961404</ele>
        <time>2022-04-10T12:29:01.084Z</time>
      </trkpt>
      <trkpt lat="42.16256" lon="21.86772">
        <ele>353.093672</ele>
        <time>2022-04-10T12:29:05.088Z</time>
      </trkpt>
      <trkpt lat="42.16255" lon="21.86755">
        <ele>353.237588</ele>
        <time>2022-04-10T12:29:08.078Z</time>
      </trkpt>
      <trkpt lat="42.16255" lon="21.86742">
        <ele>353.342664</ele>
        <time>2022-04-10T12:29:10.085Z</time>
      </trkpt>
      <trkpt lat="42.16254" lon="21.86725">
        <ele>353.483402</ele>
        <time>2022-04-10T12:29:13.086Z</time>
      </trkpt>
      <trkpt lat="42.16253" lon="21.8671">
        <ele>353.607231</ele>
        <time>2022-04-10T12:29:16.084Z</time>
      </trkpt>
      <trkpt lat="42.16252" lon="21.86695">
        <ele>353.733215</ele>
        <time>2022-04-10T12:29:19.103Z</time>
      </trkpt>
      <trkpt lat="42.16251" lon="21.8668">
        <ele>353.853434</ele>
        <time>2022-04-10T12:29:22.087Z</time>
      </trkpt>
      <trkpt lat="42.1625" lon="21.86665">
        <ele>353.980672</ele>
        <time>2022-04-10T12:29:25.098Z</time>
      </trkpt>
      <trkpt lat="42.16248" lon="21.86651">
        <ele>354.100665</ele>
        <time>2022-04-10T12:29:28.101Z</time>
      </trkpt>
      <trkpt lat="42.16249" lon="21.86637">
        <ele>354.214818</ele>
        <time>2022-04-10T12:29:31.094Z</time>
      </trkpt>
      <trkpt lat="42.16249" lon="21.86622">
        <ele>354.338749</ele>
        <time>2022-04-10T12:29:34.089Z</time>
      </trkpt>
      <trkpt lat="42.16249" lon="21.86607">
        <ele>354.461874</ele>
        <time>2022-04-10T12:29:37.101Z</time>
      </trkpt>
      <trkpt lat="42.16249" lon="21.86592">
        <ele>354.5825</ele>
        <time>2022-04-10T12:29:40.085Z</time>
      </trkpt>
      <trkpt lat="42.16249" lon="21.86577">
        <ele>354.670888</ele>
        <time>2022-04-10T12:29:43.099Z</time>
      </trkpt>
      <trkpt lat="42.16248" lon="21.86563">
        <ele>354.743473</ele>
        <time>2022-04-10T12:29:46.142Z</time>
      </trkpt>
      <trkpt lat="42.16248" lon="21.86548">
        <ele>354.82015</ele>
        <time>2022-04-10T12:29:49.088Z</time>
      </trkpt>
      <trkpt lat="42.16248" lon="21.86533">
        <ele>354.899911</ele>
        <time>2022-04-10T12:29:52.101Z</time>
      </trkpt>
      <trkpt lat="42.16247" lon="21.86519">
        <ele>354.972526</ele>
        <time>2022-04-10T12:29:55.081Z</time>
      </trkpt>
      <trkpt lat="42.16246" lon="21.86505">
        <ele>355.044758</ele>
        <time>2022-04-10T12:29:58.093Z</time>
      </trkpt>
      <trkpt lat="42.16246" lon="21.86492">
        <ele>355.112236</ele>
        <time>2022-04-10T12:30:01.088Z</time>
      </trkpt>
      <trkpt lat="42.16246" lon="21.86479">
        <ele>355.178599</ele>
        <time>2022-04-10T12:30:04.096Z</time>
      </trkpt>
      <trkpt lat="42.16245" lon="21.86466">
        <ele>355.244062</ele>
        <time>2022-04-10T12:30:07.094Z</time>
      </trkpt>
      <trkpt lat="42.16246" lon="21.86453">
        <ele>355.309485</ele>
        <time>2022-04-10T12:30:10.087Z</time>
      </trkpt>
      <trkpt lat="42.16246" lon="21.86438">
        <ele>355.387873</ele>
        <time>2022-04-10T12:30:14.105Z</time>
      </trkpt>
      <trkpt lat="42.16245" lon="21.86425">
        <ele>355.457665</ele>
        <time>2022-04-10T12:30:18.078Z</time>
      </trkpt>
      <trkpt lat="42.16246" lon="21.86409">
        <ele>355.536618</ele>
        <time>2022-04-10T12:30:22.094Z</time>
      </trkpt>
      <trkpt lat="42.16246" lon="21.86394">
        <ele>355.614812</ele>
        <time>2022-04-10T12:30:26.091Z</time>
      </trkpt>
      <trkpt lat="42.16246" lon="21.86379">
        <ele>355.691614</ele>
        <time>2022-04-10T12:30:30.084Z</time>
      </trkpt>
      <trkpt lat="42.16245" lon="21.86365">
        <ele>355.765205</ele>
        <time>2022-04-10T12:30:34.131Z</time>
      </trkpt>
      <trkpt lat="42.16246" lon="21.86352">
        <ele>355.831695</ele>
        <time>2022-04-10T12:30:38.087Z</time>
      </trkpt>
      <trkpt lat="42.16246" lon="21.86337">
        <ele>356.079986</ele>
        <time>2022-04-10T12:30:42.126Z</time>
      </trkpt>
      <trkpt lat="42.16247" lon="21.86322">
        <ele>356.401173</ele>
        <time>2022-04-10T12:30:46.142Z</time>
      </trkpt>
      <trkpt lat="42.16248" lon="21.86308">
        <ele>356.714799</ele>
        <time>2022-04-10T12:30:50.088Z</time>
      </trkpt>
      <trkpt lat="42.16248" lon="21.86296">
        <ele>356.998382</ele>
        <time>2022-04-10T12:30:54.104Z</time>
      </trkpt>
      <trkpt lat="42.16249" lon="21.86282">
        <ele>357.299691</ele>
        <time>2022-04-10T12:30:58.096Z</time>
      </trkpt>
      <trkpt lat="42.16248" lon="21.86269">
        <ele>357.592074</ele>
        <time>2022-04-10T12:31:02.089Z</time>
      </trkpt>
      <trkpt lat="42.16248" lon="21.86256">
        <ele>357.886734</ele>
        <time>2022-04-10T12:31:06.078Z</time>
      </trkpt>
      <trkpt lat="42.16248" lon="21.86242">
        <ele>358.188569</ele>
        <time>2022-04-10T12:31:10.109Z</time>
      </trkpt>
      <trkpt lat="42.16247" lon="21.8623">
        <ele>358.472791</ele>
        <time>2022-04-10T12:31:14.081Z</time>
      </trkpt>
      <trkpt lat="42.16248" lon="21.86216">
        <ele>358.777271</ele>
        <time>2022-04-10T12:31:19.097Z</time>
      </trkpt>
      <trkpt lat="42.16249" lon="21.86201">
        <ele>359.122562</ele>
        <time>2022-04-10T12:31:24.089Z</time>
      </trkpt>
      <trkpt lat="42.1625" lon="21.86188">
        <ele>359.419016</ele>
        <time>2022-04-10T12:31:28.090Z</time>
      </trkpt>
      <trkpt lat="42.1625" lon="21.86174">
        <ele>359.713676</ele>
        <time>2022-04-10T12:31:32.120Z</time>
      </trkpt>
      <trkpt lat="42.1625" lon="21.86162">
        <ele>359.9949</ele>
        <time>2022-04-10T12:31:36.087Z</time>
      </trkpt>
      <trkpt lat="42.1625" lon="21.86148">
        <ele>360.291731</ele>
        <time>2022-04-10T12:31:40.122Z</time>
      </trkpt>
      <trkpt lat="42.16251" lon="21.86135">
        <ele>360.584237</ele>
        <time>2022-04-10T12:31:44.097Z</time>
      </trkpt>
      <trkpt lat="42.16251" lon="21.86122">
        <ele>360.878897</ele>
        <time>2022-04-10T12:31:48.082Z</time>
      </trkpt>
      <trkpt lat="42.16252" lon="21.86108">
        <ele>361.196727</ele>
        <time>2022-04-10T12:31:52.097Z</time>
      </trkpt>
      <trkpt lat="42.16253" lon="21.86093">
        <ele>361.471418</ele>
        <time>2022-04-10T12:31:57.105Z</time>
      </trkpt>
      <trkpt lat="42.16254" lon="21.86079">
        <ele>361.703991</ele>
        <time>2022-04-10T12:32:02.114Z</time>
      </trkpt>
      <trkpt lat="42.16257" lon="21.86067">
        <ele>361.927768</ele>
        <time>2022-04-10T12:32:07.076Z</time>
      </trkpt>
      <trkpt lat="42.16258" lon="21.86053">
        <ele>362.164658</ele>
        <time>2022-04-10T12:32:13.096Z</time>
      </trkpt>
      <trkpt lat="42.1626" lon="21.8604">
        <ele>362.393486</ele>
        <time>2022-04-10T12:32:19.097Z</time>
      </trkpt>
      <trkpt lat="42.16263" lon="21.86028">
        <ele>362.601309</ele>
        <time>2022-04-10T12:32:24.094Z</time>
      </trkpt>
      <trkpt lat="42.16265" lon="21.86016">
        <ele>362.816289</ele>
        <time>2022-04-10T12:32:29.076Z</time>
      </trkpt>
      <trkpt lat="42.16268" lon="21.86002">
        <ele>363.061986</ele>
        <time>2022-04-10T12:32:34.091Z</time>
      </trkpt>
      <trkpt lat="42.16271" lon="21.8599">
        <ele>363.273129</ele>
        <time>2022-04-10T12:32:38.141Z</time>
      </trkpt>
      <trkpt lat="42.16273" lon="21.85978">
        <ele>363.490227</ele>
        <time>2022-04-10T12:32:42.109Z</time>
      </trkpt>
      <trkpt lat="42.16275" lon="21.85965">
        <ele>363.706074</ele>
        <time>2022-04-10T12:32:46.091Z</time>
      </trkpt>
      <trkpt lat="42.16277" lon="21.8595">
        <ele>363.96223</ele>
        <time>2022-04-10T12:32:51.088Z</time>
      </trkpt>
      <trkpt lat="42.1628" lon="21.85938">
        <ele>364.184275</ele>
        <time>2022-04-10T12:32:55.127Z</time>
      </trkpt>
      <trkpt lat="42.16282" lon="21.85925">
        <ele>364.410304</ele>
        <time>2022-04-10T12:32:59.116Z</time>
      </trkpt>
      <trkpt lat="42.16285" lon="21.85912">
        <ele>364.641751</ele>
        <time>2022-04-10T12:33:03.087Z</time>
      </trkpt>
      <trkpt lat="42.16287" lon="21.85899">
        <ele>364.858944</ele>
        <time>2022-04-10T12:33:07.094Z</time>
      </trkpt>
      <trkpt lat="42.16289" lon="21.85887">
        <ele>365.071283</ele>
        <time>2022-04-10T12:33:11.079Z</time>
      </trkpt>
      <trkpt lat="42.16292" lon="21.85875">
        <ele>365.289818</ele>
        <time>2022-04-10T12:33:15.106Z</time>
      </trkpt>
      <trkpt lat="42.16294" lon="21.85863">
        <ele>365.394067</ele>
        <time>2022-04-10T12:33:19.093Z</time>
      </trkpt>
      <trkpt lat="42.16296" lon="21.85849">
        <ele>365.387486</ele>
        <time>2022-04-10T12:33:23.106Z</time>
      </trkpt>
      <trkpt lat="42.16299" lon="21.85837">
        <ele>365.381231</ele>
        <time>2022-04-10T12:33:27.094Z</time>
      </trkpt>
      <trkpt lat="42.16302" lon="21.85823">
        <ele>365.374171</ele>
        <time>2022-04-10T12:33:31.078Z</time>
      </trkpt>
      <trkpt lat="42.16304" lon="21.8581">
        <ele>365.367349</ele>
        <time>2022-04-10T12:33:35.105Z</time>
      </trkpt>
      <trkpt lat="42.16307" lon="21.85797">
        <ele>365.360877</ele>
        <time>2022-04-10T12:33:39.120Z</time>
      </trkpt>
      <trkpt lat="42.1631" lon="21.85781">
        <ele>365.352789</ele>
        <time>2022-04-10T12:33:43.091Z</time>
      </trkpt>
      <trkpt lat="42.16313" lon="21.85767">
        <ele>365.345935</ele>
        <time>2022-04-10T12:33:46.094Z</time>
      </trkpt>
      <trkpt lat="42.16316" lon="21.85754">
        <ele>365.339352</ele>
        <time>2022-04-10T12:33:49.097Z</time>
      </trkpt>
      <trkpt lat="42.16319" lon="21.8574">
        <ele>365.332095</ele>
        <time>2022-04-10T12:33:53.085Z</time>
      </trkpt>
      <trkpt lat="42.16322" lon="21.85727">
        <ele>365.325687</ele>
        <time>2022-04-10T12:33:57.089Z</time>
      </trkpt>
      <trkpt lat="42.16325" lon="21.85712">
        <ele>365.318019</ele>
        <time>2022-04-10T12:34:01.135Z</time>
      </trkpt>
      <trkpt lat="42.16328" lon="21.85698">
        <ele>365.310759</ele>
        <time>2022-04-10T12:34:05.085Z</time>
      </trkpt>
      <trkpt lat="42.1633" lon="21.85685">
        <ele>365.304242</ele>
        <time>2022-04-10T12:34:09.091Z</time>
      </trkpt>
      <trkpt lat="42.16333" lon="21.85672">
        <ele>365.297547</ele>
        <time>2022-04-10T12:34:13.108Z</time>
      </trkpt>
      <trkpt lat="42.16335" lon="21.8566">
        <ele>365.291468</ele>
        <time>2022-04-10T12:34:16.095Z</time>
      </trkpt>
      <trkpt lat="42.16338" lon="21.85648">
        <ele>365.285424</ele>
        <time>2022-04-10T12:34:19.095Z</time>
      </trkpt>
      <trkpt lat="42.16341" lon="21.85633">
        <ele>365.304725</ele>
        <time>2022-04-10T12:34:23.132Z</time>
      </trkpt>
      <trkpt lat="42.16343" lon="21.8562">
        <ele>365.514061</ele>
        <time>2022-04-10T12:34:27.080Z</time>
      </trkpt>
      <trkpt lat="42.16346" lon="21.85607">
        <ele>365.731098</ele>
        <time>2022-04-10T12:34:31.091Z</time>
      </trkpt>
      <trkpt lat="42.16349" lon="21.85594">
        <ele>365.942365</ele>
        <time>2022-04-10T12:34:34.096Z</time>
      </trkpt>
      <trkpt lat="42.16352" lon="21.85582">
        <ele>366.143089</ele>
        <time>2022-04-10T12:34:37.092Z</time>
      </trkpt>
      <trkpt lat="42.16355" lon="21.85568">
        <ele>366.386532</ele>
        <time>2022-04-10T12:34:41.086Z</time>
      </trkpt>
      <trkpt lat="42.16358" lon="21.85552">
        <ele>366.634311</ele>
        <time>2022-04-10T12:34:45.091Z</time>
      </trkpt>
      <trkpt lat="42.1636" lon="21.85539">
        <ele>366.846146</ele>
        <time>2022-04-10T12:34:49.078Z</time>
      </trkpt>
      <trkpt lat="42.16363" lon="21.85527">
        <ele>367.055413</ele>
        <time>2022-04-10T12:34:53.102Z</time>
      </trkpt>
      <trkpt lat="42.16365" lon="21.85512">
        <ele>367.290895</ele>
        <time>2022-04-10T12:34:57.087Z</time>
      </trkpt>
      <trkpt lat="42.16367" lon="21.85499">
        <ele>367.505335</ele>
        <time>2022-04-10T12:35:01.094Z</time>
      </trkpt>
      <trkpt lat="42.16369" lon="21.85485">
        <ele>367.736817</ele>
        <time>2022-04-10T12:35:06.099Z</time>
      </trkpt>
      <trkpt lat="42.16371" lon="21.85471">
        <ele>367.961657</ele>
        <time>2022-04-10T12:35:11.086Z</time>
      </trkpt>
      <trkpt lat="42.16374" lon="21.85459">
        <ele>368.162277</ele>
        <time>2022-04-10T12:35:15.093Z</time>
      </trkpt>
      <trkpt lat="42.16376" lon="21.85444">
        <ele>368.394203</ele>
        <time>2022-04-10T12:35:20.132Z</time>
      </trkpt>
      <trkpt lat="42.16378" lon="21.85431">
        <ele>368.602462</ele>
        <time>2022-04-10T12:35:25.099Z</time>
      </trkpt>
      <trkpt lat="42.16381" lon="21.85418">
        <ele>368.823538</ele>
        <time>2022-04-10T12:35:30.099Z</time>
      </trkpt>
      <trkpt lat="42.16384" lon="21.85404">
        <ele>369.05035</ele>
        <time>2022-04-10T12:35:35.098Z</time>
      </trkpt>
      <trkpt lat="42.16387" lon="21.85392">
        <ele>369.321804</ele>
        <time>2022-04-10T12:35:40.100Z</time>
      </trkpt>
      <trkpt lat="42.16389" lon="21.85378">
        <ele>369.642878</ele>
        <time>2022-04-10T12:35:45.107Z</time>
      </trkpt>
      <trkpt lat="42.16392" lon="21.85366">
        <ele>369.929376</ele>
        <time>2022-04-10T12:35:49.087Z</time>
      </trkpt>
      <trkpt lat="42.16394" lon="21.85353">
        <ele>370.241484</ele>
        <time>2022-04-10T12:35:54.095Z</time>
      </trkpt>
      <trkpt lat="42.16396" lon="21.8534">
        <ele>370.568632</ele>
        <time>2022-04-10T12:35:59.135Z</time>
      </trkpt>
      <trkpt lat="42.16399" lon="21.85326">
        <ele>370.898845</ele>
        <time>2022-04-10T12:36:04.087Z</time>
      </trkpt>
      <trkpt lat="42.16403" lon="21.85314">
        <ele>371.198487</ele>
        <time>2022-04-10T12:36:09.101Z</time>
      </trkpt>
      <trkpt lat="42.16407" lon="21.85301">
        <ele>371.53083</ele>
        <time>2022-04-10T12:36:14.121Z</time>
      </trkpt>
      <trkpt lat="42.16408" lon="21.85288">
        <ele>371.833556</ele>
        <time>2022-04-10T12:36:19.138Z</time>
      </trkpt>
      <trkpt lat="42.16411" lon="21.85275">
        <ele>372.138882</ele>
        <time>2022-04-10T12:36:23.086Z</time>
      </trkpt>
      <trkpt lat="42.16413" lon="21.85262">
        <ele>372.450951</ele>
        <time>2022-04-10T12:36:27.083Z</time>
      </trkpt>
      <trkpt lat="42.16416" lon="21.8525">
        <ele>372.741973</ele>
        <time>2022-04-10T12:36:31.077Z</time>
      </trkpt>
      <trkpt lat="42.16418" lon="21.85236">
        <ele>373.075078</ele>
        <time>2022-04-10T12:36:36.091Z</time>
      </trkpt>
      <trkpt lat="42.16421" lon="21.85223">
        <ele>373.387948</ele>
        <time>2022-04-10T12:36:41.088Z</time>
      </trkpt>
      <trkpt lat="42.16423" lon="21.85211">
        <ele>373.684957</ele>
        <time>2022-04-10T12:36:46.071Z</time>
      </trkpt>
      <trkpt lat="42.16424" lon="21.85198">
        <ele>373.968618</ele>
        <time>2022-04-10T12:36:51.097Z</time>
      </trkpt>
      <trkpt lat="42.16427" lon="21.85186">
        <ele>374.266689</ele>
        <time>2022-04-10T12:36:56.102Z</time>
      </trkpt>
      <trkpt lat="42.16429" lon="21.85172">
        <ele>374.593084</ele>
        <time>2022-04-10T12:37:02.085Z</time>
      </trkpt>
      <trkpt lat="42.16432" lon="21.8516">
        <ele>375.127274</ele>
        <time>2022-04-10T12:37:08.091Z</time>
      </trkpt>
      <trkpt lat="42.16435" lon="21.85148">
        <ele>376.038143</ele>
        <time>2022-04-10T12:37:15.103Z</time>
      </trkpt>
      <trkpt lat="42.16437" lon="21.85135">
        <ele>376.952295</ele>
        <time>2022-04-10T12:37:22.083Z</time>
      </trkpt>
      <trkpt lat="42.16439" lon="21.85122">
        <ele>377.891451</ele>
        <time>2022-04-10T12:37:30.095Z</time>
      </trkpt>
      <trkpt lat="42.16442" lon="21.85109">
        <ele>378.837613</ele>
        <time>2022-04-10T12:37:38.100Z</time>
      </trkpt>
      <trkpt lat="42.16444" lon="21.85097">
        <ele>379.704819</ele>
        <time>2022-04-10T12:37:45.114Z</time>
      </trkpt>
      <trkpt lat="42.16446" lon="21.85085">
        <ele>380.61231</ele>
        <time>2022-04-10T12:37:52.140Z</time>
      </trkpt>
      <trkpt lat="42.16449" lon="21.85072">
        <ele>381.575762</ele>
        <time>2022-04-10T12:38:00.118Z</time>
      </trkpt>
      <trkpt lat="42.16452" lon="21.85059">
        <ele>382.54498</ele>
        <time>2022-04-10T12:38:08.112Z</time>
      </trkpt>
      <trkpt lat="42.16455" lon="21.85045">
        <ele>383.500423</ele>
        <time>2022-04-10T12:38:16.098Z</time>
      </trkpt>
      <trkpt lat="42.16457" lon="21.85032">
        <ele>384.444272</ele>
        <time>2022-04-10T12:38:24.106Z</time>
      </trkpt>
      <trkpt lat="42.16459" lon="21.85019">
        <ele>385.37234</ele>
        <time>2022-04-10T12:38:32.155Z</time>
      </trkpt>
      <trkpt lat="42.16462" lon="21.85007">
        <ele>386.282232</ele>
        <time>2022-04-10T12:38:40.101Z</time>
      </trkpt>
      <trkpt lat="42.16465" lon="21.84995">
        <ele>387.209316</ele>
        <time>2022-04-10T12:38:48.101Z</time>
      </trkpt>
      <trkpt lat="42.16468" lon="21.84983">
        <ele>388.066562</ele>
        <time>2022-04-10T12:38:55.129Z</time>
      </trkpt>
      <trkpt lat="42.1647" lon="21.8497">
        <ele>389.012549</ele>
        <time>2022-04-10T12:39:03.087Z</time>
      </trkpt>
      <trkpt lat="42.1647" lon="21.84957">
        <ele>389.93326</ele>
        <time>2022-04-10T12:39:12.135Z</time>
      </trkpt>
      <trkpt lat="42.16471" lon="21.84944">
        <ele>390.864694</ele>
        <time>2022-04-10T12:39:21.100Z</time>
      </trkpt>
      <trkpt lat="42.16474" lon="21.8493">
        <ele>391.82509</ele>
        <time>2022-04-10T12:39:30.097Z</time>
      </trkpt>
      <trkpt lat="42.16475" lon="21.84918">
        <ele>392.760254</ele>
        <time>2022-04-10T12:39:37.096Z</time>
      </trkpt>
      <trkpt lat="42.16477" lon="21.84906">
        <ele>393.729993</ele>
        <time>2022-04-10T12:39:45.098Z</time>
      </trkpt>
      <trkpt lat="42.1648" lon="21.84893">
        <ele>394.716792</ele>
        <time>2022-04-10T12:39:54.096Z</time>
      </trkpt>
      <trkpt lat="42.16483" lon="21.8488">
        <ele>395.741512</ele>
        <time>2022-04-10T12:40:03.106Z</time>
      </trkpt>
      <trkpt lat="42.16485" lon="21.84867">
        <ele>396.711249</ele>
        <time>2022-04-10T12:40:11.099Z</time>
      </trkpt>
      <trkpt lat="42.16487" lon="21.84854">
        <ele>397.756765</ele>
        <time>2022-04-10T12:40:19.088Z</time>
      </trkpt>
      <trkpt lat="42.16489" lon="21.84841">
        <ele>398.788502</ele>
        <time>2022-04-10T12:40:27.095Z</time>
      </trkpt>
      <trkpt lat="42.16491" lon="21.84827">
        <ele>399.801562</ele>
        <time>2022-04-10T12:40:36.095Z</time>
      </trkpt>
      <trkpt lat="42.16494" lon="21.84815">
        <ele>400.80303</ele>
        <time>2022-04-10T12:40:44.095Z</time>
      </trkpt>
      <trkpt lat="42.16498" lon="21.84802">
        <ele>401.818365</ele>
        <time>2022-04-10T12:40:52.099Z</time>
      </trkpt>
      <trkpt lat="42.165" lon="21.84789">
        <ele>402.841989</ele>
        <time>2022-04-10T12:41:00.087Z</time>
      </trkpt>
      <trkpt lat="42.16503" lon="21.84777">
        <ele>403.760398</ele>
        <time>2022-04-10T12:41:08.134Z</time>
      </trkpt>
      <trkpt lat="42.16505" lon="21.84764">
        <ele>404.779426</ele>
        <time>2022-04-10T12:41:16.097Z</time>
      </trkpt>
      <trkpt lat="42.16506" lon="21.84752">
        <ele>405.693393</ele>
        <time>2022-04-10T12:41:23.100Z</time>
      </trkpt>
      <trkpt lat="42.16509" lon="21.8474">
        <ele>406.652589</ele>
        <time>2022-04-10T12:41:30.096Z</time>
      </trkpt>
      <trkpt lat="42.16511" lon="21.84727">
        <ele>407.671616</ele>
        <time>2022-04-10T12:41:38.098Z</time>
      </trkpt>
      <trkpt lat="42.16515" lon="21.84716">
        <ele>408.613875</ele>
        <time>2022-04-10T12:41:47.103Z</time>
      </trkpt>
      <trkpt lat="42.16517" lon="21.84703">
        <ele>409.61564</ele>
        <time>2022-04-10T12:41:55.098Z</time>
      </trkpt>
      <trkpt lat="42.16521" lon="21.8469">
        <ele>410.138227</ele>
        <time>2022-04-10T12:42:03.099Z</time>
      </trkpt>
      <trkpt lat="42.16524" lon="21.84678">
        <ele>410.153166</ele>
        <time>2022-04-10T12:42:11.100Z</time>
      </trkpt>
      <trkpt lat="42.16525" lon="21.84665">
        <ele>410.168282</ele>
        <time>2022-04-10T12:42:18.086Z</time>
      </trkpt>
      <trkpt lat="42.16528" lon="21.84653">
        <ele>410.182827</ele>
        <time>2022-04-10T12:42:25.102Z</time>
      </trkpt>
      <trkpt lat="42.1653" lon="21.84641">
        <ele>410.196922</ele>
        <time>2022-04-10T12:42:31.095Z</time>
      </trkpt>
      <trkpt lat="42.16531" lon="21.84627">
        <ele>410.213048</ele>
        <time>2022-04-10T12:42:37.119Z</time>
      </trkpt>
      <trkpt lat="42.16534" lon="21.84613">
        <ele>410.229558</ele>
        <time>2022-04-10T12:42:42.095Z</time>
      </trkpt>
      <trkpt lat="42.16537" lon="21.84599">
        <ele>410.246829</ele>
        <time>2022-04-10T12:42:47.115Z</time>
      </trkpt>
      <trkpt lat="42.16539" lon="21.84586">
        <ele>410.261887</ele>
        <time>2022-04-10T12:42:51.103Z</time>
      </trkpt>
      <trkpt lat="42.16541" lon="21.84573">
        <ele>410.277336</ele>
        <time>2022-04-10T12:42:55.121Z</time>
      </trkpt>
      <trkpt lat="42.16544" lon="21.84559">
        <ele>410.293969</ele>
        <time>2022-04-10T12:42:59.108Z</time>
      </trkpt>
      <trkpt lat="42.16547" lon="21.84546">
        <ele>410.309897</ele>
        <time>2022-04-10T12:43:03.095Z</time>
      </trkpt>
      <trkpt lat="42.1655" lon="21.84532">
        <ele>410.326219</ele>
        <time>2022-04-10T12:43:08.099Z</time>
      </trkpt>
      <trkpt lat="42.16552" lon="21.84519">
        <ele>410.340832</ele>
        <time>2022-04-10T12:43:14.100Z</time>
      </trkpt>
      <trkpt lat="42.16554" lon="21.84505">
        <ele>410.357788</ele>
        <time>2022-04-10T12:43:19.098Z</time>
      </trkpt>
      <trkpt lat="42.16557" lon="21.84492">
        <ele>410.373431</ele>
        <time>2022-04-10T12:43:23.125Z</time>
      </trkpt>
      <trkpt lat="42.16559" lon="21.84478">
        <ele>410.390088</ele>
        <time>2022-04-10T12:43:27.089Z</time>
      </trkpt>
      <trkpt lat="42.16563" lon="21.84463">
        <ele>410.407451</ele>
        <time>2022-04-10T12:43:31.097Z</time>
      </trkpt>
      <trkpt lat="42.16565" lon="21.8445">
        <ele>410.513806</ele>
        <time>2022-04-10T12:43:35.196Z</time>
      </trkpt>
      <trkpt lat="42.16568" lon="21.84436">
        <ele>410.635732</ele>
        <time>2022-04-10T12:43:39.090Z</time>
      </trkpt>
      <trkpt lat="42.16571" lon="21.84423">
        <ele>410.753135</ele>
        <time>2022-04-10T12:43:43.088Z</time>
      </trkpt>
      <trkpt lat="42.16573" lon="21.84409">
        <ele>410.877779</ele>
        <time>2022-04-10T12:43:47.116Z</time>
      </trkpt>
      <trkpt lat="42.16575" lon="21.84394">
        <ele>411.011179</ele>
        <time>2022-04-10T12:43:51.101Z</time>
      </trkpt>
      <trkpt lat="42.16577" lon="21.84381">
        <ele>411.128865</ele>
        <time>2022-04-10T12:43:55.103Z</time>
      </trkpt>
      <trkpt lat="42.16579" lon="21.84368">
        <ele>411.239776</ele>
        <time>2022-04-10T12:43:59.110Z</time>
      </trkpt>
      <trkpt lat="42.16581" lon="21.84356">
        <ele>411.346557</ele>
        <time>2022-04-10T12:44:03.133Z</time>
      </trkpt>
      <trkpt lat="42.16584" lon="21.84341">
        <ele>411.477942</ele>
        <time>2022-04-10T12:44:08.103Z</time>
      </trkpt>
      <trkpt lat="42.16586" lon="21.84326">
        <ele>411.608809</ele>
        <time>2022-04-10T12:44:13.132Z</time>
      </trkpt>
      <trkpt lat="42.16588" lon="21.84315">
        <ele>411.71396</ele>
        <time>2022-04-10T12:44:17.110Z</time>
      </trkpt>
      <trkpt lat="42.1659" lon="21.84302">
        <ele>411.821863</ele>
        <time>2022-04-10T12:44:21.099Z</time>
      </trkpt>
      <trkpt lat="42.16592" lon="21.84291">
        <ele>411.92669</ele>
        <time>2022-04-10T12:44:25.125Z</time>
      </trkpt>
      <trkpt lat="42.16594" lon="21.84275">
        <ele>412.061099</ele>
        <time>2022-04-10T12:44:30.096Z</time>
      </trkpt>
      <trkpt lat="42.16597" lon="21.84261">
        <ele>412.189163</ele>
        <time>2022-04-10T12:44:35.113Z</time>
      </trkpt>
      <trkpt lat="42.166" lon="21.84247">
        <ele>412.316657</ele>
        <time>2022-04-10T12:44:40.087Z</time>
      </trkpt>
      <trkpt lat="42.16602" lon="21.84235">
        <ele>412.424005</ele>
        <time>2022-04-10T12:44:44.113Z</time>
      </trkpt>
      <trkpt lat="42.16604" lon="21.8422">
        <ele>412.680617</ele>
        <time>2022-04-10T12:44:49.114Z</time>
      </trkpt>
      <trkpt lat="42.16607" lon="21.84206">
        <ele>413.134972</ele>
        <time>2022-04-10T12:44:54.084Z</time>
      </trkpt>
      <trkpt lat="42.16609" lon="21.84192">
        <ele>413.623793</ele>
        <time>2022-04-10T12:44:59.128Z</time>
      </trkpt>
      <trkpt lat="42.16612" lon="21.84178">
        <ele>414.08127</ele>
        <time>2022-04-10T12:45:04.101Z</time>
      </trkpt>
      <trkpt lat="42.16614" lon="21.84165">
        <ele>414.507158</ele>
        <time>2022-04-10T12:45:10.094Z</time>
      </trkpt>
      <trkpt lat="42.16618" lon="21.84154">
        <ele>414.915923</ele>
        <time>2022-04-10T12:45:15.083Z</time>
      </trkpt>
      <trkpt lat="42.1662" lon="21.84142">
        <ele>415.313429</ele>
        <time>2022-04-10T12:45:20.093Z</time>
      </trkpt>
      <trkpt lat="42.16622" lon="21.84129">
        <ele>415.727717</ele>
        <time>2022-04-10T12:45:26.128Z</time>
      </trkpt>
      <trkpt lat="42.16625" lon="21.84118">
        <ele>416.126705</ele>
        <time>2022-04-10T12:45:32.096Z</time>
      </trkpt>
      <trkpt lat="42.16627" lon="21.84105">
        <ele>416.551362</ele>
        <time>2022-04-10T12:45:39.135Z</time>
      </trkpt>
      <trkpt lat="42.16631" lon="21.84093">
        <ele>416.963086</ele>
        <time>2022-04-10T12:45:45.096Z</time>
      </trkpt>
      <trkpt lat="42.16634" lon="21.84082">
        <ele>417.358751</ele>
        <time>2022-04-10T12:45:50.129Z</time>
      </trkpt>
      <trkpt lat="42.16639" lon="21.84069">
        <ele>417.829656</ele>
        <time>2022-04-10T12:45:56.103Z</time>
      </trkpt>
      <trkpt lat="42.16642" lon="21.84056">
        <ele>418.261339</ele>
        <time>2022-04-10T12:46:02.101Z</time>
      </trkpt>
      <trkpt lat="42.16645" lon="21.84044">
        <ele>418.658499</ele>
        <time>2022-04-10T12:46:08.101Z</time>
      </trkpt>
      <trkpt lat="42.16647" lon="21.84031">
        <ele>419.117163</ele>
        <time>2022-04-10T12:46:15.115Z</time>
      </trkpt>
      <trkpt lat="42.16651" lon="21.84018">
        <ele>419.553742</ele>
        <time>2022-04-10T12:46:21.106Z</time>
      </trkpt>
      <trkpt lat="42.16654" lon="21.84005">
        <ele>420.008094</ele>
        <time>2022-04-10T12:46:27.097Z</time>
      </trkpt>
      <trkpt lat="42.16657" lon="21.83992">
        <ele>420.404429</ele>
        <time>2022-04-10T12:46:34.105Z</time>
      </trkpt>
      <trkpt lat="42.1666" lon="21.8398">
        <ele>420.57885</ele>
        <time>2022-04-10T12:46:40.118Z</time>
      </trkpt>
      <trkpt lat="42.16663" lon="21.83967">
        <ele>420.764649</ele>
        <time>2022-04-10T12:46:47.097Z</time>
      </trkpt>
      <trkpt lat="42.16667" lon="21.83954">
        <ele>420.95106</ele>
        <time>2022-04-10T12:46:53.114Z</time>
      </trkpt>
      <trkpt lat="42.1667" lon="21.83942">
        <ele>421.124207</ele>
        <time>2022-04-10T12:46:59.134Z</time>
      </trkpt>
      <trkpt lat="42.16674" lon="21.8393">
        <ele>421.292289</ele>
        <time>2022-04-10T12:47:04.129Z</time>
      </trkpt>
      <trkpt lat="42.16676" lon="21.83917">
        <ele>421.476845</ele>
        <time>2022-04-10T12:47:10.096Z</time>
      </trkpt>
      <trkpt lat="42.16678" lon="21.83903">
        <ele>421.667683</ele>
        <time>2022-04-10T12:47:16.116Z</time>
      </trkpt>
      <trkpt lat="42.16681" lon="21.83889">
        <ele>421.855691</ele>
        <time>2022-04-10T12:47:21.097Z</time>
      </trkpt>
      <trkpt lat="42.16683" lon="21.83876">
        <ele>422.043232</ele>
        <time>2022-04-10T12:47:26.092Z</time>
      </trkpt>
      <trkpt lat="42.16685" lon="21.83862">
        <ele>422.237067</ele>
        <time>2022-04-10T12:47:31.096Z</time>
      </trkpt>
      <trkpt lat="42.16687" lon="21.83848">
        <ele>422.423591</ele>
        <time>2022-04-10T12:47:36.104Z</time>
      </trkpt>
      <trkpt lat="42.16689" lon="21.83833">
        <ele>422.628717</ele>
        <time>2022-04-10T12:47:41.163Z</time>
      </trkpt>
      <trkpt lat="42.16692" lon="21.83821">
        <ele>422.800141</ele>
        <time>2022-04-10T12:47:45.091Z</time>
      </trkpt>
      <trkpt lat="42.16694" lon="21.83808">
        <ele>422.974172</ele>
        <time>2022-04-10T12:47:49.103Z</time>
      </trkpt>
      <trkpt lat="42.16697" lon="21.83794">
        <ele>423.174818</ele>
        <time>2022-04-10T12:47:54.114Z</time>
      </trkpt>
      <trkpt lat="42.167" lon="21.8378">
        <ele>423.369338</ele>
        <time>2022-04-10T12:47:59.088Z</time>
      </trkpt>
      <trkpt lat="42.16702" lon="21.83766">
        <ele>423.565256</ele>
        <time>2022-04-10T12:48:04.094Z</time>
      </trkpt>
      <trkpt lat="42.16705" lon="21.83753">
        <ele>423.954927</ele>
        <time>2022-04-10T12:48:09.103Z</time>
      </trkpt>
      <trkpt lat="42.16708" lon="21.8374">
        <ele>424.51614</ele>
        <time>2022-04-10T12:48:14.086Z</time>
      </trkpt>
      <trkpt lat="42.1671" lon="21.83728">
        <ele>425.028458</ele>
        <time>2022-04-10T12:48:18.097Z</time>
      </trkpt>
      <trkpt lat="42.16714" lon="21.83714">
        <ele>425.616182</ele>
        <time>2022-04-10T12:48:23.109Z</time>
      </trkpt>
      <trkpt lat="42.16717" lon="21.837">
        <ele>426.197562</ele>
        <time>2022-04-10T12:48:28.093Z</time>
      </trkpt>
      <trkpt lat="42.16719" lon="21.83686">
        <ele>426.779673</ele>
        <time>2022-04-10T12:48:33.111Z</time>
      </trkpt>
      <trkpt lat="42.16722" lon="21.83673">
        <ele>427.336759</ele>
        <time>2022-04-10T12:48:38.101Z</time>
      </trkpt>
      <trkpt lat="42.16724" lon="21.8366">
        <ele>427.899297</ele>
        <time>2022-04-10T12:48:43.099Z</time>
      </trkpt>
      <trkpt lat="42.16727" lon="21.83646">
        <ele>428.476124</ele>
        <time>2022-04-10T12:48:48.130Z</time>
      </trkpt>
      <trkpt lat="42.1673" lon="21.83634">
        <ele>428.998194</ele>
        <time>2022-04-10T12:48:53.103Z</time>
      </trkpt>
      <trkpt lat="42.16732" lon="21.83621">
        <ele>429.521177</ele>
        <time>2022-04-10T12:48:58.082Z</time>
      </trkpt>
      <trkpt lat="42.16734" lon="21.83608">
        <ele>430.086545</ele>
        <time>2022-04-10T12:49:04.117Z</time>
      </trkpt>
      <trkpt lat="42.16736" lon="21.83594">
        <ele>430.658803</ele>
        <time>2022-04-10T12:49:10.157Z</time>
      </trkpt>
      <trkpt lat="42.16738" lon="21.8358">
        <ele>431.229056</ele>
        <time>2022-04-10T12:49:16.084Z</time>
      </trkpt>
      <trkpt lat="42.16741" lon="21.83568">
        <ele>431.738822</ele>
        <time>2022-04-10T12:49:22.113Z</time>
      </trkpt>
      <trkpt lat="42.16743" lon="21.83555">
        <ele>432.277529</ele>
        <time>2022-04-10T12:49:28.104Z</time>
      </trkpt>
      <trkpt lat="42.16746" lon="21.83544">
        <ele>432.776233</ele>
        <time>2022-04-10T12:49:35.116Z</time>
      </trkpt>
      <trkpt lat="42.16748" lon="21.83531">
        <ele>433.311493</ele>
        <time>2022-04-10T12:49:42.101Z</time>
      </trkpt>
      <trkpt lat="42.16751" lon="21.83518">
        <ele>433.716493</ele>
        <time>2022-04-10T12:49:49.084Z</time>
      </trkpt>
      <trkpt lat="42.16753" lon="21.83505">
        <ele>434.064228</ele>
        <time>2022-04-10T12:49:56.124Z</time>
      </trkpt>
      <trkpt lat="42.16756" lon="21.83493">
        <ele>434.380938</ele>
        <time>2022-04-10T12:50:02.105Z</time>
      </trkpt>
      <trkpt lat="42.16758" lon="21.83481">
        <ele>434.710032</ele>
        <time>2022-04-10T12:50:08.102Z</time>
      </trkpt>
      <trkpt lat="42.16761" lon="21.83469">
        <ele>435.041041</ele>
        <time>2022-04-10T12:50:14.109Z</time>
      </trkpt>
      <trkpt lat="42.16764" lon="21.83457">
        <ele>435.36711</ele>
        <time>2022-04-10T12:50:21.135Z</time>
      </trkpt>
      <trkpt lat="42.16766" lon="21.83445">
        <ele>435.686369</ele>
        <time>2022-04-10T12:50:28.109Z</time>
      </trkpt>
      <trkpt lat="42.16768" lon="21.83432">
        <ele>436.011613</ele>
        <time>2022-04-10T12:50:35.116Z</time>
      </trkpt>
      <trkpt lat="42.1677" lon="21.83419">
        <ele>436.349121</ele>
        <time>2022-04-10T12:50:43.103Z</time>
      </trkpt>
      <trkpt lat="42.16774" lon="21.83407">
        <ele>436.692472</ele>
        <time>2022-04-10T12:50:50.106Z</time>
      </trkpt>
      <trkpt lat="42.16777" lon="21.83395">
        <ele>437.024998</ele>
        <time>2022-04-10T12:50:57.098Z</time>
      </trkpt>
      <trkpt lat="42.1678" lon="21.83383">
        <ele>437.348145</ele>
        <time>2022-04-10T12:51:06.075Z</time>
      </trkpt>
      <trkpt lat="42.16782" lon="21.83371">
        <ele>437.675904</ele>
        <time>2022-04-10T12:51:12.076Z</time>
      </trkpt>
      <trkpt lat="42.16784" lon="21.83357">
        <ele>438.031387</ele>
        <time>2022-04-10T12:51:20.093Z</time>
      </trkpt>
      <trkpt lat="42.16787" lon="21.83345">
        <ele>438.362926</ele>
        <time>2022-04-10T12:51:26.121Z</time>
      </trkpt>
      <trkpt lat="42.16789" lon="21.83332">
        <ele>438.683871</ele>
        <time>2022-04-10T12:51:33.106Z</time>
      </trkpt>
      <trkpt lat="42.16791" lon="21.8332">
        <ele>439.007169</ele>
        <time>2022-04-10T12:51:40.103Z</time>
      </trkpt>
      <trkpt lat="42.16793" lon="21.83307">
        <ele>439.339673</ele>
        <time>2022-04-10T12:51:47.105Z</time>
      </trkpt>
      <trkpt lat="42.16795" lon="21.83295">
        <ele>439.672233</ele>
        <time>2022-04-10T12:51:54.120Z</time>
      </trkpt>
      <trkpt lat="42.16797" lon="21.83281">
        <ele>440.1587</ele>
        <time>2022-04-10T12:52:01.107Z</time>
      </trkpt>
      <trkpt lat="42.168" lon="21.83268">
        <ele>440.672509</ele>
        <time>2022-04-10T12:52:08.097Z</time>
      </trkpt>
      <trkpt lat="42.16802" lon="21.83256">
        <ele>441.153123</ele>
        <time>2022-04-10T12:52:14.114Z</time>
      </trkpt>
      <trkpt lat="42.16805" lon="21.83244">
        <ele>441.627726</ele>
        <time>2022-04-10T12:52:20.136Z</time>
      </trkpt>
      <trkpt lat="42.16808" lon="21.83232">
        <ele>442.126099</ele>
        <time>2022-04-10T12:52:26.145Z</time>
      </trkpt>
      <trkpt lat="42.16811" lon="21.83219">
        <ele>442.63494</ele>
        <time>2022-04-10T12:52:32.111Z</time>
      </trkpt>
      <trkpt lat="42.16813" lon="21.83206">
        <ele>443.123142</ele>
        <time>2022-04-10T12:52:38.123Z</time>
      </trkpt>
      <trkpt lat="42.16815" lon="21.83193">
        <ele>443.630723</ele>
        <time>2022-04-10T12:52:44.098Z</time>
      </trkpt>
      <trkpt lat="42.16817" lon="21.83181">
        <ele>444.091922</ele>
        <time>2022-04-10T12:52:50.076Z</time>
      </trkpt>
      <trkpt lat="42.16819" lon="21.83169">
        <ele>444.58245</ele>
        <time>2022-04-10T12:52:57.116Z</time>
      </trkpt>
      <trkpt lat="42.16822" lon="21.83157">
        <ele>445.04435</ele>
        <time>2022-04-10T12:53:03.105Z</time>
      </trkpt>
      <trkpt lat="42.16826" lon="21.83144">
        <ele>445.561385</ele>
        <time>2022-04-10T12:53:11.101Z</time>
      </trkpt>
      <trkpt lat="42.16828" lon="21.83132">
        <ele>446.045977</ele>
        <time>2022-04-10T12:53:17.110Z</time>
      </trkpt>
      <trkpt lat="42.16829" lon="21.83119">
        <ele>446.553594</ele>
        <time>2022-04-10T12:53:24.098Z</time>
      </trkpt>
      <trkpt lat="42.16832" lon="21.83107">
        <ele>447.0245</ele>
        <time>2022-04-10T12:53:30.136Z</time>
      </trkpt>
      <trkpt lat="42.16834" lon="21.83095">
        <ele>447.492846</ele>
        <time>2022-04-10T12:53:36.104Z</time>
      </trkpt>
      <trkpt lat="42.16837" lon="21.83082">
        <ele>447.973795</ele>
        <time>2022-04-10T12:53:43.120Z</time>
      </trkpt>
      <trkpt lat="42.1684" lon="21.83069">
        <ele>448.510789</ele>
        <time>2022-04-10T12:53:50.135Z</time>
      </trkpt>
      <trkpt lat="42.16842" lon="21.83057">
        <ele>448.972167</ele>
        <time>2022-04-10T12:53:56.116Z</time>
      </trkpt>
      <trkpt lat="42.16845" lon="21.83044">
        <ele>449.385511</ele>
        <time>2022-04-10T12:54:03.136Z</time>
      </trkpt>
      <trkpt lat="42.16848" lon="21.83031">
        <ele>449.810527</ele>
        <time>2022-04-10T12:54:10.142Z</time>
      </trkpt>
      <trkpt lat="42.16849" lon="21.83019">
        <ele>450.20085</ele>
        <time>2022-04-10T12:54:16.093Z</time>
      </trkpt>
      <trkpt lat="42.16851" lon="21.83005">
        <ele>450.632053</ele>
        <time>2022-04-10T12:54:23.117Z</time>
      </trkpt>
      <trkpt lat="42.16852" lon="21.82992">
        <ele>451.061502</ele>
        <time>2022-04-10T12:54:30.109Z</time>
      </trkpt>
      <trkpt lat="42.16856" lon="21.82978">
        <ele>451.49179</ele>
        <time>2022-04-10T12:54:37.102Z</time>
      </trkpt>
      <trkpt lat="42.16858" lon="21.82966">
        <ele>451.895684</ele>
        <time>2022-04-10T12:54:44.090Z</time>
      </trkpt>
      <trkpt lat="42.16861" lon="21.82953">
        <ele>452.318733</ele>
        <time>2022-04-10T12:54:51.117Z</time>
      </trkpt>
      <trkpt lat="42.16864" lon="21.8294">
        <ele>452.756055</ele>
        <time>2022-04-10T12:54:58.099Z</time>
      </trkpt>
      <trkpt lat="42.16867" lon="21.82926">
        <ele>453.204157</ele>
        <time>2022-04-10T12:55:05.096Z</time>
      </trkpt>
      <trkpt lat="42.16869" lon="21.82913">
        <ele>453.618345</ele>
        <time>2022-04-10T12:55:11.107Z</time>
      </trkpt>
      <trkpt lat="42.16871" lon="21.82899">
        <ele>454.051674</ele>
        <time>2022-04-10T12:55:18.111Z</time>
      </trkpt>
      <trkpt lat="42.16874" lon="21.82887">
        <ele>454.453072</ele>
        <time>2022-04-10T12:55:24.101Z</time>
      </trkpt>
      <trkpt lat="42.16877" lon="21.82875">
        <ele>454.834973</ele>
        <time>2022-04-10T12:55:29.107Z</time>
      </trkpt>
      <trkpt lat="42.16879" lon="21.82862">
        <ele>455.27318</ele>
        <time>2022-04-10T12:55:35.140Z</time>
      </trkpt>
      <trkpt lat="42.16882" lon="21.8285">
        <ele>455.662343</ele>
        <time>2022-04-10T12:55:41.124Z</time>
      </trkpt>
      <trkpt lat="42.16885" lon="21.82838">
        <ele>456.057249</ele>
        <time>2022-04-10T12:55:47.108Z</time>
      </trkpt>
      <trkpt lat="42.16889" lon="21.82826">
        <ele>456.468465</ele>
        <time>2022-04-10T12:55:53.100Z</time>
      </trkpt>
      <trkpt lat="42.16892" lon="21.82814">
        <ele>456.858182</ele>
        <time>2022-04-10T12:55:59.102Z</time>
      </trkpt>
      <trkpt lat="42.16894" lon="21.828">
        <ele>457.313552</ele>
        <time>2022-04-10T12:56:06.091Z</time>
      </trkpt>
      <trkpt lat="42.16896" lon="21.82787">
        <ele>457.725733</ele>
        <time>2022-04-10T12:56:12.115Z</time>
      </trkpt>
      <trkpt lat="42.16897" lon="21.82775">
        <ele>458.117557</ele>
        <time>2022-04-10T12:56:19.121Z</time>
      </trkpt>
      <trkpt lat="42.16899" lon="21.82763">
        <ele>458.507757</ele>
        <time>2022-04-10T12:56:25.129Z</time>
      </trkpt>
      <trkpt lat="42.16902" lon="21.8275">
        <ele>458.949343</ele>
        <time>2022-04-10T12:56:32.099Z</time>
      </trkpt>
      <trkpt lat="42.16904" lon="21.82738">
        <ele>459.344376</ele>
        <time>2022-04-10T12:56:38.113Z</time>
      </trkpt>
      <trkpt lat="42.16905" lon="21.82725">
        <ele>459.7597</ele>
        <time>2022-04-10T12:56:44.116Z</time>
      </trkpt>
      <trkpt lat="42.16908" lon="21.82712">
        <ele>460.194835</ele>
        <time>2022-04-10T12:56:50.090Z</time>
      </trkpt>
      <trkpt lat="42.1691" lon="21.82699">
        <ele>460.62797</ele>
        <time>2022-04-10T12:56:57.098Z</time>
      </trkpt>
      <trkpt lat="42.16914" lon="21.82686">
        <ele>461.05478</ele>
        <time>2022-04-10T12:57:03.137Z</time>
      </trkpt>
      <trkpt lat="42.16916" lon="21.82674">
        <ele>461.473686</ele>
        <time>2022-04-10T12:57:09.146Z</time>
      </trkpt>
      <trkpt lat="42.16919" lon="21.82662">
        <ele>461.86811</ele>
        <time>2022-04-10T12:57:15.109Z</time>
      </trkpt>
      <trkpt lat="42.16921" lon="21.82649">
        <ele>462.274005</ele>
        <time>2022-04-10T12:57:22.112Z</time>
      </trkpt>
      <trkpt lat="42.16923" lon="21.82637">
        <ele>462.669873</ele>
        <time>2022-04-10T12:57:28.103Z</time>
      </trkpt>
      <trkpt lat="42.16925" lon="21.82625">
        <ele>463.08858</ele>
        <time>2022-04-10T12:57:35.131Z</time>
      </trkpt>
      <trkpt lat="42.16928" lon="21.82613">
        <ele>463.485549</ele>
        <time>2022-04-10T12:57:42.108Z</time>
      </trkpt>
      <trkpt lat="42.1693" lon="21.82599">
        <ele>463.934189</ele>
        <time>2022-04-10T12:57:49.150Z</time>
      </trkpt>
      <trkpt lat="42.16933" lon="21.82586">
        <ele>464.400893</ele>
        <time>2022-04-10T12:57:56.108Z</time>
      </trkpt>
      <trkpt lat="42.16935" lon="21.82574">
        <ele>464.912019</ele>
        <time>2022-04-10T12:58:02.100Z</time>
      </trkpt>
      <trkpt lat="42.16937" lon="21.8256">
        <ele>465.49321</ele>
        <time>2022-04-10T12:58:09.113Z</time>
      </trkpt>
      <trkpt lat="42.1694" lon="21.82546">
        <ele>466.074692</ele>
        <time>2022-04-10T12:58:16.106Z</time>
      </trkpt>
      <trkpt lat="42.16942" lon="21.82533">
        <ele>466.626539</ele>
        <time>2022-04-10T12:58:23.116Z</time>
      </trkpt>
      <trkpt lat="42.16945" lon="21.8252">
        <ele>467.183755</ele>
        <time>2022-04-10T12:58:30.096Z</time>
      </trkpt>
      <trkpt lat="42.16949" lon="21.82507">
        <ele>467.752265</ele>
        <time>2022-04-10T12:58:37.099Z</time>
      </trkpt>
      <trkpt lat="42.1695" lon="21.82494">
        <ele>468.299705</ele>
        <time>2022-04-10T12:58:44.104Z</time>
      </trkpt>
      <trkpt lat="42.16953" lon="21.82481">
        <ele>468.867809</ele>
        <time>2022-04-10T12:58:51.107Z</time>
      </trkpt>
      <trkpt lat="42.16957" lon="21.82469">
        <ele>469.396451</ele>
        <time>2022-04-10T12:58:58.104Z</time>
      </trkpt>
      <trkpt lat="42.1696" lon="21.82457">
        <ele>469.899958</ele>
        <time>2022-04-10T12:59:07.079Z</time>
      </trkpt>
      <trkpt lat="42.16962" lon="21.82444">
        <ele>470.450671</ele>
        <time>2022-04-10T12:59:15.104Z</time>
      </trkpt>
      <trkpt lat="42.16963" lon="21.82431">
        <ele>471.009349</ele>
        <time>2022-04-10T12:59:24.124Z</time>
      </trkpt>
      <trkpt lat="42.16965" lon="21.82419">
        <ele>471.521268</ele>
        <time>2022-04-10T12:59:31.086Z</time>
      </trkpt>
      <trkpt lat="42.16967" lon="21.82406">
        <ele>472.037524</ele>
        <time>2022-04-10T12:59:41.081Z</time>
      </trkpt>
      <trkpt lat="42.16969" lon="21.82393">
        <ele>472.589492</ele>
        <time>2022-04-10T12:59:50.100Z</time>
      </trkpt>
      <trkpt lat="42.16971" lon="21.8238">
        <ele>473.128019</ele>
        <time>2022-04-10T12:59:57.106Z</time>
      </trkpt>
      <trkpt lat="42.16973" lon="21.82368">
        <ele>473.639141</ele>
        <time>2022-04-10T13:00:05.110Z</time>
      </trkpt>
      <trkpt lat="42.16975" lon="21.82356">
        <ele>474.147363</ele>
        <time>2022-04-10T13:00:12.104Z</time>
      </trkpt>
      <trkpt lat="42.16978" lon="21.82344">
        <ele>474.504552</ele>
        <time>2022-04-10T13:00:20.084Z</time>
      </trkpt>
      <trkpt lat="42.16982" lon="21.82332">
        <ele>474.820641</ele>
        <time>2022-04-10T13:00:27.130Z</time>
      </trkpt>
      <trkpt lat="42.16985" lon="21.82319">
        <ele>475.142576</ele>
        <time>2022-04-10T13:00:35.140Z</time>
      </trkpt>
      <trkpt lat="42.16987" lon="21.82306">
        <ele>475.454766</ele>
        <time>2022-04-10T13:00:44.109Z</time>
      </trkpt>
      <trkpt lat="42.16989" lon="21.82294">
        <ele>475.752561</ele>
        <time>2022-04-10T13:00:53.118Z</time>
      </trkpt>
      <trkpt lat="42.16992" lon="21.82282">
        <ele>476.058916</ele>
        <time>2022-04-10T13:01:00.106Z</time>
      </trkpt>
      <trkpt lat="42.16994" lon="21.8227">
        <ele>476.361589</ele>
        <time>2022-04-10T13:01:08.130Z</time>
      </trkpt>
      <trkpt lat="42.16997" lon="21.82259">
        <ele>476.655441</ele>
        <time>2022-04-10T13:01:16.083Z</time>
      </trkpt>
      <trkpt lat="42.17" lon="21.82246">
        <ele>476.969648</ele>
        <time>2022-04-10T13:01:25.079Z</time>
      </trkpt>
      <trkpt lat="42.17003" lon="21.82235">
        <ele>477.268855</ele>
        <time>2022-04-10T13:01:32.097Z</time>
      </trkpt>
      <trkpt lat="42.17004" lon="21.82222">
        <ele>477.570958</ele>
        <time>2022-04-10T13:01:40.103Z</time>
      </trkpt>
      <trkpt lat="42.17006" lon="21.82209">
        <ele>477.886745</ele>
        <time>2022-04-10T13:01:47.121Z</time>
      </trkpt>
      <trkpt lat="42.17008" lon="21.82197">
        <ele>478.196554</ele>
        <time>2022-04-10T13:01:54.101Z</time>
      </trkpt>
      <trkpt lat="42.1701" lon="21.82185">
        <ele>478.490675</ele>
        <time>2022-04-10T13:02:00.104Z</time>
      </trkpt>
      <trkpt lat="42.17012" lon="21.82173">
        <ele>478.801464</ele>
        <time>2022-04-10T13:02:07.105Z</time>
      </trkpt>
      <trkpt lat="42.17015" lon="21.82159">
        <ele>479.140082</ele>
        <time>2022-04-10T13:02:14.089Z</time>
      </trkpt>
      <trkpt lat="42.17017" lon="21.82146">
        <ele>479.459804</ele>
        <time>2022-04-10T13:02:20.102Z</time>
      </trkpt>
      <trkpt lat="42.1702" lon="21.82132">
        <ele>479.81611</ele>
        <time>2022-04-10T13:02:25.088Z</time>
      </trkpt>
      <trkpt lat="42.17023" lon="21.82119">
        <ele>480.092155</ele>
        <time>2022-04-10T13:02:29.106Z</time>
      </trkpt>
      <trkpt lat="42.17026" lon="21.82107">
        <ele>479.911818</ele>
        <time>2022-04-10T13:02:33.127Z</time>
      </trkpt>
      <trkpt lat="42.17028" lon="21.82095">
        <ele>479.74579</ele>
        <time>2022-04-10T13:02:36.081Z</time>
      </trkpt>
      <trkpt lat="42.17031" lon="21.82081">
        <ele>479.548229</ele>
        <time>2022-04-10T13:02:39.128Z</time>
      </trkpt>
      <trkpt lat="42.17034" lon="21.82066">
        <ele>479.328136</ele>
        <time>2022-04-10T13:02:42.112Z</time>
      </trkpt>
      <trkpt lat="42.17035" lon="21.8205">
        <ele>479.106727</ele>
        <time>2022-04-10T13:02:45.146Z</time>
      </trkpt>
      <trkpt lat="42.17039" lon="21.82038">
        <ele>478.930297</ele>
        <time>2022-04-10T13:02:47.117Z</time>
      </trkpt>
      <trkpt lat="42.17042" lon="21.8202">
        <ele>478.688074</ele>
        <time>2022-04-10T13:02:50.075Z</time>
      </trkpt>
      <trkpt lat="42.17044" lon="21.82007">
        <ele>478.506123</ele>
        <time>2022-04-10T13:02:52.188Z</time>
      </trkpt>
      <trkpt lat="42.17046" lon="21.81994">
        <ele>478.31874</ele>
        <time>2022-04-10T13:02:54.099Z</time>
      </trkpt>
      <trkpt lat="42.17048" lon="21.81982">
        <ele>478.146959</ele>
        <time>2022-04-10T13:02:56.098Z</time>
      </trkpt>
      <trkpt lat="42.17049" lon="21.81969">
        <ele>477.965013</ele>
        <time>2022-04-10T13:02:58.110Z</time>
      </trkpt>
      <trkpt lat="42.17053" lon="21.81953">
        <ele>477.743562</ele>
        <time>2022-04-10T13:03:01.102Z</time>
      </trkpt>
      <trkpt lat="42.17055" lon="21.81939">
        <ele>477.54743</ele>
        <time>2022-04-10T13:03:04.077Z</time>
      </trkpt>
      <trkpt lat="42.17058" lon="21.81926">
        <ele>477.365206</ele>
        <time>2022-04-10T13:03:07.117Z</time>
      </trkpt>
      <trkpt lat="42.17061" lon="21.81912">
        <ele>477.163692</ele>
        <time>2022-04-10T13:03:10.136Z</time>
      </trkpt>
      <trkpt lat="42.17064" lon="21.819">
        <ele>476.984248</ele>
        <time>2022-04-10T13:03:13.116Z</time>
      </trkpt>
      <trkpt lat="42.17066" lon="21.81887">
        <ele>476.812467</ele>
        <time>2022-04-10T13:03:16.085Z</time>
      </trkpt>
      <trkpt lat="42.17069" lon="21.81874">
        <ele>476.927995</ele>
        <time>2022-04-10T13:03:19.124Z</time>
      </trkpt>
      <trkpt lat="42.17072" lon="21.8186">
        <ele>477.092305</ele>
        <time>2022-04-10T13:03:22.121Z</time>
      </trkpt>
      <trkpt lat="42.17075" lon="21.81848">
        <ele>477.23973</ele>
        <time>2022-04-10T13:03:25.094Z</time>
      </trkpt>
      <trkpt lat="42.17077" lon="21.81834">
        <ele>477.39884</ele>
        <time>2022-04-10T13:03:29.117Z</time>
      </trkpt>
      <trkpt lat="42.1708" lon="21.8182">
        <ele>477.56989</ele>
        <time>2022-04-10T13:03:33.102Z</time>
      </trkpt>
      <trkpt lat="42.17084" lon="21.81804">
        <ele>477.752332</ele>
        <time>2022-04-10T13:03:37.095Z</time>
      </trkpt>
      <trkpt lat="42.17086" lon="21.81792">
        <ele>477.893423</ele>
        <time>2022-04-10T13:03:40.115Z</time>
      </trkpt>
      <trkpt lat="42.17088" lon="21.81779">
        <ele>478.044876</ele>
        <time>2022-04-10T13:03:43.150Z</time>
      </trkpt>
      <trkpt lat="42.1709" lon="21.81767">
        <ele>478.185524</ele>
        <time>2022-04-10T13:03:46.102Z</time>
      </trkpt>
      <trkpt lat="42.17093" lon="21.81755">
        <ele>478.336134</ele>
        <time>2022-04-10T13:03:49.099Z</time>
      </trkpt>
      <trkpt lat="42.17096" lon="21.81743">
        <ele>478.478942</ele>
        <time>2022-04-10T13:03:52.104Z</time>
      </trkpt>
      <trkpt lat="42.17099" lon="21.8173">
        <ele>478.632973</ele>
        <time>2022-04-10T13:03:55.115Z</time>
      </trkpt>
      <trkpt lat="42.17103" lon="21.81715">
        <ele>478.809096</ele>
        <time>2022-04-10T13:03:59.105Z</time>
      </trkpt>
      <trkpt lat="42.17106" lon="21.81702">
        <ele>478.966588</ele>
        <time>2022-04-10T13:04:03.100Z</time>
      </trkpt>
      <trkpt lat="42.17107" lon="21.8169">
        <ele>479.112962</ele>
        <time>2022-04-10T13:04:07.106Z</time>
      </trkpt>
      <trkpt lat="42.1711" lon="21.81676">
        <ele>479.274668</ele>
        <time>2022-04-10T13:04:12.097Z</time>
      </trkpt>
      <trkpt lat="42.17112" lon="21.81663">
        <ele>479.42122</ele>
        <time>2022-04-10T13:04:18.106Z</time>
      </trkpt>
      <trkpt lat="42.17114" lon="21.8165">
        <ele>479.560228</ele>
        <time>2022-04-10T13:04:25.113Z</time>
      </trkpt>
      <trkpt lat="42.17116" lon="21.81638">
        <ele>479.590773</ele>
        <time>2022-04-10T13:04:31.184Z</time>
      </trkpt>
      <trkpt lat="42.17118" lon="21.81626">
        <ele>479.620766</ele>
        <time>2022-04-10T13:04:37.122Z</time>
      </trkpt>
      <trkpt lat="42.17121" lon="21.81614">
        <ele>479.651153</ele>
        <time>2022-04-10T13:04:43.149Z</time>
      </trkpt>
      <trkpt lat="42.17123" lon="21.81602">
        <ele>479.681371</ele>
        <time>2022-04-10T13:04:49.088Z</time>
      </trkpt>
      <trkpt lat="42.17125" lon="21.81591">
        <ele>479.711511</ele>
        <time>2022-04-10T13:04:56.132Z</time>
      </trkpt>
      <trkpt lat="42.17128" lon="21.81578">
        <ele>479.742882</ele>
        <time>2022-04-10T13:05:02.096Z</time>
      </trkpt>
      <trkpt lat="42.1713" lon="21.81566">
        <ele>479.775672</ele>
        <time>2022-04-10T13:05:08.134Z</time>
      </trkpt>
      <trkpt lat="42.17133" lon="21.81552">
        <ele>479.810598</ele>
        <time>2022-04-10T13:05:15.105Z</time>
      </trkpt>
      <trkpt lat="42.17135" lon="21.81539">
        <ele>479.843536</ele>
        <time>2022-04-10T13:05:22.171Z</time>
      </trkpt>
      <trkpt lat="42.17139" lon="21.81526">
        <ele>479.876481</ele>
        <time>2022-04-10T13:05:30.115Z</time>
      </trkpt>
      <trkpt lat="42.17141" lon="21.81514">
        <ele>479.906956</ele>
        <time>2022-04-10T13:05:36.119Z</time>
      </trkpt>
      <trkpt lat="42.17144" lon="21.81502">
        <ele>479.937915</ele>
        <time>2022-04-10T13:05:43.118Z</time>
      </trkpt>
      <trkpt lat="42.17147" lon="21.8149">
        <ele>479.969192</ele>
        <time>2022-04-10T13:05:49.093Z</time>
      </trkpt>
      <trkpt lat="42.17149" lon="21.81477">
        <ele>480.001777</ele>
        <time>2022-04-10T13:05:55.119Z</time>
      </trkpt>
      <trkpt lat="42.17151" lon="21.81464">
        <ele>480.035133</ele>
        <time>2022-04-10T13:05:59.115Z</time>
      </trkpt>
      <trkpt lat="42.17156" lon="21.8145">
        <ele>480.07264</ele>
        <time>2022-04-10T13:06:03.102Z</time>
      </trkpt>
      <trkpt lat="42.17159" lon="21.81436">
        <ele>480.109071</ele>
        <time>2022-04-10T13:06:07.154Z</time>
      </trkpt>
      <trkpt lat="42.17164" lon="21.81426">
        <ele>480.139336</ele>
        <time>2022-04-10T13:06:10.099Z</time>
      </trkpt>
      <trkpt lat="42.17169" lon="21.81411">
        <ele>480.024666</ele>
        <time>2022-04-10T13:06:14.146Z</time>
      </trkpt>
      <trkpt lat="42.17171" lon="21.81396">
        <ele>479.815236</ele>
        <time>2022-04-10T13:06:18.089Z</time>
      </trkpt>
      <trkpt lat="42.17174" lon="21.81383">
        <ele>479.635883</ele>
        <time>2022-04-10T13:06:21.102Z</time>
      </trkpt>
      <trkpt lat="42.17177" lon="21.8137">
        <ele>479.445232</ele>
        <time>2022-04-10T13:06:24.109Z</time>
      </trkpt>
      <trkpt lat="42.17181" lon="21.81353">
        <ele>479.204761</ele>
        <time>2022-04-10T13:06:27.115Z</time>
      </trkpt>
      <trkpt lat="42.17184" lon="21.81341">
        <ele>479.033498</ele>
        <time>2022-04-10T13:06:29.118Z</time>
      </trkpt>
      <trkpt lat="42.17186" lon="21.81328">
        <ele>478.861942</ele>
        <time>2022-04-10T13:06:31.141Z</time>
      </trkpt>
      <trkpt lat="42.1719" lon="21.81313">
        <ele>478.644309</ele>
        <time>2022-04-10T13:06:34.115Z</time>
      </trkpt>
      <trkpt lat="42.17194" lon="21.81302">
        <ele>478.480596</ele>
        <time>2022-04-10T13:06:37.098Z</time>
      </trkpt>
      <trkpt lat="42.17199" lon="21.8129">
        <ele>478.293094</ele>
        <time>2022-04-10T13:06:41.139Z</time>
      </trkpt>
      <trkpt lat="42.17206" lon="21.81262">
        <ele>477.901871</ele>
        <time>2022-04-10T13:10:07.119Z</time>
      </trkpt>
      <trkpt lat="42.17208" lon="21.81249">
        <ele>477.721963</ele>
        <time>2022-04-10T13:10:11.116Z</time>
      </trkpt>
      <trkpt lat="42.17212" lon="21.81236">
        <ele>477.533393</ele>
        <time>2022-04-10T13:10:15.103Z</time>
      </trkpt>
      <trkpt lat="42.17216" lon="21.81225">
        <ele>477.360504</ele>
        <time>2022-04-10T13:10:19.098Z</time>
      </trkpt>
      <trkpt lat="42.17219" lon="21.81213">
        <ele>477.19143</ele>
        <time>2022-04-10T13:10:23.111Z</time>
      </trkpt>
      <trkpt lat="42.17222" lon="21.81198">
        <ele>476.986839</ele>
        <time>2022-04-10T13:10:28.116Z</time>
      </trkpt>
      <trkpt lat="42.17225" lon="21.81187">
        <ele>476.897101</ele>
        <time>2022-04-10T13:10:32.078Z</time>
      </trkpt>
      <trkpt lat="42.17228" lon="21.81175">
        <ele>476.915424</ele>
        <time>2022-04-10T13:10:36.093Z</time>
      </trkpt>
      <trkpt lat="42.17231" lon="21.81163">
        <ele>476.933636</ele>
        <time>2022-04-10T13:10:40.100Z</time>
      </trkpt>
      <trkpt lat="42.17233" lon="21.8115">
        <ele>476.953157</ele>
        <time>2022-04-10T13:10:45.118Z</time>
      </trkpt>
      <trkpt lat="42.17236" lon="21.81138">
        <ele>476.973142</ele>
        <time>2022-04-10T13:10:50.125Z</time>
      </trkpt>
      <trkpt lat="42.17238" lon="21.81125">
        <ele>476.991631</ele>
        <time>2022-04-10T13:10:54.154Z</time>
      </trkpt>
      <trkpt lat="42.17241" lon="21.81113">
        <ele>477.01069</ele>
        <time>2022-04-10T13:10:58.119Z</time>
      </trkpt>
      <trkpt lat="42.17243" lon="21.811">
        <ele>477.030353</ele>
        <time>2022-04-10T13:11:03.138Z</time>
      </trkpt>
      <trkpt lat="42.17245" lon="21.81086">
        <ele>477.051576</ele>
        <time>2022-04-10T13:11:08.105Z</time>
      </trkpt>
      <trkpt lat="42.17245" lon="21.81071">
        <ele>477.073424</ele>
        <time>2022-04-10T13:11:13.129Z</time>
      </trkpt>
      <trkpt lat="42.17245" lon="21.81058">
        <ele>477.092599</ele>
        <time>2022-04-10T13:11:17.129Z</time>
      </trkpt>
      <trkpt lat="42.17246" lon="21.81043">
        <ele>477.114027</ele>
        <time>2022-04-10T13:11:21.112Z</time>
      </trkpt>
      <trkpt lat="42.17245" lon="21.81031">
        <ele>477.132352</ele>
        <time>2022-04-10T13:11:24.097Z</time>
      </trkpt>
      <trkpt lat="42.17247" lon="21.81014">
        <ele>477.157154</ele>
        <time>2022-04-10T13:11:28.138Z</time>
      </trkpt>
      <trkpt lat="42.17251" lon="21.81">
        <ele>477.179782</ele>
        <time>2022-04-10T13:11:31.119Z</time>
      </trkpt>
      <trkpt lat="42.17256" lon="21.80985">
        <ele>477.203877</ele>
        <time>2022-04-10T13:11:34.095Z</time>
      </trkpt>
      <trkpt lat="42.1726" lon="21.80974">
        <ele>477.222211</ele>
        <time>2022-04-10T13:11:36.125Z</time>
      </trkpt>
      <trkpt lat="42.17266" lon="21.80957">
        <ele>477.190571</ele>
        <time>2022-04-10T13:11:39.123Z</time>
      </trkpt>
      <trkpt lat="42.17271" lon="21.80945">
        <ele>476.427486</ele>
        <time>2022-04-10T13:11:41.118Z</time>
      </trkpt>
      <trkpt lat="42.17276" lon="21.80934">
        <ele>475.671303</ele>
        <time>2022-04-10T13:11:43.109Z</time>
      </trkpt>
      <trkpt lat="42.17282" lon="21.80923">
        <ele>474.967564</ele>
        <time>2022-04-10T13:11:45.157Z</time>
      </trkpt>
      <trkpt lat="42.17289" lon="21.80909">
        <ele>474.037702</ele>
        <time>2022-04-10T13:11:48.116Z</time>
      </trkpt>
      <trkpt lat="42.17295" lon="21.80896">
        <ele>473.168859</ele>
        <time>2022-04-10T13:11:51.109Z</time>
      </trkpt>
      <trkpt lat="42.17301" lon="21.80885">
        <ele>472.394381</ele>
        <time>2022-04-10T13:11:54.125Z</time>
      </trkpt>
      <trkpt lat="42.17307" lon="21.80874">
        <ele>471.681648</ele>
        <time>2022-04-10T13:11:57.104Z</time>
      </trkpt>
      <trkpt lat="42.17313" lon="21.80862">
        <ele>470.853164</ele>
        <time>2022-04-10T13:12:00.111Z</time>
      </trkpt>
      <trkpt lat="42.17319" lon="21.80848">
        <ele>469.960405</ele>
        <time>2022-04-10T13:12:03.103Z</time>
      </trkpt>
      <trkpt lat="42.17324" lon="21.80836">
        <ele>469.214146</ele>
        <time>2022-04-10T13:12:06.099Z</time>
      </trkpt>
      <trkpt lat="42.17331" lon="21.80823">
        <ele>468.311132</ele>
        <time>2022-04-10T13:12:09.093Z</time>
      </trkpt>
      <trkpt lat="42.17337" lon="21.80813">
        <ele>467.633172</ele>
        <time>2022-04-10T13:12:11.113Z</time>
      </trkpt>
      <trkpt lat="42.17344" lon="21.80804">
        <ele>466.903723</ele>
        <time>2022-04-10T13:12:13.103Z</time>
      </trkpt>
      <trkpt lat="42.17351" lon="21.80796">
        <ele>466.22773</ele>
        <time>2022-04-10T13:12:15.120Z</time>
      </trkpt>
      <trkpt lat="42.1736" lon="21.80783">
        <ele>465.252131</ele>
        <time>2022-04-10T13:12:18.107Z</time>
      </trkpt>
      <trkpt lat="42.17367" lon="21.80771">
        <ele>464.393383</ele>
        <time>2022-04-10T13:12:21.150Z</time>
      </trkpt>
      <trkpt lat="42.17374" lon="21.80759">
        <ele>463.623963</ele>
        <time>2022-04-10T13:12:24.114Z</time>
      </trkpt>
      <trkpt lat="42.1738" lon="21.80747">
        <ele>462.84422</ele>
        <time>2022-04-10T13:12:27.110Z</time>
      </trkpt>
      <trkpt lat="42.17388" lon="21.80732">
        <ele>461.948356</ele>
        <time>2022-04-10T13:12:30.102Z</time>
      </trkpt>
      <trkpt lat="42.17396" lon="21.80717">
        <ele>461.072433</ele>
        <time>2022-04-10T13:12:33.102Z</time>
      </trkpt>
      <trkpt lat="42.17403" lon="21.80704">
        <ele>460.248394</ele>
        <time>2022-04-10T13:12:36.099Z</time>
      </trkpt>
      <trkpt lat="42.17409" lon="21.80695">
        <ele>459.632635</ele>
        <time>2022-04-10T13:12:38.138Z</time>
      </trkpt>
      <trkpt lat="42.17414" lon="21.80685">
        <ele>459.016558</ele>
        <time>2022-04-10T13:12:40.096Z</time>
      </trkpt>
      <trkpt lat="42.17422" lon="21.80672">
        <ele>458.200312</ele>
        <time>2022-04-10T13:12:43.098Z</time>
      </trkpt>
      <trkpt lat="42.17429" lon="21.80661">
        <ele>457.463736</ele>
        <time>2022-04-10T13:12:46.098Z</time>
      </trkpt>
      <trkpt lat="42.17438" lon="21.80647">
        <ele>456.535586</ele>
        <time>2022-04-10T13:12:49.088Z</time>
      </trkpt>
      <trkpt lat="42.17443" lon="21.80636">
        <ele>455.906637</ele>
        <time>2022-04-10T13:12:51.093Z</time>
      </trkpt>
      <trkpt lat="42.17451" lon="21.80623">
        <ele>455.046063</ele>
        <time>2022-04-10T13:12:54.111Z</time>
      </trkpt>
      <trkpt lat="42.17459" lon="21.8061">
        <ele>454.23422</ele>
        <time>2022-04-10T13:12:57.116Z</time>
      </trkpt>
      <trkpt lat="42.17466" lon="21.80597">
        <ele>453.462425</ele>
        <time>2022-04-10T13:13:00.148Z</time>
      </trkpt>
      <trkpt lat="42.17473" lon="21.80585">
        <ele>452.674719</ele>
        <time>2022-04-10T13:13:03.113Z</time>
      </trkpt>
      <trkpt lat="42.17479" lon="21.80571">
        <ele>451.875847</ele>
        <time>2022-04-10T13:13:06.125Z</time>
      </trkpt>
      <trkpt lat="42.17485" lon="21.80558">
        <ele>451.365913</ele>
        <time>2022-04-10T13:13:09.102Z</time>
      </trkpt>
      <trkpt lat="42.17489" lon="21.80546">
        <ele>450.976959</ele>
        <time>2022-04-10T13:13:12.111Z</time>
      </trkpt>
      <trkpt lat="42.17492" lon="21.80532">
        <ele>450.523436</ele>
        <time>2022-04-10T13:13:16.159Z</time>
      </trkpt>
      <trkpt lat="42.17488" lon="21.80519">
        <ele>450.102354</ele>
        <time>2022-04-10T13:13:20.116Z</time>
      </trkpt>
      <trkpt lat="42.1748" lon="21.80511">
        <ele>449.655124</ele>
        <time>2022-04-10T13:13:24.116Z</time>
      </trkpt>
      <trkpt lat="42.17472" lon="21.80501">
        <ele>449.206726</ele>
        <time>2022-04-10T13:13:27.130Z</time>
      </trkpt>
      <trkpt lat="42.17462" lon="21.80491">
        <ele>448.720304</ele>
        <time>2022-04-10T13:13:30.102Z</time>
      </trkpt>
      <trkpt lat="42.17452" lon="21.80483">
        <ele>448.237858</ele>
        <time>2022-04-10T13:13:33.107Z</time>
      </trkpt>
      <trkpt lat="42.17441" lon="21.80475">
        <ele>447.705405</ele>
        <time>2022-04-10T13:13:36.096Z</time>
      </trkpt>
      <trkpt lat="42.17433" lon="21.80466">
        <ele>447.262189</ele>
        <time>2022-04-10T13:13:38.176Z</time>
      </trkpt>
      <trkpt lat="42.17424" lon="21.80457">
        <ele>446.796922</ele>
        <time>2022-04-10T13:13:40.107Z</time>
      </trkpt>
      <trkpt lat="42.17415" lon="21.8045">
        <ele>446.385584</ele>
        <time>2022-04-10T13:13:42.110Z</time>
      </trkpt>
      <trkpt lat="42.17405" lon="21.80441">
        <ele>445.860701</ele>
        <time>2022-04-10T13:13:45.119Z</time>
      </trkpt>
      <trkpt lat="42.17396" lon="21.80432">
        <ele>445.393983</ele>
        <time>2022-04-10T13:13:48.106Z</time>
      </trkpt>
      <trkpt lat="42.17385" lon="21.80419">
        <ele>444.81065</ele>
        <time>2022-04-10T13:13:51.103Z</time>
      </trkpt>
      <trkpt lat="42.17377" lon="21.80409">
        <ele>444.359886</ele>
        <time>2022-04-10T13:13:53.126Z</time>
      </trkpt>
      <trkpt lat="42.1737" lon="21.80398">
        <ele>443.820931</ele>
        <time>2022-04-10T13:13:55.096Z</time>
      </trkpt>
      <trkpt lat="42.17364" lon="21.80387">
        <ele>443.311594</ele>
        <time>2022-04-10T13:13:57.097Z</time>
      </trkpt>
      <trkpt lat="42.17358" lon="21.80373">
        <ele>442.715809</ele>
        <time>2022-04-10T13:14:00.160Z</time>
      </trkpt>
      <trkpt lat="42.17354" lon="21.80359">
        <ele>442.133794</ele>
        <time>2022-04-10T13:14:04.108Z</time>
      </trkpt>
      <trkpt lat="42.17352" lon="21.80345">
        <ele>441.628874</ele>
        <time>2022-04-10T13:14:07.106Z</time>
      </trkpt>
      <trkpt lat="42.17351" lon="21.80332">
        <ele>441.119409</ele>
        <time>2022-04-10T13:14:10.106Z</time>
      </trkpt>
      <trkpt lat="42.1735" lon="21.80317">
        <ele>440.570297</ele>
        <time>2022-04-10T13:14:13.105Z</time>
      </trkpt>
      <trkpt lat="42.1735" lon="21.80303">
        <ele>440.059197</ele>
        <time>2022-04-10T13:14:16.104Z</time>
      </trkpt>
      <trkpt lat="42.17349" lon="21.80288">
        <ele>439.482921</ele>
        <time>2022-04-10T13:14:20.112Z</time>
      </trkpt>
      <trkpt lat="42.17348" lon="21.80274">
        <ele>438.966036</ele>
        <time>2022-04-10T13:14:24.101Z</time>
      </trkpt>
      <trkpt lat="42.17347" lon="21.80259">
        <ele>438.398109</ele>
        <time>2022-04-10T13:14:28.136Z</time>
      </trkpt>
      <trkpt lat="42.17347" lon="21.80244">
        <ele>437.82776</ele>
        <time>2022-04-10T13:14:32.118Z</time>
      </trkpt>
      <trkpt lat="42.17347" lon="21.80231">
        <ele>437.356341</ele>
        <time>2022-04-10T13:14:35.101Z</time>
      </trkpt>
      <trkpt lat="42.17349" lon="21.80216">
        <ele>436.780859</ele>
        <time>2022-04-10T13:14:39.110Z</time>
      </trkpt>
      <trkpt lat="42.17348" lon="21.80204">
        <ele>436.322718</ele>
        <time>2022-04-10T13:14:43.116Z</time>
      </trkpt>
      <trkpt lat="42.17346" lon="21.80191">
        <ele>435.828775</ele>
        <time>2022-04-10T13:14:48.110Z</time>
      </trkpt>
      <trkpt lat="42.17347" lon="21.80177">
        <ele>435.298262</ele>
        <time>2022-04-10T13:14:54.134Z</time>
      </trkpt>
      <trkpt lat="42.17346" lon="21.80163">
        <ele>435.849098</ele>
        <time>2022-04-10T13:15:00.105Z</time>
      </trkpt>
      <trkpt lat="42.17346" lon="21.80151">
        <ele>436.363758</ele>
        <time>2022-04-10T13:15:05.108Z</time>
      </trkpt>
      <trkpt lat="42.17347" lon="21.80137">
        <ele>436.961642</ele>
        <time>2022-04-10T13:15:11.106Z</time>
      </trkpt>
      <trkpt lat="42.17346" lon="21.80124">
        <ele>437.5198</ele>
        <time>2022-04-10T13:15:17.117Z</time>
      </trkpt>
      <trkpt lat="42.17347" lon="21.8011">
        <ele>438.106291</ele>
        <time>2022-04-10T13:15:24.104Z</time>
      </trkpt>
      <trkpt lat="42.17346" lon="21.80097">
        <ele>438.659917</ele>
        <time>2022-04-10T13:15:30.092Z</time>
      </trkpt>
      <trkpt lat="42.17345" lon="21.80084">
        <ele>439.186994</ele>
        <time>2022-04-10T13:15:37.095Z</time>
      </trkpt>
      <trkpt lat="42.17345" lon="21.8007">
        <ele>439.777119</ele>
        <time>2022-04-10T13:15:44.116Z</time>
      </trkpt>
      <trkpt lat="42.17345" lon="21.80056">
        <ele>440.379806</ele>
        <time>2022-04-10T13:15:51.120Z</time>
      </trkpt>
      <trkpt lat="42.17346" lon="21.80043">
        <ele>440.934813</ele>
        <time>2022-04-10T13:15:57.110Z</time>
      </trkpt>
      <trkpt lat="42.17346" lon="21.8003">
        <ele>441.46189</ele>
        <time>2022-04-10T13:16:03.094Z</time>
      </trkpt>
      <trkpt lat="42.17345" lon="21.80018">
        <ele>442.006023</ele>
        <time>2022-04-10T13:16:10.107Z</time>
      </trkpt>
      <trkpt lat="42.17345" lon="21.80005">
        <ele>442.549711</ele>
        <time>2022-04-10T13:16:16.150Z</time>
      </trkpt>
      <trkpt lat="42.17347" lon="21.79991">
        <ele>443.14434</ele>
        <time>2022-04-10T13:16:22.140Z</time>
      </trkpt>
      <trkpt lat="42.17346" lon="21.79977">
        <ele>443.702064</ele>
        <time>2022-04-10T13:16:29.100Z</time>
      </trkpt>
      <trkpt lat="42.17346" lon="21.79965">
        <ele>444.241537</ele>
        <time>2022-04-10T13:16:35.104Z</time>
      </trkpt>
      <trkpt lat="42.17346" lon="21.79951">
        <ele>444.81051</ele>
        <time>2022-04-10T13:16:42.100Z</time>
      </trkpt>
      <trkpt lat="42.17346" lon="21.79938">
        <ele>445.375497</ele>
        <time>2022-04-10T13:16:49.119Z</time>
      </trkpt>
      <trkpt lat="42.17345" lon="21.79924">
        <ele>445.925642</ele>
        <time>2022-04-10T13:16:56.149Z</time>
      </trkpt>
      <trkpt lat="42.17345" lon="21.79911">
        <ele>446.465844</ele>
        <time>2022-04-10T13:17:03.105Z</time>
      </trkpt>
      <trkpt lat="42.17346" lon="21.79898">
        <ele>447.01114</ele>
        <time>2022-04-10T13:17:10.092Z</time>
      </trkpt>
      <trkpt lat="42.17346" lon="21.79885">
        <ele>447.527377</ele>
        <time>2022-04-10T13:17:16.109Z</time>
      </trkpt>
      <trkpt lat="42.17344" lon="21.79873">
        <ele>448.022929</ele>
        <time>2022-04-10T13:17:22.104Z</time>
      </trkpt>
      <trkpt lat="42.17344" lon="21.79859">
        <ele>448.570944</ele>
        <time>2022-04-10T13:17:29.147Z</time>
      </trkpt>
      <trkpt lat="42.17344" lon="21.79846">
        <ele>449.096585</ele>
        <time>2022-04-10T13:17:35.100Z</time>
      </trkpt>
      <trkpt lat="42.17343" lon="21.79833">
        <ele>449.638682</ele>
        <time>2022-04-10T13:17:42.110Z</time>
      </trkpt>
      <trkpt lat="42.17344" lon="21.79819">
        <ele>450.186567</ele>
        <time>2022-04-10T13:17:49.096Z</time>
      </trkpt>
      <trkpt lat="42.17345" lon="21.79807">
        <ele>450.681794</ele>
        <time>2022-04-10T13:17:56.117Z</time>
      </trkpt>
      <trkpt lat="42.17344" lon="21.79795">
        <ele>451.187359</ele>
        <time>2022-04-10T13:18:02.103Z</time>
      </trkpt>
      <trkpt lat="42.17345" lon="21.79782">
        <ele>451.719701</ele>
        <time>2022-04-10T13:18:08.157Z</time>
      </trkpt>
      <trkpt lat="42.17346" lon="21.79768">
        <ele>452.260997</ele>
        <time>2022-04-10T13:18:14.108Z</time>
      </trkpt>
      <trkpt lat="42.17345" lon="21.79756">
        <ele>452.760924</ele>
        <time>2022-04-10T13:18:19.120Z</time>
      </trkpt>
      <trkpt lat="42.17346" lon="21.79743">
        <ele>453.289799</ele>
        <time>2022-04-10T13:18:24.102Z</time>
      </trkpt>
      <trkpt lat="42.17345" lon="21.79729">
        <ele>453.839995</ele>
        <time>2022-04-10T13:18:29.101Z</time>
      </trkpt>
      <trkpt lat="42.17344" lon="21.79717">
        <ele>454.330017</ele>
        <time>2022-04-10T13:18:33.138Z</time>
      </trkpt>
      <trkpt lat="42.17344" lon="21.79702">
        <ele>454.938864</ele>
        <time>2022-04-10T13:18:38.122Z</time>
      </trkpt>
      <trkpt lat="42.17343" lon="21.79689">
        <ele>455.269777</ele>
        <time>2022-04-10T13:18:42.105Z</time>
      </trkpt>
      <trkpt lat="42.17344" lon="21.79677">
        <ele>455.184853</ele>
        <time>2022-04-10T13:18:46.099Z</time>
      </trkpt>
      <trkpt lat="42.17343" lon="21.79664">
        <ele>455.097892</ele>
        <time>2022-04-10T13:18:50.114Z</time>
      </trkpt>
      <trkpt lat="42.17344" lon="21.79651">
        <ele>455.003292</ele>
        <time>2022-04-10T13:18:54.109Z</time>
      </trkpt>
      <trkpt lat="42.17344" lon="21.79637">
        <ele>454.909987</ele>
        <time>2022-04-10T13:18:58.101Z</time>
      </trkpt>
      <trkpt lat="42.17344" lon="21.79622">
        <ele>454.804275</ele>
        <time>2022-04-10T13:19:02.104Z</time>
      </trkpt>
      <trkpt lat="42.17344" lon="21.79607">
        <ele>454.698562</ele>
        <time>2022-04-10T13:19:06.107Z</time>
      </trkpt>
      <trkpt lat="42.17343" lon="21.79591">
        <ele>454.590815</ele>
        <time>2022-04-10T13:19:10.090Z</time>
      </trkpt>
      <trkpt lat="42.17344" lon="21.79577">
        <ele>454.493837</ele>
        <time>2022-04-10T13:19:14.102Z</time>
      </trkpt>
      <trkpt lat="42.17344" lon="21.79563">
        <ele>454.391455</ele>
        <time>2022-04-10T13:19:18.117Z</time>
      </trkpt>
      <trkpt lat="42.17343" lon="21.79548">
        <ele>454.285793</ele>
        <time>2022-04-10T13:19:22.122Z</time>
      </trkpt>
      <trkpt lat="42.17344" lon="21.79532">
        <ele>454.175781</ele>
        <time>2022-04-10T13:19:26.109Z</time>
      </trkpt>
      <trkpt lat="42.17344" lon="21.79516">
        <ele>454.066559</ele>
        <time>2022-04-10T13:19:30.102Z</time>
      </trkpt>
      <trkpt lat="42.17343" lon="21.79501">
        <ele>453.958681</ele>
        <time>2022-04-10T13:19:34.109Z</time>
      </trkpt>
      <trkpt lat="42.17343" lon="21.79488">
        <ele>453.87384</ele>
        <time>2022-04-10T13:19:37.113Z</time>
      </trkpt>
      <trkpt lat="42.17343" lon="21.79473">
        <ele>453.764574</ele>
        <time>2022-04-10T13:19:41.101Z</time>
      </trkpt>
      <trkpt lat="42.17343" lon="21.79458">
        <ele>453.659585</ele>
        <time>2022-04-10T13:19:45.103Z</time>
      </trkpt>
      <trkpt lat="42.17343" lon="21.79442">
        <ele>453.670076</ele>
        <time>2022-04-10T13:19:49.109Z</time>
      </trkpt>
      <trkpt lat="42.17344" lon="21.79429">
        <ele>453.754858</ele>
        <time>2022-04-10T13:19:52.107Z</time>
      </trkpt>
      <trkpt lat="42.17344" lon="21.79417">
        <ele>453.841002</ele>
        <time>2022-04-10T13:19:55.108Z</time>
      </trkpt>
      <trkpt lat="42.17345" lon="21.79404">
        <ele>453.929136</ele>
        <time>2022-04-10T13:19:58.098Z</time>
      </trkpt>
      <trkpt lat="42.17344" lon="21.79391">
        <ele>454.014663</ele>
        <time>2022-04-10T13:20:01.134Z</time>
      </trkpt>
      <trkpt lat="42.17342" lon="21.79376">
        <ele>454.124404</ele>
        <time>2022-04-10T13:20:05.161Z</time>
      </trkpt>
      <trkpt lat="42.1734" lon="21.79363">
        <ele>454.212277</ele>
        <time>2022-04-10T13:20:08.108Z</time>
      </trkpt>
      <trkpt lat="42.17337" lon="21.79351">
        <ele>454.296409</ele>
        <time>2022-04-10T13:20:11.118Z</time>
      </trkpt>
      <trkpt lat="42.17332" lon="21.79339">
        <ele>454.391685</ele>
        <time>2022-04-10T13:20:14.117Z</time>
      </trkpt>
      <trkpt lat="42.17325" lon="21.79331">
        <ele>454.479521</ele>
        <time>2022-04-10T13:20:17.119Z</time>
      </trkpt>
      <trkpt lat="42.17317" lon="21.79319">
        <ele>454.585262</ele>
        <time>2022-04-10T13:20:21.108Z</time>
      </trkpt>
      <trkpt lat="42.17308" lon="21.79308">
        <ele>454.696374</ele>
        <time>2022-04-10T13:20:26.116Z</time>
      </trkpt>
      <trkpt lat="42.17301" lon="21.79297">
        <ele>454.797732</ele>
        <time>2022-04-10T13:20:29.114Z</time>
      </trkpt>
      <trkpt lat="42.17295" lon="21.79286">
        <ele>454.892076</ele>
        <time>2022-04-10T13:20:32.110Z</time>
      </trkpt>
      <trkpt lat="42.17289" lon="21.79274">
        <ele>454.985858</ele>
        <time>2022-04-10T13:20:35.100Z</time>
      </trkpt>
      <trkpt lat="42.17284" lon="21.79264">
        <ele>455.072496</ele>
        <time>2022-04-10T13:20:38.106Z</time>
      </trkpt>
      <trkpt lat="42.17278" lon="21.79251">
        <ele>455.176986</ele>
        <time>2022-04-10T13:20:42.124Z</time>
      </trkpt>
      <trkpt lat="42.17273" lon="21.7924">
        <ele>455.26467</ele>
        <time>2022-04-10T13:20:46.109Z</time>
      </trkpt>
      <trkpt lat="42.17272" lon="21.79226">
        <ele>455.503265</ele>
        <time>2022-04-10T13:20:52.175Z</time>
      </trkpt>
      <trkpt lat="42.17275" lon="21.79214">
        <ele>455.720447</ele>
        <time>2022-04-10T13:20:58.109Z</time>
      </trkpt>
      <trkpt lat="42.17278" lon="21.79202">
        <ele>455.940683</ele>
        <time>2022-04-10T13:21:04.099Z</time>
      </trkpt>
      <trkpt lat="42.17282" lon="21.7919">
        <ele>456.157279</ele>
        <time>2022-04-10T13:21:09.111Z</time>
      </trkpt>
      <trkpt lat="42.17285" lon="21.79178">
        <ele>456.368663</ele>
        <time>2022-04-10T13:21:14.107Z</time>
      </trkpt>
      <trkpt lat="42.17288" lon="21.79166">
        <ele>456.585693</ele>
        <time>2022-04-10T13:21:20.110Z</time>
      </trkpt>
      <trkpt lat="42.17293" lon="21.79154">
        <ele>456.826122</ele>
        <time>2022-04-10T13:21:27.093Z</time>
      </trkpt>
      <trkpt lat="42.17299" lon="21.79143">
        <ele>457.055575</ele>
        <time>2022-04-10T13:21:33.134Z</time>
      </trkpt>
      <trkpt lat="42.17303" lon="21.79132">
        <ele>457.262719</ele>
        <time>2022-04-10T13:21:38.139Z</time>
      </trkpt>
      <trkpt lat="42.17309" lon="21.79122">
        <ele>457.4769</ele>
        <time>2022-04-10T13:21:43.108Z</time>
      </trkpt>
      <trkpt lat="42.17315" lon="21.79113">
        <ele>457.694365</ele>
        <time>2022-04-10T13:21:48.116Z</time>
      </trkpt>
      <trkpt lat="42.17324" lon="21.79092">
        <ele>458.111957</ele>
        <time>2022-04-10T13:24:49.098Z</time>
      </trkpt>
      <trkpt lat="42.1733" lon="21.7908">
        <ele>458.350746</ele>
        <time>2022-04-10T13:24:54.134Z</time>
      </trkpt>
      <trkpt lat="42.17337" lon="21.79069">
        <ele>458.594986</ele>
        <time>2022-04-10T13:24:58.113Z</time>
      </trkpt>
      <trkpt lat="42.17343" lon="21.79056">
        <ele>458.859826</ele>
        <time>2022-04-10T13:25:01.096Z</time>
      </trkpt>
      <trkpt lat="42.17349" lon="21.79043">
        <ele>459.113388</ele>
        <time>2022-04-10T13:25:04.095Z</time>
      </trkpt>
      <trkpt lat="42.17356" lon="21.79031">
        <ele>459.385056</ele>
        <time>2022-04-10T13:25:07.117Z</time>
      </trkpt>
      <trkpt lat="42.17362" lon="21.79021">
        <ele>459.17661</ele>
        <time>2022-04-10T13:25:09.107Z</time>
      </trkpt>
      <trkpt lat="42.17367" lon="21.79011">
        <ele>458.901132</ele>
        <time>2022-04-10T13:25:11.102Z</time>
      </trkpt>
      <trkpt lat="42.17372" lon="21.79">
        <ele>458.612785</ele>
        <time>2022-04-10T13:25:13.126Z</time>
      </trkpt>
      <trkpt lat="42.17377" lon="21.7899">
        <ele>458.345874</ele>
        <time>2022-04-10T13:25:15.121Z</time>
      </trkpt>
      <trkpt lat="42.17383" lon="21.78979">
        <ele>458.053009</ele>
        <time>2022-04-10T13:25:17.116Z</time>
      </trkpt>
      <trkpt lat="42.17389" lon="21.78967">
        <ele>457.735432</ele>
        <time>2022-04-10T13:25:19.103Z</time>
      </trkpt>
      <trkpt lat="42.17397" lon="21.78956">
        <ele>457.413176</ele>
        <time>2022-04-10T13:25:21.105Z</time>
      </trkpt>
      <trkpt lat="42.17404" lon="21.78945">
        <ele>457.080411</ele>
        <time>2022-04-10T13:25:23.107Z</time>
      </trkpt>
      <trkpt lat="42.17412" lon="21.78932">
        <ele>456.712957</ele>
        <time>2022-04-10T13:25:25.115Z</time>
      </trkpt>
      <trkpt lat="42.17419" lon="21.78918">
        <ele>456.345876</ele>
        <time>2022-04-10T13:25:27.112Z</time>
      </trkpt>
      <trkpt lat="42.17425" lon="21.78904">
        <ele>455.993203</ele>
        <time>2022-04-10T13:25:29.113Z</time>
      </trkpt>
      <trkpt lat="42.17429" lon="21.78888">
        <ele>455.619488</ele>
        <time>2022-04-10T13:25:31.134Z</time>
      </trkpt>
      <trkpt lat="42.17431" lon="21.78871">
        <ele>455.241078</ele>
        <time>2022-04-10T13:25:33.125Z</time>
      </trkpt>
      <trkpt lat="42.17432" lon="21.78858">
        <ele>454.954382</ele>
        <time>2022-04-10T13:25:35.122Z</time>
      </trkpt>
      <trkpt lat="42.17432" lon="21.78843">
        <ele>454.61759</ele>
        <time>2022-04-10T13:25:38.152Z</time>
      </trkpt>
      <trkpt lat="42.17429" lon="21.78829">
        <ele>454.29711</ele>
        <time>2022-04-10T13:25:41.124Z</time>
      </trkpt>
      <trkpt lat="42.17424" lon="21.78814">
        <ele>454.253759</ele>
        <time>2022-04-10T13:25:44.156Z</time>
      </trkpt>
      <trkpt lat="42.17419" lon="21.78801">
        <ele>454.656286</ele>
        <time>2022-04-10T13:25:47.112Z</time>
      </trkpt>
      <trkpt lat="42.17414" lon="21.78788">
        <ele>455.037307</ele>
        <time>2022-04-10T13:25:51.113Z</time>
      </trkpt>
      <trkpt lat="42.17409" lon="21.78778">
        <ele>455.377929</ele>
        <time>2022-04-10T13:25:55.096Z</time>
      </trkpt>
      <trkpt lat="42.17402" lon="21.78767">
        <ele>455.779253</ele>
        <time>2022-04-10T13:25:59.107Z</time>
      </trkpt>
      <trkpt lat="42.17396" lon="21.78757">
        <ele>456.117955</ele>
        <time>2022-04-10T13:26:02.115Z</time>
      </trkpt>
      <trkpt lat="42.17389" lon="21.78746">
        <ele>456.512978</ele>
        <time>2022-04-10T13:26:06.104Z</time>
      </trkpt>
      <trkpt lat="42.17382" lon="21.78737">
        <ele>456.859585</ele>
        <time>2022-04-10T13:26:10.108Z</time>
      </trkpt>
      <trkpt lat="42.17375" lon="21.7873">
        <ele>457.189158</ele>
        <time>2022-04-10T13:26:14.107Z</time>
      </trkpt>
      <trkpt lat="42.17366" lon="21.7872">
        <ele>457.591823</ele>
        <time>2022-04-10T13:26:19.103Z</time>
      </trkpt>
      <trkpt lat="42.17357" lon="21.78711">
        <ele>457.996886</ele>
        <time>2022-04-10T13:26:24.117Z</time>
      </trkpt>
      <trkpt lat="42.17349" lon="21.78703">
        <ele>458.372906</ele>
        <time>2022-04-10T13:26:29.113Z</time>
      </trkpt>
      <trkpt lat="42.17341" lon="21.78695">
        <ele>458.719039</ele>
        <time>2022-04-10T13:26:34.159Z</time>
      </trkpt>
      <trkpt lat="42.17334" lon="21.78687">
        <ele>459.059315</ele>
        <time>2022-04-10T13:26:39.106Z</time>
      </trkpt>
      <trkpt lat="42.17328" lon="21.78677">
        <ele>459.400342</ele>
        <time>2022-04-10T13:26:44.102Z</time>
      </trkpt>
      <trkpt lat="42.17325" lon="21.78665">
        <ele>459.74473</ele>
        <time>2022-04-10T13:26:51.115Z</time>
      </trkpt>
      <trkpt lat="42.17327" lon="21.78651">
        <ele>460.120686</ele>
        <time>2022-04-10T13:27:00.110Z</time>
      </trkpt>
      <trkpt lat="42.17331" lon="21.78638">
        <ele>460.483994</ele>
        <time>2022-04-10T13:27:07.134Z</time>
      </trkpt>
      <trkpt lat="42.17331" lon="21.78625">
        <ele>461.023859</ele>
        <time>2022-04-10T13:27:15.147Z</time>
      </trkpt>
      <trkpt lat="42.17331" lon="21.78612">
        <ele>461.732964</ele>
        <time>2022-04-10T13:27:23.140Z</time>
      </trkpt>
      <trkpt lat="42.17333" lon="21.78598">
        <ele>462.432357</ele>
        <time>2022-04-10T13:27:30.109Z</time>
      </trkpt>
      <trkpt lat="42.17335" lon="21.78585">
        <ele>463.123888</ele>
        <time>2022-04-10T13:27:38.112Z</time>
      </trkpt>
      <trkpt lat="42.17337" lon="21.78571">
        <ele>463.843033</ele>
        <time>2022-04-10T13:27:45.100Z</time>
      </trkpt>
      <trkpt lat="42.17339" lon="21.78559">
        <ele>464.505382</ele>
        <time>2022-04-10T13:27:51.110Z</time>
      </trkpt>
      <trkpt lat="42.1734" lon="21.78546">
        <ele>465.158289</ele>
        <time>2022-04-10T13:27:57.118Z</time>
      </trkpt>
      <trkpt lat="42.1734" lon="21.78532">
        <ele>465.856317</ele>
        <time>2022-04-10T13:28:06.116Z</time>
      </trkpt>
      <trkpt lat="42.17338" lon="21.78519">
        <ele>466.572954</ele>
        <time>2022-04-10T13:28:15.097Z</time>
      </trkpt>
      <trkpt lat="42.1734" lon="21.78506">
        <ele>467.244331</ele>
        <time>2022-04-10T13:28:22.112Z</time>
      </trkpt>
      <trkpt lat="42.17341" lon="21.78493">
        <ele>467.908171</ele>
        <time>2022-04-10T13:28:30.122Z</time>
      </trkpt>
      <trkpt lat="42.17343" lon="21.7848">
        <ele>468.611107</ele>
        <time>2022-04-10T13:28:37.122Z</time>
      </trkpt>
      <trkpt lat="42.17345" lon="21.78466">
        <ele>469.315509</ele>
        <time>2022-04-10T13:28:44.120Z</time>
      </trkpt>
      <trkpt lat="42.17345" lon="21.78453">
        <ele>469.998421</ele>
        <time>2022-04-10T13:28:52.101Z</time>
      </trkpt>
      <trkpt lat="42.17346" lon="21.78441">
        <ele>470.628057</ele>
        <time>2022-04-10T13:28:59.120Z</time>
      </trkpt>
      <trkpt lat="42.17345" lon="21.78429">
        <ele>471.258815</ele>
        <time>2022-04-10T13:29:06.106Z</time>
      </trkpt>
      <trkpt lat="42.17344" lon="21.78416">
        <ele>471.917536</ele>
        <time>2022-04-10T13:29:15.109Z</time>
      </trkpt>
      <trkpt lat="42.1734" lon="21.78404">
        <ele>472.610919</ele>
        <time>2022-04-10T13:29:23.137Z</time>
      </trkpt>
      <trkpt lat="42.17335" lon="21.78393">
        <ele>473.16054</ele>
        <time>2022-04-10T13:29:32.108Z</time>
      </trkpt>
      <trkpt lat="42.1733" lon="21.78381">
        <ele>473.464946</ele>
        <time>2022-04-10T13:29:39.100Z</time>
      </trkpt>
      <trkpt lat="42.17325" lon="21.78369">
        <ele>473.779208</ele>
        <time>2022-04-10T13:29:47.102Z</time>
      </trkpt>
      <trkpt lat="42.17321" lon="21.78358">
        <ele>474.066214</ele>
        <time>2022-04-10T13:29:55.119Z</time>
      </trkpt>
      <trkpt lat="42.17317" lon="21.78346">
        <ele>474.372989</ele>
        <time>2022-04-10T13:30:04.152Z</time>
      </trkpt>
      <trkpt lat="42.17312" lon="21.78334">
        <ele>474.680877</ele>
        <time>2022-04-10T13:30:12.122Z</time>
      </trkpt>
      <trkpt lat="42.17308" lon="21.78322">
        <ele>474.981197</ele>
        <time>2022-04-10T13:30:19.119Z</time>
      </trkpt>
      <trkpt lat="42.17304" lon="21.78311">
        <ele>475.261181</ele>
        <time>2022-04-10T13:30:25.099Z</time>
      </trkpt>
      <trkpt lat="42.17299" lon="21.78299">
        <ele>475.568516</ele>
        <time>2022-04-10T13:30:31.105Z</time>
      </trkpt>
      <trkpt lat="42.17295" lon="21.78284">
        <ele>475.915261</ele>
        <time>2022-04-10T13:30:36.121Z</time>
      </trkpt>
      <trkpt lat="42.17291" lon="21.78271">
        <ele>476.246917</ele>
        <time>2022-04-10T13:30:41.127Z</time>
      </trkpt>
      <trkpt lat="42.17289" lon="21.78257">
        <ele>476.566982</ele>
        <time>2022-04-10T13:30:46.126Z</time>
      </trkpt>
      <trkpt lat="42.17284" lon="21.78247">
        <ele>476.844626</ele>
        <time>2022-04-10T13:30:52.101Z</time>
      </trkpt>
      <trkpt lat="42.17275" lon="21.7823">
        <ele>477.316672</ele>
        <time>2022-04-10T13:36:06.208Z</time>
      </trkpt>
      <trkpt lat="42.17271" lon="21.78216">
        <ele>477.662837</ele>
        <time>2022-04-10T13:36:10.121Z</time>
      </trkpt>
      <trkpt lat="42.17265" lon="21.78203">
        <ele>478.003931</ele>
        <time>2022-04-10T13:36:14.096Z</time>
      </trkpt>
      <trkpt lat="42.17259" lon="21.78193">
        <ele>478.293718</ele>
        <time>2022-04-10T13:36:17.117Z</time>
      </trkpt>
      <trkpt lat="42.17255" lon="21.78182">
        <ele>478.573027</ele>
        <time>2022-04-10T13:36:20.149Z</time>
      </trkpt>
      <trkpt lat="42.17253" lon="21.7817">
        <ele>478.608186</ele>
        <time>2022-04-10T13:36:23.100Z</time>
      </trkpt>
      <trkpt lat="42.17249" lon="21.78159">
        <ele>478.623717</ele>
        <time>2022-04-10T13:36:26.106Z</time>
      </trkpt>
      <trkpt lat="42.17244" lon="21.78144">
        <ele>478.644136</ele>
        <time>2022-04-10T13:36:30.108Z</time>
      </trkpt>
      <trkpt lat="42.17239" lon="21.78134">
        <ele>478.659993</ele>
        <time>2022-04-10T13:36:33.114Z</time>
      </trkpt>
      <trkpt lat="42.17232" lon="21.78125">
        <ele>478.676392</ele>
        <time>2022-04-10T13:36:36.109Z</time>
      </trkpt>
      <trkpt lat="42.17225" lon="21.78117">
        <ele>478.693002</ele>
        <time>2022-04-10T13:36:39.155Z</time>
      </trkpt>
      <trkpt lat="42.17217" lon="21.78109">
        <ele>478.708998</ele>
        <time>2022-04-10T13:36:42.123Z</time>
      </trkpt>
      <trkpt lat="42.17209" lon="21.78102">
        <ele>478.724844</ele>
        <time>2022-04-10T13:36:45.096Z</time>
      </trkpt>
      <trkpt lat="42.17201" lon="21.78096">
        <ele>478.74145</ele>
        <time>2022-04-10T13:36:48.147Z</time>
      </trkpt>
      <trkpt lat="42.17191" lon="21.78091">
        <ele>478.758455</ele>
        <time>2022-04-10T13:36:51.099Z</time>
      </trkpt>
      <trkpt lat="42.17182" lon="21.78085">
        <ele>478.775773</ele>
        <time>2022-04-10T13:36:54.098Z</time>
      </trkpt>
      <trkpt lat="42.17172" lon="21.7808">
        <ele>478.794254</ele>
        <time>2022-04-10T13:36:57.113Z</time>
      </trkpt>
      <trkpt lat="42.17163" lon="21.78075">
        <ele>478.810647</ele>
        <time>2022-04-10T13:37:00.109Z</time>
      </trkpt>
      <trkpt lat="42.17155" lon="21.78071">
        <ele>478.826085</ele>
        <time>2022-04-10T13:37:03.120Z</time>
      </trkpt>
      <trkpt lat="42.17144" lon="21.78067">
        <ele>478.845027</ele>
        <time>2022-04-10T13:37:07.123Z</time>
      </trkpt>
      <trkpt lat="42.17133" lon="21.78062">
        <ele>478.864297</ele>
        <time>2022-04-10T13:37:11.108Z</time>
      </trkpt>
      <trkpt lat="42.17125" lon="21.78056">
        <ele>478.880567</ele>
        <time>2022-04-10T13:37:14.103Z</time>
      </trkpt>
      <trkpt lat="42.17116" lon="21.78048">
        <ele>478.898451</ele>
        <time>2022-04-10T13:37:17.098Z</time>
      </trkpt>
      <trkpt lat="42.17108" lon="21.78039">
        <ele>478.624094</ele>
        <time>2022-04-10T13:37:20.104Z</time>
      </trkpt>
      <trkpt lat="42.17104" lon="21.78028">
        <ele>478.343141</ele>
        <time>2022-04-10T13:37:23.104Z</time>
      </trkpt>
      <trkpt lat="42.17104" lon="21.78015">
        <ele>478.057641</ele>
        <time>2022-04-10T13:37:26.096Z</time>
      </trkpt>
      <trkpt lat="42.17106" lon="21.78003">
        <ele>477.769497</ele>
        <time>2022-04-10T13:37:29.108Z</time>
      </trkpt>
      <trkpt lat="42.1711" lon="21.77989">
        <ele>477.445503</ele>
        <time>2022-04-10T13:37:32.099Z</time>
      </trkpt>
      <trkpt lat="42.17115" lon="21.77975">
        <ele>477.079252</ele>
        <time>2022-04-10T13:37:35.117Z</time>
      </trkpt>
      <trkpt lat="42.17122" lon="21.7796">
        <ele>476.681773</ele>
        <time>2022-04-10T13:37:38.165Z</time>
      </trkpt>
      <trkpt lat="42.17129" lon="21.77946">
        <ele>476.303346</ele>
        <time>2022-04-10T13:37:41.098Z</time>
      </trkpt>
      <trkpt lat="42.17133" lon="21.77932">
        <ele>475.963879</ele>
        <time>2022-04-10T13:37:44.112Z</time>
      </trkpt>
      <trkpt lat="42.17137" lon="21.77921">
        <ele>475.67683</ele>
        <time>2022-04-10T13:37:46.132Z</time>
      </trkpt>
      <trkpt lat="42.17141" lon="21.77907">
        <ele>475.350707</ele>
        <time>2022-04-10T13:37:49.148Z</time>
      </trkpt>
      <trkpt lat="42.17145" lon="21.77896">
        <ele>475.063906</ele>
        <time>2022-04-10T13:37:52.144Z</time>
      </trkpt>
      <trkpt lat="42.17146" lon="21.77883">
        <ele>474.771553</ele>
        <time>2022-04-10T13:37:55.138Z</time>
      </trkpt>
      <trkpt lat="42.17148" lon="21.77869">
        <ele>474.454633</ele>
        <time>2022-04-10T13:37:58.118Z</time>
      </trkpt>
      <trkpt lat="42.17147" lon="21.77857">
        <ele>474.167227</ele>
        <time>2022-04-10T13:38:01.138Z</time>
      </trkpt>
      <trkpt lat="42.17145" lon="21.77845">
        <ele>473.887031</ele>
        <time>2022-04-10T13:38:04.123Z</time>
      </trkpt>
      <trkpt lat="42.17141" lon="21.77831">
        <ele>473.555656</ele>
        <time>2022-04-10T13:38:08.097Z</time>
      </trkpt>
      <trkpt lat="42.17137" lon="21.77818">
        <ele>473.810181</ele>
        <time>2022-04-10T13:38:13.099Z</time>
      </trkpt>
      <trkpt lat="42.1713" lon="21.77807">
        <ele>474.617247</ele>
        <time>2022-04-10T13:38:19.112Z</time>
      </trkpt>
      <trkpt lat="42.17123" lon="21.77798">
        <ele>475.345843</ele>
        <time>2022-04-10T13:38:24.120Z</time>
      </trkpt>
      <trkpt lat="42.17116" lon="21.77788">
        <ele>476.102217</ele>
        <time>2022-04-10T13:38:29.110Z</time>
      </trkpt>
      <trkpt lat="42.17108" lon="21.77779">
        <ele>476.905911</ele>
        <time>2022-04-10T13:38:35.108Z</time>
      </trkpt>
      <trkpt lat="42.171" lon="21.7777">
        <ele>477.693399</ele>
        <time>2022-04-10T13:38:42.097Z</time>
      </trkpt>
      <trkpt lat="42.17091" lon="21.77764">
        <ele>478.447119</ele>
        <time>2022-04-10T13:38:49.097Z</time>
      </trkpt>
      <trkpt lat="42.17083" lon="21.77757">
        <ele>479.171113</ele>
        <time>2022-04-10T13:38:56.122Z</time>
      </trkpt>
      <trkpt lat="42.17077" lon="21.77746">
        <ele>479.910437</ele>
        <time>2022-04-10T13:39:03.108Z</time>
      </trkpt>
      <trkpt lat="42.17073" lon="21.77735">
        <ele>480.620958</ele>
        <time>2022-04-10T13:39:10.106Z</time>
      </trkpt>
      <trkpt lat="42.17068" lon="21.77724">
        <ele>481.316029</ele>
        <time>2022-04-10T13:39:17.116Z</time>
      </trkpt>
      <trkpt lat="42.17065" lon="21.77711">
        <ele>482.069536</ele>
        <time>2022-04-10T13:39:24.118Z</time>
      </trkpt>
      <trkpt lat="42.17062" lon="21.77699">
        <ele>482.784085</ele>
        <time>2022-04-10T13:39:32.095Z</time>
      </trkpt>
      <trkpt lat="42.17059" lon="21.77687">
        <ele>483.469289</ele>
        <time>2022-04-10T13:39:39.115Z</time>
      </trkpt>
      <trkpt lat="42.17055" lon="21.77675">
        <ele>484.21202</ele>
        <time>2022-04-10T13:39:47.121Z</time>
      </trkpt>
      <trkpt lat="42.17052" lon="21.77662">
        <ele>484.967699</ele>
        <time>2022-04-10T13:39:55.109Z</time>
      </trkpt>
      <trkpt lat="42.17049" lon="21.77651">
        <ele>485.652904</ele>
        <time>2022-04-10T13:40:02.119Z</time>
      </trkpt>
      <trkpt lat="42.17046" lon="21.77639">
        <ele>486.351541</ele>
        <time>2022-04-10T13:40:09.154Z</time>
      </trkpt>
      <trkpt lat="42.17042" lon="21.77627">
        <ele>487.039718</ele>
        <time>2022-04-10T13:40:16.123Z</time>
      </trkpt>
      <trkpt lat="42.17039" lon="21.77615">
        <ele>487.673011</ele>
        <time>2022-04-10T13:40:24.128Z</time>
      </trkpt>
      <trkpt lat="42.17035" lon="21.77603">
        <ele>488.323241</ele>
        <time>2022-04-10T13:40:32.119Z</time>
      </trkpt>
      <trkpt lat="42.1703" lon="21.77591">
        <ele>488.978599</ele>
        <time>2022-04-10T13:40:39.102Z</time>
      </trkpt>
      <trkpt lat="42.17026" lon="21.7758">
        <ele>489.586833</ele>
        <time>2022-04-10T13:40:46.137Z</time>
      </trkpt>
      <trkpt lat="42.17023" lon="21.77568">
        <ele>490.191236</ele>
        <time>2022-04-10T13:40:54.123Z</time>
      </trkpt>
      <trkpt lat="42.17021" lon="21.77555">
        <ele>490.816425</ele>
        <time>2022-04-10T13:41:01.115Z</time>
      </trkpt>
      <trkpt lat="42.17017" lon="21.77543">
        <ele>491.424794</ele>
        <time>2022-04-10T13:41:08.120Z</time>
      </trkpt>
      <trkpt lat="42.17014" lon="21.7753">
        <ele>492.115021</ele>
        <time>2022-04-10T13:41:15.117Z</time>
      </trkpt>
      <trkpt lat="42.17011" lon="21.77518">
        <ele>492.70823</ele>
        <time>2022-04-10T13:41:21.125Z</time>
      </trkpt>
      <trkpt lat="42.17008" lon="21.77506">
        <ele>493.316715</ele>
        <time>2022-04-10T13:41:27.118Z</time>
      </trkpt>
      <trkpt lat="42.17004" lon="21.77495">
        <ele>493.911381</ele>
        <time>2022-04-10T13:41:34.143Z</time>
      </trkpt>
      <trkpt lat="42.17001" lon="21.77483">
        <ele>494.545031</ele>
        <time>2022-04-10T13:41:41.133Z</time>
      </trkpt>
      <trkpt lat="42.16998" lon="21.77471">
        <ele>495.170677</ele>
        <time>2022-04-10T13:41:48.106Z</time>
      </trkpt>
      <trkpt lat="42.16994" lon="21.77459">
        <ele>495.797375</ele>
        <time>2022-04-10T13:41:54.103Z</time>
      </trkpt>
      <trkpt lat="42.16992" lon="21.77447">
        <ele>496.39256</ele>
        <time>2022-04-10T13:42:00.111Z</time>
      </trkpt>
      <trkpt lat="42.16989" lon="21.77435">
        <ele>496.990395</ele>
        <time>2022-04-10T13:42:06.137Z</time>
      </trkpt>
      <trkpt lat="42.16985" lon="21.77423">
        <ele>497.621285</ele>
        <time>2022-04-10T13:42:12.108Z</time>
      </trkpt>
      <trkpt lat="42.16982" lon="21.77411">
        <ele>498.263974</ele>
        <time>2022-04-10T13:42:18.136Z</time>
      </trkpt>
      <trkpt lat="42.16977" lon="21.77398">
        <ele>498.801194</ele>
        <time>2022-04-10T13:42:25.117Z</time>
      </trkpt>
      <trkpt lat="42.16974" lon="21.77387">
        <ele>499.090363</ele>
        <time>2022-04-10T13:42:31.120Z</time>
      </trkpt>
      <trkpt lat="42.16971" lon="21.77375">
        <ele>499.381951</ele>
        <time>2022-04-10T13:42:38.117Z</time>
      </trkpt>
      <trkpt lat="42.16967" lon="21.77362">
        <ele>499.714299</ele>
        <time>2022-04-10T13:42:45.120Z</time>
      </trkpt>
      <trkpt lat="42.16964" lon="21.77351">
        <ele>500.007831</ele>
        <time>2022-04-10T13:42:51.118Z</time>
      </trkpt>
      <trkpt lat="42.1696" lon="21.77337">
        <ele>500.344367</ele>
        <time>2022-04-10T13:42:58.119Z</time>
      </trkpt>
      <trkpt lat="42.16957" lon="21.77325">
        <ele>500.648854</ele>
        <time>2022-04-10T13:43:04.118Z</time>
      </trkpt>
      <trkpt lat="42.16953" lon="21.77313">
        <ele>500.968842</ele>
        <time>2022-04-10T13:43:11.134Z</time>
      </trkpt>
      <trkpt lat="42.1695" lon="21.77301">
        <ele>501.273268</ele>
        <time>2022-04-10T13:43:17.110Z</time>
      </trkpt>
      <trkpt lat="42.16947" lon="21.77289">
        <ele>501.574398</ele>
        <time>2022-04-10T13:43:23.116Z</time>
      </trkpt>
      <trkpt lat="42.16943" lon="21.77275">
        <ele>501.904354</ele>
        <time>2022-04-10T13:43:30.113Z</time>
      </trkpt>
      <trkpt lat="42.1694" lon="21.77263">
        <ele>502.212147</ele>
        <time>2022-04-10T13:43:37.133Z</time>
      </trkpt>
      <trkpt lat="42.16938" lon="21.77251">
        <ele>502.519319</ele>
        <time>2022-04-10T13:43:44.114Z</time>
      </trkpt>
      <trkpt lat="42.16934" lon="21.77237">
        <ele>502.850327</ele>
        <time>2022-04-10T13:43:51.135Z</time>
      </trkpt>
      <trkpt lat="42.16931" lon="21.77225">
        <ele>503.156873</ele>
        <time>2022-04-10T13:43:57.114Z</time>
      </trkpt>
      <trkpt lat="42.16929" lon="21.77212">
        <ele>503.473373</ele>
        <time>2022-04-10T13:44:04.109Z</time>
      </trkpt>
      <trkpt lat="42.16925" lon="21.772">
        <ele>503.77786</ele>
        <time>2022-04-10T13:44:10.124Z</time>
      </trkpt>
      <trkpt lat="42.16922" lon="21.77187">
        <ele>504.113326</ele>
        <time>2022-04-10T13:44:16.119Z</time>
      </trkpt>
      <trkpt lat="42.16917" lon="21.77174">
        <ele>504.393584</ele>
        <time>2022-04-10T13:44:22.122Z</time>
      </trkpt>
      <trkpt lat="42.16913" lon="21.77161">
        <ele>504.135864</ele>
        <time>2022-04-10T13:44:28.109Z</time>
      </trkpt>
      <trkpt lat="42.1691" lon="21.77149">
        <ele>503.915814</ele>
        <time>2022-04-10T13:44:32.146Z</time>
      </trkpt>
      <trkpt lat="42.16906" lon="21.77135">
        <ele>503.641831</ele>
        <time>2022-04-10T13:44:36.126Z</time>
      </trkpt>
      <trkpt lat="42.16903" lon="21.77124">
        <ele>503.420733</ele>
        <time>2022-04-10T13:44:39.115Z</time>
      </trkpt>
      <trkpt lat="42.169" lon="21.77111">
        <ele>503.176535</ele>
        <time>2022-04-10T13:44:42.116Z</time>
      </trkpt>
      <trkpt lat="42.16897" lon="21.77097">
        <ele>502.908609</ele>
        <time>2022-04-10T13:44:45.120Z</time>
      </trkpt>
      <trkpt lat="42.16893" lon="21.77082">
        <ele>502.617738</ele>
        <time>2022-04-10T13:44:48.119Z</time>
      </trkpt>
      <trkpt lat="42.16889" lon="21.77065">
        <ele>502.29503</ele>
        <time>2022-04-10T13:44:51.114Z</time>
      </trkpt>
      <trkpt lat="42.16886" lon="21.77053">
        <ele>502.066187</ele>
        <time>2022-04-10T13:44:53.157Z</time>
      </trkpt>
      <trkpt lat="42.16881" lon="21.77036">
        <ele>501.731872</ele>
        <time>2022-04-10T13:44:56.131Z</time>
      </trkpt>
      <trkpt lat="42.16878" lon="21.77024">
        <ele>501.488721</ele>
        <time>2022-04-10T13:44:58.119Z</time>
      </trkpt>
      <trkpt lat="42.16874" lon="21.77009">
        <ele>501.214961</ele>
        <time>2022-04-10T13:45:00.118Z</time>
      </trkpt>
      <trkpt lat="42.16869" lon="21.76995">
        <ele>500.935162</ele>
        <time>2022-04-10T13:45:02.117Z</time>
      </trkpt>
      <trkpt lat="42.16865" lon="21.7698">
        <ele>500.639215</ele>
        <time>2022-04-10T13:45:04.110Z</time>
      </trkpt>
      <trkpt lat="42.16861" lon="21.76963">
        <ele>500.318545</ele>
        <time>2022-04-10T13:45:06.114Z</time>
      </trkpt>
      <trkpt lat="42.16856" lon="21.76946">
        <ele>499.938444</ele>
        <time>2022-04-10T13:45:08.127Z</time>
      </trkpt>
      <trkpt lat="42.1685" lon="21.76929">
        <ele>499.118153</ele>
        <time>2022-04-10T13:45:10.114Z</time>
      </trkpt>
      <trkpt lat="42.16845" lon="21.76912">
        <ele>498.309113</ele>
        <time>2022-04-10T13:45:12.095Z</time>
      </trkpt>
      <trkpt lat="42.1684" lon="21.76896">
        <ele>497.523413</ele>
        <time>2022-04-10T13:45:14.119Z</time>
      </trkpt>
      <trkpt lat="42.16836" lon="21.7688">
        <ele>496.781384</ele>
        <time>2022-04-10T13:45:16.138Z</time>
      </trkpt>
      <trkpt lat="42.16831" lon="21.76864">
        <ele>496.035397</ele>
        <time>2022-04-10T13:45:18.118Z</time>
      </trkpt>
      <trkpt lat="42.16828" lon="21.7685">
        <ele>495.364438</ele>
        <time>2022-04-10T13:45:20.115Z</time>
      </trkpt>
      <trkpt lat="42.16824" lon="21.76836">
        <ele>494.695433</ele>
        <time>2022-04-10T13:45:22.104Z</time>
      </trkpt>
      <trkpt lat="42.1682" lon="21.76821">
        <ele>493.972775</ele>
        <time>2022-04-10T13:45:24.122Z</time>
      </trkpt>
      <trkpt lat="42.16816" lon="21.76804">
        <ele>493.184809</ele>
        <time>2022-04-10T13:45:26.109Z</time>
      </trkpt>
      <trkpt lat="42.16811" lon="21.76787">
        <ele>492.390911</ele>
        <time>2022-04-10T13:45:28.129Z</time>
      </trkpt>
      <trkpt lat="42.16807" lon="21.76773">
        <ele>491.705069</ele>
        <time>2022-04-10T13:45:30.106Z</time>
      </trkpt>
      <trkpt lat="42.16803" lon="21.76761">
        <ele>491.131949</ele>
        <time>2022-04-10T13:45:32.117Z</time>
      </trkpt>
      <trkpt lat="42.16799" lon="21.76743">
        <ele>490.314443</ele>
        <time>2022-04-10T13:45:35.175Z</time>
      </trkpt>
      <trkpt lat="42.16796" lon="21.76731">
        <ele>489.712116</ele>
        <time>2022-04-10T13:45:37.135Z</time>
      </trkpt>
      <trkpt lat="42.16792" lon="21.76717">
        <ele>489.134453</ele>
        <time>2022-04-10T13:45:39.136Z</time>
      </trkpt>
      <trkpt lat="42.16789" lon="21.76703">
        <ele>488.752045</ele>
        <time>2022-04-10T13:45:41.112Z</time>
      </trkpt>
      <trkpt lat="42.16785" lon="21.76689">
        <ele>488.353871</ele>
        <time>2022-04-10T13:45:43.104Z</time>
      </trkpt>
      <trkpt lat="42.1678" lon="21.76674">
        <ele>487.95067</ele>
        <time>2022-04-10T13:45:45.125Z</time>
      </trkpt>
      <trkpt lat="42.16777" lon="21.76661">
        <ele>487.570762</ele>
        <time>2022-04-10T13:45:47.122Z</time>
      </trkpt>
      <trkpt lat="42.16773" lon="21.76648">
        <ele>487.218774</ele>
        <time>2022-04-10T13:45:49.108Z</time>
      </trkpt>
      <trkpt lat="42.16769" lon="21.76636">
        <ele>486.883854</ele>
        <time>2022-04-10T13:45:51.124Z</time>
      </trkpt>
      <trkpt lat="42.16765" lon="21.7662">
        <ele>486.441825</ele>
        <time>2022-04-10T13:45:54.114Z</time>
      </trkpt>
      <trkpt lat="42.16761" lon="21.76605">
        <ele>486.016844</ele>
        <time>2022-04-10T13:45:57.135Z</time>
      </trkpt>
      <trkpt lat="42.16757" lon="21.76591">
        <ele>485.629282</ele>
        <time>2022-04-10T13:46:00.130Z</time>
      </trkpt>
      <trkpt lat="42.16754" lon="21.76577">
        <ele>485.249126</ele>
        <time>2022-04-10T13:46:03.122Z</time>
      </trkpt>
      <trkpt lat="42.16751" lon="21.76564">
        <ele>484.901927</ele>
        <time>2022-04-10T13:46:06.125Z</time>
      </trkpt>
      <trkpt lat="42.16749" lon="21.7655">
        <ele>484.526217</ele>
        <time>2022-04-10T13:46:09.158Z</time>
      </trkpt>
      <trkpt lat="42.16745" lon="21.76533">
        <ele>484.081369</ele>
        <time>2022-04-10T13:46:12.122Z</time>
      </trkpt>
      <trkpt lat="42.16741" lon="21.76522">
        <ele>483.762222</ele>
        <time>2022-04-10T13:46:14.114Z</time>
      </trkpt>
      <trkpt lat="42.16738" lon="21.76509">
        <ele>483.405193</ele>
        <time>2022-04-10T13:46:16.122Z</time>
      </trkpt>
      <trkpt lat="42.16734" lon="21.76496">
        <ele>483.033719</ele>
        <time>2022-04-10T13:46:18.124Z</time>
      </trkpt>
      <trkpt lat="42.1673" lon="21.76483">
        <ele>482.779876</ele>
        <time>2022-04-10T13:46:20.113Z</time>
      </trkpt>
      <trkpt lat="42.16727" lon="21.76471">
        <ele>482.604001</ele>
        <time>2022-04-10T13:46:22.122Z</time>
      </trkpt>
      <trkpt lat="42.16723" lon="21.7646">
        <ele>482.424369</ele>
        <time>2022-04-10T13:46:24.121Z</time>
      </trkpt>
      <trkpt lat="42.16719" lon="21.76446">
        <ele>482.22266</ele>
        <time>2022-04-10T13:46:26.118Z</time>
      </trkpt>
      <trkpt lat="42.16716" lon="21.76433">
        <ele>482.021433</ele>
        <time>2022-04-10T13:46:28.114Z</time>
      </trkpt>
      <trkpt lat="42.16711" lon="21.76418">
        <ele>481.801186</ele>
        <time>2022-04-10T13:46:30.137Z</time>
      </trkpt>
      <trkpt lat="42.16707" lon="21.76403">
        <ele>481.56762</ele>
        <time>2022-04-10T13:46:32.102Z</time>
      </trkpt>
      <trkpt lat="42.16702" lon="21.76387">
        <ele>481.324042</ele>
        <time>2022-04-10T13:46:34.178Z</time>
      </trkpt>
      <trkpt lat="42.16697" lon="21.7637">
        <ele>481.064854</ele>
        <time>2022-04-10T13:46:36.142Z</time>
      </trkpt>
      <trkpt lat="42.16692" lon="21.76351">
        <ele>480.787721</ele>
        <time>2022-04-10T13:46:38.206Z</time>
      </trkpt>
      <trkpt lat="42.16687" lon="21.76332">
        <ele>480.500725</ele>
        <time>2022-04-10T13:46:40.109Z</time>
      </trkpt>
      <trkpt lat="42.16682" lon="21.76312">
        <ele>480.20319</ele>
        <time>2022-04-10T13:46:42.123Z</time>
      </trkpt>
      <trkpt lat="42.16676" lon="21.76293">
        <ele>479.909622</ele>
        <time>2022-04-10T13:46:44.122Z</time>
      </trkpt>
      <trkpt lat="42.1667" lon="21.76273">
        <ele>479.60412</ele>
        <time>2022-04-10T13:46:46.159Z</time>
      </trkpt>
      <trkpt lat="42.16665" lon="21.76252">
        <ele>479.261744</ele>
        <time>2022-04-10T13:46:48.155Z</time>
      </trkpt>
      <trkpt lat="42.16659" lon="21.76232">
        <ele>478.897296</ele>
        <time>2022-04-10T13:46:50.131Z</time>
      </trkpt>
      <trkpt lat="42.16653" lon="21.76212">
        <ele>478.541262</ele>
        <time>2022-04-10T13:46:52.097Z</time>
      </trkpt>
      <trkpt lat="42.16648" lon="21.76193">
        <ele>478.214835</ele>
        <time>2022-04-10T13:46:54.107Z</time>
      </trkpt>
      <trkpt lat="42.16643" lon="21.76177">
        <ele>477.921891</ele>
        <time>2022-04-10T13:46:56.104Z</time>
      </trkpt>
      <trkpt lat="42.16639" lon="21.76162">
        <ele>477.663148</ele>
        <time>2022-04-10T13:46:58.175Z</time>
      </trkpt>
      <trkpt lat="42.16633" lon="21.76143">
        <ele>477.32981</ele>
        <time>2022-04-10T13:47:01.132Z</time>
      </trkpt>
      <trkpt lat="42.16629" lon="21.76127">
        <ele>477.0415</ele>
        <time>2022-04-10T13:47:04.108Z</time>
      </trkpt>
      <trkpt lat="42.16625" lon="21.76114">
        <ele>476.804479</ele>
        <time>2022-04-10T13:47:07.105Z</time>
      </trkpt>
      <trkpt lat="42.16622" lon="21.76101">
        <ele>476.583578</ele>
        <time>2022-04-10T13:47:10.122Z</time>
      </trkpt>
      <trkpt lat="42.16619" lon="21.76088">
        <ele>476.359798</ele>
        <time>2022-04-10T13:47:13.154Z</time>
      </trkpt>
      <trkpt lat="42.16616" lon="21.76076">
        <ele>476.147628</ele>
        <time>2022-04-10T13:47:16.134Z</time>
      </trkpt>
      <trkpt lat="42.16613" lon="21.76064">
        <ele>475.929183</ele>
        <time>2022-04-10T13:47:19.119Z</time>
      </trkpt>
      <trkpt lat="42.16609" lon="21.76052">
        <ele>475.727901</ele>
        <time>2022-04-10T13:47:22.119Z</time>
      </trkpt>
      <trkpt lat="42.16606" lon="21.76039">
        <ele>475.494804</ele>
        <time>2022-04-10T13:47:26.106Z</time>
      </trkpt>
      <trkpt lat="42.16602" lon="21.76026">
        <ele>476.234173</ele>
        <time>2022-04-10T13:47:31.111Z</time>
      </trkpt>
      <trkpt lat="42.16598" lon="21.76013">
        <ele>477.097308</ele>
        <time>2022-04-10T13:47:37.112Z</time>
      </trkpt>
      <trkpt lat="42.16592" lon="21.76">
        <ele>477.946572</ele>
        <time>2022-04-10T13:47:43.136Z</time>
      </trkpt>
      <trkpt lat="42.16586" lon="21.7599">
        <ele>478.712296</ele>
        <time>2022-04-10T13:47:49.128Z</time>
      </trkpt>
      <trkpt lat="42.1658" lon="21.75981">
        <ele>479.435143</ele>
        <time>2022-04-10T13:47:55.098Z</time>
      </trkpt>
      <trkpt lat="42.16572" lon="21.75971">
        <ele>480.271428</ele>
        <time>2022-04-10T13:48:02.116Z</time>
      </trkpt>
      <trkpt lat="42.16565" lon="21.75962">
        <ele>481.051132</ele>
        <time>2022-04-10T13:48:09.118Z</time>
      </trkpt>
      <trkpt lat="42.16557" lon="21.75955">
        <ele>481.805753</ele>
        <time>2022-04-10T13:48:15.138Z</time>
      </trkpt>
      <trkpt lat="42.16551" lon="21.75947">
        <ele>482.522151</ele>
        <time>2022-04-10T13:48:22.115Z</time>
      </trkpt>
      <trkpt lat="42.16544" lon="21.75939">
        <ele>483.266253</ele>
        <time>2022-04-10T13:48:29.127Z</time>
      </trkpt>
      <trkpt lat="42.16536" lon="21.75931">
        <ele>484.00123</ele>
        <time>2022-04-10T13:48:37.147Z</time>
      </trkpt>
      <trkpt lat="42.16529" lon="21.75923">
        <ele>484.798114</ele>
        <time>2022-04-10T13:48:45.159Z</time>
      </trkpt>
      <trkpt lat="42.16522" lon="21.75914">
        <ele>485.557882</ele>
        <time>2022-04-10T13:48:53.124Z</time>
      </trkpt>
      <trkpt lat="42.16515" lon="21.75906">
        <ele>486.314001</ele>
        <time>2022-04-10T13:49:01.136Z</time>
      </trkpt>
      <trkpt lat="42.16508" lon="21.75898">
        <ele>487.040431</ele>
        <time>2022-04-10T13:49:09.142Z</time>
      </trkpt>
      <trkpt lat="42.165" lon="21.7589">
        <ele>487.825599</ele>
        <time>2022-04-10T13:49:18.127Z</time>
      </trkpt>
      <trkpt lat="42.16492" lon="21.75881">
        <ele>488.605453</ele>
        <time>2022-04-10T13:49:26.126Z</time>
      </trkpt>
      <trkpt lat="42.16485" lon="21.75874">
        <ele>489.357975</ele>
        <time>2022-04-10T13:49:34.113Z</time>
      </trkpt>
      <trkpt lat="42.16477" lon="21.75867">
        <ele>489.906841</ele>
        <time>2022-04-10T13:49:43.113Z</time>
      </trkpt>
      <trkpt lat="42.16471" lon="21.75857">
        <ele>490.097289</ele>
        <time>2022-04-10T13:49:50.128Z</time>
      </trkpt>
      <trkpt lat="42.16465" lon="21.75847">
        <ele>490.290809</ele>
        <time>2022-04-10T13:49:57.117Z</time>
      </trkpt>
      <trkpt lat="42.16459" lon="21.75838">
        <ele>490.484558</ele>
        <time>2022-04-10T13:50:04.117Z</time>
      </trkpt>
      <trkpt lat="42.16454" lon="21.75827">
        <ele>490.68778</ele>
        <time>2022-04-10T13:50:12.115Z</time>
      </trkpt>
      <trkpt lat="42.16449" lon="21.75816">
        <ele>490.892961</ele>
        <time>2022-04-10T13:50:19.130Z</time>
      </trkpt>
      <trkpt lat="42.16443" lon="21.75804">
        <ele>491.112065</ele>
        <time>2022-04-10T13:50:26.120Z</time>
      </trkpt>
      <trkpt lat="42.16438" lon="21.75792">
        <ele>491.318581</ele>
        <time>2022-04-10T13:50:33.115Z</time>
      </trkpt>
      <trkpt lat="42.16434" lon="21.7578">
        <ele>491.533751</ele>
        <time>2022-04-10T13:50:39.128Z</time>
      </trkpt>
      <trkpt lat="42.1643" lon="21.75767">
        <ele>491.750899</ele>
        <time>2022-04-10T13:50:44.119Z</time>
      </trkpt>
      <trkpt lat="42.16425" lon="21.75756">
        <ele>491.941783</ele>
        <time>2022-04-10T13:50:48.121Z</time>
      </trkpt>
      <trkpt lat="42.16418" lon="21.75745">
        <ele>492.162066</ele>
        <time>2022-04-10T13:50:52.123Z</time>
      </trkpt>
      <trkpt lat="42.16413" lon="21.75731">
        <ele>492.415749</ele>
        <time>2022-04-10T13:50:56.124Z</time>
      </trkpt>
      <trkpt lat="42.16408" lon="21.75717">
        <ele>492.653752</ele>
        <time>2022-04-10T13:50:59.114Z</time>
      </trkpt>
      <trkpt lat="42.16402" lon="21.75702">
        <ele>492.912101</ele>
        <time>2022-04-10T13:51:02.110Z</time>
      </trkpt>
      <trkpt lat="42.16397" lon="21.75691">
        <ele>493.106717</ele>
        <time>2022-04-10T13:51:04.112Z</time>
      </trkpt>
      <trkpt lat="42.16393" lon="21.7568">
        <ele>493.307427</ele>
        <time>2022-04-10T13:51:06.121Z</time>
      </trkpt>
      <trkpt lat="42.16388" lon="21.75668">
        <ele>493.516194</ele>
        <time>2022-04-10T13:51:08.129Z</time>
      </trkpt>
      <trkpt lat="42.16383" lon="21.75655">
        <ele>493.354418</ele>
        <time>2022-04-10T13:51:10.113Z</time>
      </trkpt>
      <trkpt lat="42.16378" lon="21.75641">
        <ele>492.963371</ele>
        <time>2022-04-10T13:51:12.153Z</time>
      </trkpt>
      <trkpt lat="42.16372" lon="21.75626">
        <ele>492.545851</ele>
        <time>2022-04-10T13:51:14.128Z</time>
      </trkpt>
      <trkpt lat="42.16366" lon="21.75611">
        <ele>492.103689</ele>
        <time>2022-04-10T13:51:16.107Z</time>
      </trkpt>
      <trkpt lat="42.16359" lon="21.75595">
        <ele>491.643586</ele>
        <time>2022-04-10T13:51:18.138Z</time>
      </trkpt>
      <trkpt lat="42.16352" lon="21.75578">
        <ele>491.162389</ele>
        <time>2022-04-10T13:51:20.122Z</time>
      </trkpt>
      <trkpt lat="42.16346" lon="21.7556">
        <ele>490.677228</ele>
        <time>2022-04-10T13:51:22.108Z</time>
      </trkpt>
      <trkpt lat="42.16339" lon="21.75543">
        <ele>490.203302</ele>
        <time>2022-04-10T13:51:24.118Z</time>
      </trkpt>
      <trkpt lat="42.16332" lon="21.75526">
        <ele>489.706834</ele>
        <time>2022-04-10T13:51:26.213Z</time>
      </trkpt>
      <trkpt lat="42.16325" lon="21.75508">
        <ele>489.210374</ele>
        <time>2022-04-10T13:51:28.108Z</time>
      </trkpt>
      <trkpt lat="42.16319" lon="21.75492">
        <ele>488.760241</ele>
        <time>2022-04-10T13:51:30.118Z</time>
      </trkpt>
      <trkpt lat="42.16313" lon="21.75478">
        <ele>488.351275</ele>
        <time>2022-04-10T13:51:32.135Z</time>
      </trkpt>
      <trkpt lat="42.16308" lon="21.75465">
        <ele>487.979719</ele>
        <time>2022-04-10T13:51:34.117Z</time>
      </trkpt>
      <trkpt lat="42.16302" lon="21.75451">
        <ele>487.593399</ele>
        <time>2022-04-10T13:51:36.123Z</time>
      </trkpt>
      <trkpt lat="42.16298" lon="21.75437">
        <ele>487.312386</ele>
        <time>2022-04-10T13:51:38.137Z</time>
      </trkpt>
      <trkpt lat="42.16292" lon="21.75423">
        <ele>487.013628</ele>
        <time>2022-04-10T13:51:40.096Z</time>
      </trkpt>
      <trkpt lat="42.16286" lon="21.7541">
        <ele>486.720323</ele>
        <time>2022-04-10T13:51:42.104Z</time>
      </trkpt>
      <trkpt lat="42.16281" lon="21.75396">
        <ele>486.442384</ele>
        <time>2022-04-10T13:51:44.189Z</time>
      </trkpt>
      <trkpt lat="42.16276" lon="21.75383">
        <ele>486.166684</ele>
        <time>2022-04-10T13:51:46.127Z</time>
      </trkpt>
      <trkpt lat="42.16271" lon="21.75369">
        <ele>485.885964</ele>
        <time>2022-04-10T13:51:48.132Z</time>
      </trkpt>
      <trkpt lat="42.16265" lon="21.75355">
        <ele>485.586806</ele>
        <time>2022-04-10T13:51:50.155Z</time>
      </trkpt>
      <trkpt lat="42.16259" lon="21.7534">
        <ele>485.271116</ele>
        <time>2022-04-10T13:51:52.169Z</time>
      </trkpt>
      <trkpt lat="42.16252" lon="21.75324">
        <ele>484.938081</ele>
        <time>2022-04-10T13:51:54.121Z</time>
      </trkpt>
      <trkpt lat="42.16245" lon="21.7531">
        <ele>484.616182</ele>
        <time>2022-04-10T13:51:56.129Z</time>
      </trkpt>
      <trkpt lat="42.16238" lon="21.75295">
        <ele>484.294318</ele>
        <time>2022-04-10T13:51:58.150Z</time>
      </trkpt>
      <trkpt lat="42.16231" lon="21.7528">
        <ele>483.958115</ele>
        <time>2022-04-10T13:52:00.116Z</time>
      </trkpt>
      <trkpt lat="42.16224" lon="21.75263">
        <ele>483.607324</ele>
        <time>2022-04-10T13:52:02.157Z</time>
      </trkpt>
      <trkpt lat="42.16218" lon="21.75246">
        <ele>483.254373</ele>
        <time>2022-04-10T13:52:04.170Z</time>
      </trkpt>
      <trkpt lat="42.16211" lon="21.75229">
        <ele>482.910627</ele>
        <time>2022-04-10T13:52:06.142Z</time>
      </trkpt>
      <trkpt lat="42.16204" lon="21.75213">
        <ele>482.573939</ele>
        <time>2022-04-10T13:52:08.136Z</time>
      </trkpt>
      <trkpt lat="42.16198" lon="21.75197">
        <ele>482.257341</ele>
        <time>2022-04-10T13:52:10.142Z</time>
      </trkpt>
      <trkpt lat="42.16192" lon="21.7518">
        <ele>481.933385</ele>
        <time>2022-04-10T13:52:12.126Z</time>
      </trkpt>
      <trkpt lat="42.16187" lon="21.75167">
        <ele>481.666514</ele>
        <time>2022-04-10T13:52:14.141Z</time>
      </trkpt>
      <trkpt lat="42.16182" lon="21.75152">
        <ele>481.376393</ele>
        <time>2022-04-10T13:52:17.115Z</time>
      </trkpt>
      <trkpt lat="42.16178" lon="21.75141">
        <ele>481.157267</ele>
        <time>2022-04-10T13:52:20.110Z</time>
      </trkpt>
      <trkpt lat="42.16174" lon="21.7513">
        <ele>480.938917</ele>
        <time>2022-04-10T13:52:23.124Z</time>
      </trkpt>
      <trkpt lat="42.1617" lon="21.75119">
        <ele>480.721368</ele>
        <time>2022-04-10T13:52:26.117Z</time>
      </trkpt>
      <trkpt lat="42.16165" lon="21.75106">
        <ele>480.474579</ele>
        <time>2022-04-10T13:52:29.113Z</time>
      </trkpt>
      <trkpt lat="42.16158" lon="21.75096">
        <ele>480.219027</ele>
        <time>2022-04-10T13:52:32.177Z</time>
      </trkpt>
      <trkpt lat="42.16151" lon="21.75081">
        <ele>479.911433</ele>
        <time>2022-04-10T13:52:35.233Z</time>
      </trkpt>
      <trkpt lat="42.16146" lon="21.75065">
        <ele>479.607041</ele>
        <time>2022-04-10T13:52:38.099Z</time>
      </trkpt>
      <trkpt lat="42.16139" lon="21.75049">
        <ele>479.278331</ele>
        <time>2022-04-10T13:52:41.101Z</time>
      </trkpt>
      <trkpt lat="42.16135" lon="21.75037">
        <ele>479.049475</ele>
        <time>2022-04-10T13:52:43.117Z</time>
      </trkpt>
      <trkpt lat="42.16131" lon="21.75025">
        <ele>478.817417</ele>
        <time>2022-04-10T13:52:45.119Z</time>
      </trkpt>
      <trkpt lat="42.16125" lon="21.75009">
        <ele>478.549603</ele>
        <time>2022-04-10T13:52:48.114Z</time>
      </trkpt>
      <trkpt lat="42.16119" lon="21.74995">
        <ele>478.293792</ele>
        <time>2022-04-10T13:52:51.164Z</time>
      </trkpt>
      <trkpt lat="42.16113" lon="21.74981">
        <ele>478.048341</ele>
        <time>2022-04-10T13:52:54.117Z</time>
      </trkpt>
      <trkpt lat="42.16107" lon="21.74966">
        <ele>477.801442</ele>
        <time>2022-04-10T13:52:57.104Z</time>
      </trkpt>
      <trkpt lat="42.16101" lon="21.74952">
        <ele>477.547899</ele>
        <time>2022-04-10T13:53:00.114Z</time>
      </trkpt>
      <trkpt lat="42.16095" lon="21.74936">
        <ele>477.291685</ele>
        <time>2022-04-10T13:53:03.117Z</time>
      </trkpt>
      <trkpt lat="42.1609" lon="21.74923">
        <ele>477.063818</ele>
        <time>2022-04-10T13:53:06.115Z</time>
      </trkpt>
      <trkpt lat="42.16086" lon="21.7491">
        <ele>476.850174</ele>
        <time>2022-04-10T13:53:10.100Z</time>
      </trkpt>
      <trkpt lat="42.16081" lon="21.74897">
        <ele>476.620971</ele>
        <time>2022-04-10T13:53:13.146Z</time>
      </trkpt>
      <trkpt lat="42.16076" lon="21.74884">
        <ele>476.41325</ele>
        <time>2022-04-10T13:53:15.112Z</time>
      </trkpt>
      <trkpt lat="42.1607" lon="21.74873">
        <ele>476.198689</ele>
        <time>2022-04-10T13:53:17.122Z</time>
      </trkpt>
      <trkpt lat="42.16064" lon="21.74859">
        <ele>475.96647</ele>
        <time>2022-04-10T13:53:19.150Z</time>
      </trkpt>
      <trkpt lat="42.16058" lon="21.74845">
        <ele>475.712667</ele>
        <time>2022-04-10T13:53:21.110Z</time>
      </trkpt>
      <trkpt lat="42.16051" lon="21.74828">
        <ele>475.434174</ele>
        <time>2022-04-10T13:53:23.120Z</time>
      </trkpt>
      <trkpt lat="42.16045" lon="21.74812">
        <ele>475.153035</ele>
        <time>2022-04-10T13:53:25.173Z</time>
      </trkpt>
      <trkpt lat="42.16038" lon="21.74795">
        <ele>474.389879</ele>
        <time>2022-04-10T13:53:27.100Z</time>
      </trkpt>
      <trkpt lat="42.16032" lon="21.74778">
        <ele>473.594764</ele>
        <time>2022-04-10T13:53:29.102Z</time>
      </trkpt>
      <trkpt lat="42.16025" lon="21.74761">
        <ele>472.765857</ele>
        <time>2022-04-10T13:53:31.126Z</time>
      </trkpt>
      <trkpt lat="42.16018" lon="21.74743">
        <ele>471.936949</ele>
        <time>2022-04-10T13:53:33.117Z</time>
      </trkpt>
      <trkpt lat="42.16011" lon="21.74725">
        <ele>471.077163</ele>
        <time>2022-04-10T13:53:35.109Z</time>
      </trkpt>
      <trkpt lat="42.16004" lon="21.74707">
        <ele>470.212283</ele>
        <time>2022-04-10T13:53:37.113Z</time>
      </trkpt>
      <trkpt lat="42.15997" lon="21.74688">
        <ele>469.344811</ele>
        <time>2022-04-10T13:53:39.116Z</time>
      </trkpt>
      <trkpt lat="42.15989" lon="21.7467">
        <ele>468.450254</ele>
        <time>2022-04-10T13:53:41.108Z</time>
      </trkpt>
      <trkpt lat="42.15982" lon="21.74651">
        <ele>467.57028</ele>
        <time>2022-04-10T13:53:43.117Z</time>
      </trkpt>
      <trkpt lat="42.15974" lon="21.74634">
        <ele>466.734177</ele>
        <time>2022-04-10T13:53:45.124Z</time>
      </trkpt>
      <trkpt lat="42.15967" lon="21.74616">
        <ele>465.888879</ele>
        <time>2022-04-10T13:53:47.143Z</time>
      </trkpt>
      <trkpt lat="42.1596" lon="21.74599">
        <ele>465.064652</ele>
        <time>2022-04-10T13:53:49.108Z</time>
      </trkpt>
      <trkpt lat="42.15954" lon="21.74583">
        <ele>464.37952</ele>
        <time>2022-04-10T13:53:51.124Z</time>
      </trkpt>
      <trkpt lat="42.15948" lon="21.74568">
        <ele>463.775667</ele>
        <time>2022-04-10T13:53:53.107Z</time>
      </trkpt>
      <trkpt lat="42.15943" lon="21.74555">
        <ele>463.237747</ele>
        <time>2022-04-10T13:53:55.103Z</time>
      </trkpt>
      <trkpt lat="42.15938" lon="21.7454">
        <ele>462.644949</ele>
        <time>2022-04-10T13:53:58.110Z</time>
      </trkpt>
      <trkpt lat="42.15932" lon="21.74528">
        <ele>462.110981</ele>
        <time>2022-04-10T13:54:01.117Z</time>
      </trkpt>
      <trkpt lat="42.15925" lon="21.74512">
        <ele>461.427839</ele>
        <time>2022-04-10T13:54:04.115Z</time>
      </trkpt>
      <trkpt lat="42.15921" lon="21.745">
        <ele>460.92136</ele>
        <time>2022-04-10T13:54:06.099Z</time>
      </trkpt>
      <trkpt lat="42.15915" lon="21.74487">
        <ele>460.386727</ele>
        <time>2022-04-10T13:54:08.100Z</time>
      </trkpt>
      <trkpt lat="42.1591" lon="21.74473">
        <ele>459.798194</ele>
        <time>2022-04-10T13:54:10.144Z</time>
      </trkpt>
      <trkpt lat="42.15904" lon="21.74458">
        <ele>459.172085</ele>
        <time>2022-04-10T13:54:12.112Z</time>
      </trkpt>
      <trkpt lat="42.15898" lon="21.74443">
        <ele>458.533006</ele>
        <time>2022-04-10T13:54:14.121Z</time>
      </trkpt>
      <trkpt lat="42.15892" lon="21.74427">
        <ele>457.891606</ele>
        <time>2022-04-10T13:54:16.108Z</time>
      </trkpt>
      <trkpt lat="42.15886" lon="21.74413">
        <ele>457.280774</ele>
        <time>2022-04-10T13:54:18.134Z</time>
      </trkpt>
      <trkpt lat="42.1588" lon="21.74398">
        <ele>456.671371</ele>
        <time>2022-04-10T13:54:20.104Z</time>
      </trkpt>
      <trkpt lat="42.15874" lon="21.74384">
        <ele>456.100661</ele>
        <time>2022-04-10T13:54:22.121Z</time>
      </trkpt>
      <trkpt lat="42.15869" lon="21.74371">
        <ele>455.563909</ele>
        <time>2022-04-10T13:54:24.136Z</time>
      </trkpt>
      <trkpt lat="42.15863" lon="21.74357">
        <ele>455.007792</ele>
        <time>2022-04-10T13:54:26.118Z</time>
      </trkpt>
      <trkpt lat="42.15858" lon="21.74344">
        <ele>454.462847</ele>
        <time>2022-04-10T13:54:28.116Z</time>
      </trkpt>
      <trkpt lat="42.15853" lon="21.7433">
        <ele>453.909029</ele>
        <time>2022-04-10T13:54:30.159Z</time>
      </trkpt>
      <trkpt lat="42.15846" lon="21.74315">
        <ele>453.299968</ele>
        <time>2022-04-10T13:54:32.147Z</time>
      </trkpt>
      <trkpt lat="42.15839" lon="21.743">
        <ele>452.678481</ele>
        <time>2022-04-10T13:54:34.126Z</time>
      </trkpt>
      <trkpt lat="42.15833" lon="21.74285">
        <ele>452.055369</ele>
        <time>2022-04-10T13:54:36.109Z</time>
      </trkpt>
      <trkpt lat="42.15826" lon="21.74269">
        <ele>451.389733</ele>
        <time>2022-04-10T13:54:38.118Z</time>
      </trkpt>
      <trkpt lat="42.15819" lon="21.74252">
        <ele>450.694542</ele>
        <time>2022-04-10T13:54:40.108Z</time>
      </trkpt>
      <trkpt lat="42.15813" lon="21.74234">
        <ele>450.001931</ele>
        <time>2022-04-10T13:54:42.119Z</time>
      </trkpt>
      <trkpt lat="42.15806" lon="21.74217">
        <ele>449.312143</ele>
        <time>2022-04-10T13:54:44.129Z</time>
      </trkpt>
      <trkpt lat="42.15799" lon="21.74201">
        <ele>448.64568</ele>
        <time>2022-04-10T13:54:46.125Z</time>
      </trkpt>
      <trkpt lat="42.15793" lon="21.74187">
        <ele>448.069363</ele>
        <time>2022-04-10T13:54:48.138Z</time>
      </trkpt>
      <trkpt lat="42.15789" lon="21.74175">
        <ele>447.604007</ele>
        <time>2022-04-10T13:54:51.128Z</time>
      </trkpt>
      <trkpt lat="42.15785" lon="21.74162">
        <ele>447.135278</ele>
        <time>2022-04-10T13:54:56.101Z</time>
      </trkpt>
      <trkpt lat="42.15781" lon="21.74151">
        <ele>446.724124</ele>
        <time>2022-04-10T13:54:59.115Z</time>
      </trkpt>
      <trkpt lat="42.15776" lon="21.74138">
        <ele>446.232807</ele>
        <time>2022-04-10T13:55:02.133Z</time>
      </trkpt>
      <trkpt lat="42.1577" lon="21.74125">
        <ele>445.704281</ele>
        <time>2022-04-10T13:55:05.122Z</time>
      </trkpt>
      <trkpt lat="42.15763" lon="21.74111">
        <ele>445.141762</ele>
        <time>2022-04-10T13:55:08.125Z</time>
      </trkpt>
      <trkpt lat="42.15757" lon="21.74097">
        <ele>444.614513</ele>
        <time>2022-04-10T13:55:10.132Z</time>
      </trkpt>
      <trkpt lat="42.1575" lon="21.74081">
        <ele>444.006102</ele>
        <time>2022-04-10T13:55:12.158Z</time>
      </trkpt>
      <trkpt lat="42.15744" lon="21.74065">
        <ele>443.374434</ele>
        <time>2022-04-10T13:55:14.105Z</time>
      </trkpt>
      <trkpt lat="42.15737" lon="21.74048">
        <ele>442.751339</ele>
        <time>2022-04-10T13:55:16.126Z</time>
      </trkpt>
      <trkpt lat="42.15731" lon="21.74032">
        <ele>442.124783</ele>
        <time>2022-04-10T13:55:18.109Z</time>
      </trkpt>
      <trkpt lat="42.15724" lon="21.74014">
        <ele>441.453533</ele>
        <time>2022-04-10T13:55:20.111Z</time>
      </trkpt>
      <trkpt lat="42.15716" lon="21.73996">
        <ele>440.745828</ele>
        <time>2022-04-10T13:55:22.175Z</time>
      </trkpt>
      <trkpt lat="42.15708" lon="21.73977">
        <ele>440.013252</ele>
        <time>2022-04-10T13:55:24.125Z</time>
      </trkpt>
      <trkpt lat="42.157" lon="21.73958">
        <ele>439.278694</ele>
        <time>2022-04-10T13:55:26.124Z</time>
      </trkpt>
      <trkpt lat="42.15693" lon="21.7394">
        <ele>438.542995</ele>
        <time>2022-04-10T13:55:28.132Z</time>
      </trkpt>
      <trkpt lat="42.15687" lon="21.73923">
        <ele>437.853914</ele>
        <time>2022-04-10T13:55:30.138Z</time>
      </trkpt>
      <trkpt lat="42.15681" lon="21.73906">
        <ele>437.188664</ele>
        <time>2022-04-10T13:55:32.119Z</time>
      </trkpt>
      <trkpt lat="42.15674" lon="21.7389">
        <ele>436.516844</ele>
        <time>2022-04-10T13:55:34.113Z</time>
      </trkpt>
      <trkpt lat="42.15668" lon="21.73873">
        <ele>435.846974</ele>
        <time>2022-04-10T13:55:36.129Z</time>
      </trkpt>
      <trkpt lat="42.15662" lon="21.73858">
        <ele>435.194993</ele>
        <time>2022-04-10T13:55:38.142Z</time>
      </trkpt>
      <trkpt lat="42.15656" lon="21.73843">
        <ele>434.581039</ele>
        <time>2022-04-10T13:55:40.117Z</time>
      </trkpt>
      <trkpt lat="42.1565" lon="21.73829">
        <ele>434.020758</ele>
        <time>2022-04-10T13:55:42.128Z</time>
      </trkpt>
      <trkpt lat="42.15645" lon="21.73817">
        <ele>433.505786</ele>
        <time>2022-04-10T13:55:44.156Z</time>
      </trkpt>
      <trkpt lat="42.1564" lon="21.73805">
        <ele>432.997349</ele>
        <time>2022-04-10T13:55:46.123Z</time>
      </trkpt>
      <trkpt lat="42.15635" lon="21.73793">
        <ele>432.513287</ele>
        <time>2022-04-10T13:55:48.132Z</time>
      </trkpt>
      <trkpt lat="42.15631" lon="21.73782">
        <ele>432.073359</ele>
        <time>2022-04-10T13:55:50.150Z</time>
      </trkpt>
      <trkpt lat="42.15627" lon="21.73766">
        <ele>431.459717</ele>
        <time>2022-04-10T13:55:53.114Z</time>
      </trkpt>
      <trkpt lat="42.15621" lon="21.73755">
        <ele>430.969603</ele>
        <time>2022-04-10T13:55:55.125Z</time>
      </trkpt>
      <trkpt lat="42.15616" lon="21.73742">
        <ele>430.63444</ele>
        <time>2022-04-10T13:55:57.123Z</time>
      </trkpt>
      <trkpt lat="42.15611" lon="21.73728">
        <ele>431.043622</ele>
        <time>2022-04-10T13:55:59.136Z</time>
      </trkpt>
      <trkpt lat="42.15606" lon="21.73716">
        <ele>431.437758</ele>
        <time>2022-04-10T13:56:01.139Z</time>
      </trkpt>
      <trkpt lat="42.15601" lon="21.73704">
        <ele>431.814524</ele>
        <time>2022-04-10T13:56:03.123Z</time>
      </trkpt>
      <trkpt lat="42.15596" lon="21.73688">
        <ele>432.313072</ele>
        <time>2022-04-10T13:56:06.173Z</time>
      </trkpt>
      <trkpt lat="42.1559" lon="21.73673">
        <ele>432.783327</ele>
        <time>2022-04-10T13:56:09.131Z</time>
      </trkpt>
      <trkpt lat="42.15585" lon="21.73658">
        <ele>433.23675</ele>
        <time>2022-04-10T13:56:12.162Z</time>
      </trkpt>
      <trkpt lat="42.15579" lon="21.73643">
        <ele>433.695333</ele>
        <time>2022-04-10T13:56:15.151Z</time>
      </trkpt>
      <trkpt lat="42.15574" lon="21.7363">
        <ele>434.112029</ele>
        <time>2022-04-10T13:56:18.121Z</time>
      </trkpt>
      <trkpt lat="42.15568" lon="21.73618">
        <ele>434.538824</ele>
        <time>2022-04-10T13:56:22.115Z</time>
      </trkpt>
      <trkpt lat="42.15563" lon="21.73606">
        <ele>434.911357</ele>
        <time>2022-04-10T13:56:26.143Z</time>
      </trkpt>
      <trkpt lat="42.15559" lon="21.73595">
        <ele>435.257541</ele>
        <time>2022-04-10T13:56:30.129Z</time>
      </trkpt>
      <trkpt lat="42.15554" lon="21.73584">
        <ele>435.626317</ele>
        <time>2022-04-10T13:56:35.121Z</time>
      </trkpt>
      <trkpt lat="42.1555" lon="21.73572">
        <ele>435.982036</ele>
        <time>2022-04-10T13:56:40.135Z</time>
      </trkpt>
      <trkpt lat="42.15545" lon="21.7356">
        <ele>436.370447</ele>
        <time>2022-04-10T13:56:46.144Z</time>
      </trkpt>
      <trkpt lat="42.15541" lon="21.73549">
        <ele>436.722267</ele>
        <time>2022-04-10T13:56:52.142Z</time>
      </trkpt>
      <trkpt lat="42.15536" lon="21.73538">
        <ele>437.06935</ele>
        <time>2022-04-10T13:56:59.114Z</time>
      </trkpt>
      <trkpt lat="42.15533" lon="21.73526">
        <ele>437.425389</ele>
        <time>2022-04-10T13:57:06.121Z</time>
      </trkpt>
      <trkpt lat="42.15527" lon="21.73516">
        <ele>437.865815</ele>
        <time>2022-04-10T13:57:13.123Z</time>
      </trkpt>
      <trkpt lat="42.15522" lon="21.73504">
        <ele>438.307415</ele>
        <time>2022-04-10T13:57:19.110Z</time>
      </trkpt>
      <trkpt lat="42.15516" lon="21.73492">
        <ele>438.779363</ele>
        <time>2022-04-10T13:57:25.126Z</time>
      </trkpt>
      <trkpt lat="42.1551" lon="21.7348">
        <ele>439.241532</ele>
        <time>2022-04-10T13:57:31.146Z</time>
      </trkpt>
      <trkpt lat="42.15506" lon="21.73469">
        <ele>439.638053</ele>
        <time>2022-04-10T13:57:36.111Z</time>
      </trkpt>
      <trkpt lat="42.15501" lon="21.73458">
        <ele>440.055525</ele>
        <time>2022-04-10T13:57:42.129Z</time>
      </trkpt>
      <trkpt lat="42.15495" lon="21.73446">
        <ele>440.518276</ele>
        <time>2022-04-10T13:57:48.114Z</time>
      </trkpt>
      <trkpt lat="42.15493" lon="21.73434">
        <ele>440.922</ele>
        <time>2022-04-10T13:57:54.116Z</time>
      </trkpt>
      <trkpt lat="42.15488" lon="21.73423">
        <ele>441.357941</ele>
        <time>2022-04-10T13:58:00.133Z</time>
      </trkpt>
      <trkpt lat="42.15482" lon="21.73411">
        <ele>441.809738</ele>
        <time>2022-04-10T13:58:06.148Z</time>
      </trkpt>
      <trkpt lat="42.15478" lon="21.734">
        <ele>442.209323</ele>
        <time>2022-04-10T13:58:11.118Z</time>
      </trkpt>
      <trkpt lat="42.15474" lon="21.73389">
        <ele>442.618396</ele>
        <time>2022-04-10T13:58:16.129Z</time>
      </trkpt>
      <trkpt lat="42.15469" lon="21.73377">
        <ele>443.064314</ele>
        <time>2022-04-10T13:58:21.122Z</time>
      </trkpt>
      <trkpt lat="42.15465" lon="21.73365">
        <ele>443.487637</ele>
        <time>2022-04-10T13:58:25.123Z</time>
      </trkpt>
      <trkpt lat="42.15459" lon="21.73351">
        <ele>443.98035</ele>
        <time>2022-04-10T13:58:29.137Z</time>
      </trkpt>
      <trkpt lat="42.15454" lon="21.73339">
        <ele>444.464755</ele>
        <time>2022-04-10T13:58:33.118Z</time>
      </trkpt>
      <trkpt lat="42.15448" lon="21.73329">
        <ele>444.858287</ele>
        <time>2022-04-10T13:58:36.137Z</time>
      </trkpt>
      <trkpt lat="42.15444" lon="21.73318">
        <ele>445.1321</ele>
        <time>2022-04-10T13:58:39.142Z</time>
      </trkpt>
      <trkpt lat="42.1544" lon="21.73305">
        <ele>444.8218</ele>
        <time>2022-04-10T13:58:42.122Z</time>
      </trkpt>
      <trkpt lat="42.15434" lon="21.73291">
        <ele>444.471579</ele>
        <time>2022-04-10T13:58:45.130Z</time>
      </trkpt>
      <trkpt lat="42.15428" lon="21.73277">
        <ele>444.104801</ele>
        <time>2022-04-10T13:58:48.159Z</time>
      </trkpt>
      <trkpt lat="42.15422" lon="21.73262">
        <ele>443.715799</ele>
        <time>2022-04-10T13:58:51.134Z</time>
      </trkpt>
      <trkpt lat="42.15418" lon="21.73251">
        <ele>443.434797</ele>
        <time>2022-04-10T13:58:53.120Z</time>
      </trkpt>
      <trkpt lat="42.15413" lon="21.73239">
        <ele>443.127622</ele>
        <time>2022-04-10T13:58:55.133Z</time>
      </trkpt>
      <trkpt lat="42.15407" lon="21.73226">
        <ele>442.800483</ele>
        <time>2022-04-10T13:58:57.129Z</time>
      </trkpt>
      <trkpt lat="42.15402" lon="21.73212">
        <ele>442.463131</ele>
        <time>2022-04-10T13:58:59.148Z</time>
      </trkpt>
      <trkpt lat="42.15396" lon="21.73198">
        <ele>442.105326</ele>
        <time>2022-04-10T13:59:01.119Z</time>
      </trkpt>
      <trkpt lat="42.15391" lon="21.73184">
        <ele>441.750911</ele>
        <time>2022-04-10T13:59:03.127Z</time>
      </trkpt>
      <trkpt lat="42.15385" lon="21.73171">
        <ele>441.410966</ele>
        <time>2022-04-10T13:59:05.121Z</time>
      </trkpt>
      <trkpt lat="42.1538" lon="21.73158">
        <ele>441.085781</ele>
        <time>2022-04-10T13:59:07.113Z</time>
      </trkpt>
      <trkpt lat="42.15375" lon="21.73145">
        <ele>440.749565</ele>
        <time>2022-04-10T13:59:09.122Z</time>
      </trkpt>
      <trkpt lat="42.15371" lon="21.73132">
        <ele>440.443305</ele>
        <time>2022-04-10T13:59:11.129Z</time>
      </trkpt>
      <trkpt lat="42.15366" lon="21.73119">
        <ele>440.108232</ele>
        <time>2022-04-10T13:59:13.125Z</time>
      </trkpt>
      <trkpt lat="42.15361" lon="21.73105">
        <ele>439.735024</ele>
        <time>2022-04-10T13:59:15.134Z</time>
      </trkpt>
      <trkpt lat="42.15355" lon="21.73089">
        <ele>438.842094</ele>
        <time>2022-04-10T13:59:17.123Z</time>
      </trkpt>
      <trkpt lat="42.1535" lon="21.73076">
        <ele>438.046091</ele>
        <time>2022-04-10T13:59:19.182Z</time>
      </trkpt>
      <trkpt lat="42.15345" lon="21.73062">
        <ele>437.285438</ele>
        <time>2022-04-10T13:59:21.115Z</time>
      </trkpt>
      <trkpt lat="42.1534" lon="21.73049">
        <ele>436.509546</ele>
        <time>2022-04-10T13:59:23.124Z</time>
      </trkpt>
      <trkpt lat="42.15334" lon="21.73037">
        <ele>435.788821</ele>
        <time>2022-04-10T13:59:25.119Z</time>
      </trkpt>
      <trkpt lat="42.15329" lon="21.73026">
        <ele>435.130362</ele>
        <time>2022-04-10T13:59:27.204Z</time>
      </trkpt>
      <trkpt lat="42.15324" lon="21.73014">
        <ele>434.438165</ele>
        <time>2022-04-10T13:59:29.122Z</time>
      </trkpt>
      <trkpt lat="42.15318" lon="21.73003">
        <ele>433.726378</ele>
        <time>2022-04-10T13:59:31.166Z</time>
      </trkpt>
      <trkpt lat="42.15311" lon="21.7299">
        <ele>432.878086</ele>
        <time>2022-04-10T13:59:33.136Z</time>
      </trkpt>
      <trkpt lat="42.15301" lon="21.72977">
        <ele>431.918088</ele>
        <time>2022-04-10T13:59:35.144Z</time>
      </trkpt>
      <trkpt lat="42.15291" lon="21.72966">
        <ele>430.991966</ele>
        <time>2022-04-10T13:59:37.209Z</time>
      </trkpt>
      <trkpt lat="42.15279" lon="21.72957">
        <ele>430.060317</ele>
        <time>2022-04-10T13:59:39.123Z</time>
      </trkpt>
      <trkpt lat="42.15266" lon="21.7295">
        <ele>429.089633</ele>
        <time>2022-04-10T13:59:41.125Z</time>
      </trkpt>
      <trkpt lat="42.15253" lon="21.72943">
        <ele>428.113184</ele>
        <time>2022-04-10T13:59:43.113Z</time>
      </trkpt>
      <trkpt lat="42.1524" lon="21.72935">
        <ele>427.157122</ele>
        <time>2022-04-10T13:59:45.147Z</time>
      </trkpt>
      <trkpt lat="42.15226" lon="21.72928">
        <ele>426.468896</ele>
        <time>2022-04-10T13:59:47.126Z</time>
      </trkpt>
      <trkpt lat="42.15214" lon="21.72921">
        <ele>425.820187</ele>
        <time>2022-04-10T13:59:49.123Z</time>
      </trkpt>
      <trkpt lat="42.15201" lon="21.72915">
        <ele>425.174033</ele>
        <time>2022-04-10T13:59:51.103Z</time>
      </trkpt>
      <trkpt lat="42.15189" lon="21.72908">
        <ele>424.522239</ele>
        <time>2022-04-10T13:59:53.143Z</time>
      </trkpt>
      <trkpt lat="42.15176" lon="21.72901">
        <ele>423.851333</ele>
        <time>2022-04-10T13:59:55.144Z</time>
      </trkpt>
      <trkpt lat="42.15162" lon="21.72894">
        <ele>423.17209</ele>
        <time>2022-04-10T13:59:57.127Z</time>
      </trkpt>
      <trkpt lat="42.1515" lon="21.72888">
        <ele>422.522936</ele>
        <time>2022-04-10T13:59:59.164Z</time>
      </trkpt>
      <trkpt lat="42.15137" lon="21.72882">
        <ele>421.882522</ele>
        <time>2022-04-10T14:00:01.148Z</time>
      </trkpt>
      <trkpt lat="42.15125" lon="21.72876">
        <ele>421.247425</ele>
        <time>2022-04-10T14:00:03.145Z</time>
      </trkpt>
      <trkpt lat="42.15112" lon="21.72871">
        <ele>420.610243</ele>
        <time>2022-04-10T14:00:05.165Z</time>
      </trkpt>
      <trkpt lat="42.15099" lon="21.72864">
        <ele>419.954005</ele>
        <time>2022-04-10T14:00:07.135Z</time>
      </trkpt>
      <trkpt lat="42.15087" lon="21.72857">
        <ele>419.31551</ele>
        <time>2022-04-10T14:00:09.136Z</time>
      </trkpt>
      <trkpt lat="42.15074" lon="21.7285">
        <ele>418.672586</ele>
        <time>2022-04-10T14:00:11.151Z</time>
      </trkpt>
      <trkpt lat="42.15062" lon="21.72843">
        <ele>418.223994</ele>
        <time>2022-04-10T14:00:13.127Z</time>
      </trkpt>
      <trkpt lat="42.15049" lon="21.72836">
        <ele>417.764142</ele>
        <time>2022-04-10T14:00:15.126Z</time>
      </trkpt>
      <trkpt lat="42.15037" lon="21.72828">
        <ele>417.315378</ele>
        <time>2022-04-10T14:00:17.114Z</time>
      </trkpt>
      <trkpt lat="42.15024" lon="21.72821">
        <ele>416.861491</ele>
        <time>2022-04-10T14:00:19.106Z</time>
      </trkpt>
      <trkpt lat="42.15012" lon="21.72814">
        <ele>416.4095</ele>
        <time>2022-04-10T14:00:21.122Z</time>
      </trkpt>
      <trkpt lat="42.15" lon="21.72808">
        <ele>415.984569</ele>
        <time>2022-04-10T14:00:23.157Z</time>
      </trkpt>
      <trkpt lat="42.14989" lon="21.72802">
        <ele>415.60633</ele>
        <time>2022-04-10T14:00:25.120Z</time>
      </trkpt>
      <trkpt lat="42.14979" lon="21.72796">
        <ele>415.222911</ele>
        <time>2022-04-10T14:00:27.158Z</time>
      </trkpt>
      <trkpt lat="42.14968" lon="21.7279">
        <ele>414.835489</ele>
        <time>2022-04-10T14:00:29.146Z</time>
      </trkpt>
      <trkpt lat="42.14956" lon="21.72784">
        <ele>414.426856</ele>
        <time>2022-04-10T14:00:31.120Z</time>
      </trkpt>
      <trkpt lat="42.14946" lon="21.72777">
        <ele>414.058786</ele>
        <time>2022-04-10T14:00:33.138Z</time>
      </trkpt>
      <trkpt lat="42.14936" lon="21.72772">
        <ele>413.707278</ele>
        <time>2022-04-10T14:00:35.134Z</time>
      </trkpt>
      <trkpt lat="42.14927" lon="21.72767">
        <ele>413.364138</ele>
        <time>2022-04-10T14:00:37.131Z</time>
      </trkpt>
      <trkpt lat="42.14917" lon="21.72762">
        <ele>413.003772</ele>
        <time>2022-04-10T14:00:39.137Z</time>
      </trkpt>
      <trkpt lat="42.14906" lon="21.72756">
        <ele>412.62124</ele>
        <time>2022-04-10T14:00:41.129Z</time>
      </trkpt>
      <trkpt lat="42.14896" lon="21.7275">
        <ele>412.202977</ele>
        <time>2022-04-10T14:00:43.123Z</time>
      </trkpt>
      <trkpt lat="42.14886" lon="21.72744">
        <ele>411.800719</ele>
        <time>2022-04-10T14:00:45.147Z</time>
      </trkpt>
      <trkpt lat="42.14876" lon="21.72738">
        <ele>411.408123</ele>
        <time>2022-04-10T14:00:47.145Z</time>
      </trkpt>
      <trkpt lat="42.14867" lon="21.72732">
        <ele>411.004642</ele>
        <time>2022-04-10T14:00:49.120Z</time>
      </trkpt>
      <trkpt lat="42.14857" lon="21.72725">
        <ele>410.607859</ele>
        <time>2022-04-10T14:00:51.161Z</time>
      </trkpt>
      <trkpt lat="42.14849" lon="21.72719">
        <ele>410.271914</ele>
        <time>2022-04-10T14:00:53.110Z</time>
      </trkpt>
      <trkpt lat="42.14841" lon="21.72712">
        <ele>409.911243</ele>
        <time>2022-04-10T14:00:55.135Z</time>
      </trkpt>
      <trkpt lat="42.14832" lon="21.72703">
        <ele>409.506035</ele>
        <time>2022-04-10T14:00:57.166Z</time>
      </trkpt>
      <trkpt lat="42.14822" lon="21.72694">
        <ele>409.037657</ele>
        <time>2022-04-10T14:00:59.133Z</time>
      </trkpt>
      <trkpt lat="42.14811" lon="21.72684">
        <ele>408.541537</ele>
        <time>2022-04-10T14:01:01.154Z</time>
      </trkpt>
      <trkpt lat="42.148" lon="21.72672">
        <ele>408.027638</ele>
        <time>2022-04-10T14:01:03.129Z</time>
      </trkpt>
      <trkpt lat="42.14789" lon="21.7266">
        <ele>407.512206</ele>
        <time>2022-04-10T14:01:05.119Z</time>
      </trkpt>
      <trkpt lat="42.14779" lon="21.7265">
        <ele>407.035317</ele>
        <time>2022-04-10T14:01:07.117Z</time>
      </trkpt>
      <trkpt lat="42.14771" lon="21.72641">
        <ele>406.639512</ele>
        <time>2022-04-10T14:01:09.139Z</time>
      </trkpt>
      <trkpt lat="42.14763" lon="21.72633">
        <ele>406.276066</ele>
        <time>2022-04-10T14:01:11.109Z</time>
      </trkpt>
      <trkpt lat="42.14755" lon="21.72624">
        <ele>405.854407</ele>
        <time>2022-04-10T14:01:13.114Z</time>
      </trkpt>
      <trkpt lat="42.14746" lon="21.72615">
        <ele>405.348458</ele>
        <time>2022-04-10T14:01:15.129Z</time>
      </trkpt>
      <trkpt lat="42.14736" lon="21.72604">
        <ele>404.74652</ele>
        <time>2022-04-10T14:01:17.127Z</time>
      </trkpt>
      <trkpt lat="42.14726" lon="21.72593">
        <ele>404.150885</ele>
        <time>2022-04-10T14:01:19.170Z</time>
      </trkpt>
      <trkpt lat="42.14716" lon="21.72583">
        <ele>403.555463</ele>
        <time>2022-04-10T14:01:21.134Z</time>
      </trkpt>
      <trkpt lat="42.14706" lon="21.72572">
        <ele>402.970655</ele>
        <time>2022-04-10T14:01:23.126Z</time>
      </trkpt>
      <trkpt lat="42.14697" lon="21.72563">
        <ele>402.43948</ele>
        <time>2022-04-10T14:01:25.127Z</time>
      </trkpt>
      <trkpt lat="42.14688" lon="21.72554">
        <ele>401.912961</ele>
        <time>2022-04-10T14:01:27.105Z</time>
      </trkpt>
      <trkpt lat="42.14679" lon="21.72545">
        <ele>401.380963</ele>
        <time>2022-04-10T14:01:29.122Z</time>
      </trkpt>
      <trkpt lat="42.1467" lon="21.72536">
        <ele>400.862274</ele>
        <time>2022-04-10T14:01:31.115Z</time>
      </trkpt>
      <trkpt lat="42.14661" lon="21.72527">
        <ele>400.379491</ele>
        <time>2022-04-10T14:01:33.134Z</time>
      </trkpt>
      <trkpt lat="42.14652" lon="21.72518">
        <ele>399.82256</ele>
        <time>2022-04-10T14:01:36.138Z</time>
      </trkpt>
      <trkpt lat="42.14644" lon="21.7251">
        <ele>399.365766</ele>
        <time>2022-04-10T14:01:38.134Z</time>
      </trkpt>
      <trkpt lat="42.14634" lon="21.72501">
        <ele>398.808608</ele>
        <time>2022-04-10T14:01:40.118Z</time>
      </trkpt>
      <trkpt lat="42.14624" lon="21.72491">
        <ele>398.2439</ele>
        <time>2022-04-10T14:01:42.109Z</time>
      </trkpt>
      <trkpt lat="42.14615" lon="21.72482">
        <ele>397.695889</ele>
        <time>2022-04-10T14:01:44.159Z</time>
      </trkpt>
      <trkpt lat="42.14605" lon="21.72472">
        <ele>397.263433</ele>
        <time>2022-04-10T14:01:46.136Z</time>
      </trkpt>
      <trkpt lat="42.14595" lon="21.72462">
        <ele>396.8425</ele>
        <time>2022-04-10T14:01:48.113Z</time>
      </trkpt>
      <trkpt lat="42.14586" lon="21.72452">
        <ele>396.444187</ele>
        <time>2022-04-10T14:01:50.126Z</time>
      </trkpt>
      <trkpt lat="42.14577" lon="21.72443">
        <ele>396.053845</ele>
        <time>2022-04-10T14:01:52.146Z</time>
      </trkpt>
      <trkpt lat="42.14568" lon="21.72434">
        <ele>395.668793</ele>
        <time>2022-04-10T14:01:54.146Z</time>
      </trkpt>
      <trkpt lat="42.1456" lon="21.72426">
        <ele>395.334311</ele>
        <time>2022-04-10T14:01:56.138Z</time>
      </trkpt>
      <trkpt lat="42.14553" lon="21.72419">
        <ele>395.01685</ele>
        <time>2022-04-10T14:01:58.126Z</time>
      </trkpt>
      <trkpt lat="42.14545" lon="21.72412">
        <ele>394.688075</ele>
        <time>2022-04-10T14:02:00.114Z</time>
      </trkpt>
      <trkpt lat="42.14536" lon="21.72405">
        <ele>394.350307</ele>
        <time>2022-04-10T14:02:02.125Z</time>
      </trkpt>
      <trkpt lat="42.14528" lon="21.72399">
        <ele>394.012539</ele>
        <time>2022-04-10T14:02:04.133Z</time>
      </trkpt>
      <trkpt lat="42.14519" lon="21.72393">
        <ele>393.676807</ele>
        <time>2022-04-10T14:02:06.174Z</time>
      </trkpt>
      <trkpt lat="42.14509" lon="21.72386">
        <ele>393.280303</ele>
        <time>2022-04-10T14:02:08.126Z</time>
      </trkpt>
      <trkpt lat="42.14498" lon="21.72378">
        <ele>392.865777</ele>
        <time>2022-04-10T14:02:10.129Z</time>
      </trkpt>
      <trkpt lat="42.14487" lon="21.7237">
        <ele>392.43187</ele>
        <time>2022-04-10T14:02:12.113Z</time>
      </trkpt>
      <trkpt lat="42.14475" lon="21.72362">
        <ele>391.969226</ele>
        <time>2022-04-10T14:02:14.137Z</time>
      </trkpt>
      <trkpt lat="42.14463" lon="21.72354">
        <ele>391.512158</ele>
        <time>2022-04-10T14:02:16.141Z</time>
      </trkpt>
      <trkpt lat="42.14452" lon="21.72347">
        <ele>390.560559</ele>
        <time>2022-04-10T14:02:18.128Z</time>
      </trkpt>
      <trkpt lat="42.1444" lon="21.72339">
        <ele>389.490246</ele>
        <time>2022-04-10T14:02:20.109Z</time>
      </trkpt>
      <trkpt lat="42.14428" lon="21.72331">
        <ele>388.395387</ele>
        <time>2022-04-10T14:02:22.130Z</time>
      </trkpt>
      <trkpt lat="42.14415" lon="21.72323">
        <ele>387.245675</ele>
        <time>2022-04-10T14:02:24.133Z</time>
      </trkpt>
      <trkpt lat="42.14402" lon="21.72314">
        <ele>386.059509</ele>
        <time>2022-04-10T14:02:26.129Z</time>
      </trkpt>
      <trkpt lat="42.14389" lon="21.72304">
        <ele>384.877625</ele>
        <time>2022-04-10T14:02:28.177Z</time>
      </trkpt>
      <trkpt lat="42.14377" lon="21.72294">
        <ele>383.712976</ele>
        <time>2022-04-10T14:02:30.117Z</time>
      </trkpt>
      <trkpt lat="42.14364" lon="21.72284">
        <ele>382.522458</ele>
        <time>2022-04-10T14:02:32.135Z</time>
      </trkpt>
      <trkpt lat="42.14353" lon="21.72272">
        <ele>381.347029</ele>
        <time>2022-04-10T14:02:34.137Z</time>
      </trkpt>
      <trkpt lat="42.14342" lon="21.7226">
        <ele>380.221078</ele>
        <time>2022-04-10T14:02:36.125Z</time>
      </trkpt>
      <trkpt lat="42.14332" lon="21.7225">
        <ele>379.193369</ele>
        <time>2022-04-10T14:02:38.104Z</time>
      </trkpt>
      <trkpt lat="42.14324" lon="21.7224">
        <ele>378.340807</ele>
        <time>2022-04-10T14:02:40.126Z</time>
      </trkpt>
      <trkpt lat="42.14314" lon="21.72228">
        <ele>377.279369</ele>
        <time>2022-04-10T14:02:43.141Z</time>
      </trkpt>
      <trkpt lat="42.14307" lon="21.72218">
        <ele>376.693556</ele>
        <time>2022-04-10T14:02:46.138Z</time>
      </trkpt>
      <trkpt lat="42.143" lon="21.72208">
        <ele>376.381792</ele>
        <time>2022-04-10T14:02:50.104Z</time>
      </trkpt>
      <trkpt lat="42.14293" lon="21.72198">
        <ele>376.050957</ele>
        <time>2022-04-10T14:02:53.126Z</time>
      </trkpt>
      <trkpt lat="42.14284" lon="21.72188">
        <ele>375.679281</ele>
        <time>2022-04-10T14:02:56.119Z</time>
      </trkpt>
      <trkpt lat="42.14275" lon="21.72177">
        <ele>375.291247</ele>
        <time>2022-04-10T14:02:59.129Z</time>
      </trkpt>
      <trkpt lat="42.14266" lon="21.72166">
        <ele>374.913345</ele>
        <time>2022-04-10T14:03:02.134Z</time>
      </trkpt>
      <trkpt lat="42.14257" lon="21.72155">
        <ele>374.536777</ele>
        <time>2022-04-10T14:03:05.139Z</time>
      </trkpt>
      <trkpt lat="42.14247" lon="21.72144">
        <ele>374.146378</ele>
        <time>2022-04-10T14:03:08.123Z</time>
      </trkpt>
      <trkpt lat="42.14238" lon="21.72132">
        <ele>373.727345</ele>
        <time>2022-04-10T14:03:11.125Z</time>
      </trkpt>
      <trkpt lat="42.14228" lon="21.72119">
        <ele>373.309688</ele>
        <time>2022-04-10T14:03:14.157Z</time>
      </trkpt>
      <trkpt lat="42.14218" lon="21.72108">
        <ele>372.89912</ele>
        <time>2022-04-10T14:03:17.201Z</time>
      </trkpt>
      <trkpt lat="42.14208" lon="21.72095">
        <ele>372.480008</ele>
        <time>2022-04-10T14:03:20.139Z</time>
      </trkpt>
      <trkpt lat="42.14199" lon="21.72084">
        <ele>372.070228</ele>
        <time>2022-04-10T14:03:23.127Z</time>
      </trkpt>
      <trkpt lat="42.14189" lon="21.72073">
        <ele>371.673226</ele>
        <time>2022-04-10T14:03:26.117Z</time>
      </trkpt>
      <trkpt lat="42.14179" lon="21.72063">
        <ele>371.284903</ele>
        <time>2022-04-10T14:03:29.137Z</time>
      </trkpt>
      <trkpt lat="42.14169" lon="21.72056">
        <ele>371.472381</ele>
        <time>2022-04-10T14:03:32.116Z</time>
      </trkpt>
      <trkpt lat="42.14159" lon="21.7205">
        <ele>371.756544</ele>
        <time>2022-04-10T14:03:35.190Z</time>
      </trkpt>
      <trkpt lat="42.14149" lon="21.72045">
        <ele>372.045611</ele>
        <time>2022-04-10T14:03:38.115Z</time>
      </trkpt>
      <trkpt lat="42.14139" lon="21.72039">
        <ele>372.337628</ele>
        <time>2022-04-10T14:03:41.129Z</time>
      </trkpt>
      <trkpt lat="42.14128" lon="21.72033">
        <ele>372.641652</ele>
        <time>2022-04-10T14:03:44.138Z</time>
      </trkpt>
      <trkpt lat="42.14117" lon="21.72027">
        <ele>372.94482</ele>
        <time>2022-04-10T14:03:47.118Z</time>
      </trkpt>
      <trkpt lat="42.14106" lon="21.7202">
        <ele>373.266473</ele>
        <time>2022-04-10T14:03:50.138Z</time>
      </trkpt>
      <trkpt lat="42.14097" lon="21.72014">
        <ele>373.540819</ele>
        <time>2022-04-10T14:03:53.121Z</time>
      </trkpt>
      <trkpt lat="42.14088" lon="21.72007">
        <ele>373.817873</ele>
        <time>2022-04-10T14:03:57.140Z</time>
      </trkpt>
      <trkpt lat="42.14077" lon="21.72001">
        <ele>374.127517</ele>
        <time>2022-04-10T14:04:01.114Z</time>
      </trkpt>
      <trkpt lat="42.14068" lon="21.71994">
        <ele>374.392677</ele>
        <time>2022-04-10T14:04:04.125Z</time>
      </trkpt>
      <trkpt lat="42.14059" lon="21.71988">
        <ele>374.668108</ele>
        <time>2022-04-10T14:04:07.124Z</time>
      </trkpt>
      <trkpt lat="42.14049" lon="21.71982">
        <ele>374.949627</ele>
        <time>2022-04-10T14:04:10.124Z</time>
      </trkpt>
      <trkpt lat="42.1404" lon="21.71976">
        <ele>375.227195</ele>
        <time>2022-04-10T14:04:13.227Z</time>
      </trkpt>
      <trkpt lat="42.14029" lon="21.7197">
        <ele>375.518459</ele>
        <time>2022-04-10T14:04:17.129Z</time>
      </trkpt>
      <trkpt lat="42.1402" lon="21.71963">
        <ele>375.809607</ele>
        <time>2022-04-10T14:04:22.114Z</time>
      </trkpt>
      <trkpt lat="42.14009" lon="21.71963">
        <ele>375.96711</ele>
        <time>2022-04-10T14:04:29.133Z</time>
      </trkpt>
      <trkpt lat="42.14009" lon="21.71976">
        <ele>375.96711</ele>
        <time>2022-04-10T14:04:36.135Z</time>
      </trkpt>
      <trkpt lat="42.14013" lon="21.71988">
        <ele>375.96711</ele>
        <time>2022-04-10T14:04:42.119Z</time>
      </trkpt>
      <trkpt lat="42.14016" lon="21.72">
        <ele>375.96711</ele>
        <time>2022-04-10T14:04:47.115Z</time>
      </trkpt>
      <trkpt lat="42.14013" lon="21.72012">
        <ele>375.96711</ele>
        <time>2022-04-10T14:04:54.122Z</time>
      </trkpt>
      <trkpt lat="42.14002" lon="21.72016">
        <ele>375.96711</ele>
        <time>2022-04-10T14:04:58.173Z</time>
      </trkpt>
      <trkpt lat="42.13994" lon="21.72019">
        <ele>375.96711</ele>
        <time>2022-04-10T14:05:02.113Z</time>
      </trkpt>
      <trkpt lat="42.13982" lon="21.72022">
        <ele>375.96711</ele>
        <time>2022-04-10T14:05:10.104Z</time>
      </trkpt>
      <trkpt lat="42.13977" lon="21.72033">
        <ele>375.96711</ele>
        <time>2022-04-10T14:05:17.108Z</time>
      </trkpt>
      <trkpt lat="42.13976" lon="21.72046">
        <ele>375.96711</ele>
        <time>2022-04-10T14:05:25.137Z</time>
      </trkpt>
      <trkpt lat="42.13973" lon="21.72059">
        <ele>375.96711</ele>
        <time>2022-04-10T14:05:33.153Z</time>
      </trkpt>
      <trkpt lat="42.13977" lon="21.72073">
        <ele>375.96711</ele>
        <time>2022-04-10T14:05:37.119Z</time>
      </trkpt>
      <trkpt lat="42.1398" lon="21.72084">
        <ele>375.96711</ele>
        <time>2022-04-10T14:05:45.132Z</time>
      </trkpt>
      <trkpt lat="42.13977" lon="21.72096">
        <ele>375.96711</ele>
        <time>2022-04-10T14:05:51.108Z</time>
      </trkpt>
      <trkpt lat="42.13977" lon="21.72109">
        <ele>375.96711</ele>
        <time>2022-04-10T14:05:57.110Z</time>
      </trkpt>
      <trkpt lat="42.13979" lon="21.72102">
        <ele>375.96711</ele>
        <time>2022-04-10T14:14:41.397Z</time>
      </trkpt>
    </trkseg>
  </trk>
</gpx>